<?xml version='1.0' encoding='UTF-8'?><gpx version="1.1" creator="JPX - https://github.com/jenetics/jpx" xmlns="http://www.topografix.com/GPX/1/1"><trk><trkseg><trkpt lat="43.9880044437187" lon="12.354995471180642"><ele>115.00000000000001</ele><time>2026-04-06T14:40:09Z</time></trkpt><trkpt lat="43.98808255566234" lon="12.355038333369563"><ele>115.0</ele><time>2026-04-06T14:40:11Z</time></trkpt><trkpt lat="43.98814490982834" lon="12.355121158486298"><ele>115.0</ele><time>2026-04-06T14:40:13Z</time></trkpt><trkpt lat="43.988253408132984" lon="12.355109583252988"><ele>115.0</ele><time>2026-04-06T14:40:15Z</time></trkpt><trkpt lat="43.988314907953814" lon="12.355081588175008"><ele>115.00000000000001</ele><time>2026-04-06T14:40:16Z</time></trkpt><trkpt lat="43.98837622017874" lon="12.355055808273162"><ele>115.0</ele><time>2026-04-06T14:40:17Z</time></trkpt><trkpt lat="43.9884876269755" lon="12.35505347454687"><ele>115.0</ele><time>2026-04-06T14:40:19Z</time></trkpt><trkpt lat="43.98855935061765" lon="12.355041545645719"><ele>115.0</ele><time>2026-04-06T14:40:22Z</time></trkpt><trkpt lat="43.988531460964325" lon="12.355192197228762"><ele>115.0</ele><time>2026-04-06T14:40:25Z</time></trkpt><trkpt lat="43.98847387782734" lon="12.355294292417934"><ele>115.0</ele><time>2026-04-06T14:40:26Z</time></trkpt><trkpt lat="43.98839767122022" lon="12.35539429290063"><ele>115.0</ele><time>2026-04-06T14:40:27Z</time></trkpt><trkpt lat="43.98830947145731" lon="12.355517186288381"><ele>114.33333333333334</ele><time>2026-04-06T14:40:28Z</time></trkpt><trkpt lat="43.98820474934365" lon="12.355672248775877"><ele>113.66666666666666</ele><time>2026-04-06T14:40:29Z</time></trkpt><trkpt lat="43.988084000028095" lon="12.355857163171027"><ele>113.0</ele><time>2026-04-06T14:40:30Z</time></trkpt><trkpt lat="43.987978325074224" lon="12.3560181540695"><ele>113.0</ele><time>2026-04-06T14:40:31Z</time></trkpt><trkpt lat="43.9878558337291" lon="12.356230871217257"><ele>113.0</ele><time>2026-04-06T14:40:32Z</time></trkpt><trkpt lat="43.987706392214676" lon="12.356476573937165"><ele>113.0</ele><time>2026-04-06T14:40:33Z</time></trkpt><trkpt lat="43.98752630952254" lon="12.35676233251674"><ele>110.0</ele><time>2026-04-06T14:40:34Z</time></trkpt><trkpt lat="43.98736626646941" lon="12.357084685860366"><ele>107.0</ele><time>2026-04-06T14:40:35Z</time></trkpt><trkpt lat="43.98722115334444" lon="12.357449408989135"><ele>106.5</ele><time>2026-04-06T14:40:36Z</time></trkpt><trkpt lat="43.98710153225034" lon="12.357819819544394"><ele>106.0</ele><time>2026-04-06T14:40:37Z</time></trkpt><trkpt lat="43.98702796222418" lon="12.358154979373445"><ele>106.0</ele><time>2026-04-06T14:40:38Z</time></trkpt><trkpt lat="43.98695657275554" lon="12.358481104076688"><ele>106.0</ele><time>2026-04-06T14:40:39Z</time></trkpt><trkpt lat="43.98687247843109" lon="12.358857781654596"><ele>106.5</ele><time>2026-04-06T14:40:40Z</time></trkpt><trkpt lat="43.98680545863576" lon="12.359286526692063"><ele>107.0</ele><time>2026-04-06T14:40:41Z</time></trkpt><trkpt lat="43.98673382644111" lon="12.359732519068864"><ele>107.5</ele><time>2026-04-06T14:40:42Z</time></trkpt><trkpt lat="43.986667335129475" lon="12.360103174494663"><ele>108.0</ele><time>2026-04-06T14:40:43Z</time></trkpt><trkpt lat="43.986602809669215" lon="12.360403662888142"><ele>107.66666666666666</ele><time>2026-04-06T14:40:44Z</time></trkpt><trkpt lat="43.9865247876095" lon="12.36067868936525"><ele>107.33333333333333</ele><time>2026-04-06T14:40:45Z</time></trkpt><trkpt lat="43.98641635933009" lon="12.360904889496831"><ele>107.0</ele><time>2026-04-06T14:40:46Z</time></trkpt><trkpt lat="43.98633127429234" lon="12.361141941485704"><ele>107.0</ele><time>2026-04-06T14:40:47Z</time></trkpt><trkpt lat="43.9862345569888" lon="12.361334314076421"><ele>107.0</ele><time>2026-04-06T14:40:48Z</time></trkpt><trkpt lat="43.98614908133522" lon="12.361520274995877"><ele>107.0</ele><time>2026-04-06T14:40:49Z</time></trkpt><trkpt lat="43.986082589944886" lon="12.361717175651592"><ele>106.0</ele><time>2026-04-06T14:40:50Z</time></trkpt><trkpt lat="43.98603740730355" lon="12.361926270710567"><ele>105.0</ele><time>2026-04-06T14:40:51Z</time></trkpt><trkpt lat="43.986031059584384" lon="12.362116086871868"><ele>104.0</ele><time>2026-04-06T14:40:52Z</time></trkpt><trkpt lat="43.986027192728" lon="12.362288111642679"><ele>103.0</ele><time>2026-04-06T14:40:53Z</time></trkpt><trkpt lat="43.98602398982564" lon="12.362472321883514"><ele>103.0</ele><time>2026-04-06T14:40:54Z</time></trkpt><trkpt lat="43.98605787804478" lon="12.362659151745405"><ele>103.0</ele><time>2026-04-06T14:40:55Z</time></trkpt><trkpt lat="43.9861132060094" lon="12.362851940918443"><ele>103.0</ele><time>2026-04-06T14:40:56Z</time></trkpt><trkpt lat="43.98618654836059" lon="12.363054763090462"><ele>103.0</ele><time>2026-04-06T14:40:56.998Z</time></trkpt><trkpt lat="43.98626452107051" lon="12.363250186267136"><ele>103.0</ele><time>2026-04-06T14:40:57.998Z</time></trkpt><trkpt lat="43.98633096832197" lon="12.363414426220972"><ele>103.0</ele><time>2026-04-06T14:40:58.998Z</time></trkpt><trkpt lat="43.986389838908664" lon="12.363562060563767"><ele>103.0</ele><time>2026-04-06T14:40:59.998Z</time></trkpt><trkpt lat="43.98644425259479" lon="12.36370144221701"><ele>103.0</ele><time>2026-04-06T14:41:00.998Z</time></trkpt><trkpt lat="43.98649786167488" lon="12.363846048876724"><ele>103.0</ele><time>2026-04-06T14:41:01.998Z</time></trkpt><trkpt lat="43.986553287508826" lon="12.363995218248789"><ele>103.0</ele><time>2026-04-06T14:41:02.998Z</time></trkpt><trkpt lat="43.9866108018849" lon="12.36414908578956"><ele>103.0</ele><time>2026-04-06T14:41:03.998Z</time></trkpt><trkpt lat="43.98667421454678" lon="12.364309043575462"><ele>102.5</ele><time>2026-04-06T14:41:04.998Z</time></trkpt><trkpt lat="43.9867360859999" lon="12.364471077883936"><ele>102.0</ele><time>2026-04-06T14:41:05.998Z</time></trkpt><trkpt lat="43.98680764759347" lon="12.364636921033522"><ele>101.5</ele><time>2026-04-06T14:41:06.999Z</time></trkpt><trkpt lat="43.98688299336193" lon="12.364813076140347"><ele>101.0</ele><time>2026-04-06T14:41:07.999Z</time></trkpt><trkpt lat="43.986963617732606" lon="12.364995015468564"><ele>100.66666666666666</ele><time>2026-04-06T14:41:08.999Z</time></trkpt><trkpt lat="43.98705395844058" lon="12.365173891738973"><ele>100.33333333333334</ele><time>2026-04-06T14:41:09.999Z</time></trkpt><trkpt lat="43.987154801135" lon="12.365356915020076"><ele>100.0</ele><time>2026-04-06T14:41:10.999Z</time></trkpt><trkpt lat="43.98726325480741" lon="12.365538054844485"><ele>100.0</ele><time>2026-04-06T14:41:11.999Z</time></trkpt><trkpt lat="43.98737764460579" lon="12.365727212248224"><ele>100.0</ele><time>2026-04-06T14:41:12.999Z</time></trkpt><trkpt lat="43.98749451905713" lon="12.365920350350443"><ele>100.0</ele><time>2026-04-06T14:41:13.999Z</time></trkpt><trkpt lat="43.98761181338377" lon="12.366119111813564"><ele>100.0</ele><time>2026-04-06T14:41:14.999Z</time></trkpt><trkpt lat="43.98773671314518" lon="12.366321848258115"><ele>100.0</ele><time>2026-04-06T14:41:15.999Z</time></trkpt><trkpt lat="43.987865329430754" lon="12.36652916607525"><ele>100.0</ele><time>2026-04-06T14:41:16.999Z</time></trkpt><trkpt lat="43.987994836546214" lon="12.366739818902055"><ele>99.66666666666667</ele><time>2026-04-06T14:41:17.999Z</time></trkpt><trkpt lat="43.98812258539291" lon="12.366949123459486"><ele>99.33333333333334</ele><time>2026-04-06T14:41:18.999Z</time></trkpt><trkpt lat="43.98824998078568" lon="12.367156895313462"><ele>99.0</ele><time>2026-04-06T14:41:19.999Z</time></trkpt><trkpt lat="43.988376420452404" lon="12.367367303845175"><ele>99.0</ele><time>2026-04-06T14:41:20.999Z</time></trkpt><trkpt lat="43.98850700452096" lon="12.367569482894824"><ele>99.0</ele><time>2026-04-06T14:41:21.999Z</time></trkpt><trkpt lat="43.98863414523639" lon="12.36776150397863"><ele>99.0</ele><time>2026-04-06T14:41:22.999Z</time></trkpt><trkpt lat="43.98875270257918" lon="12.367935028072951"><ele>99.33333333333334</ele><time>2026-04-06T14:41:23.999Z</time></trkpt><trkpt lat="43.98885665445298" lon="12.368108673824269"><ele>99.66666666666667</ele><time>2026-04-06T14:41:24.999Z</time></trkpt><trkpt lat="43.98894952115201" lon="12.368277220837923"><ele>100.0</ele><time>2026-04-06T14:41:25.999Z</time></trkpt><trkpt lat="43.98904447902218" lon="12.368450565756344"><ele>101.0</ele><time>2026-04-06T14:41:26.999Z</time></trkpt><trkpt lat="43.989202474726866" lon="12.36860559217641"><ele>102.0</ele><time>2026-04-06T14:41:27.999Z</time></trkpt><trkpt lat="43.98929872614088" lon="12.36878451764094"><ele>103.0</ele><time>2026-04-06T14:41:28.999Z</time></trkpt><trkpt lat="43.98940863323282" lon="12.368952794255897"><ele>103.0</ele><time>2026-04-06T14:41:29.999Z</time></trkpt><trkpt lat="43.98948224848257" lon="12.36905117395218"><ele>103.0</ele><time>2026-04-06T14:41:30.999Z</time></trkpt><trkpt lat="43.98956654075396" lon="12.369188908077735"><ele>103.0</ele><time>2026-04-06T14:41:31.999Z</time></trkpt><trkpt lat="43.98964945114537" lon="12.369323315493727"><ele>103.0</ele><time>2026-04-06T14:41:32.999Z</time></trkpt><trkpt lat="43.98973349856629" lon="12.369454153980966"><ele>103.0</ele><time>2026-04-06T14:41:33.999Z</time></trkpt><trkpt lat="43.989825690589605" lon="12.369586421674232"><ele>103.0</ele><time>2026-04-06T14:41:34.999Z</time></trkpt><trkpt lat="43.989916025548425" lon="12.369723488608832"><ele>103.0</ele><time>2026-04-06T14:41:35.999Z</time></trkpt><trkpt lat="43.99000038505123" lon="12.369852113072996"><ele>103.0</ele><time>2026-04-06T14:41:36.999Z</time></trkpt><trkpt lat="43.990083659648185" lon="12.369958373347977"><ele>103.5</ele><time>2026-04-06T14:41:37.999Z</time></trkpt><trkpt lat="43.99018608971317" lon="12.370040909906686"><ele>104.0</ele><time>2026-04-06T14:41:38.999Z</time></trkpt><trkpt lat="43.99030191848999" lon="12.370085922164385"><ele>104.5</ele><time>2026-04-06T14:41:39.999Z</time></trkpt><trkpt lat="43.990436464687534" lon="12.370087448300161"><ele>105.0</ele><time>2026-04-06T14:41:40.999Z</time></trkpt><trkpt lat="43.99059158907702" lon="12.37006903916057"><ele>105.0</ele><time>2026-04-06T14:41:41.999Z</time></trkpt><trkpt lat="43.990740755896915" lon="12.370045651354273"><ele>105.0</ele><time>2026-04-06T14:41:42.999Z</time></trkpt><trkpt lat="43.99086294828355" lon="12.370026075269033"><ele>105.0</ele><time>2026-04-06T14:41:43.999Z</time></trkpt><trkpt lat="43.99096977613371" lon="12.370010489360796"><ele>105.0</ele><time>2026-04-06T14:41:44.999Z</time></trkpt><trkpt lat="43.991074116990376" lon="12.369999075488119"><ele>105.0</ele><time>2026-04-06T14:41:45.999Z</time></trkpt><trkpt lat="43.99117480309899" lon="12.369983914027616"><ele>105.0</ele><time>2026-04-06T14:41:46.999Z</time></trkpt><trkpt lat="43.99127618335829" lon="12.369976618335606"><ele>105.0</ele><time>2026-04-06T14:41:48Z</time></trkpt><trkpt lat="43.991376557416515" lon="12.369957031712909"><ele>105.0</ele><time>2026-04-06T14:41:49Z</time></trkpt><trkpt lat="43.991460461134146" lon="12.36997383721175"><ele>105.0</ele><time>2026-04-06T14:41:50Z</time></trkpt><trkpt lat="43.991536476845894" lon="12.369981339054593"><ele>105.0</ele><time>2026-04-06T14:41:51Z</time></trkpt><trkpt lat="43.99163350659565" lon="12.369993547568885"><ele>105.0</ele><time>2026-04-06T14:41:53Z</time></trkpt><trkpt lat="43.991704141958536" lon="12.370004691610825"><ele>105.0</ele><time>2026-04-06T14:42:02Z</time></trkpt><trkpt lat="43.991836465054156" lon="12.37003150463887"><ele>105.0</ele><time>2026-04-06T14:42:04Z</time></trkpt><trkpt lat="43.991930935364614" lon="12.370042836280822"><ele>105.0</ele><time>2026-04-06T14:42:05Z</time></trkpt><trkpt lat="43.992060085100235" lon="12.370065863811234"><ele>104.66666666666666</ele><time>2026-04-06T14:42:06Z</time></trkpt><trkpt lat="43.99224613141477" lon="12.370075322592164"><ele>104.33333333333333</ele><time>2026-04-06T14:42:07Z</time></trkpt><trkpt lat="43.99241578700134" lon="12.370111600165094"><ele>104.0</ele><time>2026-04-06T14:42:08Z</time></trkpt><trkpt lat="43.99257110535286" lon="12.370132447398076"><ele>103.33333333333333</ele><time>2026-04-06T14:42:09Z</time></trkpt><trkpt lat="43.99275537666237" lon="12.370145663819372"><ele>102.66666666666666</ele><time>2026-04-06T14:42:10Z</time></trkpt><trkpt lat="43.99293473543936" lon="12.370191084957183"><ele>102.0</ele><time>2026-04-06T14:42:11Z</time></trkpt><trkpt lat="43.993108320965014" lon="12.370255571436196"><ele>102.0</ele><time>2026-04-06T14:42:12Z</time></trkpt><trkpt lat="43.99325242189841" lon="12.37038252935372"><ele>102.0</ele><time>2026-04-06T14:42:13Z</time></trkpt><trkpt lat="43.99343165575388" lon="12.370523823113125"><ele>102.0</ele><time>2026-04-06T14:42:14Z</time></trkpt><trkpt lat="43.99359693387862" lon="12.370710449558523"><ele>101.0</ele><time>2026-04-06T14:42:15Z</time></trkpt><trkpt lat="43.99382619142609" lon="12.370929719033457"><ele>100.0</ele><time>2026-04-06T14:42:16Z</time></trkpt><trkpt lat="43.994015939044935" lon="12.371099554476125"><ele>99.5</ele><time>2026-04-06T14:42:17Z</time></trkpt><trkpt lat="43.994211520066735" lon="12.371236193168873"><ele>99.0</ele><time>2026-04-06T14:42:18Z</time></trkpt><trkpt lat="43.99443889684286" lon="12.37138392431845"><ele>101.0</ele><time>2026-04-06T14:42:19Z</time></trkpt><trkpt lat="43.99467207749738" lon="12.37149934357291"><ele>103.0</ele><time>2026-04-06T14:42:20Z</time></trkpt><trkpt lat="43.99490374193727" lon="12.371601801160859"><ele>102.0</ele><time>2026-04-06T14:42:21Z</time></trkpt><trkpt lat="43.99512572106321" lon="12.371715369073"><ele>101.0</ele><time>2026-04-06T14:42:22Z</time></trkpt><trkpt lat="43.99536315647998" lon="12.371778066631164"><ele>101.0</ele><time>2026-04-06T14:42:23Z</time></trkpt><trkpt lat="43.995614309852805" lon="12.371846082259733"><ele>101.0</ele><time>2026-04-06T14:42:24Z</time></trkpt><trkpt lat="43.99587475305065" lon="12.371902471321803"><ele>99.5</ele><time>2026-04-06T14:42:25Z</time></trkpt><trkpt lat="43.9961202584988" lon="12.371953615779086"><ele>98.0</ele><time>2026-04-06T14:42:26Z</time></trkpt><trkpt lat="43.99635351359384" lon="12.372005523612744"><ele>98.0</ele><time>2026-04-06T14:42:27Z</time></trkpt><trkpt lat="43.996581553821784" lon="12.372040503686168"><ele>98.0</ele><time>2026-04-06T14:42:28Z</time></trkpt><trkpt lat="43.9967941816445" lon="12.372079372939087"><ele>98.0</ele><time>2026-04-06T14:42:29Z</time></trkpt><trkpt lat="43.99701018781464" lon="12.37215164275849"><ele>98.0</ele><time>2026-04-06T14:42:30Z</time></trkpt><trkpt lat="43.99724363862267" lon="12.372262011960057"><ele>98.0</ele><time>2026-04-06T14:42:31Z</time></trkpt><trkpt lat="43.99747670577138" lon="12.372369524075934"><ele>96.33333333333333</ele><time>2026-04-06T14:42:32Z</time></trkpt><trkpt lat="43.997675639672515" lon="12.372458318695104"><ele>94.66666666666666</ele><time>2026-04-06T14:42:33Z</time></trkpt><trkpt lat="43.99786303843559" lon="12.372534123348478"><ele>93.0</ele><time>2026-04-06T14:42:34Z</time></trkpt><trkpt lat="43.998038845936485" lon="12.372598172300213"><ele>93.0</ele><time>2026-04-06T14:42:35Z</time></trkpt><trkpt lat="43.998209344015415" lon="12.372690827671853"><ele>93.0</ele><time>2026-04-06T14:42:36Z</time></trkpt><trkpt lat="43.99838405050834" lon="12.372764665627777"><ele>93.0</ele><time>2026-04-06T14:42:37Z</time></trkpt><trkpt lat="43.998573881098984" lon="12.372833816455913"><ele>92.66666666666667</ele><time>2026-04-06T14:42:38Z</time></trkpt><trkpt lat="43.998743485812334" lon="12.37290669836936"><ele>92.33333333333334</ele><time>2026-04-06T14:42:39Z</time></trkpt><trkpt lat="43.99891402428475" lon="12.372983568040246"><ele>92.0</ele><time>2026-04-06T14:42:40Z</time></trkpt><trkpt lat="43.99906725830582" lon="12.373083208427152"><ele>92.0</ele><time>2026-04-06T14:42:41Z</time></trkpt><trkpt lat="43.999235262662886" lon="12.373226417327915"><ele>92.0</ele><time>2026-04-06T14:42:42Z</time></trkpt><trkpt lat="43.99939366274954" lon="12.373408452158982"><ele>92.0</ele><time>2026-04-06T14:42:43Z</time></trkpt><trkpt lat="43.99955962696603" lon="12.37361903358144"><ele>92.0</ele><time>2026-04-06T14:42:44Z</time></trkpt><trkpt lat="43.99973001937576" lon="12.37383501556308"><ele>92.0</ele><time>2026-04-06T14:42:45Z</time></trkpt><trkpt lat="43.99990937319986" lon="12.374057298531293"><ele>91.5</ele><time>2026-04-06T14:42:46Z</time></trkpt><trkpt lat="44.00010139373941" lon="12.374282977791406"><ele>91.0</ele><time>2026-04-06T14:42:47Z</time></trkpt><trkpt lat="44.000297556255475" lon="12.374505617681766"><ele>90.5</ele><time>2026-04-06T14:42:48Z</time></trkpt><trkpt lat="44.00049700154444" lon="12.374710321877423"><ele>90.0</ele><time>2026-04-06T14:42:49Z</time></trkpt><trkpt lat="44.00070803622108" lon="12.374898562501967"><ele>90.0</ele><time>2026-04-06T14:42:50Z</time></trkpt><trkpt lat="44.000922059427914" lon="12.3750609175564"><ele>90.0</ele><time>2026-04-06T14:42:51Z</time></trkpt><trkpt lat="44.00112153063329" lon="12.375205467726095"><ele>90.0</ele><time>2026-04-06T14:42:52Z</time></trkpt><trkpt lat="44.00130474034055" lon="12.375336052377229"><ele>90.0</ele><time>2026-04-06T14:42:53Z</time></trkpt><trkpt lat="44.00148212432548" lon="12.375464791579578"><ele>90.0</ele><time>2026-04-06T14:42:54Z</time></trkpt><trkpt lat="44.00164782490403" lon="12.375587722745596"><ele>89.33333333333333</ele><time>2026-04-06T14:42:55Z</time></trkpt><trkpt lat="44.001819501037836" lon="12.375715106385986"><ele>88.66666666666666</ele><time>2026-04-06T14:42:56Z</time></trkpt><trkpt lat="44.00198020307164" lon="12.375831038232855"><ele>88.0</ele><time>2026-04-06T14:42:57Z</time></trkpt><trkpt lat="44.002133224091736" lon="12.375946025325861"><ele>88.0</ele><time>2026-04-06T14:42:58Z</time></trkpt><trkpt lat="44.00228809808801" lon="12.376056459963305"><ele>88.0</ele><time>2026-04-06T14:42:59Z</time></trkpt><trkpt lat="44.00243685935056" lon="12.376156644968667"><ele>88.0</ele><time>2026-04-06T14:43:00Z</time></trkpt><trkpt lat="44.00258970399007" lon="12.376259220404883"><ele>88.0</ele><time>2026-04-06T14:43:01Z</time></trkpt><trkpt lat="44.00273700998069" lon="12.37636642985413"><ele>88.0</ele><time>2026-04-06T14:43:02Z</time></trkpt><trkpt lat="44.002878481443084" lon="12.376475983742793"><ele>88.0</ele><time>2026-04-06T14:43:02.998Z</time></trkpt><trkpt lat="44.00302975414409" lon="12.37659069941837"><ele>88.0</ele><time>2026-04-06T14:43:03.998Z</time></trkpt><trkpt lat="44.00317231250922" lon="12.376701332607809"><ele>88.0</ele><time>2026-04-06T14:43:04.998Z</time></trkpt><trkpt lat="44.00332542977298" lon="12.376816275140659"><ele>88.0</ele><time>2026-04-06T14:43:05.998Z</time></trkpt><trkpt lat="44.00348299152569" lon="12.37693232455761"><ele>88.33333333333333</ele><time>2026-04-06T14:43:06.998Z</time></trkpt><trkpt lat="44.00364792375061" lon="12.377051670970982"><ele>88.66666666666667</ele><time>2026-04-06T14:43:07.998Z</time></trkpt><trkpt lat="44.003808985379365" lon="12.377169386387221"><ele>89.0</ele><time>2026-04-06T14:43:08.998Z</time></trkpt><trkpt lat="44.00397669510283" lon="12.377291608260629"><ele>88.33333333333334</ele><time>2026-04-06T14:43:09.998Z</time></trkpt><trkpt lat="44.0041428212243" lon="12.377414548651226"><ele>87.66666666666667</ele><time>2026-04-06T14:43:10.998Z</time></trkpt><trkpt lat="44.00431874587311" lon="12.377543649067874"><ele>87.0</ele><time>2026-04-06T14:43:11.998Z</time></trkpt><trkpt lat="44.00449396310156" lon="12.377670467769486"><ele>87.0</ele><time>2026-04-06T14:43:12.998Z</time></trkpt><trkpt lat="44.00467178328922" lon="12.377800326719337"><ele>87.0</ele><time>2026-04-06T14:43:13.999Z</time></trkpt><trkpt lat="44.00485528384252" lon="12.377933078631596"><ele>87.0</ele><time>2026-04-06T14:43:14.999Z</time></trkpt><trkpt lat="44.005039194494216" lon="12.378068775503275"><ele>86.33333333333333</ele><time>2026-04-06T14:43:15.999Z</time></trkpt><trkpt lat="44.00521806877717" lon="12.37820366180864"><ele>85.66666666666666</ele><time>2026-04-06T14:43:16.999Z</time></trkpt><trkpt lat="44.005406536762194" lon="12.378345999030145"><ele>85.0</ele><time>2026-04-06T14:43:17.999Z</time></trkpt><trkpt lat="44.0055904183744" lon="12.378498428952943"><ele>85.0</ele><time>2026-04-06T14:43:18.999Z</time></trkpt><trkpt lat="44.00577335968017" lon="12.378665627592431"><ele>85.0</ele><time>2026-04-06T14:43:19.999Z</time></trkpt><trkpt lat="44.005947130755544" lon="12.378843094293707"><ele>85.0</ele><time>2026-04-06T14:43:20.999Z</time></trkpt><trkpt lat="44.006115699331275" lon="12.379024182474028"><ele>84.66666666666666</ele><time>2026-04-06T14:43:21.999Z</time></trkpt><trkpt lat="44.00628640193639" lon="12.379204651965342"><ele>84.33333333333333</ele><time>2026-04-06T14:43:22.999Z</time></trkpt><trkpt lat="44.006463052672316" lon="12.379385566978673"><ele>84.0</ele><time>2026-04-06T14:43:23.999Z</time></trkpt><trkpt lat="44.006637909725406" lon="12.379562800818718"><ele>84.33333333333333</ele><time>2026-04-06T14:43:24.999Z</time></trkpt><trkpt lat="44.00681019681107" lon="12.379739477039031"><ele>84.66666666666666</ele><time>2026-04-06T14:43:25.999Z</time></trkpt><trkpt lat="44.006983912749696" lon="12.37991751672432"><ele>85.0</ele><time>2026-04-06T14:43:26.999Z</time></trkpt><trkpt lat="44.0071598667184" lon="12.380098310694247"><ele>85.0</ele><time>2026-04-06T14:43:27.999Z</time></trkpt><trkpt lat="44.00733252999163" lon="12.380272965524638"><ele>85.0</ele><time>2026-04-06T14:43:28.999Z</time></trkpt><trkpt lat="44.007503415042265" lon="12.38044621190223"><ele>85.0</ele><time>2026-04-06T14:43:29.999Z</time></trkpt><trkpt lat="44.00767160619137" lon="12.380616751847048"><ele>85.33333333333333</ele><time>2026-04-06T14:43:30.999Z</time></trkpt><trkpt lat="44.00783573077473" lon="12.380784751313934"><ele>85.66666666666667</ele><time>2026-04-06T14:43:31.999Z</time></trkpt><trkpt lat="44.00799437280198" lon="12.380945965313199"><ele>86.0</ele><time>2026-04-06T14:43:32.999Z</time></trkpt><trkpt lat="44.00815551924972" lon="12.381110493537564"><ele>86.0</ele><time>2026-04-06T14:43:33.999Z</time></trkpt><trkpt lat="44.00831039541478" lon="12.381266923229312"><ele>86.0</ele><time>2026-04-06T14:43:34.999Z</time></trkpt><trkpt lat="44.00847079868583" lon="12.38142860329211"><ele>86.0</ele><time>2026-04-06T14:43:35.999Z</time></trkpt><trkpt lat="44.00863161974613" lon="12.38159085079114"><ele>86.0</ele><time>2026-04-06T14:43:36.999Z</time></trkpt><trkpt lat="44.008790213912086" lon="12.381750200390705"><ele>86.0</ele><time>2026-04-06T14:43:37.999Z</time></trkpt><trkpt lat="44.008946249851164" lon="12.381902225394642"><ele>86.0</ele><time>2026-04-06T14:43:38.999Z</time></trkpt><trkpt lat="44.0090892782843" lon="12.382045033342651"><ele>85.66666666666667</ele><time>2026-04-06T14:43:39.999Z</time></trkpt><trkpt lat="44.00924001345984" lon="12.382183663844604"><ele>85.33333333333333</ele><time>2026-04-06T14:43:40.999Z</time></trkpt><trkpt lat="44.00939453067502" lon="12.382305545543346"><ele>85.0</ele><time>2026-04-06T14:43:41.999Z</time></trkpt><trkpt lat="44.00955700933726" lon="12.382409665345563"><ele>85.0</ele><time>2026-04-06T14:43:42.999Z</time></trkpt><trkpt lat="44.009730950112406" lon="12.3824803280623"><ele>85.0</ele><time>2026-04-06T14:43:43.999Z</time></trkpt><trkpt lat="44.009902508670166" lon="12.382518170495"><ele>85.0</ele><time>2026-04-06T14:43:45Z</time></trkpt><trkpt lat="44.01006662587504" lon="12.38253930065645"><ele>84.33333333333333</ele><time>2026-04-06T14:43:46Z</time></trkpt><trkpt lat="44.01023045683737" lon="12.382553607837933"><ele>83.66666666666667</ele><time>2026-04-06T14:43:47Z</time></trkpt><trkpt lat="44.01038837354438" lon="12.382579279621366"><ele>83.0</ele><time>2026-04-06T14:43:48Z</time></trkpt><trkpt lat="44.010547522523574" lon="12.382604578520732"><ele>83.0</ele><time>2026-04-06T14:43:49Z</time></trkpt><trkpt lat="44.01071043758546" lon="12.382627588256524"><ele>83.0</ele><time>2026-04-06T14:43:50Z</time></trkpt><trkpt lat="44.01087698777439" lon="12.382648901101913"><ele>83.0</ele><time>2026-04-06T14:43:51Z</time></trkpt><trkpt lat="44.01104755861551" lon="12.382672120702482"><ele>82.33333333333334</ele><time>2026-04-06T14:43:52Z</time></trkpt><trkpt lat="44.01121921956669" lon="12.382694889135086"><ele>81.66666666666667</ele><time>2026-04-06T14:43:53Z</time></trkpt><trkpt lat="44.01137579453148" lon="12.382716250074836"><ele>81.0</ele><time>2026-04-06T14:43:54Z</time></trkpt><trkpt lat="44.01152477770528" lon="12.382736505316716"><ele>80.75</ele><time>2026-04-06T14:43:55Z</time></trkpt><trkpt lat="44.011658942691135" lon="12.382757018718825"><ele>80.5</ele><time>2026-04-06T14:43:56Z</time></trkpt><trkpt lat="44.011785533065556" lon="12.38277322842397"><ele>80.25</ele><time>2026-04-06T14:43:57Z</time></trkpt><trkpt lat="44.01190707338697" lon="12.38278704353681"><ele>80.0</ele><time>2026-04-06T14:43:58Z</time></trkpt><trkpt lat="44.01202524057239" lon="12.382799573760199"><ele>80.0</ele><time>2026-04-06T14:43:59Z</time></trkpt><trkpt lat="44.01214428378542" lon="12.382809944312951"><ele>80.0</ele><time>2026-04-06T14:44:00Z</time></trkpt><trkpt lat="44.012260302032544" lon="12.382843589012452"><ele>80.0</ele><time>2026-04-06T14:44:01Z</time></trkpt><trkpt lat="44.01237641690129" lon="12.382858395498927"><ele>80.0</ele><time>2026-04-06T14:44:02Z</time></trkpt><trkpt lat="44.01248575904587" lon="12.382872338352046"><ele>80.5</ele><time>2026-04-06T14:44:03Z</time></trkpt><trkpt lat="44.01258480208161" lon="12.38288496791192"><ele>81.0</ele><time>2026-04-06T14:44:04Z</time></trkpt><trkpt lat="44.01267421290278" lon="12.382896369206009"><ele>81.5</ele><time>2026-04-06T14:44:05Z</time></trkpt><trkpt lat="44.01275635366214" lon="12.382906843424353"><ele>82.0</ele><time>2026-04-06T14:44:06Z</time></trkpt><trkpt lat="44.012829232568066" lon="12.38291617849072"><ele>82.5</ele><time>2026-04-06T14:44:07Z</time></trkpt><trkpt lat="44.012925502696376" lon="12.382929822967654"><ele>83.0</ele><time>2026-04-06T14:44:09Z</time></trkpt><trkpt lat="44.01301229125845" lon="12.382942123612704"><ele>83.0</ele><time>2026-04-06T14:44:13Z</time></trkpt><trkpt lat="44.013140607113975" lon="12.382946354717209"><ele>83.0</ele><time>2026-04-06T14:44:15Z</time></trkpt><trkpt lat="44.01322012530934" lon="12.382975814313063"><ele>83.0</ele><time>2026-04-06T14:44:16Z</time></trkpt><trkpt lat="44.01330645268956" lon="12.38301643777313"><ele>83.0</ele><time>2026-04-06T14:44:17Z</time></trkpt><trkpt lat="44.01340275509772" lon="12.383020654116986"><ele>83.0</ele><time>2026-04-06T14:44:18Z</time></trkpt><trkpt lat="44.0135014914804" lon="12.383034648102033"><ele>81.5</ele><time>2026-04-06T14:44:19Z</time></trkpt><trkpt lat="44.01360127591293" lon="12.383062292448404"><ele>80.0</ele><time>2026-04-06T14:44:20Z</time></trkpt><trkpt lat="44.013711319936405" lon="12.383041372569922"><ele>78.5</ele><time>2026-04-06T14:44:21Z</time></trkpt><trkpt lat="44.01383014132913" lon="12.38303712663065"><ele>77.0</ele><time>2026-04-06T14:44:22Z</time></trkpt><trkpt lat="44.013962780612026" lon="12.38305069169861"><ele>77.0</ele><time>2026-04-06T14:44:23Z</time></trkpt><trkpt lat="44.01409530439709" lon="12.383068455878242"><ele>77.0</ele><time>2026-04-06T14:44:24Z</time></trkpt><trkpt lat="44.0142302789883" lon="12.383084868815292"><ele>77.0</ele><time>2026-04-06T14:44:25Z</time></trkpt><trkpt lat="44.014363741027665" lon="12.383100838795016"><ele>77.0</ele><time>2026-04-06T14:44:26Z</time></trkpt><trkpt lat="44.01449868532994" lon="12.383130157306935"><ele>77.0</ele><time>2026-04-06T14:44:27Z</time></trkpt><trkpt lat="44.01462779406301" lon="12.383189381870551"><ele>77.0</ele><time>2026-04-06T14:44:28Z</time></trkpt><trkpt lat="44.01474133474264" lon="12.38328828911806"><ele>77.0</ele><time>2026-04-06T14:44:29Z</time></trkpt><trkpt lat="44.01484723356519" lon="12.38342822786757"><ele>77.0</ele><time>2026-04-06T14:44:30Z</time></trkpt><trkpt lat="44.01494601083991" lon="12.383583166303017"><ele>77.75</ele><time>2026-04-06T14:44:31Z</time></trkpt><trkpt lat="44.01503137837912" lon="12.383710229837407"><ele>78.5</ele><time>2026-04-06T14:44:32Z</time></trkpt><trkpt lat="44.0151165841162" lon="12.383828352140393"><ele>79.25</ele><time>2026-04-06T14:44:33Z</time></trkpt><trkpt lat="44.01521338708928" lon="12.38393465396508"><ele>80.0</ele><time>2026-04-06T14:44:34Z</time></trkpt><trkpt lat="44.01532202427068" lon="12.38402620812065"><ele>80.0</ele><time>2026-04-06T14:44:35Z</time></trkpt><trkpt lat="44.01543060782936" lon="12.3841320875213"><ele>80.0</ele><time>2026-04-06T14:44:36Z</time></trkpt><trkpt lat="44.01556183707994" lon="12.384210829414345"><ele>80.0</ele><time>2026-04-06T14:44:37Z</time></trkpt><trkpt lat="44.01570946598336" lon="12.384253759935909"><ele>80.0</ele><time>2026-04-06T14:44:38Z</time></trkpt><trkpt lat="44.0158496830615" lon="12.38430764545258"><ele>81.66666666666667</ele><time>2026-04-06T14:44:39Z</time></trkpt><trkpt lat="44.01599844380431" lon="12.384388324295285"><ele>83.33333333333333</ele><time>2026-04-06T14:44:40Z</time></trkpt><trkpt lat="44.016156640230605" lon="12.384450369346945"><ele>85.0</ele><time>2026-04-06T14:44:41Z</time></trkpt><trkpt lat="44.01632339806284" lon="12.384492421562461"><ele>85.0</ele><time>2026-04-06T14:44:42Z</time></trkpt><trkpt lat="44.01648553596796" lon="12.384549851418583"><ele>85.0</ele><time>2026-04-06T14:44:43Z</time></trkpt><trkpt lat="44.01663873468883" lon="12.384587364577698"><ele>85.0</ele><time>2026-04-06T14:44:44Z</time></trkpt><trkpt lat="44.016798094138075" lon="12.38460504647054"><ele>84.0</ele><time>2026-04-06T14:44:45Z</time></trkpt><trkpt lat="44.01695705213749" lon="12.384624290455458"><ele>83.0</ele><time>2026-04-06T14:44:46Z</time></trkpt><trkpt lat="44.01711826475965" lon="12.38459504845109"><ele>82.0</ele><time>2026-04-06T14:44:47Z</time></trkpt><trkpt lat="44.017283274862905" lon="12.384541208210818"><ele>82.0</ele><time>2026-04-06T14:44:48Z</time></trkpt><trkpt lat="44.017442939508456" lon="12.38445422644474"><ele>82.0</ele><time>2026-04-06T14:44:49Z</time></trkpt><trkpt lat="44.01761319442372" lon="12.384403039131639"><ele>82.0</ele><time>2026-04-06T14:44:50Z</time></trkpt><trkpt lat="44.01777844215398" lon="12.384303042379404"><ele>82.0</ele><time>2026-04-06T14:44:51Z</time></trkpt><trkpt lat="44.01795208910776" lon="12.384225221923012"><ele>82.0</ele><time>2026-04-06T14:44:52Z</time></trkpt><trkpt lat="44.01812738575938" lon="12.384145029298958"><ele>82.0</ele><time>2026-04-06T14:44:53Z</time></trkpt><trkpt lat="44.0183058574874" lon="12.384062822438572"><ele>80.66666666666666</ele><time>2026-04-06T14:44:54Z</time></trkpt><trkpt lat="44.018484810092644" lon="12.383982304168008"><ele>79.33333333333333</ele><time>2026-04-06T14:44:55Z</time></trkpt><trkpt lat="44.018659150136656" lon="12.383901949766614"><ele>78.0</ele><time>2026-04-06T14:44:56Z</time></trkpt><trkpt lat="44.0188333318563" lon="12.383816896792702"><ele>79.66666666666667</ele><time>2026-04-06T14:44:57Z</time></trkpt><trkpt lat="44.019011801662" lon="12.383730292609268"><ele>81.33333333333334</ele><time>2026-04-06T14:44:58Z</time></trkpt><trkpt lat="44.01919223408358" lon="12.38364508589154"><ele>83.0</ele><time>2026-04-06T14:44:59Z</time></trkpt><trkpt lat="44.01936363967075" lon="12.383560806397357"><ele>83.0</ele><time>2026-04-06T14:45:00.001Z</time></trkpt><trkpt lat="44.01952492937488" lon="12.383481727314978"><ele>83.0</ele><time>2026-04-06T14:45:01.001Z</time></trkpt><trkpt lat="44.01968773698605" lon="12.383430085828204"><ele>83.0</ele><time>2026-04-06T14:45:02.001Z</time></trkpt><trkpt lat="44.01983292310068" lon="12.383362587159075"><ele>83.0</ele><time>2026-04-06T14:45:03.001Z</time></trkpt><trkpt lat="44.01997233199077" lon="12.383288005971616"><ele>83.0</ele><time>2026-04-06T14:45:04.001Z</time></trkpt><trkpt lat="44.02011360849964" lon="12.383250116518411"><ele>83.0</ele><time>2026-04-06T14:45:05.001Z</time></trkpt><trkpt lat="44.02024410538944" lon="12.383252800706723"><ele>83.0</ele><time>2026-04-06T14:45:06.001Z</time></trkpt><trkpt lat="44.020363570827364" lon="12.38328540698815"><ele>83.0</ele><time>2026-04-06T14:45:07.001Z</time></trkpt><trkpt lat="44.02046721362017" lon="12.383335909575337"><ele>83.0</ele><time>2026-04-06T14:45:08.001Z</time></trkpt><trkpt lat="44.0205712099939" lon="12.383406522744329"><ele>83.0</ele><time>2026-04-06T14:45:08.999Z</time></trkpt><trkpt lat="44.02066806310143" lon="12.383462462735242"><ele>83.0</ele><time>2026-04-06T14:45:09.999Z</time></trkpt><trkpt lat="44.02077553086355" lon="12.383506656291011"><ele>83.0</ele><time>2026-04-06T14:45:10.999Z</time></trkpt><trkpt lat="44.020888266957755" lon="12.383527074820691"><ele>84.25</ele><time>2026-04-06T14:45:11.999Z</time></trkpt><trkpt lat="44.0210010645297" lon="12.383527837785962"><ele>85.5</ele><time>2026-04-06T14:45:12.999Z</time></trkpt><trkpt lat="44.02111462272587" lon="12.383519151325123"><ele>86.75</ele><time>2026-04-06T14:45:13.999Z</time></trkpt><trkpt lat="44.021229328957794" lon="12.383503775337099"><ele>88.0</ele><time>2026-04-06T14:45:14.999Z</time></trkpt><trkpt lat="44.02134611091206" lon="12.383481774585757"><ele>88.0</ele><time>2026-04-06T14:45:15.999Z</time></trkpt><trkpt lat="44.02146460213888" lon="12.383453803673662"><ele>88.0</ele><time>2026-04-06T14:45:16.999Z</time></trkpt><trkpt lat="44.02158353478462" lon="12.383415620752896"><ele>88.0</ele><time>2026-04-06T14:45:17.999Z</time></trkpt><trkpt lat="44.021705573104406" lon="12.383371527769059"><ele>88.0</ele><time>2026-04-06T14:45:18.999Z</time></trkpt><trkpt lat="44.02183534151441" lon="12.383326812504956"><ele>87.60000000000001</ele><time>2026-04-06T14:45:19.999Z</time></trkpt><trkpt lat="44.021960657629606" lon="12.383281894115441"><ele>87.2</ele><time>2026-04-06T14:45:20.999Z</time></trkpt><trkpt lat="44.02207666434647" lon="12.383243562780649"><ele>86.8</ele><time>2026-04-06T14:45:21.999Z</time></trkpt><trkpt lat="44.02217926123839" lon="12.383211616301681"><ele>86.4</ele><time>2026-04-06T14:45:22.999Z</time></trkpt><trkpt lat="44.022271145688244" lon="12.383182497797426"><ele>86.0</ele><time>2026-04-06T14:45:23.999Z</time></trkpt><trkpt lat="44.02235677592202" lon="12.383155620192484"><ele>86.0</ele><time>2026-04-06T14:45:24.999Z</time></trkpt><trkpt lat="44.022433954464205" lon="12.383144966565402"><ele>86.0</ele><time>2026-04-06T14:45:25.999Z</time></trkpt><trkpt lat="44.02250646225649" lon="12.383155415906112"><ele>86.0</ele><time>2026-04-06T14:45:26.999Z</time></trkpt><trkpt lat="44.02258358978983" lon="12.383186641163714"><ele>86.0</ele><time>2026-04-06T14:45:27.999Z</time></trkpt><trkpt lat="44.02265841199491" lon="12.383223807180583"><ele>86.0</ele><time>2026-04-06T14:45:29Z</time></trkpt><trkpt lat="44.02273667311313" lon="12.383241000459206"><ele>86.0</ele><time>2026-04-06T14:45:30Z</time></trkpt><trkpt lat="44.02281833078715" lon="12.383218024962767"><ele>86.19999999999999</ele><time>2026-04-06T14:45:31Z</time></trkpt><trkpt lat="44.022891215960634" lon="12.383179001624727"><ele>86.39999999999999</ele><time>2026-04-06T14:45:32Z</time></trkpt><trkpt lat="44.022927696849244" lon="12.383056223167896"><ele>86.6</ele><time>2026-04-06T14:45:33Z</time></trkpt><trkpt lat="44.02296286691117" lon="12.382943038534433"><ele>86.8</ele><time>2026-04-06T14:45:34Z</time></trkpt><trkpt lat="44.02300277353591" lon="12.382815621887616"><ele>87.0</ele><time>2026-04-06T14:45:35Z</time></trkpt><trkpt lat="44.02306760153975" lon="12.382703706072514"><ele>87.0</ele><time>2026-04-06T14:45:36Z</time></trkpt><trkpt lat="44.02315248489853" lon="12.382609296149376"><ele>87.0</ele><time>2026-04-06T14:45:37Z</time></trkpt><trkpt lat="44.02324815653855" lon="12.382527562843002"><ele>87.0</ele><time>2026-04-06T14:45:38Z</time></trkpt><trkpt lat="44.023354832488444" lon="12.382465746880168"><ele>87.0</ele><time>2026-04-06T14:45:39Z</time></trkpt><trkpt lat="44.02347106176586" lon="12.382428355815478"><ele>83.75</ele><time>2026-04-06T14:45:40Z</time></trkpt><trkpt lat="44.023595243288305" lon="12.38241195427659"><ele>80.5</ele><time>2026-04-06T14:45:41Z</time></trkpt><trkpt lat="44.02372359970426" lon="12.382408236021845"><ele>77.25</ele><time>2026-04-06T14:45:42Z</time></trkpt><trkpt lat="44.023856493743295" lon="12.382418087918028"><ele>74.0</ele><time>2026-04-06T14:45:43Z</time></trkpt><trkpt lat="44.02398824498541" lon="12.382445481536783"><ele>74.0</ele><time>2026-04-06T14:45:44Z</time></trkpt><trkpt lat="44.02411478399163" lon="12.382494589561395"><ele>74.0</ele><time>2026-04-06T14:45:45Z</time></trkpt><trkpt lat="44.02423088495421" lon="12.38257514435511"><ele>74.0</ele><time>2026-04-06T14:45:46Z</time></trkpt><trkpt lat="44.02433427911786" lon="12.382682859562987"><ele>74.0</ele><time>2026-04-06T14:45:47Z</time></trkpt><trkpt lat="44.02442679923772" lon="12.382805242948352"><ele>74.0</ele><time>2026-04-06T14:45:48Z</time></trkpt><trkpt lat="44.02451654851675" lon="12.382925961877698"><ele>74.0</ele><time>2026-04-06T14:45:49Z</time></trkpt><trkpt lat="44.02459659287887" lon="12.383034203191851"><ele>74.0</ele><time>2026-04-06T14:45:50Z</time></trkpt><trkpt lat="44.02468333725834" lon="12.38313703255973"><ele>74.0</ele><time>2026-04-06T14:45:51Z</time></trkpt><trkpt lat="44.02477561244805" lon="12.383231736701067"><ele>74.0</ele><time>2026-04-06T14:45:52Z</time></trkpt><trkpt lat="44.024872167348626" lon="12.38332536802039"><ele>74.0</ele><time>2026-04-06T14:45:53Z</time></trkpt><trkpt lat="44.02497017991325" lon="12.383414134002557"><ele>74.0</ele><time>2026-04-06T14:45:54Z</time></trkpt><trkpt lat="44.025074915684826" lon="12.383497793780784"><ele>74.0</ele><time>2026-04-06T14:45:55Z</time></trkpt><trkpt lat="44.02518450976199" lon="12.38358018593993"><ele>74.0</ele><time>2026-04-06T14:45:56Z</time></trkpt><trkpt lat="44.02529502122366" lon="12.383659887134451"><ele>74.0</ele><time>2026-04-06T14:45:57Z</time></trkpt><trkpt lat="44.02540705172852" lon="12.38374107915286"><ele>74.0</ele><time>2026-04-06T14:45:58Z</time></trkpt><trkpt lat="44.02551634146889" lon="12.383833143604296"><ele>74.0</ele><time>2026-04-06T14:45:59Z</time></trkpt><trkpt lat="44.02562060785394" lon="12.383945491904242"><ele>73.25</ele><time>2026-04-06T14:46:00Z</time></trkpt><trkpt lat="44.0257140390485" lon="12.384073483723448"><ele>72.5</ele><time>2026-04-06T14:46:01Z</time></trkpt><trkpt lat="44.025797187332294" lon="12.384214983333704"><ele>71.75</ele><time>2026-04-06T14:46:02Z</time></trkpt><trkpt lat="44.02587356182814" lon="12.384366702436964"><ele>71.0</ele><time>2026-04-06T14:46:03Z</time></trkpt><trkpt lat="44.02594578137428" lon="12.384513646157743"><ele>71.25</ele><time>2026-04-06T14:46:04Z</time></trkpt><trkpt lat="44.02603065271733" lon="12.38465182254879"><ele>71.5</ele><time>2026-04-06T14:46:05Z</time></trkpt><trkpt lat="44.026126498844285" lon="12.38477207496472"><ele>71.75</ele><time>2026-04-06T14:46:06Z</time></trkpt><trkpt lat="44.026228048548035" lon="12.384880963202166"><ele>72.0</ele><time>2026-04-06T14:46:07Z</time></trkpt><trkpt lat="44.026330253283255" lon="12.384986975152154"><ele>72.0</ele><time>2026-04-06T14:46:08Z</time></trkpt><trkpt lat="44.026435846454305" lon="12.385092153629094"><ele>72.0</ele><time>2026-04-06T14:46:09Z</time></trkpt><trkpt lat="44.02653646445653" lon="12.385191781743861"><ele>72.0</ele><time>2026-04-06T14:46:10Z</time></trkpt><trkpt lat="44.02662812048077" lon="12.385285898120024"><ele>72.0</ele><time>2026-04-06T14:46:11Z</time></trkpt><trkpt lat="44.02671492583961" lon="12.385376266302154"><ele>73.25</ele><time>2026-04-06T14:46:12Z</time></trkpt><trkpt lat="44.02680637855939" lon="12.38546784237657"><ele>74.5</ele><time>2026-04-06T14:46:13Z</time></trkpt><trkpt lat="44.02690017901463" lon="12.385564435631617"><ele>75.75</ele><time>2026-04-06T14:46:14Z</time></trkpt><trkpt lat="44.02699295125262" lon="12.385662640146714"><ele>77.0</ele><time>2026-04-06T14:46:15Z</time></trkpt><trkpt lat="44.02708703277232" lon="12.385762769964646"><ele>77.0</ele><time>2026-04-06T14:46:16Z</time></trkpt><trkpt lat="44.02718177747083" lon="12.3858625747127"><ele>77.0</ele><time>2026-04-06T14:46:17Z</time></trkpt><trkpt lat="44.02727919944709" lon="12.385963739165506"><ele>77.0</ele><time>2026-04-06T14:46:18Z</time></trkpt><trkpt lat="44.02737720800236" lon="12.386062634529251"><ele>77.0</ele><time>2026-04-06T14:46:19Z</time></trkpt><trkpt lat="44.027471656578136" lon="12.386160234049859"><ele>77.25</ele><time>2026-04-06T14:46:20.001Z</time></trkpt><trkpt lat="44.027567604173356" lon="12.386262174942454"><ele>77.5</ele><time>2026-04-06T14:46:21.001Z</time></trkpt><trkpt lat="44.02766736825657" lon="12.386367102536905"><ele>77.75</ele><time>2026-04-06T14:46:22.001Z</time></trkpt><trkpt lat="44.02776774782334" lon="12.38647349795315"><ele>78.0</ele><time>2026-04-06T14:46:23.001Z</time></trkpt><trkpt lat="44.02787326766861" lon="12.38658560739696"><ele>77.25</ele><time>2026-04-06T14:46:24.001Z</time></trkpt><trkpt lat="44.02798105622986" lon="12.386697523436986"><ele>76.5</ele><time>2026-04-06T14:46:25.001Z</time></trkpt><trkpt lat="44.02808712582468" lon="12.386810596734376"><ele>75.75</ele><time>2026-04-06T14:46:26.001Z</time></trkpt><trkpt lat="44.02819605918457" lon="12.386924300501436"><ele>75.0</ele><time>2026-04-06T14:46:27.001Z</time></trkpt><trkpt lat="44.02830250246417" lon="12.387036904934304"><ele>75.0</ele><time>2026-04-06T14:46:28.001Z</time></trkpt><trkpt lat="44.02841411798614" lon="12.387140960292532"><ele>75.0</ele><time>2026-04-06T14:46:29.001Z</time></trkpt><trkpt lat="44.028531075816616" lon="12.387211606248535"><ele>75.0</ele><time>2026-04-06T14:46:30.001Z</time></trkpt><trkpt lat="44.02864960532318" lon="12.387238807143003"><ele>75.0</ele><time>2026-04-06T14:46:31.001Z</time></trkpt><trkpt lat="44.02876599593224" lon="12.38722411580886"><ele>75.0</ele><time>2026-04-06T14:46:32.001Z</time></trkpt><trkpt lat="44.02888675965414" lon="12.387187257003703"><ele>75.0</ele><time>2026-04-06T14:46:33.001Z</time></trkpt><trkpt lat="44.029001114494044" lon="12.387144859045446"><ele>75.0</ele><time>2026-04-06T14:46:34.001Z</time></trkpt><trkpt lat="44.029105189278496" lon="12.387106062241571"><ele>75.0</ele><time>2026-04-06T14:46:35.001Z</time></trkpt><trkpt lat="44.02921289393838" lon="12.387094028109807"><ele>75.0</ele><time>2026-04-06T14:46:36.001Z</time></trkpt><trkpt lat="44.029316803067715" lon="12.387105021391156"><ele>75.0</ele><time>2026-04-06T14:46:37.001Z</time></trkpt><trkpt lat="44.02941044620216" lon="12.387136627343558"><ele>75.0</ele><time>2026-04-06T14:46:38.001Z</time></trkpt><trkpt lat="44.02950478983721" lon="12.387186867291907"><ele>75.0</ele><time>2026-04-06T14:46:39.001Z</time></trkpt><trkpt lat="44.029595759053066" lon="12.387250324402473"><ele>75.0</ele><time>2026-04-06T14:46:40.001Z</time></trkpt><trkpt lat="44.02968530231564" lon="12.387322150754905"><ele>74.8</ele><time>2026-04-06T14:46:41.001Z</time></trkpt><trkpt lat="44.029774054445404" lon="12.387398963745946"><ele>74.6</ele><time>2026-04-06T14:46:42.001Z</time></trkpt><trkpt lat="44.02986900967323" lon="12.38747502415116"><ele>74.4</ele><time>2026-04-06T14:46:43.001Z</time></trkpt><trkpt lat="44.029970017926715" lon="12.387534762831933"><ele>74.2</ele><time>2026-04-06T14:46:44.001Z</time></trkpt><trkpt lat="44.03007979644008" lon="12.387576128994112"><ele>74.0</ele><time>2026-04-06T14:46:45.001Z</time></trkpt><trkpt lat="44.03019391071937" lon="12.38760528155307"><ele>73.5</ele><time>2026-04-06T14:46:46.001Z</time></trkpt><trkpt lat="44.03031795209236" lon="12.387627349721958"><ele>73.0</ele><time>2026-04-06T14:46:47.001Z</time></trkpt><trkpt lat="44.0304430016332" lon="12.387644921871335"><ele>72.5</ele><time>2026-04-06T14:46:48.001Z</time></trkpt><trkpt lat="44.03057421885382" lon="12.387662877321281"><ele>72.0</ele><time>2026-04-06T14:46:49.001Z</time></trkpt><trkpt lat="44.030705535620726" lon="12.38768204131111"><ele>71.5</ele><time>2026-04-06T14:46:50.001Z</time></trkpt><trkpt lat="44.030832529776156" lon="12.387699209457901"><ele>71.0</ele><time>2026-04-06T14:46:51.001Z</time></trkpt><trkpt lat="44.030960241137436" lon="12.387716297094972"><ele>70.5</ele><time>2026-04-06T14:46:52.001Z</time></trkpt><trkpt lat="44.03109422321851" lon="12.387737654285724"><ele>70.0</ele><time>2026-04-06T14:46:53.001Z</time></trkpt><trkpt lat="44.03122483471383" lon="12.387759959829856"><ele>70.0</ele><time>2026-04-06T14:46:54.001Z</time></trkpt><trkpt lat="44.03135605604638" lon="12.387787471288686"><ele>70.0</ele><time>2026-04-06T14:46:55.001Z</time></trkpt><trkpt lat="44.03148562692382" lon="12.387827406822637"><ele>70.0</ele><time>2026-04-06T14:46:56.001Z</time></trkpt><trkpt lat="44.031613163484565" lon="12.387880388277186"><ele>70.0</ele><time>2026-04-06T14:46:57.001Z</time></trkpt><trkpt lat="44.031734218942816" lon="12.387939995929946"><ele>70.25</ele><time>2026-04-06T14:46:58.001Z</time></trkpt><trkpt lat="44.03184310695828" lon="12.388002288186012"><ele>70.5</ele><time>2026-04-06T14:46:59.001Z</time></trkpt><trkpt lat="44.03194582621467" lon="12.388067101994872"><ele>70.75</ele><time>2026-04-06T14:47:00.001Z</time></trkpt><trkpt lat="44.0320507180503" lon="12.388132520011903"><ele>71.0</ele><time>2026-04-06T14:47:01.001Z</time></trkpt><trkpt lat="44.032156063800414" lon="12.388190920632763"><ele>70.75</ele><time>2026-04-06T14:47:02.001Z</time></trkpt><trkpt lat="44.03226591238936" lon="12.388237384063856"><ele>70.5</ele><time>2026-04-06T14:47:03.001Z</time></trkpt><trkpt lat="44.03237990899198" lon="12.388269042862666"><ele>70.25</ele><time>2026-04-06T14:47:04.001Z</time></trkpt><trkpt lat="44.03250056095476" lon="12.38828729282055"><ele>70.0</ele><time>2026-04-06T14:47:05.001Z</time></trkpt><trkpt lat="44.03262275964456" lon="12.388302365452052"><ele>70.0</ele><time>2026-04-06T14:47:06.001Z</time></trkpt><trkpt lat="44.032744835038315" lon="12.388327005560667"><ele>70.0</ele><time>2026-04-06T14:47:07.001Z</time></trkpt><trkpt lat="44.032862973210946" lon="12.388358786027027"><ele>70.0</ele><time>2026-04-06T14:47:08.001Z</time></trkpt><trkpt lat="44.03297821299891" lon="12.388400960800194"><ele>70.0</ele><time>2026-04-06T14:47:09.001Z</time></trkpt><trkpt lat="44.03308674085609" lon="12.388447006398366"><ele>70.0</ele><time>2026-04-06T14:47:10.001Z</time></trkpt><trkpt lat="44.03318398456627" lon="12.388489205304225"><ele>70.0</ele><time>2026-04-06T14:47:11.001Z</time></trkpt><trkpt lat="44.03327703876574" lon="12.388524604523225"><ele>70.0</ele><time>2026-04-06T14:47:12.001Z</time></trkpt><trkpt lat="44.033371458060735" lon="12.38855987341433"><ele>70.0</ele><time>2026-04-06T14:47:13.001Z</time></trkpt><trkpt lat="44.03345857696285" lon="12.388592110349649"><ele>70.0</ele><time>2026-04-06T14:47:14.001Z</time></trkpt><trkpt lat="44.033547060638206" lon="12.388621933928668"><ele>70.6</ele><time>2026-04-06T14:47:15Z</time></trkpt><trkpt lat="44.033641975138245" lon="12.388650496545024"><ele>71.2</ele><time>2026-04-06T14:47:16Z</time></trkpt><trkpt lat="44.033736567932394" lon="12.38867581992344"><ele>71.8</ele><time>2026-04-06T14:47:17Z</time></trkpt><trkpt lat="44.03383188572807" lon="12.38870011400889"><ele>72.4</ele><time>2026-04-06T14:47:18Z</time></trkpt><trkpt lat="44.03392845226524" lon="12.388724641147638"><ele>73.0</ele><time>2026-04-06T14:47:19Z</time></trkpt><trkpt lat="44.03402423588148" lon="12.388757569541076"><ele>73.0</ele><time>2026-04-06T14:47:20Z</time></trkpt><trkpt lat="44.03411725840019" lon="12.388802050687662"><ele>73.0</ele><time>2026-04-06T14:47:21Z</time></trkpt><trkpt lat="44.03420402704202" lon="12.388867646215587"><ele>73.0</ele><time>2026-04-06T14:47:22Z</time></trkpt><trkpt lat="44.034286151581576" lon="12.388955766140965"><ele>73.0</ele><time>2026-04-06T14:47:23Z</time></trkpt><trkpt lat="44.034356928127856" lon="12.389063264099633"><ele>73.0</ele><time>2026-04-06T14:47:24Z</time></trkpt><trkpt lat="44.034424262416486" lon="12.38918295083378"><ele>72.0</ele><time>2026-04-06T14:47:25Z</time></trkpt><trkpt lat="44.03448527217835" lon="12.389313767626978"><ele>71.0</ele><time>2026-04-06T14:47:26Z</time></trkpt><trkpt lat="44.03454652762554" lon="12.38945101624843"><ele>70.0</ele><time>2026-04-06T14:47:27Z</time></trkpt><trkpt lat="44.03461297140327" lon="12.389592391943872"><ele>69.0</ele><time>2026-04-06T14:47:28Z</time></trkpt><trkpt lat="44.034683272808415" lon="12.389740648331248"><ele>68.75</ele><time>2026-04-06T14:47:29Z</time></trkpt><trkpt lat="44.0347560628225" lon="12.389882223548263"><ele>68.5</ele><time>2026-04-06T14:47:30Z</time></trkpt><trkpt lat="44.03483123935758" lon="12.39002411101113"><ele>68.25</ele><time>2026-04-06T14:47:31Z</time></trkpt><trkpt lat="44.03490712511713" lon="12.39016794392049"><ele>68.0</ele><time>2026-04-06T14:47:32Z</time></trkpt><trkpt lat="44.03498786927306" lon="12.390311435409407"><ele>68.0</ele><time>2026-04-06T14:47:33Z</time></trkpt><trkpt lat="44.03506102578799" lon="12.390458659821045"><ele>68.0</ele><time>2026-04-06T14:47:34Z</time></trkpt><trkpt lat="44.03514232205834" lon="12.390607540658605"><ele>68.0</ele><time>2026-04-06T14:47:35Z</time></trkpt><trkpt lat="44.03521789291713" lon="12.390753026084889"><ele>68.0</ele><time>2026-04-06T14:47:36Z</time></trkpt><trkpt lat="44.035293532046396" lon="12.390899146535736"><ele>68.0</ele><time>2026-04-06T14:47:37Z</time></trkpt><trkpt lat="44.03536700721551" lon="12.391042318318242"><ele>68.0</ele><time>2026-04-06T14:47:38Z</time></trkpt><trkpt lat="44.03544338625962" lon="12.391182312328892"><ele>68.0</ele><time>2026-04-06T14:47:39Z</time></trkpt><trkpt lat="44.03552411379536" lon="12.391330381140275"><ele>68.0</ele><time>2026-04-06T14:47:40Z</time></trkpt><trkpt lat="44.03560698382931" lon="12.391480646167032"><ele>68.5</ele><time>2026-04-06T14:47:41Z</time></trkpt><trkpt lat="44.03569107604893" lon="12.391634245831986"><ele>69.0</ele><time>2026-04-06T14:47:42Z</time></trkpt><trkpt lat="44.03577823172116" lon="12.391786377736578"><ele>69.5</ele><time>2026-04-06T14:47:43Z</time></trkpt><trkpt lat="44.035861870314925" lon="12.391941709695217"><ele>70.0</ele><time>2026-04-06T14:47:44Z</time></trkpt><trkpt lat="44.035949390865866" lon="12.392101996899234"><ele>68.5</ele><time>2026-04-06T14:47:45Z</time></trkpt><trkpt lat="44.03603815432485" lon="12.392263416784514"><ele>67.0</ele><time>2026-04-06T14:47:46Z</time></trkpt><trkpt lat="44.03612641170584" lon="12.392422118002882"><ele>65.5</ele><time>2026-04-06T14:47:47Z</time></trkpt><trkpt lat="44.03621648683563" lon="12.39258584950901"><ele>64.0</ele><time>2026-04-06T14:47:48Z</time></trkpt><trkpt lat="44.03630591916622" lon="12.392750755196134"><ele>64.0</ele><time>2026-04-06T14:47:49Z</time></trkpt><trkpt lat="44.03639289982645" lon="12.392910618227864"><ele>64.0</ele><time>2026-04-06T14:47:50Z</time></trkpt><trkpt lat="44.036486956216244" lon="12.39308255286523"><ele>64.0</ele><time>2026-04-06T14:47:51Z</time></trkpt><trkpt lat="44.03656879997734" lon="12.39327074185599"><ele>64.66666666666666</ele><time>2026-04-06T14:47:52Z</time></trkpt><trkpt lat="44.036664504402815" lon="12.393446009504332"><ele>65.33333333333333</ele><time>2026-04-06T14:47:53Z</time></trkpt><trkpt lat="44.036760948962545" lon="12.393623239866569"><ele>66.0</ele><time>2026-04-06T14:47:54Z</time></trkpt><trkpt lat="44.03685646528741" lon="12.393800653405602"><ele>64.33333333333333</ele><time>2026-04-06T14:47:55Z</time></trkpt><trkpt lat="44.03695294522645" lon="12.393981918737566"><ele>62.666666666666664</ele><time>2026-04-06T14:47:56Z</time></trkpt><trkpt lat="44.03704744848601" lon="12.394160292420743"><ele>61.0</ele><time>2026-04-06T14:47:57Z</time></trkpt><trkpt lat="44.03714300667016" lon="12.394340722189696"><ele>61.0</ele><time>2026-04-06T14:47:58Z</time></trkpt><trkpt lat="44.03724081759356" lon="12.394525405508935"><ele>61.0</ele><time>2026-04-06T14:47:59Z</time></trkpt><trkpt lat="44.03733951289392" lon="12.394707673803389"><ele>61.0</ele><time>2026-04-06T14:48:00Z</time></trkpt><trkpt lat="44.03745222377059" lon="12.394877455284561"><ele>61.666666666666664</ele><time>2026-04-06T14:48:01Z</time></trkpt><trkpt lat="44.03754113999227" lon="12.395071476420002"><ele>62.33333333333333</ele><time>2026-04-06T14:48:02Z</time></trkpt><trkpt lat="44.03765006476038" lon="12.39524836219298"><ele>63.0</ele><time>2026-04-06T14:48:03Z</time></trkpt><trkpt lat="44.03776774093104" lon="12.395413863514857"><ele>61.33333333333333</ele><time>2026-04-06T14:48:04Z</time></trkpt><trkpt lat="44.0378921613709" lon="12.395574967640567"><ele>59.666666666666664</ele><time>2026-04-06T14:48:05Z</time></trkpt><trkpt lat="44.038033340112094" lon="12.395712328753525"><ele>58.0</ele><time>2026-04-06T14:48:06.001Z</time></trkpt><trkpt lat="44.03816651722921" lon="12.395862035985513"><ele>58.0</ele><time>2026-04-06T14:48:07.001Z</time></trkpt><trkpt lat="44.03829613828713" lon="12.396001928564658"><ele>58.0</ele><time>2026-04-06T14:48:08.001Z</time></trkpt><trkpt lat="44.03842949428719" lon="12.39613313522412"><ele>58.0</ele><time>2026-04-06T14:48:09.001Z</time></trkpt><trkpt lat="44.0385580309282" lon="12.396253829745731"><ele>58.0</ele><time>2026-04-06T14:48:10.001Z</time></trkpt><trkpt lat="44.03868840272216" lon="12.396375373496127"><ele>58.0</ele><time>2026-04-06T14:48:11.001Z</time></trkpt><trkpt lat="44.03882421703437" lon="12.396496028158714"><ele>58.0</ele><time>2026-04-06T14:48:12.001Z</time></trkpt><trkpt lat="44.038953044801346" lon="12.396639150752513"><ele>58.0</ele><time>2026-04-06T14:48:13.001Z</time></trkpt><trkpt lat="44.03909323119098" lon="12.396765849587087"><ele>58.0</ele><time>2026-04-06T14:48:14.001Z</time></trkpt><trkpt lat="44.03923843710559" lon="12.396871835930561"><ele>58.0</ele><time>2026-04-06T14:48:15.001Z</time></trkpt><trkpt lat="44.03937702628162" lon="12.396997431491824"><ele>58.33333333333333</ele><time>2026-04-06T14:48:16.001Z</time></trkpt><trkpt lat="44.03951305505834" lon="12.397122344714107"><ele>58.66666666666667</ele><time>2026-04-06T14:48:17.001Z</time></trkpt><trkpt lat="44.03964947917138" lon="12.397254331393368"><ele>59.0</ele><time>2026-04-06T14:48:18.001Z</time></trkpt><trkpt lat="44.03977361247555" lon="12.397398445489884"><ele>59.0</ele><time>2026-04-06T14:48:19.001Z</time></trkpt><trkpt lat="44.03989013329289" lon="12.397553075459701"><ele>59.0</ele><time>2026-04-06T14:48:20.001Z</time></trkpt><trkpt lat="44.040001892542286" lon="12.397713878611855"><ele>59.0</ele><time>2026-04-06T14:48:21.001Z</time></trkpt><trkpt lat="44.04010959765002" lon="12.397887712657479"><ele>59.0</ele><time>2026-04-06T14:48:22.001Z</time></trkpt><trkpt lat="44.040205840733854" lon="12.398069379612489"><ele>59.0</ele><time>2026-04-06T14:48:23.001Z</time></trkpt><trkpt lat="44.040299650295985" lon="12.398262446639526"><ele>59.0</ele><time>2026-04-06T14:48:24.001Z</time></trkpt><trkpt lat="44.04039067357634" lon="12.398455995806158"><ele>59.0</ele><time>2026-04-06T14:48:25.001Z</time></trkpt><trkpt lat="44.04048327707566" lon="12.398644382177569"><ele>59.0</ele><time>2026-04-06T14:48:26.001Z</time></trkpt><trkpt lat="44.040572557833315" lon="12.398830446684052"><ele>59.0</ele><time>2026-04-06T14:48:27.001Z</time></trkpt><trkpt lat="44.040660649078106" lon="12.399019509098865"><ele>59.0</ele><time>2026-04-06T14:48:28.001Z</time></trkpt><trkpt lat="44.04075158619958" lon="12.399213320630949"><ele>59.0</ele><time>2026-04-06T14:48:29.001Z</time></trkpt><trkpt lat="44.040844046251955" lon="12.399405333441191"><ele>59.0</ele><time>2026-04-06T14:48:30.001Z</time></trkpt><trkpt lat="44.04093537174822" lon="12.399598797132384"><ele>58.66666666666667</ele><time>2026-04-06T14:48:31.001Z</time></trkpt><trkpt lat="44.041025334656034" lon="12.399793238028199"><ele>58.33333333333333</ele><time>2026-04-06T14:48:32.001Z</time></trkpt><trkpt lat="44.04111489115865" lon="12.399987893390758"><ele>58.0</ele><time>2026-04-06T14:48:33.001Z</time></trkpt><trkpt lat="44.04120438811117" lon="12.40018338509575"><ele>58.0</ele><time>2026-04-06T14:48:34.001Z</time></trkpt><trkpt lat="44.041292285508376" lon="12.400377065876988"><ele>58.0</ele><time>2026-04-06T14:48:35.001Z</time></trkpt><trkpt lat="44.04138072455902" lon="12.400568187727913"><ele>58.0</ele><time>2026-04-06T14:48:36.001Z</time></trkpt><trkpt lat="44.041469714459055" lon="12.40075901036291"><ele>57.666666666666664</ele><time>2026-04-06T14:48:37.001Z</time></trkpt><trkpt lat="44.04155860505303" lon="12.400949712720255"><ele>57.33333333333333</ele><time>2026-04-06T14:48:38.001Z</time></trkpt><trkpt lat="44.04164470497367" lon="12.401137566136482"><ele>57.0</ele><time>2026-04-06T14:48:39.001Z</time></trkpt><trkpt lat="44.041726513509396" lon="12.401318335210686"><ele>56.66666666666667</ele><time>2026-04-06T14:48:40.001Z</time></trkpt><trkpt lat="44.041806512085685" lon="12.401493836391476"><ele>56.333333333333336</ele><time>2026-04-06T14:48:41.001Z</time></trkpt><trkpt lat="44.0418906170284" lon="12.401672052855469"><ele>56.0</ele><time>2026-04-06T14:48:42.001Z</time></trkpt><trkpt lat="44.0419757006327" lon="12.401852019929636"><ele>56.0</ele><time>2026-04-06T14:48:43.001Z</time></trkpt><trkpt lat="44.0420625622116" lon="12.40203560179007"><ele>56.0</ele><time>2026-04-06T14:48:44.001Z</time></trkpt><trkpt lat="44.04215115997372" lon="12.40222668639847"><ele>56.0</ele><time>2026-04-06T14:48:45.001Z</time></trkpt><trkpt lat="44.042239544897626" lon="12.402419196659757"><ele>56.0</ele><time>2026-04-06T14:48:46.001Z</time></trkpt><trkpt lat="44.04233079834599" lon="12.402615597459393"><ele>56.0</ele><time>2026-04-06T14:48:47.001Z</time></trkpt><trkpt lat="44.042421107469345" lon="12.402806708047468"><ele>56.0</ele><time>2026-04-06T14:48:48.001Z</time></trkpt><trkpt lat="44.04250988826659" lon="12.402997701754046"><ele>56.333333333333336</ele><time>2026-04-06T14:48:49.001Z</time></trkpt><trkpt lat="44.04259784027005" lon="12.403188380753763"><ele>56.66666666666667</ele><time>2026-04-06T14:48:50.001Z</time></trkpt><trkpt lat="44.04268677466373" lon="12.403379892291353"><ele>57.0</ele><time>2026-04-06T14:48:51.001Z</time></trkpt><trkpt lat="44.04277639768006" lon="12.40356917301956"><ele>57.0</ele><time>2026-04-06T14:48:52.001Z</time></trkpt><trkpt lat="44.042869547300846" lon="12.403764046891904"><ele>57.0</ele><time>2026-04-06T14:48:53.001Z</time></trkpt><trkpt lat="44.04295914099884" lon="12.403957914725645"><ele>57.0</ele><time>2026-04-06T14:48:54.001Z</time></trkpt><trkpt lat="44.04304909585483" lon="12.404152771804203"><ele>57.0</ele><time>2026-04-06T14:48:55.001Z</time></trkpt><trkpt lat="44.0431362723985" lon="12.40434290919095"><ele>57.0</ele><time>2026-04-06T14:48:56.001Z</time></trkpt><trkpt lat="44.043224557710914" lon="12.404529349129028"><ele>57.0</ele><time>2026-04-06T14:48:57.001Z</time></trkpt><trkpt lat="44.04331512939262" lon="12.404723763018337"><ele>56.33333333333333</ele><time>2026-04-06T14:48:58.001Z</time></trkpt><trkpt lat="44.04340450091031" lon="12.404912577867524"><ele>55.666666666666664</ele><time>2026-04-06T14:48:59.001Z</time></trkpt><trkpt lat="44.043492848323304" lon="12.40510144689071"><ele>55.0</ele><time>2026-04-06T14:49:00.001Z</time></trkpt><trkpt lat="44.043582284762245" lon="12.405290696110011"><ele>55.0</ele><time>2026-04-06T14:49:01.001Z</time></trkpt><trkpt lat="44.04366983771463" lon="12.40547834644876"><ele>55.0</ele><time>2026-04-06T14:49:02.001Z</time></trkpt><trkpt lat="44.043756562717874" lon="12.405661498188099"><ele>55.0</ele><time>2026-04-06T14:49:03.001Z</time></trkpt><trkpt lat="44.04384342568916" lon="12.405845035501198"><ele>54.666666666666664</ele><time>2026-04-06T14:49:04.001Z</time></trkpt><trkpt lat="44.04393095023607" lon="12.406028547583935"><ele>54.33333333333333</ele><time>2026-04-06T14:49:05.001Z</time></trkpt><trkpt lat="44.0440197067978" lon="12.406214892893264"><ele>54.0</ele><time>2026-04-06T14:49:06.001Z</time></trkpt><trkpt lat="44.04410698234153" lon="12.406402647996373"><ele>53.66666666666667</ele><time>2026-04-06T14:49:07.001Z</time></trkpt><trkpt lat="44.04418999312824" lon="12.406583899823499"><ele>53.333333333333336</ele><time>2026-04-06T14:49:08.001Z</time></trkpt><trkpt lat="44.044273746630424" lon="12.406763271312435"><ele>53.0</ele><time>2026-04-06T14:49:09.001Z</time></trkpt><trkpt lat="44.044356228485384" lon="12.406937763140885"><ele>53.0</ele><time>2026-04-06T14:49:10.001Z</time></trkpt><trkpt lat="44.04443384441419" lon="12.407102059770176"><ele>53.0</ele><time>2026-04-06T14:49:11.001Z</time></trkpt><trkpt lat="44.044502915757434" lon="12.407258904514729"><ele>53.0</ele><time>2026-04-06T14:49:12.001Z</time></trkpt><trkpt lat="44.044575195742866" lon="12.407412873784391"><ele>53.0</ele><time>2026-04-06T14:49:13.001Z</time></trkpt><trkpt lat="44.04464552590287" lon="12.407560347700803"><ele>53.25</ele><time>2026-04-06T14:49:14.001Z</time></trkpt><trkpt lat="44.04471236084717" lon="12.407702496340569"><ele>53.5</ele><time>2026-04-06T14:49:15.002Z</time></trkpt><trkpt lat="44.04477918524519" lon="12.407846893526065"><ele>53.75</ele><time>2026-04-06T14:49:16.002Z</time></trkpt><trkpt lat="44.04483974474665" lon="12.407980451759348"><ele>54.0</ele><time>2026-04-06T14:49:17.002Z</time></trkpt><trkpt lat="44.044897203917095" lon="12.408103644403898"><ele>53.833333333333336</ele><time>2026-04-06T14:49:18.002Z</time></trkpt><trkpt lat="44.04494756502977" lon="12.408209808980827"><ele>53.66666666666667</ele><time>2026-04-06T14:49:19.002Z</time></trkpt><trkpt lat="44.04498880456696" lon="12.408296433585388"><ele>53.5</ele><time>2026-04-06T14:49:20.002Z</time></trkpt><trkpt lat="44.04502738922059" lon="12.408376195295581"><ele>53.333333333333336</ele><time>2026-04-06T14:49:21Z</time></trkpt><trkpt lat="44.045061195415045" lon="12.408452432821532"><ele>53.16666666666667</ele><time>2026-04-06T14:49:22Z</time></trkpt><trkpt lat="44.045102348065925" lon="12.40859602370753"><ele>53.0</ele><time>2026-04-06T14:49:24Z</time></trkpt><trkpt lat="44.04511760682871" lon="12.40874956657768"><ele>53.00000000000001</ele><time>2026-04-06T14:49:26Z</time></trkpt><trkpt lat="44.04517083661951" lon="12.408851524673477"><ele>53.0</ele><time>2026-04-06T14:49:28Z</time></trkpt><trkpt lat="44.045264529478324" lon="12.408791753290657"><ele>53.0</ele><time>2026-04-06T14:49:30Z</time></trkpt><trkpt lat="44.04529436736541" lon="12.408699157368503"><ele>53.0</ele><time>2026-04-06T14:49:31Z</time></trkpt><trkpt lat="44.04533196567972" lon="12.408593012782049"><ele>53.00000000000001</ele><time>2026-04-06T14:49:32Z</time></trkpt><trkpt lat="44.04542087832031" lon="12.408537949610416"><ele>53.0</ele><time>2026-04-06T14:49:33Z</time></trkpt><trkpt lat="44.0455315107148" lon="12.40847565864638"><ele>53.0</ele><time>2026-04-06T14:49:34Z</time></trkpt><trkpt lat="44.045658953883176" lon="12.4083980979908"><ele>53.0</ele><time>2026-04-06T14:49:35Z</time></trkpt><trkpt lat="44.04579213640433" lon="12.40829810282893"><ele>53.0</ele><time>2026-04-06T14:49:36Z</time></trkpt><trkpt lat="44.04595170124338" lon="12.408160455806298"><ele>52.5</ele><time>2026-04-06T14:49:37Z</time></trkpt><trkpt lat="44.04614623475737" lon="12.407987622759219"><ele>52.0</ele><time>2026-04-06T14:49:38Z</time></trkpt><trkpt lat="44.04635894546363" lon="12.407802747587004"><ele>52.0</ele><time>2026-04-06T14:49:39Z</time></trkpt><trkpt lat="44.046585350455935" lon="12.407586773548239"><ele>52.0</ele><time>2026-04-06T14:49:40Z</time></trkpt><trkpt lat="44.04683018201539" lon="12.407366008790854"><ele>52.5</ele><time>2026-04-06T14:49:41Z</time></trkpt><trkpt lat="44.047104979077034" lon="12.407146457942801"><ele>53.0</ele><time>2026-04-06T14:49:42Z</time></trkpt><trkpt lat="44.04736684390289" lon="12.406915633967857"><ele>53.5</ele><time>2026-04-06T14:49:43Z</time></trkpt><trkpt lat="44.04756801711993" lon="12.406742190232794"><ele>54.0</ele><time>2026-04-06T14:49:44Z</time></trkpt><trkpt lat="44.047770858662126" lon="12.406538747540361"><ele>54.0</ele><time>2026-04-06T14:49:45Z</time></trkpt><trkpt lat="44.04799285067603" lon="12.406340148840107"><ele>54.0</ele><time>2026-04-06T14:49:46Z</time></trkpt><trkpt lat="44.048201697007556" lon="12.406111711991905"><ele>52.5</ele><time>2026-04-06T14:49:47Z</time></trkpt><trkpt lat="44.048396642813394" lon="12.405828611447324"><ele>51.0</ele><time>2026-04-06T14:49:48Z</time></trkpt><trkpt lat="44.04858174500536" lon="12.405503111572106"><ele>50.5</ele><time>2026-04-06T14:49:49Z</time></trkpt><trkpt lat="44.0487557609496" lon="12.405162386054457"><ele>50.0</ele><time>2026-04-06T14:49:50Z</time></trkpt><trkpt lat="44.04888755446811" lon="12.404845908331904"><ele>52.0</ele><time>2026-04-06T14:49:51Z</time></trkpt><trkpt lat="44.048982478023945" lon="12.404496824520665"><ele>54.0</ele><time>2026-04-06T14:49:52Z</time></trkpt><trkpt lat="44.049055891898306" lon="12.404095540367809"><ele>55.0</ele><time>2026-04-06T14:49:53Z</time></trkpt><trkpt lat="44.04912302618106" lon="12.403752270428862"><ele>56.0</ele><time>2026-04-06T14:49:54Z</time></trkpt><trkpt lat="44.04921770917352" lon="12.403484527804492"><ele>56.0</ele><time>2026-04-06T14:49:55Z</time></trkpt><trkpt lat="44.04931823870038" lon="12.40326614573352"><ele>56.0</ele><time>2026-04-06T14:49:56Z</time></trkpt><trkpt lat="44.049428449063605" lon="12.403083885673807"><ele>56.0</ele><time>2026-04-06T14:49:57Z</time></trkpt><trkpt lat="44.04954743222853" lon="12.40291889457672"><ele>56.25</ele><time>2026-04-06T14:49:58Z</time></trkpt><trkpt lat="44.04966108190126" lon="12.402807452743794"><ele>56.5</ele><time>2026-04-06T14:49:59Z</time></trkpt><trkpt lat="44.04979184239796" lon="12.402736672343343"><ele>56.75</ele><time>2026-04-06T14:50:00Z</time></trkpt><trkpt lat="44.049937854666695" lon="12.402757561218023"><ele>57.0</ele><time>2026-04-06T14:50:01Z</time></trkpt><trkpt lat="44.050123963741626" lon="12.402839722524753"><ele>57.0</ele><time>2026-04-06T14:50:02.001Z</time></trkpt><trkpt lat="44.05036948338282" lon="12.402958917706487"><ele>57.0</ele><time>2026-04-06T14:50:03.001Z</time></trkpt><trkpt lat="44.050641264523435" lon="12.40309287270344"><ele>55.5</ele><time>2026-04-06T14:50:04.001Z</time></trkpt><trkpt lat="44.050864315025564" lon="12.403255468824973"><ele>54.0</ele><time>2026-04-06T14:50:05.001Z</time></trkpt><trkpt lat="44.05107639137277" lon="12.40344373650003"><ele>54.0</ele><time>2026-04-06T14:50:06.001Z</time></trkpt><trkpt lat="44.05126251844641" lon="12.403615100882938"><ele>54.0</ele><time>2026-04-06T14:50:07.001Z</time></trkpt><trkpt lat="44.05143356918562" lon="12.403755734781331"><ele>54.0</ele><time>2026-04-06T14:50:08.001Z</time></trkpt><trkpt lat="44.051585479953204" lon="12.403897119988477"><ele>53.0</ele><time>2026-04-06T14:50:09.001Z</time></trkpt><trkpt lat="44.0517427199666" lon="12.404032771987579"><ele>52.0</ele><time>2026-04-06T14:50:10.001Z</time></trkpt><trkpt lat="44.0519012821342" lon="12.404123670681289"><ele>51.0</ele><time>2026-04-06T14:50:11.001Z</time></trkpt><trkpt lat="44.052069486208666" lon="12.40412928407636"><ele>51.0</ele><time>2026-04-06T14:50:12.001Z</time></trkpt><trkpt lat="44.052248663609184" lon="12.404060348566"><ele>51.0</ele><time>2026-04-06T14:50:13.001Z</time></trkpt><trkpt lat="44.0524426127499" lon="12.40388257348401"><ele>51.0</ele><time>2026-04-06T14:50:14.001Z</time></trkpt><trkpt lat="44.0526576183579" lon="12.403715655762781"><ele>50.66666666666667</ele><time>2026-04-06T14:50:15.001Z</time></trkpt><trkpt lat="44.0528650991164" lon="12.403600536679932"><ele>50.333333333333336</ele><time>2026-04-06T14:50:16.001Z</time></trkpt><trkpt lat="44.05304223874727" lon="12.40346434491278"><ele>50.0</ele><time>2026-04-06T14:50:17.001Z</time></trkpt><trkpt lat="44.05322985057936" lon="12.403368249312356"><ele>50.0</ele><time>2026-04-06T14:50:18.001Z</time></trkpt><trkpt lat="44.05339674249201" lon="12.403239207064216"><ele>50.0</ele><time>2026-04-06T14:50:19.001Z</time></trkpt><trkpt lat="44.05356167555744" lon="12.403155897984593"><ele>50.0</ele><time>2026-04-06T14:50:20.001Z</time></trkpt><trkpt lat="44.05372157101007" lon="12.403053574452565"><ele>50.0</ele><time>2026-04-06T14:50:21.001Z</time></trkpt><trkpt lat="44.05388475911062" lon="12.402949142153414"><ele>50.0</ele><time>2026-04-06T14:50:22.001Z</time></trkpt><trkpt lat="44.05403843711254" lon="12.402850795843646"><ele>50.0</ele><time>2026-04-06T14:50:23.001Z</time></trkpt><trkpt lat="44.05418331272636" lon="12.402758082629896"><ele>49.75</ele><time>2026-04-06T14:50:24.001Z</time></trkpt><trkpt lat="44.05431945310714" lon="12.40267095953297"><ele>49.5</ele><time>2026-04-06T14:50:25.001Z</time></trkpt><trkpt lat="44.05445629818432" lon="12.402583385465785"><ele>49.25</ele><time>2026-04-06T14:50:26.001Z</time></trkpt><trkpt lat="44.054584997753224" lon="12.402501024119742"><ele>49.0</ele><time>2026-04-06T14:50:27.001Z</time></trkpt><trkpt lat="44.05470424120985" lon="12.402424714210627"><ele>49.0</ele><time>2026-04-06T14:50:28.001Z</time></trkpt><trkpt lat="44.05481834156847" lon="12.40235169563503"><ele>49.0</ele><time>2026-04-06T14:50:29.001Z</time></trkpt><trkpt lat="44.054926072725635" lon="12.402282611879409"><ele>49.0</ele><time>2026-04-06T14:50:30.001Z</time></trkpt><trkpt lat="44.05502202340028" lon="12.402221068415253"><ele>49.0</ele><time>2026-04-06T14:50:31.001Z</time></trkpt><trkpt lat="44.05510085867045" lon="12.402146684384558"><ele>49.0</ele><time>2026-04-06T14:50:32.001Z</time></trkpt><trkpt lat="44.05517333891294" lon="12.402097086645634"><ele>49.25</ele><time>2026-04-06T14:50:33.001Z</time></trkpt><trkpt lat="44.05522927134926" lon="12.402051944183356"><ele>49.5</ele><time>2026-04-06T14:50:34.001Z</time></trkpt><trkpt lat="44.05534175443545" lon="12.401976786621772"><ele>49.75</ele><time>2026-04-06T14:50:36.001Z</time></trkpt><trkpt lat="44.0554387104315" lon="12.401913715982765"><ele>50.0</ele><time>2026-04-06T14:50:38.001Z</time></trkpt><trkpt lat="44.055587716442545" lon="12.402030463041179"><ele>50.0</ele><time>2026-04-06T14:50:40.001Z</time></trkpt><trkpt lat="44.0556580266565" lon="12.402116912196364"><ele>50.0</ele><time>2026-04-06T14:50:41.001Z</time></trkpt><trkpt lat="44.05572722073533" lon="12.40221030215354"><ele>50.0</ele><time>2026-04-06T14:50:42.001Z</time></trkpt><trkpt lat="44.055799620499855" lon="12.402303449271423"><ele>50.0</ele><time>2026-04-06T14:50:43.001Z</time></trkpt><trkpt lat="44.05587186502988" lon="12.402393833369894"><ele>50.0</ele><time>2026-04-06T14:50:44.001Z</time></trkpt><trkpt lat="44.05594856266271" lon="12.402483368474883"><ele>49.5</ele><time>2026-04-06T14:50:45.001Z</time></trkpt><trkpt lat="44.05602791004284" lon="12.402579339121298"><ele>49.0</ele><time>2026-04-06T14:50:46.001Z</time></trkpt><trkpt lat="44.05611292044903" lon="12.402681409371299"><ele>48.5</ele><time>2026-04-06T14:50:47.001Z</time></trkpt><trkpt lat="44.05620076220798" lon="12.402793036955668"><ele>48.0</ele><time>2026-04-06T14:50:48.001Z</time></trkpt><trkpt lat="44.05629064786893" lon="12.402903120405727"><ele>47.75</ele><time>2026-04-06T14:50:49.001Z</time></trkpt><trkpt lat="44.05638228617425" lon="12.403012670129945"><ele>47.5</ele><time>2026-04-06T14:50:50.001Z</time></trkpt><trkpt lat="44.05648044258596" lon="12.403130496534617"><ele>47.25</ele><time>2026-04-06T14:50:51.001Z</time></trkpt><trkpt lat="44.056576836061" lon="12.40324617834388"><ele>47.0</ele><time>2026-04-06T14:50:52.001Z</time></trkpt><trkpt lat="44.05668035095715" lon="12.403373427221648"><ele>46.5</ele><time>2026-04-06T14:50:53.001Z</time></trkpt><trkpt lat="44.056789589552515" lon="12.403504682044574"><ele>46.0</ele><time>2026-04-06T14:50:54.001Z</time></trkpt><trkpt lat="44.056900421744935" lon="12.40364017785698"><ele>45.5</ele><time>2026-04-06T14:50:55.001Z</time></trkpt><trkpt lat="44.057018691711065" lon="12.403780966062289"><ele>45.0</ele><time>2026-04-06T14:50:56.001Z</time></trkpt><trkpt lat="44.05713003010965" lon="12.403917056701248"><ele>45.0</ele><time>2026-04-06T14:50:57.001Z</time></trkpt><trkpt lat="44.05724052300887" lon="12.404051282439315"><ele>45.0</ele><time>2026-04-06T14:50:58.001Z</time></trkpt><trkpt lat="44.057346790907275" lon="12.404177467616167"><ele>45.0</ele><time>2026-04-06T14:50:59.001Z</time></trkpt><trkpt lat="44.05743509132553" lon="12.404291453061035"><ele>45.0</ele><time>2026-04-06T14:51:00.001Z</time></trkpt><trkpt lat="44.057526785256606" lon="12.404396796547905"><ele>45.4</ele><time>2026-04-06T14:51:01.001Z</time></trkpt><trkpt lat="44.057607214668494" lon="12.404498477211202"><ele>45.8</ele><time>2026-04-06T14:51:02.001Z</time></trkpt><trkpt lat="44.0576771855592" lon="12.404609647904344"><ele>46.2</ele><time>2026-04-06T14:51:03.001Z</time></trkpt><trkpt lat="44.05773228345452" lon="12.40471958636151"><ele>46.6</ele><time>2026-04-06T14:51:04.001Z</time></trkpt><trkpt lat="44.057770464533284" lon="12.404830378810109"><ele>47.0</ele><time>2026-04-06T14:51:05.001Z</time></trkpt><trkpt lat="44.057798522573044" lon="12.404929012872232"><ele>47.0</ele><time>2026-04-06T14:51:06.001Z</time></trkpt><trkpt lat="44.05785161661983" lon="12.40500223952133"><ele>47.0</ele><time>2026-04-06T14:51:08.001Z</time></trkpt><trkpt lat="44.057919515824125" lon="12.404958511780872"><ele>47.0</ele><time>2026-04-06T14:51:09.001Z</time></trkpt><trkpt lat="44.05796017752695" lon="12.404890669896277"><ele>47.0</ele><time>2026-04-06T14:51:10.002Z</time></trkpt><trkpt lat="44.05798370151814" lon="12.404784869561013"><ele>47.0</ele><time>2026-04-06T14:51:11.002Z</time></trkpt><trkpt lat="44.05800151437349" lon="12.404642209464017"><ele>47.0</ele><time>2026-04-06T14:51:12.002Z</time></trkpt><trkpt lat="44.05803775544528" lon="12.4044837372931"><ele>47.0</ele><time>2026-04-06T14:51:13.002Z</time></trkpt><trkpt lat="44.0580699895866" lon="12.404288435978593"><ele>47.0</ele><time>2026-04-06T14:51:14.002Z</time></trkpt><trkpt lat="44.05809361071629" lon="12.40407506039492"><ele>47.0</ele><time>2026-04-06T14:51:15.002Z</time></trkpt><trkpt lat="44.058129133014916" lon="12.403850231926919"><ele>46.33333333333333</ele><time>2026-04-06T14:51:16.002Z</time></trkpt><trkpt lat="44.058161871257795" lon="12.403651413602303"><ele>45.666666666666664</ele><time>2026-04-06T14:51:17.002Z</time></trkpt><trkpt lat="44.05830193862412" lon="12.40348421403803"><ele>45.0</ele><time>2026-04-06T14:51:18.002Z</time></trkpt><trkpt lat="44.058469484942236" lon="12.403257907796778"><ele>45.0</ele><time>2026-04-06T14:51:19.002Z</time></trkpt><trkpt lat="44.058648919852985" lon="12.403035980674622"><ele>45.0</ele><time>2026-04-06T14:51:20.002Z</time></trkpt><trkpt lat="44.058802237939574" lon="12.40288806827509"><ele>45.0</ele><time>2026-04-06T14:51:21.002Z</time></trkpt><trkpt lat="44.05893799739246" lon="12.402764646055726"><ele>45.333333333333336</ele><time>2026-04-06T14:51:22.002Z</time></trkpt><trkpt lat="44.05907651257283" lon="12.402644414554507"><ele>45.66666666666667</ele><time>2026-04-06T14:51:23.002Z</time></trkpt><trkpt lat="44.05921738053303" lon="12.402528041700354"><ele>46.0</ele><time>2026-04-06T14:51:24.002Z</time></trkpt><trkpt lat="44.0593623724122" lon="12.402406107981045"><ele>45.333333333333336</ele><time>2026-04-06T14:51:25.002Z</time></trkpt><trkpt lat="44.05950814599829" lon="12.402287639043639"><ele>44.666666666666664</ele><time>2026-04-06T14:51:26.002Z</time></trkpt><trkpt lat="44.05964739168538" lon="12.40216562896435"><ele>44.0</ele><time>2026-04-06T14:51:27Z</time></trkpt><trkpt lat="44.05979965353996" lon="12.402085851301518"><ele>44.0</ele><time>2026-04-06T14:51:28Z</time></trkpt><trkpt lat="44.05993729202734" lon="12.40196666586906"><ele>44.0</ele><time>2026-04-06T14:51:29Z</time></trkpt><trkpt lat="44.060067870438196" lon="12.401853593976853"><ele>44.0</ele><time>2026-04-06T14:51:30Z</time></trkpt><trkpt lat="44.06020336782351" lon="12.401736262590946"><ele>44.0</ele><time>2026-04-06T14:51:31Z</time></trkpt><trkpt lat="44.06033821191312" lon="12.401619496914009"><ele>44.0</ele><time>2026-04-06T14:51:32Z</time></trkpt><trkpt lat="44.06049174101447" lon="12.401486551302686"><ele>44.0</ele><time>2026-04-06T14:51:33Z</time></trkpt><trkpt lat="44.06061658081668" lon="12.401377370108493"><ele>44.0</ele><time>2026-04-06T14:51:34Z</time></trkpt><trkpt lat="44.060746346422796" lon="12.401263428042961"><ele>44.0</ele><time>2026-04-06T14:51:35Z</time></trkpt><trkpt lat="44.06088399377042" lon="12.401142565331087"><ele>44.0</ele><time>2026-04-06T14:51:36Z</time></trkpt><trkpt lat="44.06100123420702" lon="12.40103965725867"><ele>43.666666666666664</ele><time>2026-04-06T14:51:37Z</time></trkpt><trkpt lat="44.06115576061521" lon="12.400904065209536"><ele>43.333333333333336</ele><time>2026-04-06T14:51:38Z</time></trkpt><trkpt lat="44.06130362156549" lon="12.400774321885121"><ele>43.0</ele><time>2026-04-06T14:51:39Z</time></trkpt><trkpt lat="44.06144193820589" lon="12.400653866891266"><ele>43.0</ele><time>2026-04-06T14:51:40Z</time></trkpt><trkpt lat="44.06156332309581" lon="12.400548716413622"><ele>43.0</ele><time>2026-04-06T14:51:41Z</time></trkpt><trkpt lat="44.06167528442744" lon="12.400454058435583"><ele>43.0</ele><time>2026-04-06T14:51:42Z</time></trkpt><trkpt lat="44.06177269923983" lon="12.400373811221316"><ele>43.0</ele><time>2026-04-06T14:51:43Z</time></trkpt><trkpt lat="44.061887379810415" lon="12.40029025058718"><ele>42.5</ele><time>2026-04-06T14:51:44Z</time></trkpt><trkpt lat="44.062006991048584" lon="12.40023952948593"><ele>42.0</ele><time>2026-04-06T14:51:45Z</time></trkpt><trkpt lat="44.06212792213347" lon="12.400270522867118"><ele>41.5</ele><time>2026-04-06T14:51:46Z</time></trkpt><trkpt lat="44.06226878953897" lon="12.400349153313023"><ele>41.0</ele><time>2026-04-06T14:51:47Z</time></trkpt><trkpt lat="44.06243539107263" lon="12.400456185385005"><ele>41.33333333333333</ele><time>2026-04-06T14:51:48Z</time></trkpt><trkpt lat="44.06259561712575" lon="12.400556107450507"><ele>41.666666666666664</ele><time>2026-04-06T14:51:49Z</time></trkpt><trkpt lat="44.062755666810325" lon="12.400638113243888"><ele>42.0</ele><time>2026-04-06T14:51:50Z</time></trkpt><trkpt lat="44.06291045338098" lon="12.400731999889171"><ele>42.0</ele><time>2026-04-06T14:51:51Z</time></trkpt><trkpt lat="44.06307532886522" lon="12.40080201387028"><ele>42.0</ele><time>2026-04-06T14:51:52Z</time></trkpt><trkpt lat="44.0632431525992" lon="12.400842158415687"><ele>42.0</ele><time>2026-04-06T14:51:53Z</time></trkpt><trkpt lat="44.06340932993232" lon="12.400883607982324"><ele>41.333333333333336</ele><time>2026-04-06T14:51:54Z</time></trkpt><trkpt lat="44.06357472396399" lon="12.40093423935706"><ele>40.66666666666667</ele><time>2026-04-06T14:51:55Z</time></trkpt><trkpt lat="44.063740206265386" lon="12.400988241678832"><ele>40.0</ele><time>2026-04-06T14:51:56Z</time></trkpt><trkpt lat="44.063905536552646" lon="12.401035069322823"><ele>40.0</ele><time>2026-04-06T14:51:57Z</time></trkpt><trkpt lat="44.06405813095719" lon="12.401072113234497"><ele>40.0</ele><time>2026-04-06T14:51:58Z</time></trkpt><trkpt lat="44.064214283945994" lon="12.40108314949525"><ele>40.0</ele><time>2026-04-06T14:51:59Z</time></trkpt><trkpt lat="44.06436866781049" lon="12.401054408905463"><ele>39.66666666666667</ele><time>2026-04-06T14:52:00Z</time></trkpt><trkpt lat="44.06455163452998" lon="12.400982823818325"><ele>39.333333333333336</ele><time>2026-04-06T14:52:01Z</time></trkpt><trkpt lat="44.06474084079369" lon="12.400910918562364"><ele>39.0</ele><time>2026-04-06T14:52:02Z</time></trkpt><trkpt lat="44.06493832786555" lon="12.400844614881162"><ele>38.666666666666664</ele><time>2026-04-06T14:52:03Z</time></trkpt><trkpt lat="44.065123192919586" lon="12.400797201241732"><ele>38.33333333333333</ele><time>2026-04-06T14:52:04Z</time></trkpt><trkpt lat="44.065306722719725" lon="12.400773923420987"><ele>38.0</ele><time>2026-04-06T14:52:05Z</time></trkpt><trkpt lat="44.06549724120673" lon="12.400795441784203"><ele>38.0</ele><time>2026-04-06T14:52:06Z</time></trkpt><trkpt lat="44.065720716027855" lon="12.400854709584864"><ele>38.0</ele><time>2026-04-06T14:52:07Z</time></trkpt><trkpt lat="44.06589279523312" lon="12.400940857901867"><ele>38.0</ele><time>2026-04-06T14:52:08.001Z</time></trkpt><trkpt lat="44.06605260741529" lon="12.401064308638597"><ele>38.0</ele><time>2026-04-06T14:52:09.001Z</time></trkpt><trkpt lat="44.06627010837056" lon="12.401245946783101"><ele>38.0</ele><time>2026-04-06T14:52:10.001Z</time></trkpt><trkpt lat="44.06648241726685" lon="12.401429926918757"><ele>38.5</ele><time>2026-04-06T14:52:11.001Z</time></trkpt><trkpt lat="44.06670774224968" lon="12.401608260663565"><ele>39.0</ele><time>2026-04-06T14:52:12.001Z</time></trkpt><trkpt lat="44.0669062894154" lon="12.40177573213777"><ele>39.0</ele><time>2026-04-06T14:52:13.001Z</time></trkpt><trkpt lat="44.06708754080886" lon="12.40191644173818"><ele>39.0</ele><time>2026-04-06T14:52:14.001Z</time></trkpt><trkpt lat="44.06727036862891" lon="12.402032062348344"><ele>39.0</ele><time>2026-04-06T14:52:15.001Z</time></trkpt><trkpt lat="44.0674862037468" lon="12.402107601580665"><ele>41.0</ele><time>2026-04-06T14:52:16.001Z</time></trkpt><trkpt lat="44.0677228438723" lon="12.402137742125827"><ele>43.0</ele><time>2026-04-06T14:52:17.001Z</time></trkpt><trkpt lat="44.067982629308254" lon="12.40213017584882"><ele>43.0</ele><time>2026-04-06T14:52:18.001Z</time></trkpt><trkpt lat="44.06827155188943" lon="12.4020851748832"><ele>43.0</ele><time>2026-04-06T14:52:19.001Z</time></trkpt><trkpt lat="44.06855201369642" lon="12.40200661501957"><ele>42.0</ele><time>2026-04-06T14:52:20.001Z</time></trkpt><trkpt lat="44.06883318768788" lon="12.401879932572529"><ele>41.0</ele><time>2026-04-06T14:52:21.001Z</time></trkpt><trkpt lat="44.06909242084249" lon="12.401735712797828"><ele>39.5</ele><time>2026-04-06T14:52:22.001Z</time></trkpt><trkpt lat="44.06931473613766" lon="12.4016146814866"><ele>38.0</ele><time>2026-04-06T14:52:23.001Z</time></trkpt><trkpt lat="44.069521241534325" lon="12.401511531521427"><ele>38.0</ele><time>2026-04-06T14:52:24.001Z</time></trkpt><trkpt lat="44.06970750422516" lon="12.401426892445247"><ele>38.0</ele><time>2026-04-06T14:52:25.001Z</time></trkpt><trkpt lat="44.069864365863026" lon="12.401311415614362"><ele>38.0</ele><time>2026-04-06T14:52:26.001Z</time></trkpt><trkpt lat="44.06998220262244" lon="12.401138674492685"><ele>37.5</ele><time>2026-04-06T14:52:27.001Z</time></trkpt><trkpt lat="44.070086585007445" lon="12.40086669357817"><ele>37.0</ele><time>2026-04-06T14:52:28.001Z</time></trkpt><trkpt lat="44.07019773441381" lon="12.400516226681509"><ele>36.5</ele><time>2026-04-06T14:52:29.001Z</time></trkpt><trkpt lat="44.07034270524146" lon="12.400167836502957"><ele>36.0</ele><time>2026-04-06T14:52:30.001Z</time></trkpt><trkpt lat="44.0704715653108" lon="12.399860453222143"><ele>35.666666666666664</ele><time>2026-04-06T14:52:31.001Z</time></trkpt><trkpt lat="44.07059944172929" lon="12.399607605811973"><ele>35.33333333333333</ele><time>2026-04-06T14:52:32.001Z</time></trkpt><trkpt lat="44.07074543271372" lon="12.399426142538907"><ele>35.0</ele><time>2026-04-06T14:52:33.001Z</time></trkpt><trkpt lat="44.07091701757196" lon="12.399279329862322"><ele>35.0</ele><time>2026-04-06T14:52:34.001Z</time></trkpt><trkpt lat="44.0711072977801" lon="12.399128217537006"><ele>35.0</ele><time>2026-04-06T14:52:35.001Z</time></trkpt><trkpt lat="44.0712871216134" lon="12.398981459998181"><ele>35.0</ele><time>2026-04-06T14:52:36.001Z</time></trkpt><trkpt lat="44.07145399363273" lon="12.39884527266588"><ele>34.666666666666664</ele><time>2026-04-06T14:52:37.001Z</time></trkpt><trkpt lat="44.071604025562955" lon="12.398722828844095"><ele>34.333333333333336</ele><time>2026-04-06T14:52:38.001Z</time></trkpt><trkpt lat="44.071740529358514" lon="12.39861712829877"><ele>34.0</ele><time>2026-04-06T14:52:39.001Z</time></trkpt><trkpt lat="44.0718768693876" lon="12.398541616760312"><ele>34.4</ele><time>2026-04-06T14:52:40.001Z</time></trkpt><trkpt lat="44.072002917201935" lon="12.398488679847013"><ele>34.8</ele><time>2026-04-06T14:52:41.001Z</time></trkpt><trkpt lat="44.07210899294509" lon="12.398466470177432"><ele>35.2</ele><time>2026-04-06T14:52:42.001Z</time></trkpt><trkpt lat="44.07219993473306" lon="12.398460504665987"><ele>35.6</ele><time>2026-04-06T14:52:43.001Z</time></trkpt><trkpt lat="44.072290300983" lon="12.398465842018558"><ele>36.0</ele><time>2026-04-06T14:52:45.001Z</time></trkpt><trkpt lat="44.072346450763376" lon="12.39834140745902"><ele>36.0</ele><time>2026-04-06T14:52:47.001Z</time></trkpt><trkpt lat="44.07238021688743" lon="12.398255501785028"><ele>36.0</ele><time>2026-04-06T14:52:49.001Z</time></trkpt><trkpt lat="44.072426871761934" lon="12.398144158545392"><ele>36.0</ele><time>2026-04-06T14:52:51.001Z</time></trkpt><trkpt lat="44.07248494307076" lon="12.398061701303353"><ele>36.0</ele><time>2026-04-06T14:52:52.001Z</time></trkpt><trkpt lat="44.07252920049992" lon="12.397976935889236"><ele>36.0</ele><time>2026-04-06T14:52:53.001Z</time></trkpt><trkpt lat="44.07259399841293" lon="12.397852898973163"><ele>36.0</ele><time>2026-04-06T14:52:55.001Z</time></trkpt><trkpt lat="44.07264525516714" lon="12.397759227105329"><ele>35.833333333333336</ele><time>2026-04-06T14:52:58.001Z</time></trkpt><trkpt lat="44.07268932889548" lon="12.397679723976447"><ele>35.666666666666664</ele><time>2026-04-06T14:53:01.001Z</time></trkpt><trkpt lat="44.072733069624974" lon="12.397601874958855"><ele>35.5</ele><time>2026-04-06T14:53:02.001Z</time></trkpt><trkpt lat="44.07278583961684" lon="12.397507955799803"><ele>35.33333333333333</ele><time>2026-04-06T14:53:03.001Z</time></trkpt><trkpt lat="44.07284662646864" lon="12.397399768370539"><ele>35.166666666666664</ele><time>2026-04-06T14:53:04.001Z</time></trkpt><trkpt lat="44.07291649713572" lon="12.39727737899644"><ele>35.0</ele><time>2026-04-06T14:53:05.001Z</time></trkpt><trkpt lat="44.072994155934175" lon="12.397144740531846"><ele>35.0</ele><time>2026-04-06T14:53:06.001Z</time></trkpt><trkpt lat="44.07307348006817" lon="12.397000173172009"><ele>35.0</ele><time>2026-04-06T14:53:07.001Z</time></trkpt><trkpt lat="44.07314004952186" lon="12.396845295525889"><ele>35.0</ele><time>2026-04-06T14:53:08.001Z</time></trkpt><trkpt lat="44.07319005612952" lon="12.396682678090198"><ele>35.0</ele><time>2026-04-06T14:53:09.001Z</time></trkpt><trkpt lat="44.07322815882413" lon="12.396508049003529"><ele>34.5</ele><time>2026-04-06T14:53:10.001Z</time></trkpt><trkpt lat="44.07325555425958" lon="12.396328532233605"><ele>34.0</ele><time>2026-04-06T14:53:11.001Z</time></trkpt><trkpt lat="44.07328008929519" lon="12.396139874016228"><ele>33.5</ele><time>2026-04-06T14:53:12.001Z</time></trkpt><trkpt lat="44.0733054059991" lon="12.39594052848897"><ele>33.0</ele><time>2026-04-06T14:53:13.001Z</time></trkpt><trkpt lat="44.07333203522052" lon="12.395750902622366"><ele>32.75</ele><time>2026-04-06T14:53:14.001Z</time></trkpt><trkpt lat="44.07336478563502" lon="12.395558287998252"><ele>32.5</ele><time>2026-04-06T14:53:15.001Z</time></trkpt><trkpt lat="44.07340320321713" lon="12.395345376549095"><ele>32.25</ele><time>2026-04-06T14:53:16.001Z</time></trkpt><trkpt lat="44.073436717275115" lon="12.395144760291592"><ele>32.0</ele><time>2026-04-06T14:53:17.001Z</time></trkpt><trkpt lat="44.07346908426983" lon="12.39494701610611"><ele>32.5</ele><time>2026-04-06T14:53:18.001Z</time></trkpt><trkpt lat="44.07349940506025" lon="12.394761773845932"><ele>33.0</ele><time>2026-04-06T14:53:19.002Z</time></trkpt><trkpt lat="44.073527490812424" lon="12.394590186356764"><ele>33.5</ele><time>2026-04-06T14:53:20.002Z</time></trkpt><trkpt lat="44.07347647925931" lon="12.39440463729108"><ele>34.0</ele><time>2026-04-06T14:53:21.002Z</time></trkpt><trkpt lat="44.07345967485357" lon="12.394220636022434"><ele>34.0</ele><time>2026-04-06T14:53:22.002Z</time></trkpt><trkpt lat="44.073432841918205" lon="12.394023899715112"><ele>34.0</ele><time>2026-04-06T14:53:23.002Z</time></trkpt><trkpt lat="44.07340690092394" lon="12.393824415805884"><ele>34.0</ele><time>2026-04-06T14:53:24.002Z</time></trkpt><trkpt lat="44.07338050093545" lon="12.393620434750353"><ele>34.0</ele><time>2026-04-06T14:53:25.002Z</time></trkpt><trkpt lat="44.073358416257264" lon="12.393409652835942"><ele>34.0</ele><time>2026-04-06T14:53:26.002Z</time></trkpt><trkpt lat="44.07334476386855" lon="12.39320872391081"><ele>34.0</ele><time>2026-04-06T14:53:27.002Z</time></trkpt><trkpt lat="44.07332930861607" lon="12.392990543823839"><ele>34.0</ele><time>2026-04-06T14:53:28.002Z</time></trkpt><trkpt lat="44.073321512801854" lon="12.392766477187449"><ele>34.0</ele><time>2026-04-06T14:53:29.002Z</time></trkpt><trkpt lat="44.07332965834556" lon="12.392542836449914"><ele>34.0</ele><time>2026-04-06T14:53:30.002Z</time></trkpt><trkpt lat="44.07335343600701" lon="12.392307580148495"><ele>34.0</ele><time>2026-04-06T14:53:31.002Z</time></trkpt><trkpt lat="44.073391155547725" lon="12.392082053364568"><ele>33.66666666666667</ele><time>2026-04-06T14:53:32.002Z</time></trkpt><trkpt lat="44.07343057016359" lon="12.391833775106905"><ele>33.333333333333336</ele><time>2026-04-06T14:53:33Z</time></trkpt><trkpt lat="44.073468781788556" lon="12.391597156151692"><ele>33.0</ele><time>2026-04-06T14:53:34Z</time></trkpt><trkpt lat="44.073503276380876" lon="12.391360385569929"><ele>34.0</ele><time>2026-04-06T14:53:35Z</time></trkpt><trkpt lat="44.073534495285394" lon="12.391128156813938"><ele>35.0</ele><time>2026-04-06T14:53:36Z</time></trkpt><trkpt lat="44.073566647704176" lon="12.390895366869378"><ele>36.0</ele><time>2026-04-06T14:53:37Z</time></trkpt><trkpt lat="44.07359826692634" lon="12.390669635432655"><ele>37.666666666666664</ele><time>2026-04-06T14:53:38Z</time></trkpt><trkpt lat="44.07363037902535" lon="12.390429671147222"><ele>39.33333333333333</ele><time>2026-04-06T14:53:39Z</time></trkpt><trkpt lat="44.07365505785388" lon="12.39020293568204"><ele>41.0</ele><time>2026-04-06T14:53:40Z</time></trkpt><trkpt lat="44.073686947333975" lon="12.389971476712686"><ele>41.0</ele><time>2026-04-06T14:53:41Z</time></trkpt><trkpt lat="44.0737194795894" lon="12.38973049392833"><ele>41.0</ele><time>2026-04-06T14:53:42Z</time></trkpt><trkpt lat="44.07374883453085" lon="12.389505390484887"><ele>41.0</ele><time>2026-04-06T14:53:43Z</time></trkpt><trkpt lat="44.07377594170044" lon="12.389281258580894"><ele>42.33333333333333</ele><time>2026-04-06T14:53:44Z</time></trkpt><trkpt lat="44.07381372558406" lon="12.389068500085623"><ele>43.666666666666664</ele><time>2026-04-06T14:53:45Z</time></trkpt><trkpt lat="44.073838869660136" lon="12.388860197905357"><ele>45.0</ele><time>2026-04-06T14:53:46Z</time></trkpt><trkpt lat="44.07386582550756" lon="12.388647857117816"><ele>46.5</ele><time>2026-04-06T14:53:47Z</time></trkpt><trkpt lat="44.07389411551034" lon="12.388446399090661"><ele>48.0</ele><time>2026-04-06T14:53:48Z</time></trkpt><trkpt lat="44.073920938401585" lon="12.388265650394056"><ele>49.5</ele><time>2026-04-06T14:53:49Z</time></trkpt><trkpt lat="44.073976499510714" lon="12.38810430406914"><ele>51.0</ele><time>2026-04-06T14:53:50Z</time></trkpt><trkpt lat="44.07400029694443" lon="12.387951981005713"><ele>51.833333333333336</ele><time>2026-04-06T14:53:51Z</time></trkpt><trkpt lat="44.07402016737287" lon="12.38783006319865"><ele>52.66666666666667</ele><time>2026-04-06T14:53:52Z</time></trkpt><trkpt lat="44.07403676030626" lon="12.387737420505033"><ele>53.5</ele><time>2026-04-06T14:53:53Z</time></trkpt><trkpt lat="44.07405810880239" lon="12.387627041621084"><ele>54.333333333333336</ele><time>2026-04-06T14:53:55Z</time></trkpt><trkpt lat="44.07411963746092" lon="12.38755073834618"><ele>55.16666666666667</ele><time>2026-04-06T14:53:58Z</time></trkpt><trkpt lat="44.0741995360994" lon="12.387553588702977"><ele>56.0</ele><time>2026-04-06T14:53:59Z</time></trkpt><trkpt lat="44.07428121093395" lon="12.387582820499928"><ele>57.25</ele><time>2026-04-06T14:54:00Z</time></trkpt><trkpt lat="44.07438165287034" lon="12.387606490419698"><ele>58.5</ele><time>2026-04-06T14:54:01Z</time></trkpt><trkpt lat="44.07451284430461" lon="12.387605393125197"><ele>59.75</ele><time>2026-04-06T14:54:02Z</time></trkpt><trkpt lat="44.07465417187" lon="12.387611588622555"><ele>61.0</ele><time>2026-04-06T14:54:03Z</time></trkpt><trkpt lat="44.07477797190779" lon="12.387628334353757"><ele>61.0</ele><time>2026-04-06T14:54:04Z</time></trkpt><trkpt lat="44.074914587612845" lon="12.387656309930358"><ele>61.0</ele><time>2026-04-06T14:54:05Z</time></trkpt><trkpt lat="44.07506160212321" lon="12.387681450196714"><ele>61.0</ele><time>2026-04-06T14:54:06Z</time></trkpt><trkpt lat="44.07519454325462" lon="12.387696759891188"><ele>61.0</ele><time>2026-04-06T14:54:07Z</time></trkpt><trkpt lat="44.0753295549229" lon="12.387706327652175"><ele>60.33333333333333</ele><time>2026-04-06T14:54:08Z</time></trkpt><trkpt lat="44.07547615746246" lon="12.387720081286554"><ele>59.66666666666667</ele><time>2026-04-06T14:54:09Z</time></trkpt><trkpt lat="44.0756252429452" lon="12.387736161096905"><ele>59.0</ele><time>2026-04-06T14:54:10Z</time></trkpt><trkpt lat="44.07578017620864" lon="12.387753890548383"><ele>59.0</ele><time>2026-04-06T14:54:11Z</time></trkpt><trkpt lat="44.07594109003849" lon="12.3877650709165"><ele>59.0</ele><time>2026-04-06T14:54:12Z</time></trkpt><trkpt lat="44.07610709148206" lon="12.387775571790892"><ele>59.0</ele><time>2026-04-06T14:54:13Z</time></trkpt><trkpt lat="44.07627078126991" lon="12.38777821814488"><ele>59.0</ele><time>2026-04-06T14:54:14.001Z</time></trkpt><trkpt lat="44.076442142199156" lon="12.387774588362968"><ele>59.0</ele><time>2026-04-06T14:54:15.001Z</time></trkpt><trkpt lat="44.07661786274642" lon="12.387769853281002"><ele>59.0</ele><time>2026-04-06T14:54:16.001Z</time></trkpt><trkpt lat="44.07678976136902" lon="12.387766092562435"><ele>58.0</ele><time>2026-04-06T14:54:17.001Z</time></trkpt><trkpt lat="44.07696727061816" lon="12.387770760431117"><ele>57.0</ele><time>2026-04-06T14:54:18.001Z</time></trkpt><trkpt lat="44.0771260527516" lon="12.387791522049948"><ele>56.0</ele><time>2026-04-06T14:54:19.001Z</time></trkpt><trkpt lat="44.077281119451186" lon="12.38784202812464"><ele>56.0</ele><time>2026-04-06T14:54:20.001Z</time></trkpt><trkpt lat="44.07742911547909" lon="12.387911026104643"><ele>56.0</ele><time>2026-04-06T14:54:21.001Z</time></trkpt><trkpt lat="44.07757540812361" lon="12.387996515392807"><ele>56.0</ele><time>2026-04-06T14:54:22.001Z</time></trkpt><trkpt lat="44.07771749384835" lon="12.388096200275125"><ele>54.66666666666667</ele><time>2026-04-06T14:54:23.001Z</time></trkpt><trkpt lat="44.07786511589994" lon="12.388217786545274"><ele>53.33333333333333</ele><time>2026-04-06T14:54:24.001Z</time></trkpt><trkpt lat="44.07800254164715" lon="12.388352894248328"><ele>52.0</ele><time>2026-04-06T14:54:25.001Z</time></trkpt><trkpt lat="44.07812707094537" lon="12.388499236301746"><ele>52.0</ele><time>2026-04-06T14:54:26.001Z</time></trkpt><trkpt lat="44.078259307339124" lon="12.388676734203267"><ele>52.0</ele><time>2026-04-06T14:54:27.001Z</time></trkpt><trkpt lat="44.07838617775358" lon="12.388857993968653"><ele>52.0</ele><time>2026-04-06T14:54:28.001Z</time></trkpt><trkpt lat="44.07852027798785" lon="12.389037566569485"><ele>50.0</ele><time>2026-04-06T14:54:29.001Z</time></trkpt><trkpt lat="44.07865621826517" lon="12.3892206311984"><ele>48.0</ele><time>2026-04-06T14:54:30.001Z</time></trkpt><trkpt lat="44.07881477439752" lon="12.389402208401336"><ele>46.0</ele><time>2026-04-06T14:54:31.001Z</time></trkpt><trkpt lat="44.0789745244753" lon="12.389559091117006"><ele>46.0</ele><time>2026-04-06T14:54:32.001Z</time></trkpt><trkpt lat="44.07916634376667" lon="12.3897111490538"><ele>46.0</ele><time>2026-04-06T14:54:33.001Z</time></trkpt><trkpt lat="44.07934884648143" lon="12.389845143695624"><ele>46.0</ele><time>2026-04-06T14:54:34.001Z</time></trkpt><trkpt lat="44.07954023857223" lon="12.389963586734776"><ele>46.0</ele><time>2026-04-06T14:54:35.001Z</time></trkpt><trkpt lat="44.07972371492332" lon="12.390063005921075"><ele>46.0</ele><time>2026-04-06T14:54:36.001Z</time></trkpt><trkpt lat="44.079920255210304" lon="12.390135717593102"><ele>46.0</ele><time>2026-04-06T14:54:37.001Z</time></trkpt><trkpt lat="44.080099580152016" lon="12.390191708637431"><ele>45.66666666666667</ele><time>2026-04-06T14:54:38.001Z</time></trkpt><trkpt lat="44.08030216389541" lon="12.390211067502023"><ele>45.333333333333336</ele><time>2026-04-06T14:54:39.001Z</time></trkpt><trkpt lat="44.080485640075835" lon="12.390210401042083"><ele>45.0</ele><time>2026-04-06T14:54:40.001Z</time></trkpt><trkpt lat="44.08067151504531" lon="12.390195403232893"><ele>43.666666666666664</ele><time>2026-04-06T14:54:41.001Z</time></trkpt><trkpt lat="44.080846821794566" lon="12.390167783913231"><ele>42.33333333333333</ele><time>2026-04-06T14:54:42.001Z</time></trkpt><trkpt lat="44.08100432764655" lon="12.390140119995909"><ele>41.0</ele><time>2026-04-06T14:54:43.001Z</time></trkpt><trkpt lat="44.08115758434524" lon="12.390113729655791"><ele>41.0</ele><time>2026-04-06T14:54:44.001Z</time></trkpt><trkpt lat="44.08130354815553" lon="12.390086421491223"><ele>41.0</ele><time>2026-04-06T14:54:45.001Z</time></trkpt><trkpt lat="44.08144156479848" lon="12.39006039020985"><ele>41.0</ele><time>2026-04-06T14:54:46.001Z</time></trkpt><trkpt lat="44.08157005212354" lon="12.390037642650535"><ele>41.0</ele><time>2026-04-06T14:54:47.001Z</time></trkpt><trkpt lat="44.081700935683514" lon="12.390012181202646"><ele>40.0</ele><time>2026-04-06T14:54:48.001Z</time></trkpt><trkpt lat="44.0818339121583" lon="12.389985205235424"><ele>39.0</ele><time>2026-04-06T14:54:49.001Z</time></trkpt><trkpt lat="44.081961067232754" lon="12.389961953633403"><ele>38.0</ele><time>2026-04-06T14:54:50.001Z</time></trkpt><trkpt lat="44.082083749154066" lon="12.389936178322044"><ele>37.0</ele><time>2026-04-06T14:54:51.001Z</time></trkpt><trkpt lat="44.08220016165092" lon="12.389915514333191"><ele>37.0</ele><time>2026-04-06T14:54:52.001Z</time></trkpt><trkpt lat="44.08232055328768" lon="12.389892073413456"><ele>37.0</ele><time>2026-04-06T14:54:53.001Z</time></trkpt><trkpt lat="44.08244134250512" lon="12.389867392178113"><ele>37.0</ele><time>2026-04-06T14:54:54.001Z</time></trkpt><trkpt lat="44.08255580243917" lon="12.38984343761007"><ele>37.0</ele><time>2026-04-06T14:54:55.001Z</time></trkpt><trkpt lat="44.08266940534405" lon="12.389816062635633"><ele>36.5</ele><time>2026-04-06T14:54:56.001Z</time></trkpt><trkpt lat="44.08278797494382" lon="12.389790536195234"><ele>36.0</ele><time>2026-04-06T14:54:57.001Z</time></trkpt><trkpt lat="44.08290288959781" lon="12.389765895030196"><ele>35.5</ele><time>2026-04-06T14:54:58.001Z</time></trkpt><trkpt lat="44.08302307579006" lon="12.389740258345212"><ele>35.0</ele><time>2026-04-06T14:54:59.001Z</time></trkpt><trkpt lat="44.08315041581819" lon="12.389714081583675"><ele>34.5</ele><time>2026-04-06T14:55:00.001Z</time></trkpt><trkpt lat="44.08327797126095" lon="12.389690020200582"><ele>34.0</ele><time>2026-04-06T14:55:01.001Z</time></trkpt><trkpt lat="44.08341386384201" lon="12.389660469978518"><ele>33.5</ele><time>2026-04-06T14:55:02.001Z</time></trkpt><trkpt lat="44.08355424961135" lon="12.389632355649592"><ele>33.0</ele><time>2026-04-06T14:55:03.001Z</time></trkpt><trkpt lat="44.083692769248685" lon="12.389605078311861"><ele>33.0</ele><time>2026-04-06T14:55:04.001Z</time></trkpt><trkpt lat="44.08383101985629" lon="12.38957323644485"><ele>33.0</ele><time>2026-04-06T14:55:05.001Z</time></trkpt><trkpt lat="44.0839826025569" lon="12.389543283682329"><ele>33.0</ele><time>2026-04-06T14:55:06.001Z</time></trkpt><trkpt lat="44.08412747444751" lon="12.389514146189095"><ele>33.0</ele><time>2026-04-06T14:55:07.001Z</time></trkpt><trkpt lat="44.08427119966609" lon="12.38948677677176"><ele>33.0</ele><time>2026-04-06T14:55:08.001Z</time></trkpt><trkpt lat="44.084418278839834" lon="12.389461485700673"><ele>33.0</ele><time>2026-04-06T14:55:09.001Z</time></trkpt><trkpt lat="44.08457205009519" lon="12.389444788840352"><ele>33.0</ele><time>2026-04-06T14:55:10.001Z</time></trkpt><trkpt lat="44.0847278444898" lon="12.389440726584592"><ele>33.0</ele><time>2026-04-06T14:55:11.001Z</time></trkpt><trkpt lat="44.08488451836263" lon="12.389445986090632"><ele>33.0</ele><time>2026-04-06T14:55:12.001Z</time></trkpt><trkpt lat="44.08503856962654" lon="12.389459368197798"><ele>33.0</ele><time>2026-04-06T14:55:13.001Z</time></trkpt><trkpt lat="44.08519192108644" lon="12.389483505381325"><ele>33.333333333333336</ele><time>2026-04-06T14:55:14.001Z</time></trkpt><trkpt lat="44.08535024727603" lon="12.389514403279877"><ele>33.66666666666667</ele><time>2026-04-06T14:55:15.001Z</time></trkpt><trkpt lat="44.085502819039604" lon="12.389558692341724"><ele>34.0</ele><time>2026-04-06T14:55:16.001Z</time></trkpt><trkpt lat="44.08565323483731" lon="12.389611308529616"><ele>34.66666666666667</ele><time>2026-04-06T14:55:17.001Z</time></trkpt><trkpt lat="44.085799737814874" lon="12.38967553680487"><ele>35.333333333333336</ele><time>2026-04-06T14:55:18.001Z</time></trkpt><trkpt lat="44.085948334606755" lon="12.389748700230827"><ele>36.0</ele><time>2026-04-06T14:55:19.001Z</time></trkpt><trkpt lat="44.086093122991976" lon="12.389828128286513"><ele>36.0</ele><time>2026-04-06T14:55:20.001Z</time></trkpt><trkpt lat="44.08622614799668" lon="12.38990121730583"><ele>36.0</ele><time>2026-04-06T14:55:21.001Z</time></trkpt><trkpt lat="44.08635824034403" lon="12.389974258155705"><ele>36.0</ele><time>2026-04-06T14:55:22.001Z</time></trkpt><trkpt lat="44.08649024013676" lon="12.390044127999262"><ele>36.0</ele><time>2026-04-06T14:55:23.001Z</time></trkpt><trkpt lat="44.08662817096668" lon="12.390117461271952"><ele>36.0</ele><time>2026-04-06T14:55:24.001Z</time></trkpt><trkpt lat="44.086762392967586" lon="12.390188179340841"><ele>36.0</ele><time>2026-04-06T14:55:25.002Z</time></trkpt><trkpt lat="44.08690185287009" lon="12.390261918155936"><ele>36.0</ele><time>2026-04-06T14:55:26.002Z</time></trkpt><trkpt lat="44.08704119562685" lon="12.390333632604984"><ele>36.0</ele><time>2026-04-06T14:55:27.002Z</time></trkpt><trkpt lat="44.08718558319772" lon="12.390411565274498"><ele>36.0</ele><time>2026-04-06T14:55:28.002Z</time></trkpt><trkpt lat="44.08732458855835" lon="12.390491981665406"><ele>36.0</ele><time>2026-04-06T14:55:29.002Z</time></trkpt><trkpt lat="44.08746513775036" lon="12.390568589788227"><ele>36.0</ele><time>2026-04-06T14:55:30.002Z</time></trkpt><trkpt lat="44.08760701541135" lon="12.390644483767831"><ele>35.333333333333336</ele><time>2026-04-06T14:55:31.002Z</time></trkpt><trkpt lat="44.087753930400154" lon="12.390715203097528"><ele>34.66666666666667</ele><time>2026-04-06T14:55:32.002Z</time></trkpt><trkpt lat="44.087888398689756" lon="12.390789321732067"><ele>34.0</ele><time>2026-04-06T14:55:33.002Z</time></trkpt><trkpt lat="44.08803543753555" lon="12.390867416464697"><ele>34.0</ele><time>2026-04-06T14:55:34.002Z</time></trkpt><trkpt lat="44.08817845198217" lon="12.39094874368845"><ele>34.0</ele><time>2026-04-06T14:55:35.002Z</time></trkpt><trkpt lat="44.08831666238033" lon="12.391015825011248"><ele>34.0</ele><time>2026-04-06T14:55:36.002Z</time></trkpt><trkpt lat="44.08845836164664" lon="12.391063959966951"><ele>34.0</ele><time>2026-04-06T14:55:37.002Z</time></trkpt><trkpt lat="44.08860788375803" lon="12.391105971851449"><ele>34.0</ele><time>2026-04-06T14:55:38.002Z</time></trkpt><trkpt lat="44.08875914062318" lon="12.391142100403725"><ele>34.0</ele><time>2026-04-06T14:55:39Z</time></trkpt><trkpt lat="44.08891099867804" lon="12.39116667332821"><ele>34.0</ele><time>2026-04-06T14:55:40Z</time></trkpt><trkpt lat="44.08906269473916" lon="12.39118282487067"><ele>34.333333333333336</ele><time>2026-04-06T14:55:41Z</time></trkpt><trkpt lat="44.089218479351246" lon="12.391190387000853"><ele>34.666666666666664</ele><time>2026-04-06T14:55:42Z</time></trkpt><trkpt lat="44.089370395743096" lon="12.39118992984829"><ele>35.0</ele><time>2026-04-06T14:55:43Z</time></trkpt><trkpt lat="44.089518533880764" lon="12.391179770934555"><ele>35.0</ele><time>2026-04-06T14:55:44Z</time></trkpt><trkpt lat="44.08966192255007" lon="12.39116569479119"><ele>35.0</ele><time>2026-04-06T14:55:45Z</time></trkpt><trkpt lat="44.08979494608722" lon="12.391155704639406"><ele>35.0</ele><time>2026-04-06T14:55:46Z</time></trkpt><trkpt lat="44.089922473375644" lon="12.39114184178023"><ele>35.0</ele><time>2026-04-06T14:55:47Z</time></trkpt><trkpt lat="44.09005438451414" lon="12.391126061444918"><ele>34.5</ele><time>2026-04-06T14:55:48Z</time></trkpt><trkpt lat="44.09018740472551" lon="12.39111011737896"><ele>34.0</ele><time>2026-04-06T14:55:49Z</time></trkpt><trkpt lat="44.09031887117648" lon="12.391091798979007"><ele>33.5</ele><time>2026-04-06T14:55:50Z</time></trkpt><trkpt lat="44.090447621271736" lon="12.3910777952858"><ele>33.0</ele><time>2026-04-06T14:55:51Z</time></trkpt><trkpt lat="44.09058074467173" lon="12.391064110528138"><ele>33.0</ele><time>2026-04-06T14:55:52Z</time></trkpt><trkpt lat="44.09070922597323" lon="12.391053460577686"><ele>33.0</ele><time>2026-04-06T14:55:53Z</time></trkpt><trkpt lat="44.09083490203087" lon="12.391044072387563"><ele>33.0</ele><time>2026-04-06T14:55:54Z</time></trkpt><trkpt lat="44.090951030463145" lon="12.391036411860057"><ele>33.0</ele><time>2026-04-06T14:55:55Z</time></trkpt><trkpt lat="44.091054162694526" lon="12.39103024561975"><ele>33.166666666666664</ele><time>2026-04-06T14:55:56Z</time></trkpt><trkpt lat="44.09113151344563" lon="12.391029553193523"><ele>33.333333333333336</ele><time>2026-04-06T14:55:57Z</time></trkpt><trkpt lat="44.09119513332259" lon="12.391036089509607"><ele>33.5</ele><time>2026-04-06T14:55:58Z</time></trkpt><trkpt lat="44.091295400899256" lon="12.39107962430872"><ele>33.66666666666667</ele><time>2026-04-06T14:56:00Z</time></trkpt><trkpt lat="44.09141355004487" lon="12.39107092931251"><ele>33.833333333333336</ele><time>2026-04-06T14:56:02Z</time></trkpt><trkpt lat="44.091475716549645" lon="12.391030527166405"><ele>34.0</ele><time>2026-04-06T14:56:03Z</time></trkpt><trkpt lat="44.09153812016937" lon="12.391001682594128"><ele>33.66666666666667</ele><time>2026-04-06T14:56:04Z</time></trkpt><trkpt lat="44.09160953585631" lon="12.390980301589789"><ele>33.333333333333336</ele><time>2026-04-06T14:56:05Z</time></trkpt><trkpt lat="44.091688721507005" lon="12.39096559032289"><ele>33.0</ele><time>2026-04-06T14:56:06Z</time></trkpt><trkpt lat="44.09176187389381" lon="12.390964515826875"><ele>32.666666666666664</ele><time>2026-04-06T14:56:07Z</time></trkpt><trkpt lat="44.09188172725752" lon="12.3909942399003"><ele>32.33333333333333</ele><time>2026-04-06T14:56:09Z</time></trkpt><trkpt lat="44.091941806122534" lon="12.391020531761484"><ele>32.0</ele><time>2026-04-06T14:56:10Z</time></trkpt><trkpt lat="44.09200215814509" lon="12.391060755576818"><ele>31.999999999999996</ele><time>2026-04-06T14:56:11Z</time></trkpt><trkpt lat="44.09206487490966" lon="12.391100110269244"><ele>32.0</ele><time>2026-04-06T14:56:12Z</time></trkpt><trkpt lat="44.09213779568003" lon="12.391130658801815"><ele>32.0</ele><time>2026-04-06T14:56:13Z</time></trkpt><trkpt lat="44.092211383230016" lon="12.391143131717396"><ele>32.0</ele><time>2026-04-06T14:56:14Z</time></trkpt><trkpt lat="44.092284021649846" lon="12.39112711197618"><ele>31.999999999999996</ele><time>2026-04-06T14:56:15Z</time></trkpt><trkpt lat="44.09235245641668" lon="12.391089344149627"><ele>32.0</ele><time>2026-04-06T14:56:16Z</time></trkpt><trkpt lat="44.092429470870975" lon="12.39103599767813"><ele>32.0</ele><time>2026-04-06T14:56:17Z</time></trkpt><trkpt lat="44.092505293972295" lon="12.390980921429545"><ele>32.0</ele><time>2026-04-06T14:56:18Z</time></trkpt><trkpt lat="44.09259059517669" lon="12.39092673787267"><ele>32.0</ele><time>2026-04-06T14:56:19Z</time></trkpt><trkpt lat="44.09268653997285" lon="12.390883587524621"><ele>32.0</ele><time>2026-04-06T14:56:20Z</time></trkpt><trkpt lat="44.092782381938555" lon="12.390825206264445"><ele>32.0</ele><time>2026-04-06T14:56:21Z</time></trkpt><trkpt lat="44.09289978093209" lon="12.390823684062266"><ele>32.0</ele><time>2026-04-06T14:56:22Z</time></trkpt><trkpt lat="44.093019916671025" lon="12.39080588569478"><ele>32.0</ele><time>2026-04-06T14:56:23Z</time></trkpt><trkpt lat="44.093158383161196" lon="12.39077934888469"><ele>32.0</ele><time>2026-04-06T14:56:24Z</time></trkpt><trkpt lat="44.093311780044715" lon="12.390750336929433"><ele>32.0</ele><time>2026-04-06T14:56:25Z</time></trkpt><trkpt lat="44.09347594902562" lon="12.390718889396453"><ele>33.0</ele><time>2026-04-06T14:56:26.001Z</time></trkpt><trkpt lat="44.093652370462266" lon="12.390688165934113"><ele>34.0</ele><time>2026-04-06T14:56:27.001Z</time></trkpt><trkpt lat="44.09383867308203" lon="12.390659557679678"><ele>35.0</ele><time>2026-04-06T14:56:28.001Z</time></trkpt><trkpt lat="44.09403583794959" lon="12.390632402592791"><ele>35.0</ele><time>2026-04-06T14:56:29.001Z</time></trkpt><trkpt lat="44.094240567248136" lon="12.390602497809677"><ele>35.0</ele><time>2026-04-06T14:56:30.001Z</time></trkpt><trkpt lat="44.094449302686556" lon="12.390565603628506"><ele>35.0</ele><time>2026-04-06T14:56:31.001Z</time></trkpt><trkpt lat="44.094659530524126" lon="12.390531098619343"><ele>33.33333333333333</ele><time>2026-04-06T14:56:32.001Z</time></trkpt><trkpt lat="44.094873030563484" lon="12.39049751224151"><ele>31.666666666666664</ele><time>2026-04-06T14:56:33.001Z</time></trkpt><trkpt lat="44.09508843651766" lon="12.39046303719852"><ele>30.0</ele><time>2026-04-06T14:56:34.001Z</time></trkpt><trkpt lat="44.09530324527428" lon="12.390429138989298"><ele>29.666666666666664</ele><time>2026-04-06T14:56:35.001Z</time></trkpt><trkpt lat="44.09551632663235" lon="12.390395817937087"><ele>29.333333333333332</ele><time>2026-04-06T14:56:36.001Z</time></trkpt><trkpt lat="44.095730055833826" lon="12.39036366159517"><ele>29.0</ele><time>2026-04-06T14:56:37.001Z</time></trkpt><trkpt lat="44.095944809777855" lon="12.39032791692316"><ele>29.0</ele><time>2026-04-06T14:56:38.001Z</time></trkpt><trkpt lat="44.09615766303188" lon="12.390293796195724"><ele>29.0</ele><time>2026-04-06T14:56:39.001Z</time></trkpt><trkpt lat="44.0963690163753" lon="12.390260402000697"><ele>29.0</ele><time>2026-04-06T14:56:40.001Z</time></trkpt><trkpt lat="44.096581550890015" lon="12.39022375680821"><ele>29.0</ele><time>2026-04-06T14:56:41.001Z</time></trkpt><trkpt lat="44.09679391672422" lon="12.390187925888593"><ele>29.0</ele><time>2026-04-06T14:56:42.001Z</time></trkpt><trkpt lat="44.09700721065479" lon="12.390149733844689"><ele>29.0</ele><time>2026-04-06T14:56:43.001Z</time></trkpt><trkpt lat="44.097220272357156" lon="12.39011350012901"><ele>28.333333333333332</ele><time>2026-04-06T14:56:44.001Z</time></trkpt><trkpt lat="44.09742939208151" lon="12.390078034523205"><ele>27.666666666666664</ele><time>2026-04-06T14:56:45.001Z</time></trkpt><trkpt lat="44.09763031298338" lon="12.390045020536109"><ele>27.0</ele><time>2026-04-06T14:56:46.001Z</time></trkpt><trkpt lat="44.09781521755185" lon="12.390015738783344"><ele>27.0</ele><time>2026-04-06T14:56:47.001Z</time></trkpt><trkpt lat="44.09798993124284" lon="12.389988847618271"><ele>27.0</ele><time>2026-04-06T14:56:48.001Z</time></trkpt><trkpt lat="44.09816400928218" lon="12.389960837326957"><ele>27.0</ele><time>2026-04-06T14:56:49.001Z</time></trkpt><trkpt lat="44.09833950692073" lon="12.38993145398521"><ele>27.0</ele><time>2026-04-06T14:56:50.001Z</time></trkpt><trkpt lat="44.09850785710444" lon="12.38990355158029"><ele>27.0</ele><time>2026-04-06T14:56:51.001Z</time></trkpt><trkpt lat="44.0986684987739" lon="12.389877364380824"><ele>27.0</ele><time>2026-04-06T14:56:52.001Z</time></trkpt><trkpt lat="44.098835206368435" lon="12.38984839652504"><ele>27.0</ele><time>2026-04-06T14:56:53.001Z</time></trkpt><trkpt lat="44.098999941376135" lon="12.389819910707963"><ele>27.0</ele><time>2026-04-06T14:56:54.001Z</time></trkpt><trkpt lat="44.099163772328815" lon="12.389792788379097"><ele>27.0</ele><time>2026-04-06T14:56:55.001Z</time></trkpt><trkpt lat="44.099327962205976" lon="12.389767496847924"><ele>26.666666666666664</ele><time>2026-04-06T14:56:56.001Z</time></trkpt><trkpt lat="44.099486360644974" lon="12.389742794977012"><ele>26.333333333333332</ele><time>2026-04-06T14:56:57.001Z</time></trkpt><trkpt lat="44.099647746274435" lon="12.389716622522107"><ele>26.0</ele><time>2026-04-06T14:56:58.001Z</time></trkpt><trkpt lat="44.099809991375444" lon="12.389689224367462"><ele>25.333333333333332</ele><time>2026-04-06T14:56:59.001Z</time></trkpt><trkpt lat="44.099967055435634" lon="12.389663925478978"><ele>24.666666666666664</ele><time>2026-04-06T14:57:00.001Z</time></trkpt><trkpt lat="44.10011372272943" lon="12.389641299248215"><ele>24.0</ele><time>2026-04-06T14:57:01.001Z</time></trkpt><trkpt lat="44.100257359432725" lon="12.389619113831749"><ele>24.0</ele><time>2026-04-06T14:57:02.001Z</time></trkpt><trkpt lat="44.100399729972295" lon="12.389597404231607"><ele>24.0</ele><time>2026-04-06T14:57:03.001Z</time></trkpt><trkpt lat="44.10054285988056" lon="12.389571236357442"><ele>24.0</ele><time>2026-04-06T14:57:04.001Z</time></trkpt><trkpt lat="44.10068026519407" lon="12.389546762404256"><ele>24.0</ele><time>2026-04-06T14:57:05.001Z</time></trkpt><trkpt lat="44.10081524687597" lon="12.389526237431431"><ele>23.75</ele><time>2026-04-06T14:57:06.001Z</time></trkpt><trkpt lat="44.100953183101495" lon="12.389505860409335"><ele>23.5</ele><time>2026-04-06T14:57:07.001Z</time></trkpt><trkpt lat="44.101083898517295" lon="12.389488058161527"><ele>23.25</ele><time>2026-04-06T14:57:08.001Z</time></trkpt><trkpt lat="44.101214449037634" lon="12.389476071013648"><ele>23.0</ele><time>2026-04-06T14:57:09.001Z</time></trkpt><trkpt lat="44.10134872732611" lon="12.389472667672175"><ele>23.0</ele><time>2026-04-06T14:57:10.001Z</time></trkpt><trkpt lat="44.10147707373871" lon="12.389476531052155"><ele>23.0</ele><time>2026-04-06T14:57:11.001Z</time></trkpt><trkpt lat="44.10160621279766" lon="12.38948318982862"><ele>23.0</ele><time>2026-04-06T14:57:12.001Z</time></trkpt><trkpt lat="44.101734429446566" lon="12.389495753892502"><ele>23.0</ele><time>2026-04-06T14:57:13.001Z</time></trkpt><trkpt lat="44.10186374541872" lon="12.389510818035033"><ele>22.5</ele><time>2026-04-06T14:57:14.001Z</time></trkpt><trkpt lat="44.101988262578665" lon="12.389527071666262"><ele>22.0</ele><time>2026-04-06T14:57:15.001Z</time></trkpt><trkpt lat="44.10211046826146" lon="12.389541230786355"><ele>21.5</ele><time>2026-04-06T14:57:16.001Z</time></trkpt><trkpt lat="44.10223047660153" lon="12.389552216233511"><ele>21.0</ele><time>2026-04-06T14:57:17.001Z</time></trkpt><trkpt lat="44.10234873417618" lon="12.389558958114282"><ele>21.75</ele><time>2026-04-06T14:57:18.001Z</time></trkpt><trkpt lat="44.102465830769866" lon="12.389559586953453"><ele>22.5</ele><time>2026-04-06T14:57:19.001Z</time></trkpt><trkpt lat="44.102583476359456" lon="12.389554642964354"><ele>23.25</ele><time>2026-04-06T14:57:20.001Z</time></trkpt><trkpt lat="44.10270376161617" lon="12.389543377522656"><ele>24.0</ele><time>2026-04-06T14:57:21.001Z</time></trkpt><trkpt lat="44.1028236704932" lon="12.389531267491456"><ele>24.0</ele><time>2026-04-06T14:57:22.001Z</time></trkpt><trkpt lat="44.10294279229638" lon="12.389524015474116"><ele>24.0</ele><time>2026-04-06T14:57:23.001Z</time></trkpt><trkpt lat="44.103058848590486" lon="12.389515084150458"><ele>24.0</ele><time>2026-04-06T14:57:24.001Z</time></trkpt><trkpt lat="44.10317059823441" lon="12.389505047967848"><ele>24.0</ele><time>2026-04-06T14:57:25.001Z</time></trkpt><trkpt lat="44.1032851439875" lon="12.38949425743493"><ele>24.25</ele><time>2026-04-06T14:57:26.001Z</time></trkpt><trkpt lat="44.10340204154059" lon="12.389479482894439"><ele>24.5</ele><time>2026-04-06T14:57:27.001Z</time></trkpt><trkpt lat="44.10352138175971" lon="12.389468820357804"><ele>24.75</ele><time>2026-04-06T14:57:28.001Z</time></trkpt><trkpt lat="44.10364280809007" lon="12.389455088218744"><ele>25.0</ele><time>2026-04-06T14:57:29.001Z</time></trkpt><trkpt lat="44.1037642584878" lon="12.389439142266307"><ele>25.0</ele><time>2026-04-06T14:57:30.001Z</time></trkpt><trkpt lat="44.103884163106805" lon="12.389430006336555"><ele>25.0</ele><time>2026-04-06T14:57:31.001Z</time></trkpt><trkpt lat="44.104005310039206" lon="12.389416790576535"><ele>25.0</ele><time>2026-04-06T14:57:32.001Z</time></trkpt><trkpt lat="44.10411985249473" lon="12.389403804902523"><ele>25.0</ele><time>2026-04-06T14:57:33.001Z</time></trkpt><trkpt lat="44.10422206892566" lon="12.389394588239098"><ele>24.833333333333336</ele><time>2026-04-06T14:57:34.001Z</time></trkpt><trkpt lat="44.10431609860945" lon="12.389384830081104"><ele>24.666666666666668</ele><time>2026-04-06T14:57:35.001Z</time></trkpt><trkpt lat="44.10439940560706" lon="12.38937589292457"><ele>24.5</ele><time>2026-04-06T14:57:36.001Z</time></trkpt><trkpt lat="44.10448276132962" lon="12.389365602535193"><ele>24.333333333333336</ele><time>2026-04-06T14:57:37.001Z</time></trkpt><trkpt lat="44.10455998473817" lon="12.38935514593401"><ele>24.166666666666668</ele><time>2026-04-06T14:57:38.002Z</time></trkpt><trkpt lat="44.10463396803659" lon="12.38935009041694"><ele>24.0</ele><time>2026-04-06T14:57:39.002Z</time></trkpt><trkpt lat="44.10471004547654" lon="12.389350087067646"><ele>24.0</ele><time>2026-04-06T14:57:40.002Z</time></trkpt><trkpt lat="44.10478977393448" lon="12.389370898228123"><ele>24.0</ele><time>2026-04-06T14:57:41.002Z</time></trkpt><trkpt lat="44.104864275910764" lon="12.389402815948843"><ele>24.0</ele><time>2026-04-06T14:57:42.002Z</time></trkpt><trkpt lat="44.104941294224744" lon="12.389437551594469"><ele>24.0</ele><time>2026-04-06T14:57:43.002Z</time></trkpt><trkpt lat="44.105030501673674" lon="12.389459987563917"><ele>24.0</ele><time>2026-04-06T14:57:44.002Z</time></trkpt><trkpt lat="44.10512242649898" lon="12.389448117733185"><ele>24.0</ele><time>2026-04-06T14:57:45Z</time></trkpt><trkpt lat="44.105211252221565" lon="12.389394424718427"><ele>23.75</ele><time>2026-04-06T14:57:46Z</time></trkpt><trkpt lat="44.10530672679078" lon="12.389296915587462"><ele>23.5</ele><time>2026-04-06T14:57:47Z</time></trkpt><trkpt lat="44.10541313129026" lon="12.38918468814777"><ele>23.25</ele><time>2026-04-06T14:57:48Z</time></trkpt><trkpt lat="44.10555335763981" lon="12.389096691573098"><ele>23.0</ele><time>2026-04-06T14:57:49Z</time></trkpt><trkpt lat="44.1057154254096" lon="12.389044262867884"><ele>22.5</ele><time>2026-04-06T14:57:50Z</time></trkpt><trkpt lat="44.10587205959678" lon="12.389008949358855"><ele>22.0</ele><time>2026-04-06T14:57:51Z</time></trkpt><trkpt lat="44.10601447349572" lon="12.388979942394652"><ele>21.5</ele><time>2026-04-06T14:57:52Z</time></trkpt><trkpt lat="44.10615318782799" lon="12.388940953752975"><ele>21.0</ele><time>2026-04-06T14:57:53Z</time></trkpt><trkpt lat="44.10629632049167" lon="12.388894029321932"><ele>21.0</ele><time>2026-04-06T14:57:54Z</time></trkpt><trkpt lat="44.10644353916674" lon="12.388855427273008"><ele>21.0</ele><time>2026-04-06T14:57:55Z</time></trkpt><trkpt lat="44.1065930749957" lon="12.388821975815343"><ele>21.0</ele><time>2026-04-06T14:57:56Z</time></trkpt><trkpt lat="44.10674536712576" lon="12.388783328526955"><ele>21.0</ele><time>2026-04-06T14:57:57Z</time></trkpt><trkpt lat="44.106898778121" lon="12.38873896948144"><ele>21.0</ele><time>2026-04-06T14:57:58Z</time></trkpt><trkpt lat="44.10705688613812" lon="12.388696238422717"><ele>21.0</ele><time>2026-04-06T14:57:59Z</time></trkpt><trkpt lat="44.10721652561377" lon="12.388656660535354"><ele>21.0</ele><time>2026-04-06T14:58:00Z</time></trkpt><trkpt lat="44.107371958866516" lon="12.388614345099665"><ele>21.0</ele><time>2026-04-06T14:58:01Z</time></trkpt><trkpt lat="44.10752717513285" lon="12.388569163002865"><ele>21.0</ele><time>2026-04-06T14:58:02Z</time></trkpt><trkpt lat="44.107678781078796" lon="12.388524669648792"><ele>20.333333333333332</ele><time>2026-04-06T14:58:03Z</time></trkpt><trkpt lat="44.107829060790664" lon="12.3884829018745"><ele>19.666666666666664</ele><time>2026-04-06T14:58:04Z</time></trkpt><trkpt lat="44.10797651607856" lon="12.388442487549048"><ele>19.0</ele><time>2026-04-06T14:58:05Z</time></trkpt><trkpt lat="44.10812348397056" lon="12.388407719493465"><ele>19.25</ele><time>2026-04-06T14:58:06Z</time></trkpt><trkpt lat="44.10826646460434" lon="12.388369534927858"><ele>19.5</ele><time>2026-04-06T14:58:07Z</time></trkpt><trkpt lat="44.108395358515985" lon="12.388332635773745"><ele>19.75</ele><time>2026-04-06T14:58:08Z</time></trkpt><trkpt lat="44.10853294701117" lon="12.388294474251442"><ele>20.0</ele><time>2026-04-06T14:58:09Z</time></trkpt><trkpt lat="44.10865962804432" lon="12.38825680437664"><ele>20.0</ele><time>2026-04-06T14:58:10Z</time></trkpt><trkpt lat="44.108785311188306" lon="12.388219085377184"><ele>20.0</ele><time>2026-04-06T14:58:11Z</time></trkpt><trkpt lat="44.10891100103289" lon="12.38818535233055"><ele>20.0</ele><time>2026-04-06T14:58:12Z</time></trkpt><trkpt lat="44.10903171383384" lon="12.388158370464076"><ele>20.0</ele><time>2026-04-06T14:58:13Z</time></trkpt><trkpt lat="44.109143606851504" lon="12.388144495780333"><ele>19.6</ele><time>2026-04-06T14:58:14Z</time></trkpt><trkpt lat="44.10925370769059" lon="12.388145678076894"><ele>19.2</ele><time>2026-04-06T14:58:15Z</time></trkpt><trkpt lat="44.10936404272006" lon="12.388159677829975"><ele>18.8</ele><time>2026-04-06T14:58:16Z</time></trkpt><trkpt lat="44.109477579200934" lon="12.388185084035937"><ele>18.4</ele><time>2026-04-06T14:58:17Z</time></trkpt><trkpt lat="44.109589989349146" lon="12.388200681608776"><ele>18.0</ele><time>2026-04-06T14:58:18Z</time></trkpt><trkpt lat="44.109703521350006" lon="12.38818368900602"><ele>18.0</ele><time>2026-04-06T14:58:19Z</time></trkpt><trkpt lat="44.10981702159316" lon="12.388129758147404"><ele>18.0</ele><time>2026-04-06T14:58:20Z</time></trkpt><trkpt lat="44.10992181200778" lon="12.388051446780905"><ele>18.0</ele><time>2026-04-06T14:58:21Z</time></trkpt><trkpt lat="44.110025063654014" lon="12.38796373932914"><ele>18.0</ele><time>2026-04-06T14:58:22Z</time></trkpt><trkpt lat="44.110132603527276" lon="12.387896041690507"><ele>18.25</ele><time>2026-04-06T14:58:23Z</time></trkpt><trkpt lat="44.11025073535899" lon="12.387841806138207"><ele>18.5</ele><time>2026-04-06T14:58:24Z</time></trkpt><trkpt lat="44.1103755565716" lon="12.387796325401784"><ele>18.75</ele><time>2026-04-06T14:58:25Z</time></trkpt><trkpt lat="44.11050772967325" lon="12.387753377401634"><ele>19.0</ele><time>2026-04-06T14:58:26Z</time></trkpt><trkpt lat="44.11064084430417" lon="12.387714052775564"><ele>19.0</ele><time>2026-04-06T14:58:27Z</time></trkpt><trkpt lat="44.1107680399652" lon="12.387677999277736"><ele>19.0</ele><time>2026-04-06T14:58:28Z</time></trkpt><trkpt lat="44.11089734175652" lon="12.387641993300306"><ele>19.0</ele><time>2026-04-06T14:58:29Z</time></trkpt><trkpt lat="44.11102728018362" lon="12.387608555642394"><ele>19.0</ele><time>2026-04-06T14:58:30Z</time></trkpt><trkpt lat="44.111155538196954" lon="12.387572623155066"><ele>19.0</ele><time>2026-04-06T14:58:31Z</time></trkpt><trkpt lat="44.11128272877391" lon="12.387534929495082"><ele>19.0</ele><time>2026-04-06T14:58:32Z</time></trkpt><trkpt lat="44.111405225062484" lon="12.387502763136725"><ele>19.0</ele><time>2026-04-06T14:58:33Z</time></trkpt><trkpt lat="44.11152305924014" lon="12.3874726149914"><ele>19.0</ele><time>2026-04-06T14:58:34Z</time></trkpt><trkpt lat="44.11164022056077" lon="12.387443364527934"><ele>18.75</ele><time>2026-04-06T14:58:35Z</time></trkpt><trkpt lat="44.111756247899194" lon="12.387412800033054"><ele>18.5</ele><time>2026-04-06T14:58:36Z</time></trkpt><trkpt lat="44.11187003924334" lon="12.387381251169522"><ele>18.25</ele><time>2026-04-06T14:58:37Z</time></trkpt><trkpt lat="44.11197837274824" lon="12.387353233494625"><ele>18.0</ele><time>2026-04-06T14:58:38Z</time></trkpt><trkpt lat="44.11208422938099" lon="12.387327318907445"><ele>18.0</ele><time>2026-04-06T14:58:39Z</time></trkpt><trkpt lat="44.112197046877235" lon="12.387298263176953"><ele>18.0</ele><time>2026-04-06T14:58:40Z</time></trkpt><trkpt lat="44.11231215042705" lon="12.387267353267385"><ele>18.0</ele><time>2026-04-06T14:58:41Z</time></trkpt><trkpt lat="44.11242289471434" lon="12.387237862943037"><ele>18.0</ele><time>2026-04-06T14:58:42.001Z</time></trkpt><trkpt lat="44.11253364153551" lon="12.387209811070822"><ele>18.0</ele><time>2026-04-06T14:58:43.001Z</time></trkpt><trkpt lat="44.11264529993571" lon="12.387179945353644"><ele>18.0</ele><time>2026-04-06T14:58:44.001Z</time></trkpt><trkpt lat="44.1127544677688" lon="12.387149828674907"><ele>18.0</ele><time>2026-04-06T14:58:45.001Z</time></trkpt><trkpt lat="44.11286432163801" lon="12.38712001071861"><ele>18.0</ele><time>2026-04-06T14:58:46.001Z</time></trkpt><trkpt lat="44.112971083125984" lon="12.387092821167135"><ele>18.0</ele><time>2026-04-06T14:58:47.001Z</time></trkpt><trkpt lat="44.113077112731546" lon="12.38706721039576"><ele>17.8</ele><time>2026-04-06T14:58:48.001Z</time></trkpt><trkpt lat="44.11318114656184" lon="12.387040662978999"><ele>17.6</ele><time>2026-04-06T14:58:49.001Z</time></trkpt><trkpt lat="44.11328976594575" lon="12.3870110639155"><ele>17.4</ele><time>2026-04-06T14:58:50.001Z</time></trkpt><trkpt lat="44.11339428262838" lon="12.386979172996472"><ele>17.2</ele><time>2026-04-06T14:58:51.001Z</time></trkpt><trkpt lat="44.113491876977605" lon="12.386951948388749"><ele>17.0</ele><time>2026-04-06T14:58:52.001Z</time></trkpt><trkpt lat="44.11358353859714" lon="12.386924611840982"><ele>17.0</ele><time>2026-04-06T14:58:53.001Z</time></trkpt><trkpt lat="44.11367963465727" lon="12.386889275271436"><ele>17.0</ele><time>2026-04-06T14:58:54.001Z</time></trkpt><trkpt lat="44.11377820916436" lon="12.386847147221792"><ele>17.0</ele><time>2026-04-06T14:58:55.001Z</time></trkpt><trkpt lat="44.113889287126" lon="12.386802782809218"><ele>17.0</ele><time>2026-04-06T14:58:56.001Z</time></trkpt><trkpt lat="44.11401532665856" lon="12.386778187828089"><ele>17.0</ele><time>2026-04-06T14:58:57.001Z</time></trkpt><trkpt lat="44.11413534300904" lon="12.386722367365628"><ele>16.6</ele><time>2026-04-06T14:58:58.001Z</time></trkpt><trkpt lat="44.11425119848834" lon="12.386661288049739"><ele>16.2</ele><time>2026-04-06T14:58:59.001Z</time></trkpt><trkpt lat="44.11435420864529" lon="12.386600714542288"><ele>15.8</ele><time>2026-04-06T14:59:00.001Z</time></trkpt><trkpt lat="44.11443919010192" lon="12.386543580147388"><ele>15.4</ele><time>2026-04-06T14:59:01.001Z</time></trkpt><trkpt lat="44.114534851237664" lon="12.386448315541525"><ele>15.0</ele><time>2026-04-06T14:59:03.001Z</time></trkpt><trkpt lat="44.11466359061324" lon="12.386372773581021"><ele>15.0</ele><time>2026-04-06T14:59:05.001Z</time></trkpt><trkpt lat="44.11473612306983" lon="12.386316114462469"><ele>15.0</ele><time>2026-04-06T14:59:06.001Z</time></trkpt><trkpt lat="44.114805064458494" lon="12.386259628605947"><ele>15.0</ele><time>2026-04-06T14:59:07.001Z</time></trkpt><trkpt lat="44.114875731858476" lon="12.386200910722527"><ele>15.0</ele><time>2026-04-06T14:59:08.001Z</time></trkpt><trkpt lat="44.114932496585" lon="12.386153744654308"><ele>15.0</ele><time>2026-04-06T14:59:09.001Z</time></trkpt><trkpt lat="44.1149935232222" lon="12.386085037242273"><ele>15.0</ele><time>2026-04-06T14:59:11.001Z</time></trkpt><trkpt lat="44.11506730554656" lon="12.3860818178655"><ele>15.0</ele><time>2026-04-06T14:59:17.001Z</time></trkpt><trkpt lat="44.11515455969021" lon="12.38611959322943"><ele>15.0</ele><time>2026-04-06T14:59:19.001Z</time></trkpt><trkpt lat="44.115212516957754" lon="12.38615471034611"><ele>15.0</ele><time>2026-04-06T14:59:20.001Z</time></trkpt><trkpt lat="44.11531453990569" lon="12.386178873318539"><ele>15.0</ele><time>2026-04-06T14:59:22.001Z</time></trkpt><trkpt lat="44.11541874549136" lon="12.386161125888224"><ele>15.0</ele><time>2026-04-06T14:59:24.001Z</time></trkpt><trkpt lat="44.11550355353873" lon="12.386026130651146"><ele>15.0</ele><time>2026-04-06T14:59:26.001Z</time></trkpt><trkpt lat="44.11553597601905" lon="12.385938726394112"><ele>15.0</ele><time>2026-04-06T14:59:27.001Z</time></trkpt><trkpt lat="44.1155607784346" lon="12.385844191153634"><ele>15.0</ele><time>2026-04-06T14:59:28.001Z</time></trkpt><trkpt lat="44.11558395918958" lon="12.385753571951508"><ele>15.0</ele><time>2026-04-06T14:59:29.001Z</time></trkpt><trkpt lat="44.11569001473602" lon="12.385583506569915"><ele>15.0</ele><time>2026-04-06T14:59:31.001Z</time></trkpt><trkpt lat="44.115761756467556" lon="12.3855122141967"><ele>14.6</ele><time>2026-04-06T14:59:32.001Z</time></trkpt><trkpt lat="44.11583980998188" lon="12.385451905048157"><ele>14.2</ele><time>2026-04-06T14:59:33.001Z</time></trkpt><trkpt lat="44.11591931524174" lon="12.385397725238715"><ele>13.8</ele><time>2026-04-06T14:59:34.001Z</time></trkpt><trkpt lat="44.11600607151153" lon="12.385341731640766"><ele>13.4</ele><time>2026-04-06T14:59:35.001Z</time></trkpt><trkpt lat="44.11612216741149" lon="12.385263756747857"><ele>13.0</ele><time>2026-04-06T14:59:36.001Z</time></trkpt><trkpt lat="44.116259922827155" lon="12.385180953788888"><ele>13.0</ele><time>2026-04-06T14:59:37.001Z</time></trkpt><trkpt lat="44.11641447808203" lon="12.38509336385666"><ele>13.0</ele><time>2026-04-06T14:59:38.001Z</time></trkpt><trkpt lat="44.11658406558593" lon="12.385004679492639"><ele>13.0</ele><time>2026-04-06T14:59:39.001Z</time></trkpt><trkpt lat="44.11676714904994" lon="12.384920598536617"><ele>13.333333333333332</ele><time>2026-04-06T14:59:40.001Z</time></trkpt><trkpt lat="44.116961729112866" lon="12.384854328726584"><ele>13.666666666666668</ele><time>2026-04-06T14:59:41.001Z</time></trkpt><trkpt lat="44.117163453795335" lon="12.384804844693367"><ele>14.0</ele><time>2026-04-06T14:59:42.001Z</time></trkpt><trkpt lat="44.1173707698343" lon="12.384759550166455"><ele>13.666666666666668</ele><time>2026-04-06T14:59:43.001Z</time></trkpt><trkpt lat="44.11757718302495" lon="12.384729616122883"><ele>13.333333333333332</ele><time>2026-04-06T14:59:44.001Z</time></trkpt><trkpt lat="44.11777634789607" lon="12.384700528871887"><ele>13.0</ele><time>2026-04-06T14:59:45.001Z</time></trkpt><trkpt lat="44.117963261956085" lon="12.384670971783025"><ele>13.0</ele><time>2026-04-06T14:59:46.001Z</time></trkpt><trkpt lat="44.118151391350224" lon="12.384640077485683"><ele>13.0</ele><time>2026-04-06T14:59:47.001Z</time></trkpt><trkpt lat="44.118337934515516" lon="12.384612033841545"><ele>13.0</ele><time>2026-04-06T14:59:48.001Z</time></trkpt><trkpt lat="44.1185256349875" lon="12.384584985576767"><ele>13.0</ele><time>2026-04-06T14:59:49.001Z</time></trkpt><trkpt lat="44.118712730473895" lon="12.38455804424033"><ele>13.0</ele><time>2026-04-06T14:59:50.001Z</time></trkpt><trkpt lat="44.11889630768968" lon="12.384531653890587"><ele>13.0</ele><time>2026-04-06T14:59:51Z</time></trkpt><trkpt lat="44.119079608009066" lon="12.384504847674718"><ele>12.666666666666666</ele><time>2026-04-06T14:59:52Z</time></trkpt><trkpt lat="44.11925168140848" lon="12.384481436015523"><ele>12.333333333333332</ele><time>2026-04-06T14:59:53Z</time></trkpt><trkpt lat="44.119414220386695" lon="12.384457679288019"><ele>12.0</ele><time>2026-04-06T14:59:54Z</time></trkpt><trkpt lat="44.11956851192589" lon="12.384433145405094"><ele>12.0</ele><time>2026-04-06T14:59:55Z</time></trkpt><trkpt lat="44.119708613494694" lon="12.384411348761654"><ele>12.0</ele><time>2026-04-06T14:59:56Z</time></trkpt><trkpt lat="44.11983340303302" lon="12.3843909629671"><ele>12.0</ele><time>2026-04-06T14:59:57Z</time></trkpt><trkpt lat="44.119946528563396" lon="12.384374258286119"><ele>12.0</ele><time>2026-04-06T14:59:58Z</time></trkpt><trkpt lat="44.120039861702686" lon="12.38436197367024"><ele>12.0</ele><time>2026-04-06T14:59:59Z</time></trkpt><trkpt lat="44.12012547664846" lon="12.38435117742753"><ele>12.0</ele><time>2026-04-06T15:00:00Z</time></trkpt><trkpt lat="44.12020571312798" lon="12.384345256834772"><ele>12.0</ele><time>2026-04-06T15:00:01Z</time></trkpt><trkpt lat="44.12028213644801" lon="12.384345699288822"><ele>12.0</ele><time>2026-04-06T15:00:02Z</time></trkpt><trkpt lat="44.12035544615462" lon="12.384358442313884"><ele>12.0</ele><time>2026-04-06T15:00:03Z</time></trkpt><trkpt lat="44.12043062978745" lon="12.384380635139106"><ele>12.0</ele><time>2026-04-06T15:00:04Z</time></trkpt><trkpt lat="44.12051209281099" lon="12.384408587090432"><ele>12.0</ele><time>2026-04-06T15:00:05Z</time></trkpt><trkpt lat="44.12058985464019" lon="12.38441740694818"><ele>12.0</ele><time>2026-04-06T15:00:06Z</time></trkpt><trkpt lat="44.120664908159476" lon="12.384396506026096"><ele>12.0</ele><time>2026-04-06T15:00:07Z</time></trkpt><trkpt lat="44.12074072925845" lon="12.384350802353397"><ele>12.0</ele><time>2026-04-06T15:00:07.999Z</time></trkpt><trkpt lat="44.120821144465275" lon="12.384292383871976"><ele>12.0</ele><time>2026-04-06T15:00:08.999Z</time></trkpt><trkpt lat="44.12091350715451" lon="12.384244195720925"><ele>12.0</ele><time>2026-04-06T15:00:09.999Z</time></trkpt><trkpt lat="44.12101977204674" lon="12.384211146909983"><ele>12.0</ele><time>2026-04-06T15:00:10.999Z</time></trkpt><trkpt lat="44.121141268415435" lon="12.384189287884828"><ele>12.0</ele><time>2026-04-06T15:00:11.999Z</time></trkpt><trkpt lat="44.12127393233492" lon="12.384174684617944"><ele>12.0</ele><time>2026-04-06T15:00:12.999Z</time></trkpt><trkpt lat="44.12140342199132" lon="12.384156814682344"><ele>12.0</ele><time>2026-04-06T15:00:13.999Z</time></trkpt><trkpt lat="44.12154383992911" lon="12.384137233984918"><ele>12.0</ele><time>2026-04-06T15:00:14.999Z</time></trkpt><trkpt lat="44.121684851998694" lon="12.384118701692396"><ele>12.0</ele><time>2026-04-06T15:00:15.999Z</time></trkpt><trkpt lat="44.1218278648546" lon="12.384098521337307"><ele>12.0</ele><time>2026-04-06T15:00:16.999Z</time></trkpt><trkpt lat="44.121967189856655" lon="12.384078745163267"><ele>12.0</ele><time>2026-04-06T15:00:17.999Z</time></trkpt><trkpt lat="44.122101516491036" lon="12.384057824748655"><ele>12.0</ele><time>2026-04-06T15:00:18.999Z</time></trkpt><trkpt lat="44.12223762085564" lon="12.384036252183241"><ele>12.0</ele><time>2026-04-06T15:00:19.999Z</time></trkpt><trkpt lat="44.122370767842874" lon="12.384017239277034"><ele>12.0</ele><time>2026-04-06T15:00:20.999Z</time></trkpt><trkpt lat="44.12250031939406" lon="12.383999617534537"><ele>12.0</ele><time>2026-04-06T15:00:21.999Z</time></trkpt><trkpt lat="44.12262595334928" lon="12.383989054360212"><ele>12.0</ele><time>2026-04-06T15:00:22.999Z</time></trkpt><trkpt lat="44.12275275310239" lon="12.383988126776696"><ele>12.0</ele><time>2026-04-06T15:00:23.999Z</time></trkpt><trkpt lat="44.122881557372956" lon="12.384000248657408"><ele>12.0</ele><time>2026-04-06T15:00:24.999Z</time></trkpt><trkpt lat="44.12300665965668" lon="12.384030027879136"><ele>12.0</ele><time>2026-04-06T15:00:25.999Z</time></trkpt><trkpt lat="44.12312923607452" lon="12.384068964990108"><ele>11.75</ele><time>2026-04-06T15:00:26.999Z</time></trkpt><trkpt lat="44.12324176670526" lon="12.384120437967274"><ele>11.5</ele><time>2026-04-06T15:00:27.999Z</time></trkpt><trkpt lat="44.123353993219574" lon="12.384181914937963"><ele>11.25</ele><time>2026-04-06T15:00:28.999Z</time></trkpt><trkpt lat="44.12346139322638" lon="12.384252093036459"><ele>11.0</ele><time>2026-04-06T15:00:29.999Z</time></trkpt><trkpt lat="44.12357243875431" lon="12.384331150664815"><ele>11.0</ele><time>2026-04-06T15:00:30.999Z</time></trkpt><trkpt lat="44.12370091341147" lon="12.384419067740689"><ele>11.0</ele><time>2026-04-06T15:00:31.999Z</time></trkpt><trkpt lat="44.12384917543635" lon="12.384519020975015"><ele>11.0</ele><time>2026-04-06T15:00:32.999Z</time></trkpt><trkpt lat="44.124007188166686" lon="12.384631565869157"><ele>11.0</ele><time>2026-04-06T15:00:33.999Z</time></trkpt><trkpt lat="44.12417665764776" lon="12.384759981946527"><ele>11.0</ele><time>2026-04-06T15:00:34.999Z</time></trkpt><trkpt lat="44.12434783398247" lon="12.384894055088404"><ele>11.0</ele><time>2026-04-06T15:00:35.999Z</time></trkpt><trkpt lat="44.12451612339619" lon="12.385028543467774"><ele>11.0</ele><time>2026-04-06T15:00:36.999Z</time></trkpt><trkpt lat="44.12468135172326" lon="12.385170867890473"><ele>11.0</ele><time>2026-04-06T15:00:37.999Z</time></trkpt><trkpt lat="44.12483419361025" lon="12.385319005911239"><ele>11.0</ele><time>2026-04-06T15:00:38.999Z</time></trkpt><trkpt lat="44.124969733088214" lon="12.385478857439315"><ele>11.0</ele><time>2026-04-06T15:00:39.999Z</time></trkpt><trkpt lat="44.12509897060677" lon="12.385656294971556"><ele>11.0</ele><time>2026-04-06T15:00:40.999Z</time></trkpt><trkpt lat="44.12522911850908" lon="12.385845540131884"><ele>11.0</ele><time>2026-04-06T15:00:41.999Z</time></trkpt><trkpt lat="44.12534465326576" lon="12.386028634691339"><ele>11.0</ele><time>2026-04-06T15:00:42.999Z</time></trkpt><trkpt lat="44.12546122417332" lon="12.386211048402355"><ele>11.0</ele><time>2026-04-06T15:00:43.999Z</time></trkpt><trkpt lat="44.12558023682428" lon="12.386360028172758"><ele>11.0</ele><time>2026-04-06T15:00:44.999Z</time></trkpt><trkpt lat="44.125651631737455" lon="12.386536956873826"><ele>11.0</ele><time>2026-04-06T15:00:46Z</time></trkpt><trkpt lat="44.12572834043228" lon="12.386702029864336"><ele>11.0</ele><time>2026-04-06T15:00:47Z</time></trkpt><trkpt lat="44.12581849506056" lon="12.38686922533379"><ele>11.0</ele><time>2026-04-06T15:00:48Z</time></trkpt><trkpt lat="44.125886772900074" lon="12.387041772519298"><ele>11.0</ele><time>2026-04-06T15:00:49Z</time></trkpt><trkpt lat="44.12594892124642" lon="12.387205042032798"><ele>11.0</ele><time>2026-04-06T15:00:50Z</time></trkpt><trkpt lat="44.12607797988997" lon="12.387335703043684"><ele>11.0</ele><time>2026-04-06T15:00:51Z</time></trkpt><trkpt lat="44.12624195015945" lon="12.387458422851019"><ele>11.0</ele><time>2026-04-06T15:00:52Z</time></trkpt><trkpt lat="44.12643153210348" lon="12.387580016428648"><ele>11.0</ele><time>2026-04-06T15:00:53Z</time></trkpt><trkpt lat="44.126617444984724" lon="12.387697764074094"><ele>11.0</ele><time>2026-04-06T15:00:54Z</time></trkpt><trkpt lat="44.12680445787722" lon="12.387804245178145"><ele>11.0</ele><time>2026-04-06T15:00:55Z</time></trkpt><trkpt lat="44.12700433226961" lon="12.387866495478937"><ele>11.0</ele><time>2026-04-06T15:00:56Z</time></trkpt><trkpt lat="44.12721291076036" lon="12.387902871188839"><ele>11.0</ele><time>2026-04-06T15:00:57Z</time></trkpt><trkpt lat="44.12741576159318" lon="12.387938245857073"><ele>11.0</ele><time>2026-04-06T15:00:58Z</time></trkpt><trkpt lat="44.12760723419864" lon="12.38798118214082"><ele>10.0</ele><time>2026-04-06T15:00:59Z</time></trkpt><trkpt lat="44.12778944697598" lon="12.388029955299766"><ele>9.0</ele><time>2026-04-06T15:01:00Z</time></trkpt><trkpt lat="44.12797311531767" lon="12.388076296253626"><ele>8.0</ele><time>2026-04-06T15:01:01Z</time></trkpt><trkpt lat="44.128146605400566" lon="12.388118967859885"><ele>8.666666666666666</ele><time>2026-04-06T15:01:02Z</time></trkpt><trkpt lat="44.12832512486768" lon="12.388162051424763"><ele>9.333333333333334</ele><time>2026-04-06T15:01:03Z</time></trkpt><trkpt lat="44.128501891152005" lon="12.38820635207576"><ele>10.0</ele><time>2026-04-06T15:01:04Z</time></trkpt><trkpt lat="44.128676370340685" lon="12.38825087892508"><ele>10.0</ele><time>2026-04-06T15:01:05Z</time></trkpt><trkpt lat="44.12885128375884" lon="12.388295023116209"><ele>10.0</ele><time>2026-04-06T15:01:06Z</time></trkpt><trkpt lat="44.1290247800739" lon="12.388338174371285"><ele>10.0</ele><time>2026-04-06T15:01:07Z</time></trkpt><trkpt lat="44.12919660301872" lon="12.388380849922646"><ele>10.333333333333334</ele><time>2026-04-06T15:01:08Z</time></trkpt><trkpt lat="44.12937650359344" lon="12.388425737797402"><ele>10.666666666666666</ele><time>2026-04-06T15:01:09Z</time></trkpt><trkpt lat="44.129559412145376" lon="12.388471019287895"><ele>11.0</ele><time>2026-04-06T15:01:10Z</time></trkpt><trkpt lat="44.12974162986793" lon="12.388515332767174"><ele>11.333333333333332</ele><time>2026-04-06T15:01:11Z</time></trkpt><trkpt lat="44.129930051767005" lon="12.388559586813104"><ele>11.666666666666666</ele><time>2026-04-06T15:01:12Z</time></trkpt><trkpt lat="44.130126304587336" lon="12.388607009019601"><ele>12.0</ele><time>2026-04-06T15:01:13Z</time></trkpt><trkpt lat="44.13032570212624" lon="12.388655614920628"><ele>12.0</ele><time>2026-04-06T15:01:14Z</time></trkpt><trkpt lat="44.13050671646214" lon="12.388696314335803"><ele>12.0</ele><time>2026-04-06T15:01:15Z</time></trkpt><trkpt lat="44.13070003707076" lon="12.388746632739998"><ele>12.0</ele><time>2026-04-06T15:01:16Z</time></trkpt><trkpt lat="44.1308863277183" lon="12.388795102217035"><ele>12.0</ele><time>2026-04-06T15:01:17Z</time></trkpt><trkpt lat="44.131076774873485" lon="12.388837999819778"><ele>12.0</ele><time>2026-04-06T15:01:18Z</time></trkpt><trkpt lat="44.13126748742727" lon="12.388886385981147"><ele>12.0</ele><time>2026-04-06T15:01:19Z</time></trkpt><trkpt lat="44.13145610973429" lon="12.388938255078632"><ele>11.333333333333334</ele><time>2026-04-06T15:01:20Z</time></trkpt><trkpt lat="44.13165088818294" lon="12.388980049697706"><ele>10.666666666666668</ele><time>2026-04-06T15:01:21Z</time></trkpt><trkpt lat="44.13184499441995" lon="12.389018572532182"><ele>10.0</ele><time>2026-04-06T15:01:22Z</time></trkpt><trkpt lat="44.132042458438704" lon="12.3890490230238"><ele>10.0</ele><time>2026-04-06T15:01:23Z</time></trkpt><trkpt lat="44.132240037993334" lon="12.389074057773678"><ele>10.0</ele><time>2026-04-06T15:01:24Z</time></trkpt><trkpt lat="44.13243990879423" lon="12.38909282580723"><ele>10.0</ele><time>2026-04-06T15:01:25Z</time></trkpt><trkpt lat="44.1326382567351" lon="12.38910648391018"><ele>10.0</ele><time>2026-04-06T15:01:26Z</time></trkpt><trkpt lat="44.13283883092509" lon="12.38911631842344"><ele>10.0</ele><time>2026-04-06T15:01:27Z</time></trkpt><trkpt lat="44.133039907300386" lon="12.389125490479671"><ele>10.0</ele><time>2026-04-06T15:01:28Z</time></trkpt><trkpt lat="44.13323688109742" lon="12.38912498596416"><ele>10.0</ele><time>2026-04-06T15:01:29Z</time></trkpt><trkpt lat="44.13343522632107" lon="12.389121422893986"><ele>10.0</ele><time>2026-04-06T15:01:30Z</time></trkpt><trkpt lat="44.13362746343612" lon="12.389117481971091"><ele>10.0</ele><time>2026-04-06T15:01:31Z</time></trkpt><trkpt lat="44.1338202374863" lon="12.389112819602987"><ele>10.0</ele><time>2026-04-06T15:01:32Z</time></trkpt><trkpt lat="44.134009263479044" lon="12.389107296113458"><ele>10.0</ele><time>2026-04-06T15:01:33Z</time></trkpt><trkpt lat="44.13419009163095" lon="12.389102869540597"><ele>10.0</ele><time>2026-04-06T15:01:34Z</time></trkpt><trkpt lat="44.13435889495154" lon="12.389104412177245"><ele>10.0</ele><time>2026-04-06T15:01:35Z</time></trkpt><trkpt lat="44.134520927864294" lon="12.389103843405575"><ele>10.0</ele><time>2026-04-06T15:01:36Z</time></trkpt><trkpt lat="44.134694760333254" lon="12.389089669528886"><ele>10.0</ele><time>2026-04-06T15:01:37Z</time></trkpt><trkpt lat="44.13485760860392" lon="12.389105199481065"><ele>9.666666666666668</ele><time>2026-04-06T15:01:38Z</time></trkpt><trkpt lat="44.13502125876003" lon="12.389104033558178"><ele>9.333333333333334</ele><time>2026-04-06T15:01:39Z</time></trkpt><trkpt lat="44.13518994428197" lon="12.389084987977053"><ele>9.0</ele><time>2026-04-06T15:01:40Z</time></trkpt><trkpt lat="44.13536504933309" lon="12.389083106087124"><ele>9.0</ele><time>2026-04-06T15:01:41Z</time></trkpt><trkpt lat="44.135535430885525" lon="12.389086286246318"><ele>9.0</ele><time>2026-04-06T15:01:42Z</time></trkpt><trkpt lat="44.13569918220351" lon="12.38908923798742"><ele>9.0</ele><time>2026-04-06T15:01:43Z</time></trkpt><trkpt lat="44.135870613797074" lon="12.389082815573445"><ele>9.666666666666666</ele><time>2026-04-06T15:01:44Z</time></trkpt><trkpt lat="44.136031272016474" lon="12.389082781290222"><ele>10.333333333333332</ele><time>2026-04-06T15:01:45Z</time></trkpt><trkpt lat="44.13617575806014" lon="12.389095453572306"><ele>11.0</ele><time>2026-04-06T15:01:46Z</time></trkpt><trkpt lat="44.13632416249232" lon="12.38908488291063"><ele>11.0</ele><time>2026-04-06T15:01:47Z</time></trkpt><trkpt lat="44.13645517965491" lon="12.38908722059885"><ele>11.0</ele><time>2026-04-06T15:01:48Z</time></trkpt><trkpt lat="44.13658521018305" lon="12.389094782958102"><ele>11.0</ele><time>2026-04-06T15:01:49Z</time></trkpt><trkpt lat="44.13669734153861" lon="12.389104379030348"><ele>11.0</ele><time>2026-04-06T15:01:50Z</time></trkpt><trkpt lat="44.1367889359607" lon="12.389122989836174"><ele>11.0</ele><time>2026-04-06T15:01:51Z</time></trkpt><trkpt lat="44.13688104662905" lon="12.389143578923296"><ele>11.0</ele><time>2026-04-06T15:01:52Z</time></trkpt><trkpt lat="44.136958370448966" lon="12.389173293681404"><ele>11.0</ele><time>2026-04-06T15:01:53Z</time></trkpt><trkpt lat="44.13702543334029" lon="12.389212086141209"><ele>11.0</ele><time>2026-04-06T15:01:54Z</time></trkpt><trkpt lat="44.13708640403793" lon="12.389258207069705"><ele>11.0</ele><time>2026-04-06T15:01:55Z</time></trkpt><trkpt lat="44.137136975937814" lon="12.389322326270866"><ele>11.0</ele><time>2026-04-06T15:01:56Z</time></trkpt><trkpt lat="44.1371925031589" lon="12.389385927813622"><ele>11.0</ele><time>2026-04-06T15:01:56.998Z</time></trkpt><trkpt lat="44.1372226373016" lon="12.389493489975832"><ele>11.0</ele><time>2026-04-06T15:01:57.998Z</time></trkpt><trkpt lat="44.137274962176214" lon="12.389574474320776"><ele>11.0</ele><time>2026-04-06T15:01:58.998Z</time></trkpt><trkpt lat="44.13734522577319" lon="12.389636619530728"><ele>11.0</ele><time>2026-04-06T15:01:59.998Z</time></trkpt><trkpt lat="44.13741928219604" lon="12.389677039945225"><ele>11.0</ele><time>2026-04-06T15:02:00.999Z</time></trkpt><trkpt lat="44.13749010873727" lon="12.38969065533736"><ele>11.0</ele><time>2026-04-06T15:02:01.999Z</time></trkpt><trkpt lat="44.13758320584074" lon="12.389706896788006"><ele>10.600000000000001</ele><time>2026-04-06T15:02:02.999Z</time></trkpt><trkpt lat="44.13766871253523" lon="12.389739117251867"><ele>10.200000000000001</ele><time>2026-04-06T15:02:03.999Z</time></trkpt><trkpt lat="44.13775853390216" lon="12.38978454448476"><ele>9.8</ele><time>2026-04-06T15:02:04.999Z</time></trkpt><trkpt lat="44.13785142508317" lon="12.389822975158621"><ele>9.4</ele><time>2026-04-06T15:02:05.999Z</time></trkpt><trkpt lat="44.137926695698276" lon="12.3899345086933"><ele>9.0</ele><time>2026-04-06T15:02:06.999Z</time></trkpt><trkpt lat="44.13800969042476" lon="12.390026098898058"><ele>9.0</ele><time>2026-04-06T15:02:07.999Z</time></trkpt><trkpt lat="44.138093112137454" lon="12.390126629176974"><ele>9.0</ele><time>2026-04-06T15:02:08.999Z</time></trkpt><trkpt lat="44.138185683572736" lon="12.390237374138625"><ele>9.0</ele><time>2026-04-06T15:02:09.999Z</time></trkpt><trkpt lat="44.13828666893227" lon="12.390348229153288"><ele>9.0</ele><time>2026-04-06T15:02:10.999Z</time></trkpt><trkpt lat="44.138398837402846" lon="12.390472733626181"><ele>9.666666666666666</ele><time>2026-04-06T15:02:11.999Z</time></trkpt><trkpt lat="44.138526607796194" lon="12.390601439875098"><ele>10.333333333333332</ele><time>2026-04-06T15:02:12.999Z</time></trkpt><trkpt lat="44.13865825064109" lon="12.39072427304481"><ele>11.0</ele><time>2026-04-06T15:02:13.999Z</time></trkpt><trkpt lat="44.13879900639468" lon="12.390852911029652"><ele>11.0</ele><time>2026-04-06T15:02:14.999Z</time></trkpt><trkpt lat="44.13895807331806" lon="12.390984744220384"><ele>11.0</ele><time>2026-04-06T15:02:15.999Z</time></trkpt><trkpt lat="44.13912034220543" lon="12.391115861431008"><ele>11.0</ele><time>2026-04-06T15:02:16.999Z</time></trkpt><trkpt lat="44.13927696227712" lon="12.391246622906028"><ele>10.666666666666666</ele><time>2026-04-06T15:02:17.999Z</time></trkpt><trkpt lat="44.13944159976767" lon="12.39138008040682"><ele>10.333333333333334</ele><time>2026-04-06T15:02:18.999Z</time></trkpt><trkpt lat="44.13960044114789" lon="12.391515181323843"><ele>10.0</ele><time>2026-04-06T15:02:19.999Z</time></trkpt><trkpt lat="44.13976769731297" lon="12.391654239175727"><ele>10.0</ele><time>2026-04-06T15:02:20.999Z</time></trkpt><trkpt lat="44.13993366441556" lon="12.391789675187125"><ele>10.0</ele><time>2026-04-06T15:02:22Z</time></trkpt><trkpt lat="44.140099237370606" lon="12.391920465779659"><ele>10.0</ele><time>2026-04-06T15:02:23Z</time></trkpt><trkpt lat="44.140272294908215" lon="12.392048107201239"><ele>10.0</ele><time>2026-04-06T15:02:24Z</time></trkpt><trkpt lat="44.14044107360234" lon="12.392161441792247"><ele>10.0</ele><time>2026-04-06T15:02:25Z</time></trkpt><trkpt lat="44.14060444717894" lon="12.39226571227514"><ele>10.0</ele><time>2026-04-06T15:02:26Z</time></trkpt><trkpt lat="44.14076983445473" lon="12.39237940735547"><ele>10.0</ele><time>2026-04-06T15:02:27Z</time></trkpt><trkpt lat="44.14092494002413" lon="12.392499281976507"><ele>10.0</ele><time>2026-04-06T15:02:28Z</time></trkpt><trkpt lat="44.14108953025936" lon="12.392628225673677"><ele>10.0</ele><time>2026-04-06T15:02:29Z</time></trkpt><trkpt lat="44.141251067133915" lon="12.392759227565612"><ele>10.0</ele><time>2026-04-06T15:02:30Z</time></trkpt><trkpt lat="44.14141186203232" lon="12.39289441070294"><ele>10.0</ele><time>2026-04-06T15:02:31Z</time></trkpt><trkpt lat="44.1415705156583" lon="12.3930294339061"><ele>10.0</ele><time>2026-04-06T15:02:32Z</time></trkpt><trkpt lat="44.14172950083971" lon="12.393170412477014"><ele>9.333333333333334</ele><time>2026-04-06T15:02:33Z</time></trkpt><trkpt lat="44.14189246970981" lon="12.393313705072584"><ele>8.666666666666666</ele><time>2026-04-06T15:02:34Z</time></trkpt><trkpt lat="44.14205777129362" lon="12.393455838883915"><ele>8.0</ele><time>2026-04-06T15:02:35Z</time></trkpt><trkpt lat="44.1422192675397" lon="12.3935962755048"><ele>8.0</ele><time>2026-04-06T15:02:36Z</time></trkpt><trkpt lat="44.14238202736911" lon="12.393739963942812"><ele>8.0</ele><time>2026-04-06T15:02:37Z</time></trkpt><trkpt lat="44.14254573445109" lon="12.393883830545883"><ele>8.0</ele><time>2026-04-06T15:02:38Z</time></trkpt><trkpt lat="44.14270348388697" lon="12.394022032376558"><ele>8.0</ele><time>2026-04-06T15:02:39Z</time></trkpt><trkpt lat="44.14287056602798" lon="12.394168794026696"><ele>8.0</ele><time>2026-04-06T15:02:40Z</time></trkpt><trkpt lat="44.1430329813052" lon="12.394311789032008"><ele>8.0</ele><time>2026-04-06T15:02:41Z</time></trkpt><trkpt lat="44.143186916151485" lon="12.394448710337864"><ele>8.333333333333332</ele><time>2026-04-06T15:02:42Z</time></trkpt><trkpt lat="44.143347597060426" lon="12.394586474784163"><ele>8.666666666666666</ele><time>2026-04-06T15:02:43Z</time></trkpt><trkpt lat="44.143514813623604" lon="12.394731095215226"><ele>9.0</ele><time>2026-04-06T15:02:44Z</time></trkpt><trkpt lat="44.1436820098475" lon="12.394880040342004"><ele>9.0</ele><time>2026-04-06T15:02:45Z</time></trkpt><trkpt lat="44.14385604958447" lon="12.395029869868464"><ele>9.0</ele><time>2026-04-06T15:02:46Z</time></trkpt><trkpt lat="44.14404723180867" lon="12.395187205994665"><ele>9.0</ele><time>2026-04-06T15:02:47Z</time></trkpt><trkpt lat="44.1442485965268" lon="12.395378941301"><ele>8.0</ele><time>2026-04-06T15:02:48Z</time></trkpt><trkpt lat="44.1444629104684" lon="12.39556355305712"><ele>7.0</ele><time>2026-04-06T15:02:49Z</time></trkpt><trkpt lat="44.14468355646357" lon="12.395753506205367"><ele>8.0</ele><time>2026-04-06T15:02:50Z</time></trkpt><trkpt lat="44.14491237807277" lon="12.39594651511084"><ele>9.0</ele><time>2026-04-06T15:02:51Z</time></trkpt><trkpt lat="44.14514048793426" lon="12.396120720042093"><ele>9.0</ele><time>2026-04-06T15:02:52Z</time></trkpt><trkpt lat="44.145370814653745" lon="12.396321975813187"><ele>9.0</ele><time>2026-04-06T15:02:53Z</time></trkpt><trkpt lat="44.145598642031345" lon="12.396514933100502"><ele>8.5</ele><time>2026-04-06T15:02:54Z</time></trkpt><trkpt lat="44.14582683137414" lon="12.39670920052757"><ele>8.0</ele><time>2026-04-06T15:02:55Z</time></trkpt><trkpt lat="44.14605234828668" lon="12.396899061634473"><ele>8.0</ele><time>2026-04-06T15:02:56Z</time></trkpt><trkpt lat="44.146280810040096" lon="12.397099737477904"><ele>8.0</ele><time>2026-04-06T15:02:57Z</time></trkpt><trkpt lat="44.14649492253423" lon="12.397307468709394"><ele>8.0</ele><time>2026-04-06T15:02:58Z</time></trkpt><trkpt lat="44.14670472566626" lon="12.397537130800572"><ele>8.0</ele><time>2026-04-06T15:02:59Z</time></trkpt><trkpt lat="44.14690497516969" lon="12.39777928000316"><ele>7.5</ele><time>2026-04-06T15:03:00Z</time></trkpt><trkpt lat="44.14708916041305" lon="12.39802083785232"><ele>7.0</ele><time>2026-04-06T15:03:01Z</time></trkpt><trkpt lat="44.14725550138743" lon="12.398259230005635"><ele>7.0</ele><time>2026-04-06T15:03:02Z</time></trkpt><trkpt lat="44.147405764326685" lon="12.398483713110322"><ele>7.0</ele><time>2026-04-06T15:03:03Z</time></trkpt><trkpt lat="44.14754281671029" lon="12.398688230725949"><ele>7.0</ele><time>2026-04-06T15:03:04Z</time></trkpt><trkpt lat="44.147674192557005" lon="12.39888882010061"><ele>7.333333333333334</ele><time>2026-04-06T15:03:05Z</time></trkpt><trkpt lat="44.147800737514956" lon="12.399079645533607"><ele>7.666666666666666</ele><time>2026-04-06T15:03:06Z</time></trkpt><trkpt lat="44.14792292503178" lon="12.3992635168322"><ele>8.0</ele><time>2026-04-06T15:03:07.001Z</time></trkpt><trkpt lat="44.1480419773324" lon="12.399439704528612"><ele>8.0</ele><time>2026-04-06T15:03:08.001Z</time></trkpt><trkpt lat="44.14815690718238" lon="12.399612075242946"><ele>8.0</ele><time>2026-04-06T15:03:09.001Z</time></trkpt><trkpt lat="44.14827198809427" lon="12.39978733151237"><ele>8.0</ele><time>2026-04-06T15:03:10.001Z</time></trkpt><trkpt lat="44.148378156941654" lon="12.399950552850381"><ele>7.333333333333333</ele><time>2026-04-06T15:03:11.001Z</time></trkpt><trkpt lat="44.148484050613575" lon="12.40010994867592"><ele>6.666666666666666</ele><time>2026-04-06T15:03:12.001Z</time></trkpt><trkpt lat="44.14859023029109" lon="12.400267232263054"><ele>6.0</ele><time>2026-04-06T15:03:13.001Z</time></trkpt><trkpt lat="44.148696540527084" lon="12.400427066788874"><ele>6.0</ele><time>2026-04-06T15:03:14.001Z</time></trkpt><trkpt lat="44.148802217769685" lon="12.400587391748974"><ele>6.0</ele><time>2026-04-06T15:03:15.001Z</time></trkpt><trkpt lat="44.14890504430223" lon="12.400743882169905"><ele>6.0</ele><time>2026-04-06T15:03:16.001Z</time></trkpt><trkpt lat="44.14901128554779" lon="12.400902005930527"><ele>6.333333333333334</ele><time>2026-04-06T15:03:17.001Z</time></trkpt><trkpt lat="44.149113307483475" lon="12.401055479540922"><ele>6.666666666666667</ele><time>2026-04-06T15:03:18.001Z</time></trkpt><trkpt lat="44.14921965818976" lon="12.401212881917882"><ele>7.0</ele><time>2026-04-06T15:03:19.001Z</time></trkpt><trkpt lat="44.14932368183652" lon="12.401370794148411"><ele>7.0</ele><time>2026-04-06T15:03:20.001Z</time></trkpt><trkpt lat="44.14942931079429" lon="12.401531595352475"><ele>7.0</ele><time>2026-04-06T15:03:21.001Z</time></trkpt><trkpt lat="44.149537157981705" lon="12.401694337895863"><ele>7.0</ele><time>2026-04-06T15:03:22.001Z</time></trkpt><trkpt lat="44.149644115240186" lon="12.401854672011911"><ele>7.0</ele><time>2026-04-06T15:03:23.001Z</time></trkpt><trkpt lat="44.14974614814792" lon="12.40200951326739"><ele>7.0</ele><time>2026-04-06T15:03:24.001Z</time></trkpt><trkpt lat="44.14984940621611" lon="12.402163744526357"><ele>7.0</ele><time>2026-04-06T15:03:25.001Z</time></trkpt><trkpt lat="44.149946835972884" lon="12.402315458609474"><ele>7.0</ele><time>2026-04-06T15:03:26.001Z</time></trkpt><trkpt lat="44.150051145695265" lon="12.402475834131685"><ele>6.666666666666667</ele><time>2026-04-06T15:03:27.001Z</time></trkpt><trkpt lat="44.15015447809659" lon="12.402630828576749"><ele>6.333333333333334</ele><time>2026-04-06T15:03:28.001Z</time></trkpt><trkpt lat="44.15026487832687" lon="12.402792320325512"><ele>6.0</ele><time>2026-04-06T15:03:29.001Z</time></trkpt><trkpt lat="44.15037641304518" lon="12.40295714834383"><ele>6.0</ele><time>2026-04-06T15:03:30.001Z</time></trkpt><trkpt lat="44.15059859458123" lon="12.402986882129625"><ele>6.0</ele><time>2026-04-06T15:03:31.001Z</time></trkpt><trkpt lat="44.150708903818895" lon="12.40315744025247"><ele>6.0</ele><time>2026-04-06T15:03:32.001Z</time></trkpt><trkpt lat="44.150818570967985" lon="12.403327005135848"><ele>6.0</ele><time>2026-04-06T15:03:33.001Z</time></trkpt><trkpt lat="44.15092263088388" lon="12.403487900239854"><ele>6.0</ele><time>2026-04-06T15:03:34.001Z</time></trkpt><trkpt lat="44.1510261537834" lon="12.40364796502207"><ele>6.0</ele><time>2026-04-06T15:03:35.001Z</time></trkpt><trkpt lat="44.15103443739266" lon="12.403919645173998"><ele>6.0</ele><time>2026-04-06T15:03:36.001Z</time></trkpt><trkpt lat="44.15114709093936" lon="12.404064319003592"><ele>6.0</ele><time>2026-04-06T15:03:37.001Z</time></trkpt><trkpt lat="44.15126389877751" lon="12.404207898316383"><ele>6.0</ele><time>2026-04-06T15:03:38.001Z</time></trkpt><trkpt lat="44.15138179782913" lon="12.404350887777563"><ele>6.0</ele><time>2026-04-06T15:03:39.001Z</time></trkpt><trkpt lat="44.15150000669114" lon="12.40449367802673"><ele>6.0</ele><time>2026-04-06T15:03:40.001Z</time></trkpt><trkpt lat="44.15162022709304" lon="12.404636743103413"><ele>6.0</ele><time>2026-04-06T15:03:41.001Z</time></trkpt><trkpt lat="44.15174032679849" lon="12.404781499347086"><ele>6.0</ele><time>2026-04-06T15:03:42.001Z</time></trkpt><trkpt lat="44.15184995741062" lon="12.404915596435291"><ele>6.0</ele><time>2026-04-06T15:03:43.001Z</time></trkpt><trkpt lat="44.151954572251235" lon="12.405046005047737"><ele>6.0</ele><time>2026-04-06T15:03:44.001Z</time></trkpt><trkpt lat="44.15205357476811" lon="12.405169251492525"><ele>6.0</ele><time>2026-04-06T15:03:45.001Z</time></trkpt><trkpt lat="44.152151549351814" lon="12.405288035094731"><ele>6.0</ele><time>2026-04-06T15:03:46.001Z</time></trkpt><trkpt lat="44.15224920593658" lon="12.4054082184406"><ele>6.0</ele><time>2026-04-06T15:03:47.001Z</time></trkpt><trkpt lat="44.15234974459568" lon="12.405529460393662"><ele>6.0</ele><time>2026-04-06T15:03:48.001Z</time></trkpt><trkpt lat="44.15244361805539" lon="12.405644663715497"><ele>6.0</ele><time>2026-04-06T15:03:49.001Z</time></trkpt><trkpt lat="44.15253870622622" lon="12.405761704086153"><ele>5.75</ele><time>2026-04-06T15:03:50.001Z</time></trkpt><trkpt lat="44.15263566567506" lon="12.405878943920273"><ele>5.5</ele><time>2026-04-06T15:03:51.001Z</time></trkpt><trkpt lat="44.152731360194956" lon="12.405996039543874"><ele>5.25</ele><time>2026-04-06T15:03:52.001Z</time></trkpt><trkpt lat="44.152828184370975" lon="12.406115358865714"><ele>5.0</ele><time>2026-04-06T15:03:53.001Z</time></trkpt><trkpt lat="44.15292541388421" lon="12.40623199875445"><ele>5.0</ele><time>2026-04-06T15:03:54.001Z</time></trkpt><trkpt lat="44.1530286207991" lon="12.406359273598536"><ele>5.0</ele><time>2026-04-06T15:03:55.001Z</time></trkpt><trkpt lat="44.15313766603711" lon="12.40649343370643"><ele>5.0</ele><time>2026-04-06T15:03:56.001Z</time></trkpt><trkpt lat="44.15324774105075" lon="12.406626573359935"><ele>5.0</ele><time>2026-04-06T15:03:57.001Z</time></trkpt><trkpt lat="44.15335113112576" lon="12.40675150679623"><ele>5.0</ele><time>2026-04-06T15:03:58.001Z</time></trkpt><trkpt lat="44.153452643548675" lon="12.406881127623357"><ele>5.0</ele><time>2026-04-06T15:03:59.001Z</time></trkpt><trkpt lat="44.15355741518137" lon="12.407018102560624"><ele>5.0</ele><time>2026-04-06T15:04:00.001Z</time></trkpt><trkpt lat="44.15366123615842" lon="12.40715589699525"><ele>5.0</ele><time>2026-04-06T15:04:01.001Z</time></trkpt><trkpt lat="44.15376672308519" lon="12.407294353316182"><ele>4.75</ele><time>2026-04-06T15:04:02.001Z</time></trkpt><trkpt lat="44.15387143978537" lon="12.40743571817698"><ele>4.5</ele><time>2026-04-06T15:04:03Z</time></trkpt><trkpt lat="44.15397405573357" lon="12.407578563786275"><ele>4.25</ele><time>2026-04-06T15:04:04Z</time></trkpt><trkpt lat="44.15407755639999" lon="12.40772064029069"><ele>4.0</ele><time>2026-04-06T15:04:05Z</time></trkpt><trkpt lat="44.15417080215601" lon="12.40784863634718"><ele>4.0</ele><time>2026-04-06T15:04:06Z</time></trkpt><trkpt lat="44.15425825271711" lon="12.407969430650285"><ele>4.0</ele><time>2026-04-06T15:04:07Z</time></trkpt><trkpt lat="44.15433789289683" lon="12.408080112022546"><ele>4.0</ele><time>2026-04-06T15:04:08Z</time></trkpt><trkpt lat="44.154414176463284" lon="12.408186252420835"><ele>4.0</ele><time>2026-04-06T15:04:09Z</time></trkpt><trkpt lat="44.15448663834579" lon="12.408289964939739"><ele>4.0</ele><time>2026-04-06T15:04:10Z</time></trkpt><trkpt lat="44.15455614416528" lon="12.408387641733723"><ele>3.9999999999999996</ele><time>2026-04-06T15:04:11Z</time></trkpt><trkpt lat="44.15461702356137" lon="12.408473157251963"><ele>4.0</ele><time>2026-04-06T15:04:12Z</time></trkpt><trkpt lat="44.15467212388727" lon="12.408556872494195"><ele>4.0</ele><time>2026-04-06T15:04:13Z</time></trkpt><trkpt lat="44.154721224655425" lon="12.408635442110025"><ele>4.0</ele><time>2026-04-06T15:04:14Z</time></trkpt><trkpt lat="44.154757956481475" lon="12.408726256097628"><ele>3.9999999999999996</ele><time>2026-04-06T15:04:15Z</time></trkpt><trkpt lat="44.15477982825346" lon="12.408840474598003"><ele>4.0</ele><time>2026-04-06T15:04:16Z</time></trkpt><trkpt lat="44.154796133735466" lon="12.408967716156805"><ele>3.833333333333333</ele><time>2026-04-06T15:04:17Z</time></trkpt><trkpt lat="44.154813721367184" lon="12.409086165966222"><ele>3.6666666666666665</ele><time>2026-04-06T15:04:18Z</time></trkpt><trkpt lat="44.154844162499195" lon="12.409193776573373"><ele>3.5</ele><time>2026-04-06T15:04:19Z</time></trkpt><trkpt lat="44.15489574293426" lon="12.409288432331062"><ele>3.333333333333333</ele><time>2026-04-06T15:04:20Z</time></trkpt><trkpt lat="44.15496329706813" lon="12.409360462323235"><ele>3.1666666666666665</ele><time>2026-04-06T15:04:21Z</time></trkpt><trkpt lat="44.1550451258108" lon="12.409404403921306"><ele>3.0</ele><time>2026-04-06T15:04:22Z</time></trkpt><trkpt lat="44.15513600163617" lon="12.409420392984071"><ele>3.4</ele><time>2026-04-06T15:04:23Z</time></trkpt><trkpt lat="44.15523594129081" lon="12.409431978605433"><ele>3.8</ele><time>2026-04-06T15:04:24Z</time></trkpt><trkpt lat="44.15533928173942" lon="12.409460752584192"><ele>4.2</ele><time>2026-04-06T15:04:25Z</time></trkpt><trkpt lat="44.155444260667835" lon="12.409529671062916"><ele>4.6</ele><time>2026-04-06T15:04:26Z</time></trkpt><trkpt lat="44.1555501868984" lon="12.409627678008961"><ele>5.0</ele><time>2026-04-06T15:04:27Z</time></trkpt><trkpt lat="44.155656445449736" lon="12.409734908651334"><ele>4.666666666666667</ele><time>2026-04-06T15:04:28Z</time></trkpt><trkpt lat="44.15577920194332" lon="12.409861968203739"><ele>4.333333333333333</ele><time>2026-04-06T15:04:29Z</time></trkpt><trkpt lat="44.15590277488334" lon="12.410018220014273"><ele>4.0</ele><time>2026-04-06T15:04:30Z</time></trkpt><trkpt lat="44.156050946052694" lon="12.410180796110744"><ele>4.0</ele><time>2026-04-06T15:04:31Z</time></trkpt><trkpt lat="44.156216965122404" lon="12.41033493564656"><ele>4.0</ele><time>2026-04-06T15:04:32Z</time></trkpt><trkpt lat="44.156376386452614" lon="12.41051793892636"><ele>4.0</ele><time>2026-04-06T15:04:33Z</time></trkpt><trkpt lat="44.15652747751245" lon="12.410693583701658"><ele>4.0</ele><time>2026-04-06T15:04:34Z</time></trkpt><trkpt lat="44.15666820808876" lon="12.410856891622975"><ele>4.0</ele><time>2026-04-06T15:04:35Z</time></trkpt><trkpt lat="44.15681322371504" lon="12.411019743713243"><ele>4.0</ele><time>2026-04-06T15:04:36Z</time></trkpt><trkpt lat="44.15694495420183" lon="12.411169580185447"><ele>4.0</ele><time>2026-04-06T15:04:37Z</time></trkpt><trkpt lat="44.157106412291455" lon="12.411341171136138"><ele>4.0</ele><time>2026-04-06T15:04:38Z</time></trkpt><trkpt lat="44.157287813704684" lon="12.411545351214626"><ele>4.0</ele><time>2026-04-06T15:04:39Z</time></trkpt><trkpt lat="44.15745605139301" lon="12.411805389606151"><ele>4.0</ele><time>2026-04-06T15:04:40Z</time></trkpt><trkpt lat="44.1576199146928" lon="12.412064799591898"><ele>4.0</ele><time>2026-04-06T15:04:41Z</time></trkpt><trkpt lat="44.15777126088858" lon="12.412286659974082"><ele>3.6666666666666665</ele><time>2026-04-06T15:04:42Z</time></trkpt><trkpt lat="44.15789475087286" lon="12.41249688718926"><ele>3.333333333333333</ele><time>2026-04-06T15:04:43Z</time></trkpt><trkpt lat="44.15800010605127" lon="12.412667071005533"><ele>3.0</ele><time>2026-04-06T15:04:44Z</time></trkpt><trkpt lat="44.1581084308013" lon="12.412838431140363"><ele>3.0</ele><time>2026-04-06T15:04:45Z</time></trkpt><trkpt lat="44.15821071908351" lon="12.413000219813684"><ele>3.0</ele><time>2026-04-06T15:04:46Z</time></trkpt><trkpt lat="44.1583144416895" lon="12.413166457375185"><ele>3.0</ele><time>2026-04-06T15:04:47Z</time></trkpt><trkpt lat="44.15842050429664" lon="12.413334327499157"><ele>3.0</ele><time>2026-04-06T15:04:48Z</time></trkpt><trkpt lat="44.15851956934675" lon="12.413494054728558"><ele>3.0</ele><time>2026-04-06T15:04:49Z</time></trkpt><trkpt lat="44.15862396898544" lon="12.413664841055567"><ele>3.0</ele><time>2026-04-06T15:04:50Z</time></trkpt><trkpt lat="44.158741927967355" lon="12.413839439447214"><ele>3.0</ele><time>2026-04-06T15:04:51Z</time></trkpt><trkpt lat="44.158848303518056" lon="12.414045841025873"><ele>3.0</ele><time>2026-04-06T15:04:52Z</time></trkpt><trkpt lat="44.15898083198737" lon="12.4142574237167"><ele>3.0</ele><time>2026-04-06T15:04:53Z</time></trkpt><trkpt lat="44.159114992897415" lon="12.414471238596482"><ele>3.0</ele><time>2026-04-06T15:04:54Z</time></trkpt><trkpt lat="44.159259561022324" lon="12.41466738654862"><ele>3.0</ele><time>2026-04-06T15:04:55Z</time></trkpt><trkpt lat="44.159385357479394" lon="12.41487539561679"><ele>3.0</ele><time>2026-04-06T15:04:56Z</time></trkpt><trkpt lat="44.15949573063771" lon="12.415051316400657"><ele>3.0</ele><time>2026-04-06T15:04:57Z</time></trkpt><trkpt lat="44.15960008106929" lon="12.415217592036704"><ele>3.0</ele><time>2026-04-06T15:04:58Z</time></trkpt><trkpt lat="44.159708023869804" lon="12.415392496305117"><ele>3.0</ele><time>2026-04-06T15:04:59Z</time></trkpt><trkpt lat="44.15981473424153" lon="12.415564430365325"><ele>3.333333333333333</ele><time>2026-04-06T15:05:00Z</time></trkpt><trkpt lat="44.15992622246018" lon="12.415740834083689"><ele>3.6666666666666665</ele><time>2026-04-06T15:05:01Z</time></trkpt><trkpt lat="44.160031628840585" lon="12.415904642743364"><ele>4.0</ele><time>2026-04-06T15:05:02Z</time></trkpt><trkpt lat="44.16014172615798" lon="12.416070813103657"><ele>4.0</ele><time>2026-04-06T15:05:03.001Z</time></trkpt><trkpt lat="44.16025269927933" lon="12.416230982425937"><ele>4.0</ele><time>2026-04-06T15:05:04.001Z</time></trkpt><trkpt lat="44.16036053874515" lon="12.416379155489773"><ele>4.0</ele><time>2026-04-06T15:05:05.001Z</time></trkpt><trkpt lat="44.16047078351465" lon="12.416527655279936"><ele>3.5</ele><time>2026-04-06T15:05:06.001Z</time></trkpt><trkpt lat="44.16057732754245" lon="12.416665833541968"><ele>3.0</ele><time>2026-04-06T15:05:07.001Z</time></trkpt><trkpt lat="44.16067339047987" lon="12.416793411532623"><ele>2.5</ele><time>2026-04-06T15:05:08.001Z</time></trkpt><trkpt lat="44.16077464362954" lon="12.416920994254074"><ele>2.0</ele><time>2026-04-06T15:05:09.001Z</time></trkpt><trkpt lat="44.16087684955174" lon="12.41705056426019"><ele>1.75</ele><time>2026-04-06T15:05:10.001Z</time></trkpt><trkpt lat="44.160976744931006" lon="12.417176174526796"><ele>1.5</ele><time>2026-04-06T15:05:11.001Z</time></trkpt><trkpt lat="44.161081912780915" lon="12.417311229653132"><ele>1.25</ele><time>2026-04-06T15:05:12.001Z</time></trkpt><trkpt lat="44.16118865464282" lon="12.417446219666763"><ele>1.0</ele><time>2026-04-06T15:05:13.001Z</time></trkpt><trkpt lat="44.161295975424615" lon="12.417580632425397"><ele>1.0</ele><time>2026-04-06T15:05:14.001Z</time></trkpt><trkpt lat="44.16140568176318" lon="12.41771835520975"><ele>1.0</ele><time>2026-04-06T15:05:15.001Z</time></trkpt><trkpt lat="44.16151549960756" lon="12.417856673421833"><ele>1.0</ele><time>2026-04-06T15:05:16.001Z</time></trkpt><trkpt lat="44.16162964823263" lon="12.417989387138661"><ele>1.0</ele><time>2026-04-06T15:05:17.001Z</time></trkpt><trkpt lat="44.161734222372566" lon="12.418119350767384"><ele>1.75</ele><time>2026-04-06T15:05:18.001Z</time></trkpt><trkpt lat="44.16183063547954" lon="12.418240985646845"><ele>2.5</ele><time>2026-04-06T15:05:19.001Z</time></trkpt><trkpt lat="44.161933138217414" lon="12.418368840821227"><ele>3.25</ele><time>2026-04-06T15:05:20.001Z</time></trkpt><trkpt lat="44.16203673088858" lon="12.418494898845347"><ele>4.0</ele><time>2026-04-06T15:05:21.001Z</time></trkpt><trkpt lat="44.16214031538314" lon="12.418622311144915"><ele>4.0</ele><time>2026-04-06T15:05:22.001Z</time></trkpt><trkpt lat="44.16223968367533" lon="12.418748796435588"><ele>4.0</ele><time>2026-04-06T15:05:23.001Z</time></trkpt><trkpt lat="44.16233619578528" lon="12.418872390562354"><ele>4.0</ele><time>2026-04-06T15:05:24.001Z</time></trkpt><trkpt lat="44.16243326951909" lon="12.418991470500236"><ele>4.0</ele><time>2026-04-06T15:05:25.001Z</time></trkpt><trkpt lat="44.16252724664305" lon="12.419107878578997"><ele>3.25</ele><time>2026-04-06T15:05:26.001Z</time></trkpt><trkpt lat="44.16262037800806" lon="12.41922381118995"><ele>2.5</ele><time>2026-04-06T15:05:27.001Z</time></trkpt><trkpt lat="44.1627160155547" lon="12.419342658521098"><ele>1.75</ele><time>2026-04-06T15:05:28.001Z</time></trkpt><trkpt lat="44.16281129608398" lon="12.419462120512714"><ele>1.0</ele><time>2026-04-06T15:05:29.001Z</time></trkpt><trkpt lat="44.162910201989035" lon="12.419585410806754"><ele>1.0</ele><time>2026-04-06T15:05:30.001Z</time></trkpt><trkpt lat="44.16300915576457" lon="12.419705785092933"><ele>1.0</ele><time>2026-04-06T15:05:31.001Z</time></trkpt><trkpt lat="44.163119464389126" lon="12.419834384860541"><ele>1.0</ele><time>2026-04-06T15:05:32.001Z</time></trkpt><trkpt lat="44.163230266247105" lon="12.419971888953237"><ele>1.0</ele><time>2026-04-06T15:05:33.001Z</time></trkpt><trkpt lat="44.16334349476978" lon="12.420131654273261"><ele>1.0</ele><time>2026-04-06T15:05:34.001Z</time></trkpt><trkpt lat="44.16345789365867" lon="12.420278872016429"><ele>1.0</ele><time>2026-04-06T15:05:35.001Z</time></trkpt><trkpt lat="44.16357828450943" lon="12.420431683480137"><ele>1.0</ele><time>2026-04-06T15:05:36.001Z</time></trkpt><trkpt lat="44.16370546484685" lon="12.420591832627855"><ele>0.6666666666666666</ele><time>2026-04-06T15:05:37.001Z</time></trkpt><trkpt lat="44.16383028773929" lon="12.420747470020515"><ele>0.3333333333333333</ele><time>2026-04-06T15:05:38.001Z</time></trkpt><trkpt lat="44.16396087895679" lon="12.420909408672477"><ele>0.0</ele><time>2026-04-06T15:05:39.001Z</time></trkpt><trkpt lat="44.16408394296505" lon="12.421060478438879"><ele>0.0</ele><time>2026-04-06T15:05:40.001Z</time></trkpt><trkpt lat="44.16421200750052" lon="12.421220827236674"><ele>0.0</ele><time>2026-04-06T15:05:41.001Z</time></trkpt><trkpt lat="44.16434001107644" lon="12.421377231509158"><ele>0.0</ele><time>2026-04-06T15:05:42.001Z</time></trkpt><trkpt lat="44.16446585516099" lon="12.421535056714143"><ele>1.3333333333333333</ele><time>2026-04-06T15:05:43.001Z</time></trkpt><trkpt lat="44.164587856577825" lon="12.421687660849418"><ele>2.6666666666666665</ele><time>2026-04-06T15:05:44.001Z</time></trkpt><trkpt lat="44.164707925231" lon="12.42183508979224"><ele>4.0</ele><time>2026-04-06T15:05:45.001Z</time></trkpt><trkpt lat="44.16482678438078" lon="12.421982521316576"><ele>3.75</ele><time>2026-04-06T15:05:46.001Z</time></trkpt><trkpt lat="44.164936871556165" lon="12.42211982312553"><ele>3.5</ele><time>2026-04-06T15:05:47.001Z</time></trkpt><trkpt lat="44.16503818057988" lon="12.422244188872709"><ele>3.25</ele><time>2026-04-06T15:05:48.001Z</time></trkpt><trkpt lat="44.165131401713445" lon="12.42235815654646"><ele>3.0</ele><time>2026-04-06T15:05:49.001Z</time></trkpt><trkpt lat="44.16522479219929" lon="12.422480047834481"><ele>2.8</ele><time>2026-04-06T15:05:50.001Z</time></trkpt><trkpt lat="44.165314894686645" lon="12.422599729917643"><ele>2.5999999999999996</ele><time>2026-04-06T15:05:51.001Z</time></trkpt><trkpt lat="44.165394930733946" lon="12.422709188991277"><ele>2.4000000000000004</ele><time>2026-04-06T15:05:52.001Z</time></trkpt><trkpt lat="44.165455223251136" lon="12.422802409828817"><ele>2.2</ele><time>2026-04-06T15:05:53.001Z</time></trkpt><trkpt lat="44.16551418976109" lon="12.422897683479638"><ele>2.0</ele><time>2026-04-06T15:05:54.001Z</time></trkpt><trkpt lat="44.16555475448501" lon="12.42298450732628"><ele>1.8333333333333333</ele><time>2026-04-06T15:05:55.001Z</time></trkpt><trkpt lat="44.16558643182785" lon="12.423076186835287"><ele>1.6666666666666665</ele><time>2026-04-06T15:05:56.001Z</time></trkpt><trkpt lat="44.165637637025924" lon="12.423137978718376"><ele>1.5</ele><time>2026-04-06T15:05:57.001Z</time></trkpt><trkpt lat="44.16560497516517" lon="12.423259636200472"><ele>1.3333333333333333</ele><time>2026-04-06T15:05:58.001Z</time></trkpt><trkpt lat="44.16559011519936" lon="12.423361615346888"><ele>1.1666666666666665</ele><time>2026-04-06T15:05:59.001Z</time></trkpt><trkpt lat="44.165554957469794" lon="12.423474799464765"><ele>1.0</ele><time>2026-04-06T15:06:00.001Z</time></trkpt><trkpt lat="44.16549853120442" lon="12.4236028527332"><ele>1.0</ele><time>2026-04-06T15:06:01.001Z</time></trkpt><trkpt lat="44.16543338926813" lon="12.423733089268028"><ele>1.0</ele><time>2026-04-06T15:06:02.001Z</time></trkpt><trkpt lat="44.16536692648278" lon="12.423869666677264"><ele>1.0</ele><time>2026-04-06T15:06:03.002Z</time></trkpt><trkpt lat="44.16529546547244" lon="12.424018361772484"><ele>1.0</ele><time>2026-04-06T15:06:04.002Z</time></trkpt><trkpt lat="44.16521978495895" lon="12.424165030453647"><ele>1.0</ele><time>2026-04-06T15:06:05.002Z</time></trkpt><trkpt lat="44.16514288582599" lon="12.42431261817882"><ele>1.0</ele><time>2026-04-06T15:06:06.002Z</time></trkpt><trkpt lat="44.165069177806785" lon="12.424451723756041"><ele>1.0</ele><time>2026-04-06T15:06:07.002Z</time></trkpt><trkpt lat="44.16499959548609" lon="12.424578034811686"><ele>1.0</ele><time>2026-04-06T15:06:08.002Z</time></trkpt><trkpt lat="44.1649341163564" lon="12.424699914578719"><ele>1.0</ele><time>2026-04-06T15:06:09Z</time></trkpt><trkpt lat="44.16487031366483" lon="12.424821972437707"><ele>1.0</ele><time>2026-04-06T15:06:10Z</time></trkpt><trkpt lat="44.16480704493754" lon="12.424943197810231"><ele>1.0</ele><time>2026-04-06T15:06:11Z</time></trkpt><trkpt lat="44.164746871555415" lon="12.425054804324544"><ele>1.0</ele><time>2026-04-06T15:06:12Z</time></trkpt><trkpt lat="44.164687198175955" lon="12.425164075893953"><ele>1.0</ele><time>2026-04-06T15:06:13Z</time></trkpt><trkpt lat="44.16462118444935" lon="12.42526953435398"><ele>0.8333333333333333</ele><time>2026-04-06T15:06:14Z</time></trkpt><trkpt lat="44.16456368662296" lon="12.42535456460135"><ele>0.6666666666666666</ele><time>2026-04-06T15:06:15Z</time></trkpt><trkpt lat="44.16451836911077" lon="12.425417779667475"><ele>0.5</ele><time>2026-04-06T15:06:16Z</time></trkpt><trkpt lat="44.164449643880886" lon="12.425503148198388"><ele>0.3333333333333333</ele><time>2026-04-06T15:06:18Z</time></trkpt><trkpt lat="44.16439130724602" lon="12.425577692910288"><ele>0.16666666666666666</ele><time>2026-04-06T15:06:19Z</time></trkpt><trkpt lat="44.16432924774684" lon="12.425667937472863"><ele>0.0</ele><time>2026-04-06T15:06:20Z</time></trkpt><trkpt lat="44.16427374702202" lon="12.425785267248457"><ele>0.0</ele><time>2026-04-06T15:06:21Z</time></trkpt><trkpt lat="44.164237321815925" lon="12.4259215339368"><ele>0.0</ele><time>2026-04-06T15:06:22Z</time></trkpt><trkpt lat="44.164233495380984" lon="12.426074370932232"><ele>0.0</ele><time>2026-04-06T15:06:23Z</time></trkpt><trkpt lat="44.16427251788966" lon="12.426212672472433"><ele>0.0</ele><time>2026-04-06T15:06:24Z</time></trkpt><trkpt lat="44.1643251569604" lon="12.426343718380325"><ele>0.0</ele><time>2026-04-06T15:06:25Z</time></trkpt><trkpt lat="44.16445243946189" lon="12.426409762410936"><ele>0.0</ele><time>2026-04-06T15:06:26Z</time></trkpt><trkpt lat="44.16458183304984" lon="12.42645515164885"><ele>0.0</ele><time>2026-04-06T15:06:27Z</time></trkpt><trkpt lat="44.164737566699124" lon="12.426474757372814"><ele>0.0</ele><time>2026-04-06T15:06:28Z</time></trkpt><trkpt lat="44.16487263491049" lon="12.426531046723"><ele>0.0</ele><time>2026-04-06T15:06:29Z</time></trkpt><trkpt lat="44.1649847289736" lon="12.426666798850691"><ele>-0.3333333333333333</ele><time>2026-04-06T15:06:30Z</time></trkpt><trkpt lat="44.16508260929316" lon="12.426838985335928"><ele>-0.6666666666666666</ele><time>2026-04-06T15:06:31Z</time></trkpt><trkpt lat="44.165172582760334" lon="12.427051653833072"><ele>-1.0</ele><time>2026-04-06T15:06:32Z</time></trkpt><trkpt lat="44.16527695873077" lon="12.427228597155013"><ele>-0.25</ele><time>2026-04-06T15:06:33Z</time></trkpt><trkpt lat="44.16536785767683" lon="12.427388844387288"><ele>0.5</ele><time>2026-04-06T15:06:34Z</time></trkpt><trkpt lat="44.16544627933339" lon="12.427564631528767"><ele>1.25</ele><time>2026-04-06T15:06:35Z</time></trkpt><trkpt lat="44.16553679182285" lon="12.427704221653235"><ele>2.0</ele><time>2026-04-06T15:06:36Z</time></trkpt><trkpt lat="44.16561338163176" lon="12.427825787896897"><ele>2.0</ele><time>2026-04-06T15:06:37Z</time></trkpt><trkpt lat="44.16567645704683" lon="12.427938609739817"><ele>2.0</ele><time>2026-04-06T15:06:38Z</time></trkpt><trkpt lat="44.16573012307861" lon="12.428036789069361"><ele>2.0</ele><time>2026-04-06T15:06:39Z</time></trkpt><trkpt lat="44.16570657414751" lon="12.428200687861771"><ele>2.0</ele><time>2026-04-06T15:06:40Z</time></trkpt><trkpt lat="44.16569748860717" lon="12.428330907398783"><ele>2.0</ele><time>2026-04-06T15:06:41Z</time></trkpt><trkpt lat="44.165662808206854" lon="12.428447013017712"><ele>2.0</ele><time>2026-04-06T15:06:42Z</time></trkpt><trkpt lat="44.16560610158529" lon="12.428549550629686"><ele>2.0</ele><time>2026-04-06T15:06:43Z</time></trkpt><trkpt lat="44.16553536578299" lon="12.428633288652518"><ele>2.0</ele><time>2026-04-06T15:06:44Z</time></trkpt><trkpt lat="44.1654560048157" lon="12.428700393358229"><ele>2.0</ele><time>2026-04-06T15:06:45Z</time></trkpt><trkpt lat="44.16536855335194" lon="12.428751148453463"><ele>2.0</ele><time>2026-04-06T15:06:46Z</time></trkpt><trkpt lat="44.165275856707105" lon="12.428777624269502"><ele>1.9999999999999998</ele><time>2026-04-06T15:06:47Z</time></trkpt><trkpt lat="44.165187238963036" lon="12.428769844220104"><ele>2.0</ele><time>2026-04-06T15:06:48Z</time></trkpt><trkpt lat="44.16511059888785" lon="12.428726024892686"><ele>2.0</ele><time>2026-04-06T15:06:49Z</time></trkpt><trkpt lat="44.165045910067576" lon="12.428659750828688"><ele>2.0</ele><time>2026-04-06T15:06:50Z</time></trkpt><trkpt lat="44.16498743479416" lon="12.428579847214852"><ele>1.9999999999999998</ele><time>2026-04-06T15:06:51Z</time></trkpt><trkpt lat="44.16493284810935" lon="12.428496146451563"><ele>2.0</ele><time>2026-04-06T15:06:52.001Z</time></trkpt><trkpt lat="44.16487684697378" lon="12.428413109482976"><ele>1.9999999999999998</ele><time>2026-04-06T15:06:53.001Z</time></trkpt><trkpt lat="44.16482462322403" lon="12.428321952616212"><ele>2.0</ele><time>2026-04-06T15:06:54.001Z</time></trkpt><trkpt lat="44.164783749515074" lon="12.428210899447446"><ele>2.0</ele><time>2026-04-06T15:06:55.001Z</time></trkpt><trkpt lat="44.16476054191175" lon="12.428086888887789"><ele>2.0</ele><time>2026-04-06T15:06:56.001Z</time></trkpt><trkpt lat="44.16475860649219" lon="12.427956137203514"><ele>1.9999999999999998</ele><time>2026-04-06T15:06:57.001Z</time></trkpt><trkpt lat="44.16478684131926" lon="12.427850676320151"><ele>2.0</ele><time>2026-04-06T15:06:58.001Z</time></trkpt><trkpt lat="44.16484060341554" lon="12.427745419964733"><ele>2.0</ele><time>2026-04-06T15:06:59.001Z</time></trkpt><trkpt lat="44.16491131567522" lon="12.427643670922258"><ele>2.0</ele><time>2026-04-06T15:07:00.001Z</time></trkpt><trkpt lat="44.164990353857085" lon="12.4275386998518"><ele>2.0</ele><time>2026-04-06T15:07:01.001Z</time></trkpt><trkpt lat="44.165085237590525" lon="12.42742320949481"><ele>2.0</ele><time>2026-04-06T15:07:02.001Z</time></trkpt><trkpt lat="44.16519352322229" lon="12.427290541723757"><ele>2.0</ele><time>2026-04-06T15:07:03.001Z</time></trkpt><trkpt lat="44.165315294025376" lon="12.42715400987816"><ele>2.0</ele><time>2026-04-06T15:07:04.001Z</time></trkpt><trkpt lat="44.165447558644104" lon="12.427012319649055"><ele>2.0</ele><time>2026-04-06T15:07:05.001Z</time></trkpt><trkpt lat="44.16558715058803" lon="12.426866744131097"><ele>1.3333333333333333</ele><time>2026-04-06T15:07:06.001Z</time></trkpt><trkpt lat="44.165736425739524" lon="12.426708360692546"><ele>0.6666666666666666</ele><time>2026-04-06T15:07:07.001Z</time></trkpt><trkpt lat="44.165889266358136" lon="12.426539023462668"><ele>0.0</ele><time>2026-04-06T15:07:08.001Z</time></trkpt><trkpt lat="44.16604577576006" lon="12.426368095679283"><ele>0.3333333333333333</ele><time>2026-04-06T15:07:09.001Z</time></trkpt><trkpt lat="44.166208623286856" lon="12.426194473231083"><ele>0.6666666666666666</ele><time>2026-04-06T15:07:10.001Z</time></trkpt><trkpt lat="44.1663738929901" lon="12.426018248763166"><ele>1.0</ele><time>2026-04-06T15:07:11.001Z</time></trkpt><trkpt lat="44.16654502276029" lon="12.425837623148102"><ele>1.0</ele><time>2026-04-06T15:07:12.001Z</time></trkpt><trkpt lat="44.166716429223385" lon="12.425659567061901"><ele>1.0</ele><time>2026-04-06T15:07:13.001Z</time></trkpt><trkpt lat="44.16688468197208" lon="12.42547994145592"><ele>1.0</ele><time>2026-04-06T15:07:14.001Z</time></trkpt><trkpt lat="44.16705915839428" lon="12.425293551956225"><ele>1.0</ele><time>2026-04-06T15:07:15.001Z</time></trkpt><trkpt lat="44.167238445234716" lon="12.425103409851365"><ele>1.0</ele><time>2026-04-06T15:07:16.001Z</time></trkpt><trkpt lat="44.16741521143815" lon="12.424917633967821"><ele>1.0</ele><time>2026-04-06T15:07:17.001Z</time></trkpt><trkpt lat="44.167595470998386" lon="12.424728323910008"><ele>1.0</ele><time>2026-04-06T15:07:18.001Z</time></trkpt><trkpt lat="44.16777479951322" lon="12.424538249171754"><ele>1.0</ele><time>2026-04-06T15:07:19.001Z</time></trkpt><trkpt lat="44.167953709188545" lon="12.424347499494093"><ele>1.0</ele><time>2026-04-06T15:07:20.001Z</time></trkpt><trkpt lat="44.16813061644267" lon="12.424160804143497"><ele>1.0</ele><time>2026-04-06T15:07:21.001Z</time></trkpt><trkpt lat="44.168306540620506" lon="12.423974449511435"><ele>1.0</ele><time>2026-04-06T15:07:22.001Z</time></trkpt><trkpt lat="44.16848497739358" lon="12.423784696763196"><ele>1.3333333333333333</ele><time>2026-04-06T15:07:23.001Z</time></trkpt><trkpt lat="44.1686574034048" lon="12.423603027102416"><ele>1.6666666666666665</ele><time>2026-04-06T15:07:24.001Z</time></trkpt><trkpt lat="44.16882999282114" lon="12.423420581984551"><ele>2.0</ele><time>2026-04-06T15:07:25.001Z</time></trkpt><trkpt lat="44.16900681362191" lon="12.423232452488802"><ele>2.0</ele><time>2026-04-06T15:07:26.001Z</time></trkpt><trkpt lat="44.16918925190505" lon="12.423039905900547"><ele>2.0</ele><time>2026-04-06T15:07:27.001Z</time></trkpt><trkpt lat="44.16937313930452" lon="12.422843934233457"><ele>1.6666666666666665</ele><time>2026-04-06T15:07:28.001Z</time></trkpt><trkpt lat="44.1695582235202" lon="12.42264588125062"><ele>1.3333333333333333</ele><time>2026-04-06T15:07:29.001Z</time></trkpt><trkpt lat="44.16972707411888" lon="12.422466725895173"><ele>1.0</ele><time>2026-04-06T15:07:30.001Z</time></trkpt><trkpt lat="44.16990809935027" lon="12.422271825990105"><ele>0.3333333333333333</ele><time>2026-04-06T15:07:31.001Z</time></trkpt><trkpt lat="44.17008311464114" lon="12.422083368456816"><ele>-0.3333333333333333</ele><time>2026-04-06T15:07:32.001Z</time></trkpt><trkpt lat="44.170263430240134" lon="12.421889592320392"><ele>-1.0</ele><time>2026-04-06T15:07:33.001Z</time></trkpt><trkpt lat="44.170443346441814" lon="12.421695733045384"><ele>-1.0</ele><time>2026-04-06T15:07:34.001Z</time></trkpt><trkpt lat="44.1706174032748" lon="12.421512273918362"><ele>-1.0</ele><time>2026-04-06T15:07:35.001Z</time></trkpt><trkpt lat="44.1707896435541" lon="12.421331835495462"><ele>-1.0</ele><time>2026-04-06T15:07:36.001Z</time></trkpt><trkpt lat="44.17096557927106" lon="12.421146615953893"><ele>-1.0</ele><time>2026-04-06T15:07:37.001Z</time></trkpt><trkpt lat="44.17113370500598" lon="12.420968768372742"><ele>-1.0</ele><time>2026-04-06T15:07:38.001Z</time></trkpt><trkpt lat="44.17130235190152" lon="12.42079015680453"><ele>-1.0</ele><time>2026-04-06T15:07:39.001Z</time></trkpt><trkpt lat="44.17146882180743" lon="12.420613246916437"><ele>-1.0</ele><time>2026-04-06T15:07:40.001Z</time></trkpt><trkpt lat="44.171635645788854" lon="12.420436821310933"><ele>-1.0</ele><time>2026-04-06T15:07:41.001Z</time></trkpt><trkpt lat="44.1718031401393" lon="12.420262186802164"><ele>-1.0</ele><time>2026-04-06T15:07:42.001Z</time></trkpt><trkpt lat="44.171970920269324" lon="12.42008343837029"><ele>-1.0</ele><time>2026-04-06T15:07:43.001Z</time></trkpt><trkpt lat="44.17214165670019" lon="12.41990182722904"><ele>-1.0</ele><time>2026-04-06T15:07:44.001Z</time></trkpt><trkpt lat="44.17231113943718" lon="12.41972095753302"><ele>-1.0</ele><time>2026-04-06T15:07:45.001Z</time></trkpt><trkpt lat="44.17247974601982" lon="12.419541057273056"><ele>-0.6666666666666666</ele><time>2026-04-06T15:07:46.001Z</time></trkpt><trkpt lat="44.172652259076074" lon="12.419359845027367"><ele>-0.3333333333333333</ele><time>2026-04-06T15:07:47.001Z</time></trkpt><trkpt lat="44.17282080887967" lon="12.419180890450843"><ele>0.0</ele><time>2026-04-06T15:07:48.001Z</time></trkpt><trkpt lat="44.172989211941996" lon="12.419001724967472"><ele>0.0</ele><time>2026-04-06T15:07:49.001Z</time></trkpt><trkpt lat="44.1731561016333" lon="12.418824063118478"><ele>0.0</ele><time>2026-04-06T15:07:50.001Z</time></trkpt><trkpt lat="44.17332127806641" lon="12.418647927936327"><ele>0.0</ele><time>2026-04-06T15:07:51.001Z</time></trkpt><trkpt lat="44.17347972355461" lon="12.41847182296812"><ele>0.0</ele><time>2026-04-06T15:07:52.001Z</time></trkpt><trkpt lat="44.17364570037698" lon="12.418295485343036"><ele>0.0</ele><time>2026-04-06T15:07:53.001Z</time></trkpt><trkpt lat="44.17381019695432" lon="12.41811769310275"><ele>0.0</ele><time>2026-04-06T15:07:54.001Z</time></trkpt><trkpt lat="44.17397235337881" lon="12.417942047560409"><ele>-1.3333333333333333</ele><time>2026-04-06T15:07:55.002Z</time></trkpt><trkpt lat="44.17413545867474" lon="12.41776678662922"><ele>-2.6666666666666665</ele><time>2026-04-06T15:07:56.002Z</time></trkpt><trkpt lat="44.17430070005914" lon="12.417580415175143"><ele>-4.0</ele><time>2026-04-06T15:07:57.002Z</time></trkpt><trkpt lat="44.17447685394314" lon="12.417377612040873"><ele>-4.0</ele><time>2026-04-06T15:07:58.002Z</time></trkpt><trkpt lat="44.17466236953449" lon="12.417164718706335"><ele>-4.0</ele><time>2026-04-06T15:07:59.002Z</time></trkpt><trkpt lat="44.17485859115492" lon="12.416952048793448"><ele>-3.5</ele><time>2026-04-06T15:08:00.002Z</time></trkpt><trkpt lat="44.17505550503224" lon="12.416743954686495"><ele>-3.0</ele><time>2026-04-06T15:08:01.002Z</time></trkpt><trkpt lat="44.17525400395516" lon="12.41653183499922"><ele>-2.0</ele><time>2026-04-06T15:08:02.002Z</time></trkpt><trkpt lat="44.17545506962434" lon="12.416318443400204"><ele>-1.0</ele><time>2026-04-06T15:08:03.002Z</time></trkpt><trkpt lat="44.17565948076632" lon="12.416106566282313"><ele>-1.0</ele><time>2026-04-06T15:08:04.002Z</time></trkpt><trkpt lat="44.17586724571285" lon="12.415896954091782"><ele>-1.0</ele><time>2026-04-06T15:08:05.002Z</time></trkpt><trkpt lat="44.176077197970635" lon="12.415687241468692"><ele>-1.0</ele><time>2026-04-06T15:08:06.002Z</time></trkpt><trkpt lat="44.176284162507564" lon="12.415478681377921"><ele>-1.0</ele><time>2026-04-06T15:08:07.002Z</time></trkpt><trkpt lat="44.17649311974175" lon="12.415268481971244"><ele>-1.0</ele><time>2026-04-06T15:08:08.002Z</time></trkpt><trkpt lat="44.17670398342275" lon="12.41505788499814"><ele>-1.0</ele><time>2026-04-06T15:08:09.002Z</time></trkpt><trkpt lat="44.17691571400997" lon="12.414854270768036"><ele>-1.0</ele><time>2026-04-06T15:08:10.002Z</time></trkpt><trkpt lat="44.1771295436875" lon="12.414655443758802"><ele>-1.0</ele><time>2026-04-06T15:08:11.002Z</time></trkpt><trkpt lat="44.17735715663676" lon="12.414451153875518"><ele>-0.5</ele><time>2026-04-06T15:08:12.002Z</time></trkpt><trkpt lat="44.17757911682073" lon="12.414253885906058"><ele>0.0</ele><time>2026-04-06T15:08:13.002Z</time></trkpt><trkpt lat="44.17781131489304" lon="12.41406028393941"><ele>0.0</ele><time>2026-04-06T15:08:14.002Z</time></trkpt><trkpt lat="44.17804473283615" lon="12.413877251686541"><ele>0.0</ele><time>2026-04-06T15:08:15.001Z</time></trkpt><trkpt lat="44.17827690346987" lon="12.413705354656907"><ele>0.0</ele><time>2026-04-06T15:08:16.001Z</time></trkpt><trkpt lat="44.17850813402857" lon="12.413537315806566"><ele>0.0</ele><time>2026-04-06T15:08:17.001Z</time></trkpt><trkpt lat="44.17874139773699" lon="12.413373495126985"><ele>0.0</ele><time>2026-04-06T15:08:18.001Z</time></trkpt><trkpt lat="44.17897416303481" lon="12.41321818159128"><ele>0.0</ele><time>2026-04-06T15:08:19.001Z</time></trkpt><trkpt lat="44.17920489183718" lon="12.413060558629857"><ele>-1.0</ele><time>2026-04-06T15:08:20.001Z</time></trkpt><trkpt lat="44.179443627924925" lon="12.412902215268256"><ele>-2.0</ele><time>2026-04-06T15:08:21.001Z</time></trkpt><trkpt lat="44.17967587730524" lon="12.41274565819034"><ele>-2.0</ele><time>2026-04-06T15:08:22.001Z</time></trkpt><trkpt lat="44.17991303434371" lon="12.412589598849905"><ele>-2.0</ele><time>2026-04-06T15:08:23.001Z</time></trkpt><trkpt lat="44.18014951742058" lon="12.412433726675733"><ele>-2.0</ele><time>2026-04-06T15:08:24.001Z</time></trkpt><trkpt lat="44.18038667183213" lon="12.412278128759018"><ele>-2.0</ele><time>2026-04-06T15:08:25.001Z</time></trkpt><trkpt lat="44.1806246818856" lon="12.4121225639926"><ele>-1.5</ele><time>2026-04-06T15:08:26.001Z</time></trkpt><trkpt lat="44.18085462870216" lon="12.411969467731755"><ele>-1.0</ele><time>2026-04-06T15:08:27.001Z</time></trkpt><trkpt lat="44.18108476095151" lon="12.411814850940777"><ele>-1.0</ele><time>2026-04-06T15:08:28.001Z</time></trkpt><trkpt lat="44.18132087026096" lon="12.411658196488515"><ele>-1.0</ele><time>2026-04-06T15:08:29.001Z</time></trkpt><trkpt lat="44.18155509675813" lon="12.411502402158638"><ele>-1.5</ele><time>2026-04-06T15:08:30.001Z</time></trkpt><trkpt lat="44.1817884703361" lon="12.41134778426548"><ele>-2.0</ele><time>2026-04-06T15:08:31.001Z</time></trkpt><trkpt lat="44.18202419641932" lon="12.41118989870213"><ele>-2.0</ele><time>2026-04-06T15:08:32.001Z</time></trkpt><trkpt lat="44.182259258588175" lon="12.411034214079285"><ele>-2.0</ele><time>2026-04-06T15:08:33.001Z</time></trkpt><trkpt lat="44.18249906477985" lon="12.410875323167664"><ele>-2.0</ele><time>2026-04-06T15:08:34.001Z</time></trkpt><trkpt lat="44.182733208797536" lon="12.410723850227965"><ele>-2.0</ele><time>2026-04-06T15:08:35.001Z</time></trkpt><trkpt lat="44.18297037373563" lon="12.410563686716056"><ele>-1.5</ele><time>2026-04-06T15:08:36.001Z</time></trkpt><trkpt lat="44.18320530029479" lon="12.410406299094216"><ele>-1.0</ele><time>2026-04-06T15:08:37.001Z</time></trkpt><trkpt lat="44.183445914607915" lon="12.410249608532279"><ele>-1.0</ele><time>2026-04-06T15:08:38.001Z</time></trkpt><trkpt lat="44.18368264908715" lon="12.410096790445383"><ele>-1.0</ele><time>2026-04-06T15:08:39.001Z</time></trkpt><trkpt lat="44.18392112254852" lon="12.409938644242768"><ele>-1.0</ele><time>2026-04-06T15:08:40.001Z</time></trkpt><trkpt lat="44.18415668689" lon="12.409783798300548"><ele>-1.0</ele><time>2026-04-06T15:08:41.001Z</time></trkpt><trkpt lat="44.18439036632225" lon="12.409623426461323"><ele>-1.5</ele><time>2026-04-06T15:08:42.001Z</time></trkpt><trkpt lat="44.184624454700206" lon="12.409465285132015"><ele>-2.0</ele><time>2026-04-06T15:08:43.001Z</time></trkpt><trkpt lat="44.18486219645935" lon="12.409304826762272"><ele>-2.0</ele><time>2026-04-06T15:08:44.001Z</time></trkpt><trkpt lat="44.18510076845478" lon="12.409136941911173"><ele>-2.0</ele><time>2026-04-06T15:08:45.001Z</time></trkpt><trkpt lat="44.18534557609184" lon="12.408945602370837"><ele>-2.0</ele><time>2026-04-06T15:08:46.001Z</time></trkpt><trkpt lat="44.1856027339146" lon="12.408738303272754"><ele>-2.0</ele><time>2026-04-06T15:08:47.001Z</time></trkpt><trkpt lat="44.18582660851466" lon="12.408538520241128"><ele>-1.0</ele><time>2026-04-06T15:08:48.001Z</time></trkpt><trkpt lat="44.18604186514484" lon="12.408349644752738"><ele>0.0</ele><time>2026-04-06T15:08:49.001Z</time></trkpt><trkpt lat="44.18624893015654" lon="12.40815674123263"><ele>0.5</ele><time>2026-04-06T15:08:50.001Z</time></trkpt><trkpt lat="44.18646285596094" lon="12.407951678937922"><ele>1.0</ele><time>2026-04-06T15:08:51.001Z</time></trkpt><trkpt lat="44.186678587712336" lon="12.407733460319317"><ele>1.5</ele><time>2026-04-06T15:08:52.001Z</time></trkpt><trkpt lat="44.1868955415191" lon="12.407500185987109"><ele>2.0</ele><time>2026-04-06T15:08:53.001Z</time></trkpt><trkpt lat="44.18710852747463" lon="12.407256127656103"><ele>2.0</ele><time>2026-04-06T15:08:54.001Z</time></trkpt><trkpt lat="44.18732326383457" lon="12.40700540690769"><ele>2.0</ele><time>2026-04-06T15:08:55.001Z</time></trkpt><trkpt lat="44.18753616730221" lon="12.406758254370708"><ele>2.0</ele><time>2026-04-06T15:08:56.001Z</time></trkpt><trkpt lat="44.187743760725375" lon="12.406504846260507"><ele>2.0</ele><time>2026-04-06T15:08:57.001Z</time></trkpt><trkpt lat="44.187945187977505" lon="12.40623804829083"><ele>2.0</ele><time>2026-04-06T15:08:58.001Z</time></trkpt><trkpt lat="44.18813563865357" lon="12.40596007009669"><ele>2.0</ele><time>2026-04-06T15:08:59.001Z</time></trkpt><trkpt lat="44.18832414095241" lon="12.405670485909258"><ele>2.0</ele><time>2026-04-06T15:09:00.001Z</time></trkpt><trkpt lat="44.188508057394586" lon="12.405381687742123"><ele>2.0</ele><time>2026-04-06T15:09:01.001Z</time></trkpt><trkpt lat="44.18868701998958" lon="12.405095694797216"><ele>2.0</ele><time>2026-04-06T15:09:02.001Z</time></trkpt><trkpt lat="44.18886313535659" lon="12.404807630784747"><ele>2.0</ele><time>2026-04-06T15:09:03.001Z</time></trkpt><trkpt lat="44.189033406922526" lon="12.404523687636438"><ele>2.0</ele><time>2026-04-06T15:09:04.001Z</time></trkpt><trkpt lat="44.18920380665861" lon="12.404241225929985"><ele>2.0</ele><time>2026-04-06T15:09:05.001Z</time></trkpt><trkpt lat="44.18936959222392" lon="12.403964049922635"><ele>2.0</ele><time>2026-04-06T15:09:06.001Z</time></trkpt><trkpt lat="44.1895334959674" lon="12.403692686652365"><ele>2.0</ele><time>2026-04-06T15:09:07.001Z</time></trkpt><trkpt lat="44.18969985445619" lon="12.403421042148059"><ele>2.0</ele><time>2026-04-06T15:09:08.001Z</time></trkpt><trkpt lat="44.18986740808354" lon="12.403148653444221"><ele>2.0</ele><time>2026-04-06T15:09:09.001Z</time></trkpt><trkpt lat="44.19002781594502" lon="12.402889374538944"><ele>1.5</ele><time>2026-04-06T15:09:10.001Z</time></trkpt><trkpt lat="44.19018245018234" lon="12.402641886800756"><ele>1.0</ele><time>2026-04-06T15:09:11.001Z</time></trkpt><trkpt lat="44.19032717116737" lon="12.402409804740971"><ele>1.0</ele><time>2026-04-06T15:09:12.001Z</time></trkpt><trkpt lat="44.190468104488524" lon="12.402182238139453"><ele>1.0</ele><time>2026-04-06T15:09:13.001Z</time></trkpt><trkpt lat="44.19061517495928" lon="12.401945379954617"><ele>1.0</ele><time>2026-04-06T15:09:14.001Z</time></trkpt><trkpt lat="44.19076723869365" lon="12.401698745725048"><ele>1.5</ele><time>2026-04-06T15:09:15.001Z</time></trkpt><trkpt lat="44.19092000455191" lon="12.40144899234243"><ele>2.0</ele><time>2026-04-06T15:09:16.001Z</time></trkpt><trkpt lat="44.19106817234949" lon="12.401205669435216"><ele>1.3333333333333333</ele><time>2026-04-06T15:09:17.001Z</time></trkpt><trkpt lat="44.19121253197046" lon="12.400971556799472"><ele>0.6666666666666666</ele><time>2026-04-06T15:09:18.001Z</time></trkpt><trkpt lat="44.191355447082124" lon="12.400745335530232"><ele>0.0</ele><time>2026-04-06T15:09:19.001Z</time></trkpt><trkpt lat="44.19149262732327" lon="12.400526251229152"><ele>0.0</ele><time>2026-04-06T15:09:20.001Z</time></trkpt><trkpt lat="44.191625378444186" lon="12.400313560301221"><ele>0.0</ele><time>2026-04-06T15:09:21.001Z</time></trkpt><trkpt lat="44.19174920628294" lon="12.40011475013169"><ele>0.0</ele><time>2026-04-06T15:09:22.001Z</time></trkpt><trkpt lat="44.191864440113804" lon="12.399931515217672"><ele>0.0</ele><time>2026-04-06T15:09:23.001Z</time></trkpt><trkpt lat="44.191981677198854" lon="12.399743670695575"><ele>0.0</ele><time>2026-04-06T15:09:24.001Z</time></trkpt><trkpt lat="44.19210080812692" lon="12.399552073996581"><ele>0.0</ele><time>2026-04-06T15:09:25.001Z</time></trkpt><trkpt lat="44.192219713187804" lon="12.399359195796105"><ele>0.3333333333333333</ele><time>2026-04-06T15:09:26.001Z</time></trkpt><trkpt lat="44.192340908416256" lon="12.399163590043187"><ele>0.6666666666666666</ele><time>2026-04-06T15:09:27.001Z</time></trkpt><trkpt lat="44.192453275869966" lon="12.398983121958068"><ele>1.0</ele><time>2026-04-06T15:09:28.001Z</time></trkpt><trkpt lat="44.19256529083428" lon="12.3988021339294"><ele>1.6666666666666665</ele><time>2026-04-06T15:09:29.001Z</time></trkpt><trkpt lat="44.19267828578956" lon="12.398613940530337"><ele>2.3333333333333335</ele><time>2026-04-06T15:09:30.001Z</time></trkpt><trkpt lat="44.192788991825395" lon="12.398426980872243"><ele>3.0</ele><time>2026-04-06T15:09:31.001Z</time></trkpt><trkpt lat="44.192895368360524" lon="12.398248406670637"><ele>3.0</ele><time>2026-04-06T15:09:32.001Z</time></trkpt><trkpt lat="44.19300141455433" lon="12.398074131167016"><ele>3.0</ele><time>2026-04-06T15:09:33.001Z</time></trkpt><trkpt lat="44.19310882718636" lon="12.397895249389453"><ele>3.0</ele><time>2026-04-06T15:09:34.001Z</time></trkpt><trkpt lat="44.19323025634684" lon="12.397695929381857"><ele>2.3333333333333335</ele><time>2026-04-06T15:09:35.001Z</time></trkpt><trkpt lat="44.19335825397637" lon="12.397494586113684"><ele>1.6666666666666665</ele><time>2026-04-06T15:09:36.001Z</time></trkpt><trkpt lat="44.19349739152525" lon="12.397277836819748"><ele>1.0</ele><time>2026-04-06T15:09:37.001Z</time></trkpt><trkpt lat="44.1936413415762" lon="12.397052126744688"><ele>1.0</ele><time>2026-04-06T15:09:38.001Z</time></trkpt><trkpt lat="44.193787382594216" lon="12.396823139299126"><ele>1.0</ele><time>2026-04-06T15:09:39.001Z</time></trkpt><trkpt lat="44.19393163893117" lon="12.396593175677472"><ele>1.0</ele><time>2026-04-06T15:09:40.001Z</time></trkpt><trkpt lat="44.19407433777185" lon="12.39636330301293"><ele>0.6666666666666666</ele><time>2026-04-06T15:09:41.001Z</time></trkpt><trkpt lat="44.19420985028329" lon="12.396142715424213"><ele>0.3333333333333333</ele><time>2026-04-06T15:09:42.001Z</time></trkpt><trkpt lat="44.19433368629081" lon="12.39593389464516"><ele>0.0</ele><time>2026-04-06T15:09:43.001Z</time></trkpt><trkpt lat="44.19444457265057" lon="12.39574627550467"><ele>0.0</ele><time>2026-04-06T15:09:44.001Z</time></trkpt><trkpt lat="44.194540468725314" lon="12.395588436436702"><ele>0.0</ele><time>2026-04-06T15:09:45.001Z</time></trkpt><trkpt lat="44.19463043472654" lon="12.395437918869185"><ele>0.0</ele><time>2026-04-06T15:09:46.001Z</time></trkpt><trkpt lat="44.19471722651889" lon="12.395291356521001"><ele>0.0</ele><time>2026-04-06T15:09:47.001Z</time></trkpt><trkpt lat="44.19479748778232" lon="12.395149908651934"><ele>0.0</ele><time>2026-04-06T15:09:48.001Z</time></trkpt><trkpt lat="44.19487719535222" lon="12.395004028589408"><ele>0.0</ele><time>2026-04-06T15:09:49.001Z</time></trkpt><trkpt lat="44.19495939907056" lon="12.39487072099412"><ele>0.0</ele><time>2026-04-06T15:09:50.001Z</time></trkpt><trkpt lat="44.19504407315176" lon="12.394740830534094"><ele>0.0</ele><time>2026-04-06T15:09:51.001Z</time></trkpt><trkpt lat="44.19512189384552" lon="12.394619153032536"><ele>0.0</ele><time>2026-04-06T15:09:52.001Z</time></trkpt><trkpt lat="44.19519701741445" lon="12.394501906504402"><ele>0.0</ele><time>2026-04-06T15:09:53.002Z</time></trkpt><trkpt lat="44.195264724680555" lon="12.39439408198214"><ele>0.0</ele><time>2026-04-06T15:09:54.002Z</time></trkpt><trkpt lat="44.19533830610044" lon="12.394273180077827"><ele>0.0</ele><time>2026-04-06T15:09:55.002Z</time></trkpt><trkpt lat="44.19541810414748" lon="12.394144349568371"><ele>0.0</ele><time>2026-04-06T15:09:56.002Z</time></trkpt><trkpt lat="44.195504411554516" lon="12.394011154589425"><ele>0.0</ele><time>2026-04-06T15:09:57.002Z</time></trkpt><trkpt lat="44.195591279097904" lon="12.393878923618836"><ele>0.0</ele><time>2026-04-06T15:09:58.002Z</time></trkpt><trkpt lat="44.19566653289158" lon="12.393754505125306"><ele>0.0</ele><time>2026-04-06T15:09:59.002Z</time></trkpt><trkpt lat="44.19574293251609" lon="12.393622965038551"><ele>-0.5</ele><time>2026-04-06T15:10:00.002Z</time></trkpt><trkpt lat="44.19584615200042" lon="12.393512246346633"><ele>-1.0</ele><time>2026-04-06T15:10:01.002Z</time></trkpt><trkpt lat="44.195932320268135" lon="12.393373101827049"><ele>-1.5</ele><time>2026-04-06T15:10:02.002Z</time></trkpt><trkpt lat="44.19602191073587" lon="12.393228334430448"><ele>-2.0</ele><time>2026-04-06T15:10:03.002Z</time></trkpt><trkpt lat="44.196113748029674" lon="12.393079294126244"><ele>-1.75</ele><time>2026-04-06T15:10:04.002Z</time></trkpt><trkpt lat="44.196199346771124" lon="12.392940378222836"><ele>-1.5</ele><time>2026-04-06T15:10:05.002Z</time></trkpt><trkpt lat="44.196278844228594" lon="12.392813628977521"><ele>-1.25</ele><time>2026-04-06T15:10:06.002Z</time></trkpt><trkpt lat="44.196354193225496" lon="12.392691478042662"><ele>-1.0</ele><time>2026-04-06T15:10:07.002Z</time></trkpt><trkpt lat="44.196426357005805" lon="12.392574653300697"><ele>-1.0</ele><time>2026-04-06T15:10:08.002Z</time></trkpt><trkpt lat="44.19649957579971" lon="12.392456986568869"><ele>-1.0</ele><time>2026-04-06T15:10:09.002Z</time></trkpt><trkpt lat="44.19655404048279" lon="12.392308974590078"><ele>-1.0</ele><time>2026-04-06T15:10:10.002Z</time></trkpt><trkpt lat="44.1966277053204" lon="12.392187168537658"><ele>-1.0</ele><time>2026-04-06T15:10:11.002Z</time></trkpt><trkpt lat="44.1967009667047" lon="12.392066968260455"><ele>-0.75</ele><time>2026-04-06T15:10:12.002Z</time></trkpt><trkpt lat="44.19677673853641" lon="12.391945071421413"><ele>-0.5</ele><time>2026-04-06T15:10:13.002Z</time></trkpt><trkpt lat="44.196853746827195" lon="12.391823563752062"><ele>-0.25</ele><time>2026-04-06T15:10:14.002Z</time></trkpt><trkpt lat="44.19693404521586" lon="12.391697959679401"><ele>0.0</ele><time>2026-04-06T15:10:15.002Z</time></trkpt><trkpt lat="44.19701577514042" lon="12.391569223227531"><ele>0.0</ele><time>2026-04-06T15:10:16.002Z</time></trkpt><trkpt lat="44.19710153485333" lon="12.39143794960565"><ele>0.0</ele><time>2026-04-06T15:10:17.002Z</time></trkpt><trkpt lat="44.19720870942393" lon="12.39133029610333"><ele>0.0</ele><time>2026-04-06T15:10:18.002Z</time></trkpt><trkpt lat="44.19730407015822" lon="12.391196622054048"><ele>0.0</ele><time>2026-04-06T15:10:19.002Z</time></trkpt><trkpt lat="44.19740154323" lon="12.39106866428706"><ele>0.0</ele><time>2026-04-06T15:10:20.002Z</time></trkpt><trkpt lat="44.19750216550933" lon="12.390941189487458"><ele>0.0</ele><time>2026-04-06T15:10:21.001Z</time></trkpt><trkpt lat="44.19760241135292" lon="12.390819240960829"><ele>0.0</ele><time>2026-04-06T15:10:22.001Z</time></trkpt><trkpt lat="44.197705809066406" lon="12.390697030440096"><ele>0.0</ele><time>2026-04-06T15:10:23.001Z</time></trkpt><trkpt lat="44.19780088078426" lon="12.3905909010447"><ele>0.2</ele><time>2026-04-06T15:10:24.001Z</time></trkpt><trkpt lat="44.19788953791815" lon="12.390495298866352"><ele>0.4</ele><time>2026-04-06T15:10:25.001Z</time></trkpt><trkpt lat="44.19796992328075" lon="12.390410732000653"><ele>0.6000000000000001</ele><time>2026-04-06T15:10:26.001Z</time></trkpt><trkpt lat="44.19804594340126" lon="12.390336660687842"><ele>0.8</ele><time>2026-04-06T15:10:27.001Z</time></trkpt><trkpt lat="44.19812085231585" lon="12.390265388653168"><ele>1.0</ele><time>2026-04-06T15:10:28.001Z</time></trkpt><trkpt lat="44.19820090143622" lon="12.390191520715128"><ele>0.9999999999999999</ele><time>2026-04-06T15:10:29.001Z</time></trkpt><trkpt lat="44.19827789311879" lon="12.390122266505006"><ele>1.0</ele><time>2026-04-06T15:10:30.001Z</time></trkpt><trkpt lat="44.19835403028021" lon="12.39005538018905"><ele>1.0</ele><time>2026-04-06T15:10:31Z</time></trkpt><trkpt lat="44.19842914563563" lon="12.3899913537737"><ele>1.0</ele><time>2026-04-06T15:10:32Z</time></trkpt><trkpt lat="44.19850035127674" lon="12.389931923316926"><ele>0.9999999999999999</ele><time>2026-04-06T15:10:33Z</time></trkpt><trkpt lat="44.198573232787005" lon="12.389876393377897"><ele>1.0</ele><time>2026-04-06T15:10:34Z</time></trkpt><trkpt lat="44.19863667317777" lon="12.389831290506857"><ele>0.9999999999999999</ele><time>2026-04-06T15:10:35Z</time></trkpt><trkpt lat="44.198695754455954" lon="12.389790492849977"><ele>1.0</ele><time>2026-04-06T15:10:36Z</time></trkpt><trkpt lat="44.19875391629469" lon="12.389750330083576"><ele>1.0</ele><time>2026-04-06T15:10:37Z</time></trkpt><trkpt lat="44.19881741215757" lon="12.389706816393895"><ele>1.0</ele><time>2026-04-06T15:10:38Z</time></trkpt><trkpt lat="44.19888565179779" lon="12.389662281066574"><ele>0.9999999999999999</ele><time>2026-04-06T15:10:39Z</time></trkpt><trkpt lat="44.19896360095616" lon="12.389615564957225"><ele>1.0</ele><time>2026-04-06T15:10:40Z</time></trkpt><trkpt lat="44.19905048081311" lon="12.389563414179369"><ele>0.20000000000000007</ele><time>2026-04-06T15:10:41Z</time></trkpt><trkpt lat="44.199144044980876" lon="12.389508835515112"><ele>-0.5999999999999999</ele><time>2026-04-06T15:10:42Z</time></trkpt><trkpt lat="44.19924296393296" lon="12.389455379268425"><ele>-1.4</ele><time>2026-04-06T15:10:43Z</time></trkpt><trkpt lat="44.1993423348808" lon="12.389405016165107"><ele>-2.1999999999999997</ele><time>2026-04-06T15:10:44Z</time></trkpt><trkpt lat="44.19943422219614" lon="12.389336783025929"><ele>-3.0</ele><time>2026-04-06T15:10:45Z</time></trkpt><trkpt lat="44.19953117120988" lon="12.389292068670056"><ele>-3.0</ele><time>2026-04-06T15:10:46Z</time></trkpt><trkpt lat="44.19963199387666" lon="12.389276084978158"><ele>-3.0</ele><time>2026-04-06T15:10:47Z</time></trkpt><trkpt lat="44.199726135026175" lon="12.389240629917305"><ele>-3.0</ele><time>2026-04-06T15:10:48Z</time></trkpt><trkpt lat="44.19980887755079" lon="12.389211479978302"><ele>-3.0</ele><time>2026-04-06T15:10:49Z</time></trkpt><trkpt lat="44.19989924521274" lon="12.389180097478443"><ele>-3.0</ele><time>2026-04-06T15:10:50Z</time></trkpt><trkpt lat="44.19999683694636" lon="12.389149731155907"><ele>-3.2</ele><time>2026-04-06T15:10:51Z</time></trkpt><trkpt lat="44.20009984952983" lon="12.389119331556211"><ele>-3.4</ele><time>2026-04-06T15:10:52Z</time></trkpt><trkpt lat="44.2002071167773" lon="12.389088180363837"><ele>-3.6000000000000005</ele><time>2026-04-06T15:10:53Z</time></trkpt><trkpt lat="44.20031852295709" lon="12.38905568995183"><ele>-3.8000000000000003</ele><time>2026-04-06T15:10:54Z</time></trkpt><trkpt lat="44.20043285788384" lon="12.389022345400752"><ele>-4.0</ele><time>2026-04-06T15:10:55.001Z</time></trkpt><trkpt lat="44.200544024292434" lon="12.388990860306812"><ele>-3.9999999999999996</ele><time>2026-04-06T15:10:56.001Z</time></trkpt><trkpt lat="44.20063261627622" lon="12.388966076753745"><ele>-4.0</ele><time>2026-04-06T15:10:57.001Z</time></trkpt><trkpt lat="44.20069802195682" lon="12.388947779542658"><ele>-4.0</ele><time>2026-04-06T15:10:58.001Z</time></trkpt><trkpt lat="44.20077748554074" lon="12.388925549787714"><ele>-4.0</ele><time>2026-04-06T15:11:00.001Z</time></trkpt><trkpt lat="44.20085115601427" lon="12.38890469128656"><ele>-3.9999999999999996</ele><time>2026-04-06T15:11:02.001Z</time></trkpt><trkpt lat="44.20095611930575" lon="12.388874631514335"><ele>-4.0</ele><time>2026-04-06T15:11:04.001Z</time></trkpt><trkpt lat="44.20102824667625" lon="12.388854037834784"><ele>-3.4000000000000004</ele><time>2026-04-06T15:11:05.001Z</time></trkpt><trkpt lat="44.20110221007862" lon="12.388801522500774"><ele>-2.8000000000000003</ele><time>2026-04-06T15:11:06.001Z</time></trkpt><trkpt lat="44.20118199990611" lon="12.388781033959177"><ele>-2.2</ele><time>2026-04-06T15:11:07.001Z</time></trkpt><trkpt lat="44.20127995855833" lon="12.388753892933805"><ele>-1.6</ele><time>2026-04-06T15:11:08.001Z</time></trkpt><trkpt lat="44.20139015724127" lon="12.38872016210881"><ele>-1.0</ele><time>2026-04-06T15:11:09.001Z</time></trkpt><trkpt lat="44.20150500270318" lon="12.388688422999516"><ele>-0.25</ele><time>2026-04-06T15:11:10.001Z</time></trkpt><trkpt lat="44.20162237683366" lon="12.388657036569326"><ele>0.5</ele><time>2026-04-06T15:11:11.001Z</time></trkpt><trkpt lat="44.20174381442882" lon="12.388626592899156"><ele>1.25</ele><time>2026-04-06T15:11:12.001Z</time></trkpt><trkpt lat="44.201869040238776" lon="12.388593870388771"><ele>2.0</ele><time>2026-04-06T15:11:13.001Z</time></trkpt><trkpt lat="44.201998101127856" lon="12.38855858898349"><ele>2.0</ele><time>2026-04-06T15:11:14.001Z</time></trkpt><trkpt lat="44.20213228410818" lon="12.388521828972918"><ele>2.0</ele><time>2026-04-06T15:11:15.001Z</time></trkpt><trkpt lat="44.20227373100735" lon="12.388483716994633"><ele>2.0</ele><time>2026-04-06T15:11:16.001Z</time></trkpt><trkpt lat="44.20241697009156" lon="12.388445149448385"><ele>2.0</ele><time>2026-04-06T15:11:17.001Z</time></trkpt><trkpt lat="44.20256205521483" lon="12.388406174759075"><ele>1.5</ele><time>2026-04-06T15:11:18.001Z</time></trkpt><trkpt lat="44.202707457384555" lon="12.388365891136983"><ele>1.0</ele><time>2026-04-06T15:11:19.001Z</time></trkpt><trkpt lat="44.202842019580594" lon="12.388331257903063"><ele>0.5</ele><time>2026-04-06T15:11:20.001Z</time></trkpt><trkpt lat="44.20296796389304" lon="12.388298109728952"><ele>0.0</ele><time>2026-04-06T15:11:21.001Z</time></trkpt><trkpt lat="44.20308608523763" lon="12.388264995091086"><ele>-0.25</ele><time>2026-04-06T15:11:22.001Z</time></trkpt><trkpt lat="44.20320066493191" lon="12.388232652899934"><ele>-0.5</ele><time>2026-04-06T15:11:23.001Z</time></trkpt><trkpt lat="44.20331211198551" lon="12.388201618989497"><ele>-0.75</ele><time>2026-04-06T15:11:24.001Z</time></trkpt><trkpt lat="44.20342512610381" lon="12.38817035579492"><ele>-1.0</ele><time>2026-04-06T15:11:25.001Z</time></trkpt><trkpt lat="44.20353408743946" lon="12.388141181591012"><ele>-1.0</ele><time>2026-04-06T15:11:26.001Z</time></trkpt><trkpt lat="44.20364321025804" lon="12.388110939060452"><ele>-1.0</ele><time>2026-04-06T15:11:27.001Z</time></trkpt><trkpt lat="44.203744765960224" lon="12.38808048963354"><ele>-1.0</ele><time>2026-04-06T15:11:28.001Z</time></trkpt><trkpt lat="44.20384554669263" lon="12.388049368309153"><ele>-1.0</ele><time>2026-04-06T15:11:29.001Z</time></trkpt><trkpt lat="44.2039386602026" lon="12.388023673024438"><ele>-1.0</ele><time>2026-04-06T15:11:30.001Z</time></trkpt><trkpt lat="44.204028255680775" lon="12.38799687339448"><ele>-1.1666666666666665</ele><time>2026-04-06T15:11:31.001Z</time></trkpt><trkpt lat="44.20411518591948" lon="12.38796961324731"><ele>-1.3333333333333333</ele><time>2026-04-06T15:11:32.001Z</time></trkpt><trkpt lat="44.204199506172756" lon="12.38794210824209"><ele>-1.5</ele><time>2026-04-06T15:11:33.001Z</time></trkpt><trkpt lat="44.20427532411662" lon="12.387916334863723"><ele>-1.6666666666666665</ele><time>2026-04-06T15:11:34.001Z</time></trkpt><trkpt lat="44.20434189895494" lon="12.387895877571985"><ele>-1.8333333333333333</ele><time>2026-04-06T15:11:35.001Z</time></trkpt><trkpt lat="44.20441532839359" lon="12.387879497407376"><ele>-2.0</ele><time>2026-04-06T15:11:36.001Z</time></trkpt><trkpt lat="44.2044844213294" lon="12.387861749863688"><ele>-1.9999999999999998</ele><time>2026-04-06T15:11:37.001Z</time></trkpt><trkpt lat="44.204557293421885" lon="12.387837157466734"><ele>-2.0</ele><time>2026-04-06T15:11:38.001Z</time></trkpt><trkpt lat="44.204635566576734" lon="12.387805127378162"><ele>-2.0</ele><time>2026-04-06T15:11:39.001Z</time></trkpt><trkpt lat="44.204717212345" lon="12.387770426777507"><ele>-2.0</ele><time>2026-04-06T15:11:40.001Z</time></trkpt><trkpt lat="44.204799879540815" lon="12.387732215897602"><ele>-1.9999999999999998</ele><time>2026-04-06T15:11:41.001Z</time></trkpt><trkpt lat="44.204880219994685" lon="12.38769281030964"><ele>-2.0</ele><time>2026-04-06T15:11:42.001Z</time></trkpt><trkpt lat="44.20495230405851" lon="12.387655197995468"><ele>-2.333333333333333</ele><time>2026-04-06T15:11:43.001Z</time></trkpt><trkpt lat="44.205026401085384" lon="12.387612609476289"><ele>-2.6666666666666665</ele><time>2026-04-06T15:11:44.001Z</time></trkpt><trkpt lat="44.205090279131646" lon="12.387570683023975"><ele>-3.0</ele><time>2026-04-06T15:11:45.001Z</time></trkpt><trkpt lat="44.20515232204078" lon="12.387523832602925"><ele>-3.333333333333333</ele><time>2026-04-06T15:11:46.001Z</time></trkpt><trkpt lat="44.2052223173205" lon="12.387486133079195"><ele>-3.6666666666666665</ele><time>2026-04-06T15:11:47.001Z</time></trkpt><trkpt lat="44.205304344841565" lon="12.387440316406893"><ele>-4.0</ele><time>2026-04-06T15:11:48.001Z</time></trkpt><trkpt lat="44.20539577186189" lon="12.387383279400225"><ele>-4.0</ele><time>2026-04-06T15:11:49.001Z</time></trkpt><trkpt lat="44.205486757029114" lon="12.387325963668781"><ele>-4.0</ele><time>2026-04-06T15:11:50.001Z</time></trkpt><trkpt lat="44.20558450088156" lon="12.387260801092562"><ele>-4.0</ele><time>2026-04-06T15:11:51.001Z</time></trkpt><trkpt lat="44.20568990068326" lon="12.387189661368394"><ele>-4.0</ele><time>2026-04-06T15:11:52.001Z</time></trkpt><trkpt lat="44.20579956979008" lon="12.387111399570854"><ele>-4.0</ele><time>2026-04-06T15:11:53.001Z</time></trkpt><trkpt lat="44.205913996905814" lon="12.387026226949832"><ele>-3.75</ele><time>2026-04-06T15:11:54.001Z</time></trkpt><trkpt lat="44.20603084297507" lon="12.386937073501224"><ele>-3.5</ele><time>2026-04-06T15:11:55.001Z</time></trkpt><trkpt lat="44.20614638340139" lon="12.386844333516384"><ele>-3.25</ele><time>2026-04-06T15:11:56.001Z</time></trkpt><trkpt lat="44.206255278315574" lon="12.386728648226233"><ele>-3.0</ele><time>2026-04-06T15:11:57.001Z</time></trkpt><trkpt lat="44.20636802001153" lon="12.386630936337514"><ele>-3.0</ele><time>2026-04-06T15:11:58.001Z</time></trkpt><trkpt lat="44.2064812721807" lon="12.38652732846974"><ele>-3.0</ele><time>2026-04-06T15:11:59.001Z</time></trkpt><trkpt lat="44.20659580358065" lon="12.386414394875308"><ele>-3.0</ele><time>2026-04-06T15:12:00.001Z</time></trkpt><trkpt lat="44.20671041285078" lon="12.38630320609341"><ele>-3.0</ele><time>2026-04-06T15:12:01.001Z</time></trkpt><trkpt lat="44.20682319899151" lon="12.386188578250382"><ele>-2.5</ele><time>2026-04-06T15:12:02.001Z</time></trkpt><trkpt lat="44.20691971087057" lon="12.386087065265018"><ele>-2.0</ele><time>2026-04-06T15:12:03.001Z</time></trkpt><trkpt lat="44.2070081771272" lon="12.385996128870307"><ele>-1.5</ele><time>2026-04-06T15:12:04.001Z</time></trkpt><trkpt lat="44.20709796569962" lon="12.385901147241668"><ele>-1.0</ele><time>2026-04-06T15:12:05.001Z</time></trkpt><trkpt lat="44.207187977561816" lon="12.385808897387733"><ele>-1.0</ele><time>2026-04-06T15:12:06.001Z</time></trkpt><trkpt lat="44.20727776160426" lon="12.385717683506078"><ele>-1.0</ele><time>2026-04-06T15:12:07.001Z</time></trkpt><trkpt lat="44.20736838816513" lon="12.385625045638722"><ele>-1.0</ele><time>2026-04-06T15:12:08.001Z</time></trkpt><trkpt lat="44.207460142328024" lon="12.385531806209345"><ele>-1.0</ele><time>2026-04-06T15:12:09.001Z</time></trkpt><trkpt lat="44.207552817789725" lon="12.385438328445957"><ele>-1.0</ele><time>2026-04-06T15:12:10.001Z</time></trkpt><trkpt lat="44.207647154053745" lon="12.385342168336264"><ele>-1.0</ele><time>2026-04-06T15:12:11.001Z</time></trkpt><trkpt lat="44.20774351913389" lon="12.385243151472089"><ele>-1.0</ele><time>2026-04-06T15:12:12.001Z</time></trkpt><trkpt lat="44.20785460327361" lon="12.385156948564887"><ele>-1.0</ele><time>2026-04-06T15:12:13.001Z</time></trkpt><trkpt lat="44.207960659641444" lon="12.38504964977406"><ele>-1.0</ele><time>2026-04-06T15:12:14.001Z</time></trkpt><trkpt lat="44.20807061057796" lon="12.384938410809962"><ele>-1.0</ele><time>2026-04-06T15:12:15.002Z</time></trkpt><trkpt lat="44.20818331683404" lon="12.384824384253886"><ele>-1.0</ele><time>2026-04-06T15:12:16.002Z</time></trkpt><trkpt lat="44.20829655572463" lon="12.384709409596605"><ele>-1.0</ele><time>2026-04-06T15:12:17.002Z</time></trkpt><trkpt lat="44.2084105424095" lon="12.384591777935388"><ele>-0.5</ele><time>2026-04-06T15:12:18.002Z</time></trkpt><trkpt lat="44.20852221747448" lon="12.38447653181785"><ele>0.0</ele><time>2026-04-06T15:12:19.002Z</time></trkpt><trkpt lat="44.2086348268368" lon="12.384360321512654"><ele>0.5</ele><time>2026-04-06T15:12:20.002Z</time></trkpt><trkpt lat="44.20873750773695" lon="12.384227124664202"><ele>1.0</ele><time>2026-04-06T15:12:21.002Z</time></trkpt><trkpt lat="44.20885332445093" lon="12.38410927258401"><ele>1.0</ele><time>2026-04-06T15:12:22.002Z</time></trkpt><trkpt lat="44.20897137810756" lon="12.38398561590319"><ele>1.0</ele><time>2026-04-06T15:12:23.002Z</time></trkpt><trkpt lat="44.20909030911791" lon="12.383864934276083"><ele>1.0</ele><time>2026-04-06T15:12:24.002Z</time></trkpt><trkpt lat="44.20921457130279" lon="12.383738423927637"><ele>1.0</ele><time>2026-04-06T15:12:25.002Z</time></trkpt><trkpt lat="44.20935312561667" lon="12.38362849155832"><ele>0.3333333333333333</ele><time>2026-04-06T15:12:26.002Z</time></trkpt><trkpt lat="44.20948309208909" lon="12.383496288059282"><ele>-0.3333333333333333</ele><time>2026-04-06T15:12:27Z</time></trkpt><trkpt lat="44.20962111592496" lon="12.383358374876362"><ele>-1.0</ele><time>2026-04-06T15:12:28Z</time></trkpt><trkpt lat="44.209783625466166" lon="12.383192379246674"><ele>-1.3333333333333333</ele><time>2026-04-06T15:12:29Z</time></trkpt><trkpt lat="44.209930286898285" lon="12.383042161321777"><ele>-1.6666666666666665</ele><time>2026-04-06T15:12:30Z</time></trkpt><trkpt lat="44.2100709543857" lon="12.382897022040627"><ele>-2.0</ele><time>2026-04-06T15:12:31Z</time></trkpt><trkpt lat="44.21021202820128" lon="12.382752000607953"><ele>-2.333333333333333</ele><time>2026-04-06T15:12:32Z</time></trkpt><trkpt lat="44.21034021048434" lon="12.382590930995136"><ele>-2.6666666666666665</ele><time>2026-04-06T15:12:33Z</time></trkpt><trkpt lat="44.210469477369145" lon="12.382457625708888"><ele>-3.0</ele><time>2026-04-06T15:12:34Z</time></trkpt><trkpt lat="44.21059259882757" lon="12.382326805382746"><ele>-2.75</ele><time>2026-04-06T15:12:35Z</time></trkpt><trkpt lat="44.21070788030724" lon="12.382206424801204"><ele>-2.5</ele><time>2026-04-06T15:12:36Z</time></trkpt><trkpt lat="44.21083509162016" lon="12.382113936198731"><ele>-2.25</ele><time>2026-04-06T15:12:37Z</time></trkpt><trkpt lat="44.210934209165735" lon="12.381971423937497"><ele>-2.0</ele><time>2026-04-06T15:12:38Z</time></trkpt><trkpt lat="44.21104658429416" lon="12.381857026785356"><ele>-2.0</ele><time>2026-04-06T15:12:39Z</time></trkpt><trkpt lat="44.21115039549634" lon="12.381749873342141"><ele>-2.0</ele><time>2026-04-06T15:12:40Z</time></trkpt><trkpt lat="44.21125874973497" lon="12.381639072780798"><ele>-2.0</ele><time>2026-04-06T15:12:41Z</time></trkpt><trkpt lat="44.21137815463251" lon="12.381555532861928"><ele>-2.0</ele><time>2026-04-06T15:12:42Z</time></trkpt><trkpt lat="44.211472038076096" lon="12.381460220363206"><ele>-2.0</ele><time>2026-04-06T15:12:43Z</time></trkpt><trkpt lat="44.21155891974717" lon="12.38137201617126"><ele>-2.0</ele><time>2026-04-06T15:12:44Z</time></trkpt><trkpt lat="44.21164660082261" lon="12.381284505770394"><ele>-2.0</ele><time>2026-04-06T15:12:45Z</time></trkpt><trkpt lat="44.21173224665678" lon="12.381199053017472"><ele>-2.0</ele><time>2026-04-06T15:12:46Z</time></trkpt><trkpt lat="44.21180670302135" lon="12.381124764506538"><ele>-2.0</ele><time>2026-04-06T15:12:47Z</time></trkpt><trkpt lat="44.21188076348154" lon="12.381050776620306"><ele>-1.9999999999999998</ele><time>2026-04-06T15:12:48Z</time></trkpt><trkpt lat="44.21195199872059" lon="12.380979017591446"><ele>-2.0</ele><time>2026-04-06T15:12:49Z</time></trkpt><trkpt lat="44.21201822705994" lon="12.380912302278649"><ele>-2.0</ele><time>2026-04-06T15:12:50Z</time></trkpt><trkpt lat="44.212085211146935" lon="12.380844427418007"><ele>-2.0</ele><time>2026-04-06T15:12:51Z</time></trkpt><trkpt lat="44.21215687388384" lon="12.380771033145125"><ele>-1.9999999999999998</ele><time>2026-04-06T15:12:52Z</time></trkpt><trkpt lat="44.212231163207115" lon="12.38069494895936"><ele>-2.0</ele><time>2026-04-06T15:12:53Z</time></trkpt><trkpt lat="44.21231546455757" lon="12.380608610884416"><ele>-2.0</ele><time>2026-04-06T15:12:54Z</time></trkpt><trkpt lat="44.21241067397013" lon="12.380511100833937"><ele>-2.0</ele><time>2026-04-06T15:12:55Z</time></trkpt><trkpt lat="44.212509043508234" lon="12.380410354806635"><ele>-2.0</ele><time>2026-04-06T15:12:56Z</time></trkpt><trkpt lat="44.21261600600386" lon="12.380300684260813"><ele>-2.0</ele><time>2026-04-06T15:12:57Z</time></trkpt><trkpt lat="44.21272622622061" lon="12.38018669293574"><ele>-2.0</ele><time>2026-04-06T15:12:58Z</time></trkpt><trkpt lat="44.21284057942813" lon="12.380068427075054"><ele>-2.0</ele><time>2026-04-06T15:12:59Z</time></trkpt><trkpt lat="44.21294641190974" lon="12.3799589735201"><ele>-2.0</ele><time>2026-04-06T15:13:00Z</time></trkpt><trkpt lat="44.213043999443975" lon="12.379858084915213"><ele>-2.0</ele><time>2026-04-06T15:13:01Z</time></trkpt><trkpt lat="44.21313389394413" lon="12.379766886783012"><ele>-1.8</ele><time>2026-04-06T15:13:02Z</time></trkpt><trkpt lat="44.213211596424784" lon="12.379688292105753"><ele>-1.6</ele><time>2026-04-06T15:13:03Z</time></trkpt><trkpt lat="44.21327852680188" lon="12.379621812297588"><ele>-1.4000000000000001</ele><time>2026-04-06T15:13:04Z</time></trkpt><trkpt lat="44.21333726860904" lon="12.379563465934597"><ele>-1.2000000000000002</ele><time>2026-04-06T15:13:05Z</time></trkpt><trkpt lat="44.213433950438045" lon="12.379468506959258"><ele>-1.0</ele><time>2026-04-06T15:13:07Z</time></trkpt><trkpt lat="44.213525263596864" lon="12.379380135663123"><ele>-1.4</ele><time>2026-04-06T15:13:09Z</time></trkpt><trkpt lat="44.213616436690096" lon="12.379293810677032"><ele>-1.8</ele><time>2026-04-06T15:13:11.001Z</time></trkpt><trkpt lat="44.2136997724122" lon="12.379217223344908"><ele>-2.1999999999999997</ele><time>2026-04-06T15:13:13.001Z</time></trkpt><trkpt lat="44.21377258127241" lon="12.379153197271878"><ele>-2.6</ele><time>2026-04-06T15:13:15.001Z</time></trkpt><trkpt lat="44.213888665236155" lon="12.3790528256603"><ele>-3.0</ele><time>2026-04-06T15:13:17.001Z</time></trkpt><trkpt lat="44.213961648012926" lon="12.378989967664122"><ele>-2.75</ele><time>2026-04-06T15:13:18.001Z</time></trkpt><trkpt lat="44.21405764800386" lon="12.378907006082141"><ele>-2.5</ele><time>2026-04-06T15:13:19.001Z</time></trkpt><trkpt lat="44.21418802085098" lon="12.378793888809298"><ele>-2.25</ele><time>2026-04-06T15:13:20.001Z</time></trkpt><trkpt lat="44.21430551143557" lon="12.37869194871759"><ele>-2.0</ele><time>2026-04-06T15:13:21.001Z</time></trkpt><trkpt lat="44.214419806268495" lon="12.378592781429965"><ele>-2.0</ele><time>2026-04-06T15:13:22.001Z</time></trkpt><trkpt lat="44.2145399205767" lon="12.378488564914523"><ele>-2.0</ele><time>2026-04-06T15:13:23.001Z</time></trkpt><trkpt lat="44.21466270336912" lon="12.378382664901041"><ele>-2.0</ele><time>2026-04-06T15:13:24.001Z</time></trkpt><trkpt lat="44.214788786820115" lon="12.378275042594545"><ele>-2.0</ele><time>2026-04-06T15:13:25.001Z</time></trkpt><trkpt lat="44.21491239318488" lon="12.378169639713807"><ele>-2.0</ele><time>2026-04-06T15:13:26.001Z</time></trkpt><trkpt lat="44.21503711881765" lon="12.378063282356253"><ele>-2.0</ele><time>2026-04-06T15:13:27.001Z</time></trkpt><trkpt lat="44.21516349688975" lon="12.377955515991328"><ele>-2.0</ele><time>2026-04-06T15:13:28.001Z</time></trkpt><trkpt lat="44.21529566948211" lon="12.377842937080521"><ele>-2.0</ele><time>2026-04-06T15:13:29.001Z</time></trkpt><trkpt lat="44.21542548571849" lon="12.37770566171514"><ele>-2.0</ele><time>2026-04-06T15:13:30.001Z</time></trkpt><trkpt lat="44.21557370305745" lon="12.377586183562585"><ele>-2.0</ele><time>2026-04-06T15:13:31.001Z</time></trkpt><trkpt lat="44.21572444391661" lon="12.377461675739537"><ele>-2.0</ele><time>2026-04-06T15:13:32.001Z</time></trkpt><trkpt lat="44.215873270126345" lon="12.377337284567075"><ele>-1.6666666666666665</ele><time>2026-04-06T15:13:33.001Z</time></trkpt><trkpt lat="44.216012973300344" lon="12.377220487821312"><ele>-1.3333333333333333</ele><time>2026-04-06T15:13:34.001Z</time></trkpt><trkpt lat="44.216140221954085" lon="12.377112721378683"><ele>-1.0</ele><time>2026-04-06T15:13:35.001Z</time></trkpt><trkpt lat="44.21625849863688" lon="12.377013440808124"><ele>-1.0</ele><time>2026-04-06T15:13:36.001Z</time></trkpt><trkpt lat="44.21637668740771" lon="12.376914808665054"><ele>-1.0</ele><time>2026-04-06T15:13:37.001Z</time></trkpt><trkpt lat="44.21648916258916" lon="12.376820415793194"><ele>-1.0</ele><time>2026-04-06T15:13:38.001Z</time></trkpt><trkpt lat="44.21659444695809" lon="12.376732477885755"><ele>-1.0</ele><time>2026-04-06T15:13:39.001Z</time></trkpt><trkpt lat="44.21669682630834" lon="12.376645092233472"><ele>-1.0</ele><time>2026-04-06T15:13:40.001Z</time></trkpt><trkpt lat="44.21679232612842" lon="12.376564751905644"><ele>-1.0</ele><time>2026-04-06T15:13:41.001Z</time></trkpt><trkpt lat="44.21688309297816" lon="12.376488717504568"><ele>-1.0</ele><time>2026-04-06T15:13:42.001Z</time></trkpt><trkpt lat="44.21696866808273" lon="12.37641645870286"><ele>-1.0</ele><time>2026-04-06T15:13:43.001Z</time></trkpt><trkpt lat="44.217044864265915" lon="12.376347907091386"><ele>-1.0</ele><time>2026-04-06T15:13:44.001Z</time></trkpt><trkpt lat="44.21712556775839" lon="12.376277070572666"><ele>-1.0</ele><time>2026-04-06T15:13:45.001Z</time></trkpt><trkpt lat="44.217204954903025" lon="12.37621135201391"><ele>-1.0</ele><time>2026-04-06T15:13:46.001Z</time></trkpt><trkpt lat="44.217295377285105" lon="12.376131324325396"><ele>-1.0</ele><time>2026-04-06T15:13:47.001Z</time></trkpt><trkpt lat="44.217400551820404" lon="12.376066366912452"><ele>-1.0</ele><time>2026-04-06T15:13:48.001Z</time></trkpt><trkpt lat="44.21750434009019" lon="12.375979598844662"><ele>-1.0</ele><time>2026-04-06T15:13:49.001Z</time></trkpt><trkpt lat="44.217614081385726" lon="12.375887853953746"><ele>-1.0</ele><time>2026-04-06T15:13:50.001Z</time></trkpt><trkpt lat="44.21771659472967" lon="12.375803263015452"><ele>-1.0</ele><time>2026-04-06T15:13:51.001Z</time></trkpt><trkpt lat="44.21780573222547" lon="12.375708892191101"><ele>-1.0</ele><time>2026-04-06T15:13:52.001Z</time></trkpt><trkpt lat="44.217905573561275" lon="12.375632985575693"><ele>-1.0</ele><time>2026-04-06T15:13:53.001Z</time></trkpt><trkpt lat="44.21800817165549" lon="12.375553041920861"><ele>-1.0</ele><time>2026-04-06T15:13:54.001Z</time></trkpt><trkpt lat="44.21811292083723" lon="12.375470968536527"><ele>-1.0</ele><time>2026-04-06T15:13:55.001Z</time></trkpt><trkpt lat="44.21821998355192" lon="12.375385906882062"><ele>-1.0</ele><time>2026-04-06T15:13:56.001Z</time></trkpt><trkpt lat="44.21833260767126" lon="12.37529269696028"><ele>-1.0</ele><time>2026-04-06T15:13:57.001Z</time></trkpt><trkpt lat="44.21845406667191" lon="12.375191845037389"><ele>-1.0</ele><time>2026-04-06T15:13:58.001Z</time></trkpt><trkpt lat="44.218581080265636" lon="12.375086808557386"><ele>-1.0</ele><time>2026-04-06T15:13:59.001Z</time></trkpt><trkpt lat="44.21870534271486" lon="12.374983622999062"><ele>-1.0</ele><time>2026-04-06T15:14:00.001Z</time></trkpt><trkpt lat="44.21882195123853" lon="12.374884973289653"><ele>-1.0</ele><time>2026-04-06T15:14:01.001Z</time></trkpt><trkpt lat="44.21893602384155" lon="12.374783414127139"><ele>-0.5</ele><time>2026-04-06T15:14:02.001Z</time></trkpt><trkpt lat="44.21904969999828" lon="12.37468040038905"><ele>0.0</ele><time>2026-04-06T15:14:03.001Z</time></trkpt><trkpt lat="44.21916594293846" lon="12.374573823315076"><ele>0.5</ele><time>2026-04-06T15:14:04.001Z</time></trkpt><trkpt lat="44.219286577065745" lon="12.374461315442147"><ele>1.0</ele><time>2026-04-06T15:14:05.001Z</time></trkpt><trkpt lat="44.21942301794395" lon="12.374361943133193"><ele>1.0</ele><time>2026-04-06T15:14:06.001Z</time></trkpt><trkpt lat="44.21956333259782" lon="12.37423126222928"><ele>1.0</ele><time>2026-04-06T15:14:07.001Z</time></trkpt><trkpt lat="44.219714327288095" lon="12.3740906346107"><ele>1.0</ele><time>2026-04-06T15:14:08.001Z</time></trkpt><trkpt lat="44.219875940662305" lon="12.373938350790223"><ele>1.6666666666666665</ele><time>2026-04-06T15:14:09.001Z</time></trkpt><trkpt lat="44.220042238072416" lon="12.373779479295374"><ele>2.3333333333333335</ele><time>2026-04-06T15:14:10.001Z</time></trkpt><trkpt lat="44.220208949235015" lon="12.373620212487284"><ele>3.0</ele><time>2026-04-06T15:14:11.001Z</time></trkpt><trkpt lat="44.220365639600296" lon="12.373470519004544"><ele>3.0</ele><time>2026-04-06T15:14:12.001Z</time></trkpt><trkpt lat="44.220518028633826" lon="12.373325013404411"><ele>3.0</ele><time>2026-04-06T15:14:13.001Z</time></trkpt><trkpt lat="44.220663387592445" lon="12.373186271252752"><ele>3.0</ele><time>2026-04-06T15:14:14.001Z</time></trkpt><trkpt lat="44.220797828085644" lon="12.373057920397354"><ele>1.3333333333333335</ele><time>2026-04-06T15:14:15.001Z</time></trkpt><trkpt lat="44.2209188536389" lon="12.37291067897887"><ele>-0.33333333333333326</ele><time>2026-04-06T15:14:16.001Z</time></trkpt><trkpt lat="44.22104572513866" lon="12.372791815284224"><ele>-2.0</ele><time>2026-04-06T15:14:17.001Z</time></trkpt><trkpt lat="44.22116897914946" lon="12.372676660669173"><ele>-2.0</ele><time>2026-04-06T15:14:18.001Z</time></trkpt><trkpt lat="44.221283747576585" lon="12.372567178858045"><ele>-2.0</ele><time>2026-04-06T15:14:19.001Z</time></trkpt><trkpt lat="44.22139157649934" lon="12.372464289817643"><ele>-2.0</ele><time>2026-04-06T15:14:20.001Z</time></trkpt><trkpt lat="44.221499814477625" lon="12.372360516661965"><ele>-2.0</ele><time>2026-04-06T15:14:21.001Z</time></trkpt><trkpt lat="44.22159567610661" lon="12.37227037193097"><ele>-2.0</ele><time>2026-04-06T15:14:22.001Z</time></trkpt><trkpt lat="44.22167778460608" lon="12.372193057595457"><ele>-2.0</ele><time>2026-04-06T15:14:23.001Z</time></trkpt><trkpt lat="44.22176237387164" lon="12.372111975382833"><ele>-2.0</ele><time>2026-04-06T15:14:24.001Z</time></trkpt><trkpt lat="44.22185166083479" lon="12.372025655814374"><ele>-2.0</ele><time>2026-04-06T15:14:25.001Z</time></trkpt><trkpt lat="44.22194599431971" lon="12.371932003602325"><ele>-2.0</ele><time>2026-04-06T15:14:26.001Z</time></trkpt><trkpt lat="44.22206336409422" lon="12.371846851870593"><ele>-2.0</ele><time>2026-04-06T15:14:27.001Z</time></trkpt><trkpt lat="44.22217789343646" lon="12.371736864566921"><ele>-2.0</ele><time>2026-04-06T15:14:28.001Z</time></trkpt><trkpt lat="44.222288791978514" lon="12.371630808940507"><ele>-2.0</ele><time>2026-04-06T15:14:29.001Z</time></trkpt><trkpt lat="44.22239456758671" lon="12.371529184383528"><ele>-2.0</ele><time>2026-04-06T15:14:30.001Z</time></trkpt><trkpt lat="44.22249452777121" lon="12.371433338543063"><ele>-2.25</ele><time>2026-04-06T15:14:31.001Z</time></trkpt><trkpt lat="44.22259080603756" lon="12.371341486143532"><ele>-2.5</ele><time>2026-04-06T15:14:32.001Z</time></trkpt><trkpt lat="44.22268897789903" lon="12.371246513218038"><ele>-2.75</ele><time>2026-04-06T15:14:33Z</time></trkpt><trkpt lat="44.22277969796127" lon="12.37113135495061"><ele>-3.0</ele><time>2026-04-06T15:14:34Z</time></trkpt><trkpt lat="44.2228823409334" lon="12.371032809677779"><ele>-3.0</ele><time>2026-04-06T15:14:35Z</time></trkpt><trkpt lat="44.22299031741305" lon="12.37093196787272"><ele>-3.0</ele><time>2026-04-06T15:14:36Z</time></trkpt><trkpt lat="44.22310260577998" lon="12.370828247180564"><ele>-3.0</ele><time>2026-04-06T15:14:37Z</time></trkpt><trkpt lat="44.223221067341086" lon="12.370719894840287"><ele>-3.0</ele><time>2026-04-06T15:14:38Z</time></trkpt><trkpt lat="44.22334378761607" lon="12.370602725071643"><ele>-3.0</ele><time>2026-04-06T15:14:39Z</time></trkpt><trkpt lat="44.2234700119104" lon="12.370483186199491"><ele>-3.0</ele><time>2026-04-06T15:14:40Z</time></trkpt><trkpt lat="44.22360227662845" lon="12.370357168887507"><ele>-3.0</ele><time>2026-04-06T15:14:41Z</time></trkpt><trkpt lat="44.2237394450271" lon="12.37022495806874"><ele>-3.0</ele><time>2026-04-06T15:14:42Z</time></trkpt><trkpt lat="44.2238845907549" lon="12.370080685971326"><ele>-3.0</ele><time>2026-04-06T15:14:43Z</time></trkpt><trkpt lat="44.22405010271518" lon="12.369942718759717"><ele>-3.0</ele><time>2026-04-06T15:14:44Z</time></trkpt><trkpt lat="44.22421777757344" lon="12.369782263045462"><ele>-3.0</ele><time>2026-04-06T15:14:45Z</time></trkpt><trkpt lat="44.22438739855828" lon="12.36961935357461"><ele>-3.0</ele><time>2026-04-06T15:14:46Z</time></trkpt><trkpt lat="44.22454966452754" lon="12.369462221921667"><ele>-3.0</ele><time>2026-04-06T15:14:47Z</time></trkpt><trkpt lat="44.22470737334712" lon="12.369309503273314"><ele>-3.0</ele><time>2026-04-06T15:14:48Z</time></trkpt><trkpt lat="44.22486505791108" lon="12.369156780463722"><ele>-3.0</ele><time>2026-04-06T15:14:49Z</time></trkpt><trkpt lat="44.22502531180435" lon="12.369001521579879"><ele>-3.0</ele><time>2026-04-06T15:14:50Z</time></trkpt><trkpt lat="44.22517553332462" lon="12.36885598238644"><ele>-3.0</ele><time>2026-04-06T15:14:51Z</time></trkpt><trkpt lat="44.225317317516875" lon="12.368690169153169"><ele>-3.0</ele><time>2026-04-06T15:14:52Z</time></trkpt><trkpt lat="44.22546687559761" lon="12.368544439565019"><ele>-3.0</ele><time>2026-04-06T15:14:53Z</time></trkpt><trkpt lat="44.22562087085196" lon="12.368395467238335"><ele>-2.6666666666666665</ele><time>2026-04-06T15:14:54Z</time></trkpt><trkpt lat="44.225774421846026" lon="12.368250213224792"><ele>-2.333333333333333</ele><time>2026-04-06T15:14:55Z</time></trkpt><trkpt lat="44.22593085116626" lon="12.36809964344832"><ele>-2.0</ele><time>2026-04-06T15:14:56Z</time></trkpt><trkpt lat="44.22608392407418" lon="12.367953209107128"><ele>-1.6666666666666665</ele><time>2026-04-06T15:14:57Z</time></trkpt><trkpt lat="44.22623075823918" lon="12.367817573510905"><ele>-1.3333333333333333</ele><time>2026-04-06T15:14:58Z</time></trkpt><trkpt lat="44.226379919389395" lon="12.367674948991903"><ele>-1.0</ele><time>2026-04-06T15:14:59Z</time></trkpt><trkpt lat="44.22653381089651" lon="12.367523072321719"><ele>-1.0</ele><time>2026-04-06T15:15:00Z</time></trkpt><trkpt lat="44.22668445414427" lon="12.367377224393042"><ele>-1.0</ele><time>2026-04-06T15:15:01Z</time></trkpt><trkpt lat="44.22683546138041" lon="12.367228943370565"><ele>-1.0</ele><time>2026-04-06T15:15:02Z</time></trkpt><trkpt lat="44.2270008448841" lon="12.367056983545066"><ele>-1.0</ele><time>2026-04-06T15:15:03Z</time></trkpt><trkpt lat="44.22720738924692" lon="12.366879998321295"><ele>-1.0</ele><time>2026-04-06T15:15:04Z</time></trkpt><trkpt lat="44.22742445063054" lon="12.366643869617489"><ele>-1.0</ele><time>2026-04-06T15:15:05Z</time></trkpt><trkpt lat="44.227665645578405" lon="12.366414911310754"><ele>-1.0</ele><time>2026-04-06T15:15:06Z</time></trkpt><trkpt lat="44.22789853556974" lon="12.366184986663479"><ele>-1.5</ele><time>2026-04-06T15:15:07Z</time></trkpt><trkpt lat="44.22812417911018" lon="12.365993760860167"><ele>-2.0</ele><time>2026-04-06T15:15:08Z</time></trkpt><trkpt lat="44.22831789692955" lon="12.365806571848257"><ele>-2.0</ele><time>2026-04-06T15:15:09Z</time></trkpt><trkpt lat="44.22849723204957" lon="12.365631654797346"><ele>-2.0</ele><time>2026-04-06T15:15:10Z</time></trkpt><trkpt lat="44.22866170108238" lon="12.365470768128032"><ele>-2.0</ele><time>2026-04-06T15:15:11Z</time></trkpt><trkpt lat="44.228788778173836" lon="12.36534645894956"><ele>-1.5</ele><time>2026-04-06T15:15:12Z</time></trkpt><trkpt lat="44.22889314294297" lon="12.365219261301249"><ele>-1.0</ele><time>2026-04-06T15:15:13Z</time></trkpt><trkpt lat="44.22900500049452" lon="12.365111809510774"><ele>-0.5</ele><time>2026-04-06T15:15:14Z</time></trkpt><trkpt lat="44.22913105457371" lon="12.364988041509351"><ele>0.0</ele><time>2026-04-06T15:15:15Z</time></trkpt><trkpt lat="44.229273520981124" lon="12.364846010293618"><ele>0.0</ele><time>2026-04-06T15:15:16Z</time></trkpt><trkpt lat="44.22942523148537" lon="12.364699402936218"><ele>0.0</ele><time>2026-04-06T15:15:17Z</time></trkpt><trkpt lat="44.22958602156701" lon="12.364553342283878"><ele>0.0</ele><time>2026-04-06T15:15:18Z</time></trkpt><trkpt lat="44.22974146092411" lon="12.364406771678528"><ele>0.0</ele><time>2026-04-06T15:15:19Z</time></trkpt><trkpt lat="44.22989646105839" lon="12.364265962962246"><ele>0.0</ele><time>2026-04-06T15:15:20Z</time></trkpt><trkpt lat="44.23004148504954" lon="12.364135712579394"><ele>0.0</ele><time>2026-04-06T15:15:21Z</time></trkpt><trkpt lat="44.2301821727727" lon="12.364021289046377"><ele>0.0</ele><time>2026-04-06T15:15:22Z</time></trkpt><trkpt lat="44.23032421029978" lon="12.363920810120328"><ele>0.0</ele><time>2026-04-06T15:15:23Z</time></trkpt><trkpt lat="44.230457543136644" lon="12.36384022850211"><ele>0.0</ele><time>2026-04-06T15:15:24Z</time></trkpt><trkpt lat="44.23059361051315" lon="12.36375616400492"><ele>0.0</ele><time>2026-04-06T15:15:25Z</time></trkpt><trkpt lat="44.230726304272125" lon="12.363661180633798"><ele>0.0</ele><time>2026-04-06T15:15:26Z</time></trkpt><trkpt lat="44.230867400316534" lon="12.363544517800666"><ele>0.0</ele><time>2026-04-06T15:15:27.001Z</time></trkpt><trkpt lat="44.23102210445399" lon="12.363413414816108"><ele>0.0</ele><time>2026-04-06T15:15:28.001Z</time></trkpt><trkpt lat="44.23118346827425" lon="12.363286203358479"><ele>0.0</ele><time>2026-04-06T15:15:29.001Z</time></trkpt><trkpt lat="44.231346356787185" lon="12.363163933081465"><ele>0.0</ele><time>2026-04-06T15:15:30.001Z</time></trkpt><trkpt lat="44.23149466068019" lon="12.363052797013315"><ele>-0.25</ele><time>2026-04-06T15:15:31.001Z</time></trkpt><trkpt lat="44.231633205803234" lon="12.362945767811985"><ele>-0.5</ele><time>2026-04-06T15:15:32.001Z</time></trkpt><trkpt lat="44.23176078342057" lon="12.362845801787682"><ele>-0.75</ele><time>2026-04-06T15:15:33.001Z</time></trkpt><trkpt lat="44.231874402039445" lon="12.362756918508191"><ele>-1.0</ele><time>2026-04-06T15:15:34.001Z</time></trkpt><trkpt lat="44.231987140874146" lon="12.362682172804272"><ele>-1.0</ele><time>2026-04-06T15:15:35.001Z</time></trkpt><trkpt lat="44.23210897978608" lon="12.362629153354382"><ele>-1.0</ele><time>2026-04-06T15:15:36.001Z</time></trkpt><trkpt lat="44.23222662100946" lon="12.362603910964127"><ele>-1.0</ele><time>2026-04-06T15:15:37.001Z</time></trkpt><trkpt lat="44.232335481098204" lon="12.362578391624318"><ele>-1.0</ele><time>2026-04-06T15:15:38.001Z</time></trkpt><trkpt lat="44.232431178130284" lon="12.362530767741884"><ele>-1.0</ele><time>2026-04-06T15:15:39.001Z</time></trkpt><trkpt lat="44.232520501387675" lon="12.362449822693657"><ele>-1.0</ele><time>2026-04-06T15:15:40.001Z</time></trkpt><trkpt lat="44.232593878024495" lon="12.362345669729004"><ele>-1.0</ele><time>2026-04-06T15:15:41.001Z</time></trkpt><trkpt lat="44.23265665043017" lon="12.36220964943128"><ele>-1.0</ele><time>2026-04-06T15:15:42.001Z</time></trkpt><trkpt lat="44.2327063316688" lon="12.362055414386669"><ele>-1.0</ele><time>2026-04-06T15:15:43.001Z</time></trkpt><trkpt lat="44.23276857949317" lon="12.361898885344733"><ele>-1.0</ele><time>2026-04-06T15:15:44.001Z</time></trkpt><trkpt lat="44.232868900115974" lon="12.36175463823555"><ele>-1.0</ele><time>2026-04-06T15:15:45.001Z</time></trkpt><trkpt lat="44.23299147340001" lon="12.361621684890492"><ele>-1.0</ele><time>2026-04-06T15:15:46.001Z</time></trkpt><trkpt lat="44.23311334602563" lon="12.361486918407444"><ele>-1.0</ele><time>2026-04-06T15:15:47.001Z</time></trkpt><trkpt lat="44.23322568468834" lon="12.361358014047669"><ele>-1.0</ele><time>2026-04-06T15:15:48.001Z</time></trkpt><trkpt lat="44.233338522293636" lon="12.361227524884416"><ele>-1.0</ele><time>2026-04-06T15:15:49.001Z</time></trkpt><trkpt lat="44.23345366692306" lon="12.361097274574455"><ele>-1.0</ele><time>2026-04-06T15:15:50.001Z</time></trkpt><trkpt lat="44.23357160422139" lon="12.360965399301682"><ele>-1.0</ele><time>2026-04-06T15:15:51.001Z</time></trkpt><trkpt lat="44.23368893548699" lon="12.360833971276266"><ele>-1.0</ele><time>2026-04-06T15:15:52.001Z</time></trkpt><trkpt lat="44.233803379225286" lon="12.360703114415683"><ele>-1.0</ele><time>2026-04-06T15:15:53.001Z</time></trkpt><trkpt lat="44.23391254194754" lon="12.360570520235916"><ele>-1.0</ele><time>2026-04-06T15:15:54.001Z</time></trkpt><trkpt lat="44.23401394885495" lon="12.36043446868655"><ele>-0.75</ele><time>2026-04-06T15:15:55.001Z</time></trkpt><trkpt lat="44.234108857360496" lon="12.36029444022416"><ele>-0.5</ele><time>2026-04-06T15:15:56.001Z</time></trkpt><trkpt lat="44.23420863045465" lon="12.360148010121291"><ele>-0.25</ele><time>2026-04-06T15:15:57.001Z</time></trkpt><trkpt lat="44.23431901858438" lon="12.36000081624943"><ele>0.0</ele><time>2026-04-06T15:15:58.001Z</time></trkpt><trkpt lat="44.23444026882773" lon="12.35985530022955"><ele>0.0</ele><time>2026-04-06T15:15:59.001Z</time></trkpt><trkpt lat="44.23457354165655" lon="12.359710666986174"><ele>0.0</ele><time>2026-04-06T15:16:00.001Z</time></trkpt><trkpt lat="44.23472159736669" lon="12.359560005123956"><ele>0.0</ele><time>2026-04-06T15:16:01.001Z</time></trkpt><trkpt lat="44.23487769068227" lon="12.359410489884954"><ele>0.0</ele><time>2026-04-06T15:16:02.001Z</time></trkpt><trkpt lat="44.23503542352065" lon="12.359257187808012"><ele>0.0</ele><time>2026-04-06T15:16:03.001Z</time></trkpt><trkpt lat="44.235198215543264" lon="12.359099616667386"><ele>0.0</ele><time>2026-04-06T15:16:04.001Z</time></trkpt><trkpt lat="44.235355272955005" lon="12.358946206275334"><ele>-0.3333333333333333</ele><time>2026-04-06T15:16:05.001Z</time></trkpt><trkpt lat="44.235502969952" lon="12.358800969137137"><ele>-0.6666666666666666</ele><time>2026-04-06T15:16:06.001Z</time></trkpt><trkpt lat="44.23563881586997" lon="12.358671532285932"><ele>-1.0</ele><time>2026-04-06T15:16:07.001Z</time></trkpt><trkpt lat="44.23576594227388" lon="12.358549595039003"><ele>-1.0</ele><time>2026-04-06T15:16:08.001Z</time></trkpt><trkpt lat="44.23588749279359" lon="12.358432595765"><ele>-1.0</ele><time>2026-04-06T15:16:09.001Z</time></trkpt><trkpt lat="44.23600958777699" lon="12.358322040644085"><ele>-1.0</ele><time>2026-04-06T15:16:10.001Z</time></trkpt><trkpt lat="44.236138787062245" lon="12.358211693520854"><ele>-1.0</ele><time>2026-04-06T15:16:11.001Z</time></trkpt><trkpt lat="44.23626349660971" lon="12.35809257662716"><ele>-1.0</ele><time>2026-04-06T15:16:12.001Z</time></trkpt><trkpt lat="44.23638234426676" lon="12.35797543414907"><ele>-1.0</ele><time>2026-04-06T15:16:13.001Z</time></trkpt><trkpt lat="44.236499793585324" lon="12.357865961192337"><ele>-1.0</ele><time>2026-04-06T15:16:14.001Z</time></trkpt><trkpt lat="44.23661641730476" lon="12.357755428010378"><ele>-1.0</ele><time>2026-04-06T15:16:15.001Z</time></trkpt><trkpt lat="44.23673306695282" lon="12.35763998658934"><ele>-1.0</ele><time>2026-04-06T15:16:16.001Z</time></trkpt><trkpt lat="44.236847751285175" lon="12.357528266823554"><ele>-1.0</ele><time>2026-04-06T15:16:17.001Z</time></trkpt><trkpt lat="44.23696116370398" lon="12.357419451834637"><ele>-1.0</ele><time>2026-04-06T15:16:18.001Z</time></trkpt><trkpt lat="44.23707425966845" lon="12.357309431739122"><ele>-1.0</ele><time>2026-04-06T15:16:19.001Z</time></trkpt><trkpt lat="44.237187281811444" lon="12.357200428939212"><ele>-1.0</ele><time>2026-04-06T15:16:20.001Z</time></trkpt><trkpt lat="44.23729660322474" lon="12.357091169719117"><ele>-1.0</ele><time>2026-04-06T15:16:21.001Z</time></trkpt><trkpt lat="44.23740365298413" lon="12.35698326192292"><ele>-1.0</ele><time>2026-04-06T15:16:22.001Z</time></trkpt><trkpt lat="44.237507438548924" lon="12.356876770500826"><ele>-1.0</ele><time>2026-04-06T15:16:23.001Z</time></trkpt><trkpt lat="44.23760658297964" lon="12.35677217570267"><ele>-1.0</ele><time>2026-04-06T15:16:24.001Z</time></trkpt><trkpt lat="44.23778720823166" lon="12.35661679468315"><ele>-1.0</ele><time>2026-04-06T15:16:25.001Z</time></trkpt><trkpt lat="44.23790440805361" lon="12.356503576506885"><ele>-1.0</ele><time>2026-04-06T15:16:26.001Z</time></trkpt><trkpt lat="44.238026233072475" lon="12.356387903489972"><ele>-1.6666666666666665</ele><time>2026-04-06T15:16:27.001Z</time></trkpt><trkpt lat="44.23814679307149" lon="12.356268772860398"><ele>-2.3333333333333335</ele><time>2026-04-06T15:16:28.001Z</time></trkpt><trkpt lat="44.23826639757122" lon="12.35614755105839"><ele>-3.0</ele><time>2026-04-06T15:16:29.001Z</time></trkpt><trkpt lat="44.23838981570807" lon="12.356013648985467"><ele>-3.0</ele><time>2026-04-06T15:16:30.001Z</time></trkpt><trkpt lat="44.23853204168435" lon="12.35589381042747"><ele>-3.0</ele><time>2026-04-06T15:16:31.001Z</time></trkpt><trkpt lat="44.238674593543244" lon="12.355754371188048"><ele>-3.0</ele><time>2026-04-06T15:16:32.001Z</time></trkpt><trkpt lat="44.23881922517983" lon="12.355612897564047"><ele>-2.6666666666666665</ele><time>2026-04-06T15:16:33.001Z</time></trkpt><trkpt lat="44.238967024289536" lon="12.3554688654269"><ele>-2.333333333333333</ele><time>2026-04-06T15:16:34.001Z</time></trkpt><trkpt lat="44.239115499318274" lon="12.355324297579596"><ele>-2.0</ele><time>2026-04-06T15:16:35.001Z</time></trkpt><trkpt lat="44.239266037239275" lon="12.355177776303012"><ele>-2.0</ele><time>2026-04-06T15:16:36.001Z</time></trkpt><trkpt lat="44.23941151051172" lon="12.355036221520123"><ele>-2.0</ele><time>2026-04-06T15:16:37.001Z</time></trkpt><trkpt lat="44.239540104200245" lon="12.354910021116078"><ele>-2.0</ele><time>2026-04-06T15:16:38.001Z</time></trkpt><trkpt lat="44.239659361287565" lon="12.354795291404205"><ele>-2.0</ele><time>2026-04-06T15:16:39Z</time></trkpt><trkpt lat="44.239770631142484" lon="12.35468677647066"><ele>-2.0</ele><time>2026-04-06T15:16:40Z</time></trkpt><trkpt lat="44.239872007319995" lon="12.354587911052205"><ele>-2.0</ele><time>2026-04-06T15:16:41Z</time></trkpt><trkpt lat="44.239959582323436" lon="12.354505648087319"><ele>-2.0</ele><time>2026-04-06T15:16:42Z</time></trkpt><trkpt lat="44.2400438112514" lon="12.354425511098807"><ele>-1.75</ele><time>2026-04-06T15:16:43Z</time></trkpt><trkpt lat="44.24013027494841" lon="12.354345382023904"><ele>-1.5</ele><time>2026-04-06T15:16:44Z</time></trkpt><trkpt lat="44.24021992932199" lon="12.354266909612468"><ele>-1.25</ele><time>2026-04-06T15:16:45Z</time></trkpt><trkpt lat="44.24032224295376" lon="12.354180309634167"><ele>-1.0</ele><time>2026-04-06T15:16:46Z</time></trkpt><trkpt lat="44.24042859157935" lon="12.354092507038786"><ele>-1.0</ele><time>2026-04-06T15:16:47Z</time></trkpt><trkpt lat="44.24053087388774" lon="12.354012535078567"><ele>-1.0</ele><time>2026-04-06T15:16:48Z</time></trkpt><trkpt lat="44.240629977541964" lon="12.353935373121557"><ele>-1.0</ele><time>2026-04-06T15:16:49Z</time></trkpt><trkpt lat="44.24072908828292" lon="12.35386024129457"><ele>-1.0</ele><time>2026-04-06T15:16:50Z</time></trkpt><trkpt lat="44.24082934232164" lon="12.353785677643424"><ele>-1.5</ele><time>2026-04-06T15:16:51Z</time></trkpt><trkpt lat="44.24093948442973" lon="12.353703759839215"><ele>-2.0</ele><time>2026-04-06T15:16:52Z</time></trkpt><trkpt lat="44.24105001175383" lon="12.353621555408774"><ele>-2.5</ele><time>2026-04-06T15:16:53Z</time></trkpt><trkpt lat="44.24116046076573" lon="12.353539870601502"><ele>-3.0</ele><time>2026-04-06T15:16:54Z</time></trkpt><trkpt lat="44.24126137822006" lon="12.353465547124435"><ele>-3.0</ele><time>2026-04-06T15:16:55Z</time></trkpt><trkpt lat="44.2413503382433" lon="12.353374063014105"><ele>-3.0</ele><time>2026-04-06T15:16:56Z</time></trkpt><trkpt lat="44.24144249212383" lon="12.353308683001538"><ele>-3.0</ele><time>2026-04-06T15:16:57Z</time></trkpt><trkpt lat="44.24155153379832" lon="12.353251853581234"><ele>-3.0</ele><time>2026-04-06T15:16:58Z</time></trkpt><trkpt lat="44.24166369061298" lon="12.353169252651988"><ele>-3.0</ele><time>2026-04-06T15:16:59Z</time></trkpt><trkpt lat="44.241785108914605" lon="12.35307983076658"><ele>-3.0</ele><time>2026-04-06T15:17:00Z</time></trkpt><trkpt lat="44.24191791607705" lon="12.352982021042692"><ele>-3.0</ele><time>2026-04-06T15:17:01Z</time></trkpt><trkpt lat="44.242054231032746" lon="12.352882168803777"><ele>-3.0</ele><time>2026-04-06T15:17:02Z</time></trkpt><trkpt lat="44.24220149881162" lon="12.352774483646877"><ele>-2.3333333333333335</ele><time>2026-04-06T15:17:03Z</time></trkpt><trkpt lat="44.24233924770867" lon="12.352647994912012"><ele>-1.6666666666666665</ele><time>2026-04-06T15:17:04Z</time></trkpt><trkpt lat="44.24248016159628" lon="12.352549248825953"><ele>-1.0</ele><time>2026-04-06T15:17:05Z</time></trkpt><trkpt lat="44.24260840873984" lon="12.35245292605737"><ele>-1.0</ele><time>2026-04-06T15:17:06Z</time></trkpt><trkpt lat="44.24273363049831" lon="12.352359997369389"><ele>-1.0</ele><time>2026-04-06T15:17:07Z</time></trkpt><trkpt lat="44.242853327744776" lon="12.352273035268606"><ele>-1.0</ele><time>2026-04-06T15:17:08Z</time></trkpt><trkpt lat="44.242973751369036" lon="12.3521840702355"><ele>-1.0</ele><time>2026-04-06T15:17:09Z</time></trkpt><trkpt lat="44.24308917735879" lon="12.35210120123623"><ele>-1.0</ele><time>2026-04-06T15:17:10Z</time></trkpt><trkpt lat="44.24319988432718" lon="12.352020513444094"><ele>-1.0</ele><time>2026-04-06T15:17:11Z</time></trkpt><trkpt lat="44.24331623199232" lon="12.351938369044213"><ele>-1.0</ele><time>2026-04-06T15:17:12Z</time></trkpt><trkpt lat="44.24343902873794" lon="12.351845646069908"><ele>-1.0</ele><time>2026-04-06T15:17:13Z</time></trkpt><trkpt lat="44.243578073505155" lon="12.35176858402709"><ele>-1.0</ele><time>2026-04-06T15:17:14Z</time></trkpt><trkpt lat="44.2437148559282" lon="12.35166870258912"><ele>-1.0</ele><time>2026-04-06T15:17:15Z</time></trkpt><trkpt lat="44.24386398379318" lon="12.351559806241202"><ele>-1.0</ele><time>2026-04-06T15:17:16Z</time></trkpt><trkpt lat="44.244006415763494" lon="12.351455616565154"><ele>-1.3333333333333333</ele><time>2026-04-06T15:17:17Z</time></trkpt><trkpt lat="44.24416111621189" lon="12.351342340496576"><ele>-1.6666666666666665</ele><time>2026-04-06T15:17:18Z</time></trkpt><trkpt lat="44.244294500769726" lon="12.351219009505657"><ele>-2.0</ele><time>2026-04-06T15:17:19Z</time></trkpt><trkpt lat="44.24442701894566" lon="12.351123115272598"><ele>-2.0</ele><time>2026-04-06T15:17:20Z</time></trkpt><trkpt lat="44.24453850550221" lon="12.351066005271901"><ele>-2.0</ele><time>2026-04-06T15:17:21Z</time></trkpt><trkpt lat="44.244626582611325" lon="12.351001512637973"><ele>-2.0</ele><time>2026-04-06T15:17:22Z</time></trkpt><trkpt lat="44.24469831419826" lon="12.350948988744296"><ele>-2.0</ele><time>2026-04-06T15:17:23Z</time></trkpt><trkpt lat="44.24477011981379" lon="12.350896410604387"><ele>-2.0</ele><time>2026-04-06T15:17:24Z</time></trkpt><trkpt lat="44.24484020377241" lon="12.35084509318818"><ele>-2.1666666666666665</ele><time>2026-04-06T15:17:25Z</time></trkpt><trkpt lat="44.24491250949157" lon="12.350792148864171"><ele>-2.333333333333333</ele><time>2026-04-06T15:17:26Z</time></trkpt><trkpt lat="44.244968605607696" lon="12.350751073681883"><ele>-2.5</ele><time>2026-04-06T15:17:27Z</time></trkpt><trkpt lat="44.24502919852652" lon="12.350681869852941"><ele>-2.6666666666666665</ele><time>2026-04-06T15:17:30Z</time></trkpt><trkpt lat="44.24513084449229" lon="12.350632277767142"><ele>-2.8333333333333335</ele><time>2026-04-06T15:17:32Z</time></trkpt><trkpt lat="44.2451946480073" lon="12.350585559002813"><ele>-3.0</ele><time>2026-04-06T15:17:33Z</time></trkpt><trkpt lat="44.245266576368444" lon="12.350532720892735"><ele>-3.0</ele><time>2026-04-06T15:17:34Z</time></trkpt><trkpt lat="44.2453429905637" lon="12.35047655082328"><ele>-3.0</ele><time>2026-04-06T15:17:35Z</time></trkpt><trkpt lat="44.24543162341624" lon="12.350411399220958"><ele>-3.0</ele><time>2026-04-06T15:17:36Z</time></trkpt><trkpt lat="44.245528843409005" lon="12.350339935470393"><ele>-3.0</ele><time>2026-04-06T15:17:37Z</time></trkpt><trkpt lat="44.24562079039392" lon="12.350246740161143"><ele>-3.0</ele><time>2026-04-06T15:17:38Z</time></trkpt><trkpt lat="44.245720013485766" lon="12.350178485445491"><ele>-3.0</ele><time>2026-04-06T15:17:39Z</time></trkpt><trkpt lat="44.24581998444681" lon="12.350101089385142"><ele>-3.0</ele><time>2026-04-06T15:17:40Z</time></trkpt><trkpt lat="44.245924996339085" lon="12.350023286126415"><ele>-3.0</ele><time>2026-04-06T15:17:41Z</time></trkpt><trkpt lat="44.246033221652766" lon="12.349943957074965"><ele>-3.0</ele><time>2026-04-06T15:17:42Z</time></trkpt><trkpt lat="44.24614419944044" lon="12.349865948244732"><ele>-3.0</ele><time>2026-04-06T15:17:43Z</time></trkpt><trkpt lat="44.24625989133478" lon="12.349788688886404"><ele>-3.0</ele><time>2026-04-06T15:17:44.001Z</time></trkpt><trkpt lat="44.24637802711687" lon="12.349703937566233"><ele>-3.0</ele><time>2026-04-06T15:17:45.001Z</time></trkpt><trkpt lat="44.246498167197224" lon="12.349614066286797"><ele>-3.0</ele><time>2026-04-06T15:17:46.001Z</time></trkpt><trkpt lat="44.24661884585281" lon="12.349524360120043"><ele>-3.0</ele><time>2026-04-06T15:17:47.001Z</time></trkpt><trkpt lat="44.24673966699428" lon="12.349435560269123"><ele>-3.0</ele><time>2026-04-06T15:17:48.001Z</time></trkpt><trkpt lat="44.246855551912496" lon="12.349348252367859"><ele>-3.0</ele><time>2026-04-06T15:17:49.001Z</time></trkpt><trkpt lat="44.246967497906994" lon="12.3492645898897"><ele>-3.0</ele><time>2026-04-06T15:17:50.001Z</time></trkpt><trkpt lat="44.247091161496115" lon="12.349198021255635"><ele>-3.0</ele><time>2026-04-06T15:17:51.001Z</time></trkpt><trkpt lat="44.247210043650966" lon="12.349111468496664"><ele>-3.0</ele><time>2026-04-06T15:17:52.001Z</time></trkpt><trkpt lat="44.24731170038453" lon="12.349013798960863"><ele>-3.0</ele><time>2026-04-06T15:17:53.001Z</time></trkpt><trkpt lat="44.24741603083052" lon="12.348941702117024"><ele>-3.0</ele><time>2026-04-06T15:17:54.001Z</time></trkpt><trkpt lat="44.24751597281969" lon="12.348868879242463"><ele>-3.25</ele><time>2026-04-06T15:17:55.001Z</time></trkpt><trkpt lat="44.24761676476012" lon="12.3487938903428"><ele>-3.5</ele><time>2026-04-06T15:17:56.001Z</time></trkpt><trkpt lat="44.2477248139038" lon="12.348716750965709"><ele>-3.75</ele><time>2026-04-06T15:17:57.001Z</time></trkpt><trkpt lat="44.24783806105794" lon="12.34863402609836"><ele>-4.0</ele><time>2026-04-06T15:17:58.001Z</time></trkpt><trkpt lat="44.247952826822846" lon="12.348546457070114"><ele>-4.0</ele><time>2026-04-06T15:17:59.001Z</time></trkpt><trkpt lat="44.24807882873042" lon="12.348478142769428"><ele>-4.0</ele><time>2026-04-06T15:18:00.001Z</time></trkpt><trkpt lat="44.248196072747696" lon="12.348392389643154"><ele>-4.0</ele><time>2026-04-06T15:18:01.001Z</time></trkpt><trkpt lat="44.24831721639478" lon="12.348303784211264"><ele>-4.0</ele><time>2026-04-06T15:18:02.001Z</time></trkpt><trkpt lat="44.248433817890216" lon="12.348194419758991"><ele>-4.0</ele><time>2026-04-06T15:18:03.001Z</time></trkpt><trkpt lat="44.24856348531048" lon="12.348099582024087"><ele>-4.0</ele><time>2026-04-06T15:18:04.001Z</time></trkpt><trkpt lat="44.24870032091596" lon="12.347999664361367"><ele>-4.0</ele><time>2026-04-06T15:18:05.001Z</time></trkpt><trkpt lat="44.24884387509487" lon="12.347920246817791"><ele>-3.25</ele><time>2026-04-06T15:18:06.001Z</time></trkpt><trkpt lat="44.248968559681465" lon="12.347830506190627"><ele>-2.5</ele><time>2026-04-06T15:18:07.001Z</time></trkpt><trkpt lat="44.24906905816603" lon="12.347728147118575"><ele>-1.75</ele><time>2026-04-06T15:18:08.001Z</time></trkpt><trkpt lat="44.24917383971295" lon="12.347652476941834"><ele>-1.0</ele><time>2026-04-06T15:18:09.001Z</time></trkpt><trkpt lat="44.24927837940062" lon="12.34757196261498"><ele>-1.0</ele><time>2026-04-06T15:18:10.001Z</time></trkpt><trkpt lat="44.249371443850485" lon="12.347503310693737"><ele>-1.0</ele><time>2026-04-06T15:18:11.001Z</time></trkpt><trkpt lat="44.249468370510115" lon="12.347464114406819"><ele>-1.0</ele><time>2026-04-06T15:18:12.001Z</time></trkpt><trkpt lat="44.24955990580519" lon="12.347395959123919"><ele>-1.0</ele><time>2026-04-06T15:18:13.001Z</time></trkpt><trkpt lat="44.249656830080866" lon="12.34732274699248"><ele>-1.0</ele><time>2026-04-06T15:18:14.001Z</time></trkpt><trkpt lat="44.24975317522019" lon="12.347249258563464"><ele>-1.2000000000000002</ele><time>2026-04-06T15:18:15.001Z</time></trkpt><trkpt lat="44.24984660789402" lon="12.347153457127886"><ele>-1.4000000000000001</ele><time>2026-04-06T15:18:16.001Z</time></trkpt><trkpt lat="44.24994215204047" lon="12.347081961182072"><ele>-1.6</ele><time>2026-04-06T15:18:17.001Z</time></trkpt><trkpt lat="44.25002598969275" lon="12.34701302526858"><ele>-1.8</ele><time>2026-04-06T15:18:18.001Z</time></trkpt><trkpt lat="44.25010859546183" lon="12.346948459362254"><ele>-2.0</ele><time>2026-04-06T15:18:19.001Z</time></trkpt><trkpt lat="44.25020458009194" lon="12.34689515573906"><ele>-2.0</ele><time>2026-04-06T15:18:20.001Z</time></trkpt><trkpt lat="44.25029911654604" lon="12.346816187116003"><ele>-2.0</ele><time>2026-04-06T15:18:21.001Z</time></trkpt><trkpt lat="44.25039167926176" lon="12.346736711431955"><ele>-2.0</ele><time>2026-04-06T15:18:22.001Z</time></trkpt><trkpt lat="44.25047024006781" lon="12.346665893452522"><ele>-2.0</ele><time>2026-04-06T15:18:23.001Z</time></trkpt><trkpt lat="44.25054262960289" lon="12.346598105886784"><ele>-2.0</ele><time>2026-04-06T15:18:24.001Z</time></trkpt><trkpt lat="44.25062887805189" lon="12.346514251454373"><ele>-1.75</ele><time>2026-04-06T15:18:25.001Z</time></trkpt><trkpt lat="44.25071682410916" lon="12.346401562656975"><ele>-1.5</ele><time>2026-04-06T15:18:26.001Z</time></trkpt><trkpt lat="44.250823040516416" lon="12.346291564019888"><ele>-1.25</ele><time>2026-04-06T15:18:27.001Z</time></trkpt><trkpt lat="44.25094078504797" lon="12.34617451008469"><ele>-1.0</ele><time>2026-04-06T15:18:28.001Z</time></trkpt><trkpt lat="44.251051063965576" lon="12.34605922037599"><ele>-1.0</ele><time>2026-04-06T15:18:29.001Z</time></trkpt><trkpt lat="44.251148212142624" lon="12.345956149183351"><ele>-1.0</ele><time>2026-04-06T15:18:30.001Z</time></trkpt><trkpt lat="44.2512333516506" lon="12.345860301363642"><ele>-1.0</ele><time>2026-04-06T15:18:31.001Z</time></trkpt><trkpt lat="44.25131060988636" lon="12.345775458653492"><ele>-1.0</ele><time>2026-04-06T15:18:32.001Z</time></trkpt><trkpt lat="44.25137430077491" lon="12.34570494049311"><ele>-1.0</ele><time>2026-04-06T15:18:33.001Z</time></trkpt><trkpt lat="44.251460472694646" lon="12.34560245390135"><ele>-0.49999999999999994</ele><time>2026-04-06T15:18:35.001Z</time></trkpt><trkpt lat="44.25152352981147" lon="12.345521312563223"><ele>0.0</ele><time>2026-04-06T15:18:37.001Z</time></trkpt><trkpt lat="44.25158848281305" lon="12.345437446334062"><ele>0.5</ele><time>2026-04-06T15:18:40.001Z</time></trkpt><trkpt lat="44.251647926595346" lon="12.345359797370557"><ele>1.0</ele><time>2026-04-06T15:18:43.001Z</time></trkpt><trkpt lat="44.25169612076491" lon="12.345297429675954"><ele>1.4999999999999998</ele><time>2026-04-06T15:18:45Z</time></trkpt><trkpt lat="44.25176475389457" lon="12.345189924794017"><ele>2.0</ele><time>2026-04-06T15:18:47Z</time></trkpt><trkpt lat="44.25181551222214" lon="12.345122762035867"><ele>2.0</ele><time>2026-04-06T15:18:48Z</time></trkpt><trkpt lat="44.25187613329247" lon="12.34504229529011"><ele>2.0</ele><time>2026-04-06T15:18:49Z</time></trkpt><trkpt lat="44.251935597209894" lon="12.344962257333998"><ele>2.0</ele><time>2026-04-06T15:18:50Z</time></trkpt><trkpt lat="44.252004285155614" lon="12.34486806122961"><ele>2.0</ele><time>2026-04-06T15:18:51Z</time></trkpt><trkpt lat="44.25207425772102" lon="12.34476734543849"><ele>2.0</ele><time>2026-04-06T15:18:52Z</time></trkpt><trkpt lat="44.25214548243855" lon="12.344662159992906"><ele>1.8</ele><time>2026-04-06T15:18:53Z</time></trkpt><trkpt lat="44.252217418890574" lon="12.344560372490585"><ele>1.6</ele><time>2026-04-06T15:18:54Z</time></trkpt><trkpt lat="44.25229126552965" lon="12.344453937262406"><ele>1.4000000000000001</ele><time>2026-04-06T15:18:55Z</time></trkpt><trkpt lat="44.25236620530414" lon="12.344338084649868"><ele>1.2000000000000002</ele><time>2026-04-06T15:18:56Z</time></trkpt><trkpt lat="44.25245376224983" lon="12.344208473633177"><ele>1.0</ele><time>2026-04-06T15:18:57Z</time></trkpt><trkpt lat="44.25254432506283" lon="12.344085310856082"><ele>1.0</ele><time>2026-04-06T15:18:58Z</time></trkpt><trkpt lat="44.25262439238187" lon="12.343969402953734"><ele>1.0</ele><time>2026-04-06T15:18:59Z</time></trkpt><trkpt lat="44.252700742987884" lon="12.343854459623342"><ele>1.0</ele><time>2026-04-06T15:19:00Z</time></trkpt><trkpt lat="44.252772959437316" lon="12.343741392562292"><ele>1.0</ele><time>2026-04-06T15:19:01Z</time></trkpt><trkpt lat="44.25284266603802" lon="12.343631176975101"><ele>1.0</ele><time>2026-04-06T15:19:02Z</time></trkpt><trkpt lat="44.25291289932334" lon="12.343522614465563"><ele>0.6000000000000001</ele><time>2026-04-06T15:19:03Z</time></trkpt><trkpt lat="44.25298217912017" lon="12.343417433772487"><ele>0.20000000000000007</ele><time>2026-04-06T15:19:04Z</time></trkpt><trkpt lat="44.25305047283531" lon="12.343313743864906"><ele>-0.20000000000000007</ele><time>2026-04-06T15:19:05Z</time></trkpt><trkpt lat="44.253117384863685" lon="12.343212852688797"><ele>-0.6000000000000001</ele><time>2026-04-06T15:19:06Z</time></trkpt><trkpt lat="44.253176796803736" lon="12.343122801713179"><ele>-1.0</ele><time>2026-04-06T15:19:07Z</time></trkpt><trkpt lat="44.253232123898265" lon="12.343041790307495"><ele>-0.9999999999999999</ele><time>2026-04-06T15:19:08Z</time></trkpt><trkpt lat="44.25330405678602" lon="12.342967110369543"><ele>-1.0</ele><time>2026-04-06T15:19:09Z</time></trkpt><trkpt lat="44.25335655743233" lon="12.342889818207404"><ele>-1.0</ele><time>2026-04-06T15:19:10Z</time></trkpt><trkpt lat="44.25341302259674" lon="12.342807679811314"><ele>-1.0</ele><time>2026-04-06T15:19:11Z</time></trkpt><trkpt lat="44.25347810680096" lon="12.342712585435182"><ele>-0.9999999999999999</ele><time>2026-04-06T15:19:12Z</time></trkpt><trkpt lat="44.253547652362386" lon="12.342610972489773"><ele>-1.0</ele><time>2026-04-06T15:19:13Z</time></trkpt><trkpt lat="44.253613885358185" lon="12.342514199579183"><ele>-1.0</ele><time>2026-04-06T15:19:14Z</time></trkpt><trkpt lat="44.25368506595798" lon="12.342410197706336"><ele>-1.0</ele><time>2026-04-06T15:19:15Z</time></trkpt><trkpt lat="44.25376283972286" lon="12.342296562620907"><ele>-1.0</ele><time>2026-04-06T15:19:16Z</time></trkpt><trkpt lat="44.25383795467325" lon="12.342186812320662"><ele>-1.0</ele><time>2026-04-06T15:19:17Z</time></trkpt><trkpt lat="44.25389687913018" lon="12.342079444595935"><ele>-1.0</ele><time>2026-04-06T15:19:18Z</time></trkpt><trkpt lat="44.2539668673253" lon="12.341980731794939"><ele>-1.1666666666666665</ele><time>2026-04-06T15:19:19Z</time></trkpt><trkpt lat="44.25403428542483" lon="12.341882755308207"><ele>-1.3333333333333333</ele><time>2026-04-06T15:19:20Z</time></trkpt><trkpt lat="44.25410093297167" lon="12.341779941308467"><ele>-1.5</ele><time>2026-04-06T15:19:21Z</time></trkpt><trkpt lat="44.254161704838914" lon="12.341692427427638"><ele>-1.6666666666666665</ele><time>2026-04-06T15:19:22Z</time></trkpt><trkpt lat="44.25420613397875" lon="12.341626606482935"><ele>-1.8333333333333333</ele><time>2026-04-06T15:19:23Z</time></trkpt><trkpt lat="44.254261392751815" lon="12.341542844939394"><ele>-2.0</ele><time>2026-04-06T15:19:24Z</time></trkpt><trkpt lat="44.254338567346835" lon="12.341427717154104"><ele>-2.0</ele><time>2026-04-06T15:19:25Z</time></trkpt><trkpt lat="44.25442521262025" lon="12.341297292607695"><ele>-2.0</ele><time>2026-04-06T15:19:26Z</time></trkpt><trkpt lat="44.254516885887384" lon="12.34115872128382"><ele>-2.0</ele><time>2026-04-06T15:19:27Z</time></trkpt><trkpt lat="44.25461992955975" lon="12.34101019359989"><ele>-2.0</ele><time>2026-04-06T15:19:28Z</time></trkpt><trkpt lat="44.25472477832452" lon="12.340858180213871"><ele>-2.333333333333333</ele><time>2026-04-06T15:19:29Z</time></trkpt><trkpt lat="44.254834990558216" lon="12.340695242394588"><ele>-2.6666666666666665</ele><time>2026-04-06T15:19:30Z</time></trkpt><trkpt lat="44.254944118831574" lon="12.34053510436957"><ele>-3.0</ele><time>2026-04-06T15:19:31Z</time></trkpt><trkpt lat="44.25506102583216" lon="12.340374447678945"><ele>-2.3333333333333335</ele><time>2026-04-06T15:19:32Z</time></trkpt><trkpt lat="44.25516098011039" lon="12.340223319373157"><ele>-1.6666666666666665</ele><time>2026-04-06T15:19:33Z</time></trkpt><trkpt lat="44.255265571424864" lon="12.340075010331569"><ele>-1.0</ele><time>2026-04-06T15:19:34Z</time></trkpt><trkpt lat="44.25537323169264" lon="12.33991982483388"><ele>-1.0</ele><time>2026-04-06T15:19:35Z</time></trkpt><trkpt lat="44.255479418123315" lon="12.339766906809858"><ele>-1.0</ele><time>2026-04-06T15:19:36Z</time></trkpt><trkpt lat="44.25558852928016" lon="12.339611885209466"><ele>-1.0</ele><time>2026-04-06T15:19:37Z</time></trkpt><trkpt lat="44.25570370544523" lon="12.33944996590427"><ele>-0.6666666666666666</ele><time>2026-04-06T15:19:38Z</time></trkpt><trkpt lat="44.25582427379602" lon="12.33927886129544"><ele>-0.3333333333333333</ele><time>2026-04-06T15:19:39Z</time></trkpt><trkpt lat="44.25595046179547" lon="12.339097369122449"><ele>0.0</ele><time>2026-04-06T15:19:40Z</time></trkpt><trkpt lat="44.25607359687922" lon="12.338918539579282"><ele>-0.3333333333333333</ele><time>2026-04-06T15:19:41Z</time></trkpt><trkpt lat="44.2561868727226" lon="12.338754304470992"><ele>-0.6666666666666666</ele><time>2026-04-06T15:19:42Z</time></trkpt><trkpt lat="44.25629218040754" lon="12.338598538839205"><ele>-1.0</ele><time>2026-04-06T15:19:43Z</time></trkpt><trkpt lat="44.25638995850253" lon="12.338455617985847"><ele>-1.0</ele><time>2026-04-06T15:19:44Z</time></trkpt><trkpt lat="44.25647726847102" lon="12.33832566565574"><ele>-1.0</ele><time>2026-04-06T15:19:45Z</time></trkpt><trkpt lat="44.25655722091348" lon="12.338205413279496"><ele>-1.0</ele><time>2026-04-06T15:19:46Z</time></trkpt><trkpt lat="44.25663269922698" lon="12.338089359300472"><ele>-1.0</ele><time>2026-04-06T15:19:47Z</time></trkpt><trkpt lat="44.25669694289065" lon="12.337980203824989"><ele>-1.1666666666666665</ele><time>2026-04-06T15:19:48Z</time></trkpt><trkpt lat="44.25675206670073" lon="12.33788278245016"><ele>-1.3333333333333333</ele><time>2026-04-06T15:19:49Z</time></trkpt><trkpt lat="44.25680266258079" lon="12.33778828472692"><ele>-1.5</ele><time>2026-04-06T15:19:50Z</time></trkpt><trkpt lat="44.25685716423997" lon="12.337694047978866"><ele>-1.6666666666666665</ele><time>2026-04-06T15:19:51Z</time></trkpt><trkpt lat="44.25692626313747" lon="12.337620360326646"><ele>-1.8333333333333333</ele><time>2026-04-06T15:19:52Z</time></trkpt><trkpt lat="44.257013279940004" lon="12.337567969286038"><ele>-2.0</ele><time>2026-04-06T15:19:53Z</time></trkpt><trkpt lat="44.25711241900765" lon="12.337517428155023"><ele>-2.0</ele><time>2026-04-06T15:19:54Z</time></trkpt><trkpt lat="44.25723635363525" lon="12.337542690955688"><ele>-2.0</ele><time>2026-04-06T15:19:55Z</time></trkpt><trkpt lat="44.257341037151754" lon="12.337525040039809"><ele>-2.0</ele><time>2026-04-06T15:19:56Z</time></trkpt><trkpt lat="44.25744011129803" lon="12.337461463682455"><ele>-2.0</ele><time>2026-04-06T15:19:57Z</time></trkpt><trkpt lat="44.257528655341474" lon="12.337354413337927"><ele>-2.0</ele><time>2026-04-06T15:19:58Z</time></trkpt><trkpt lat="44.25759777496327" lon="12.3372202102498"><ele>-2.0</ele><time>2026-04-06T15:19:59Z</time></trkpt><trkpt lat="44.257640008594606" lon="12.33705577520068"><ele>-2.0</ele><time>2026-04-06T15:20:00Z</time></trkpt><trkpt lat="44.25765716705771" lon="12.336880703016448"><ele>-2.0</ele><time>2026-04-06T15:20:01Z</time></trkpt><trkpt lat="44.25766443637277" lon="12.336699412120506"><ele>-2.0</ele><time>2026-04-06T15:20:02Z</time></trkpt><trkpt lat="44.25770627895581" lon="12.336529313059588"><ele>-2.0</ele><time>2026-04-06T15:20:03Z</time></trkpt><trkpt lat="44.257794630768025" lon="12.336384292754053"><ele>-2.0</ele><time>2026-04-06T15:20:04Z</time></trkpt><trkpt lat="44.2579016742835" lon="12.33624271291798"><ele>-2.0</ele><time>2026-04-06T15:20:05Z</time></trkpt><trkpt lat="44.25801535106519" lon="12.336091340238896"><ele>-2.333333333333333</ele><time>2026-04-06T15:20:06Z</time></trkpt><trkpt lat="44.25812323616355" lon="12.33593696121228"><ele>-2.6666666666666665</ele><time>2026-04-06T15:20:07Z</time></trkpt><trkpt lat="44.25823060581677" lon="12.335782255492028"><ele>-3.0</ele><time>2026-04-06T15:20:08.001Z</time></trkpt><trkpt lat="44.25833860357426" lon="12.335631554612945"><ele>-3.0</ele><time>2026-04-06T15:20:09.001Z</time></trkpt><trkpt lat="44.258458261245366" lon="12.335464587190158"><ele>-3.0</ele><time>2026-04-06T15:20:10.001Z</time></trkpt><trkpt lat="44.25858778427993" lon="12.335296893244172"><ele>-3.0</ele><time>2026-04-06T15:20:11.001Z</time></trkpt><trkpt lat="44.2587193421048" lon="12.335132438307564"><ele>-3.0</ele><time>2026-04-06T15:20:12.001Z</time></trkpt><trkpt lat="44.25885219028971" lon="12.334972722077024"><ele>-3.0</ele><time>2026-04-06T15:20:13.001Z</time></trkpt><trkpt lat="44.25898855588811" lon="12.3348160444215"><ele>-3.0</ele><time>2026-04-06T15:20:14.001Z</time></trkpt><trkpt lat="44.259138096755535" lon="12.33465510062246"><ele>-3.333333333333333</ele><time>2026-04-06T15:20:15.001Z</time></trkpt><trkpt lat="44.259304321595174" lon="12.334484786211904"><ele>-3.6666666666666665</ele><time>2026-04-06T15:20:16.001Z</time></trkpt><trkpt lat="44.2594878999019" lon="12.334305951894759"><ele>-4.0</ele><time>2026-04-06T15:20:17.001Z</time></trkpt><trkpt lat="44.25969334800024" lon="12.334148202187864"><ele>-4.0</ele><time>2026-04-06T15:20:18.001Z</time></trkpt><trkpt lat="44.25991134973075" lon="12.333981590251081"><ele>-4.0</ele><time>2026-04-06T15:20:19.001Z</time></trkpt><trkpt lat="44.260129069769086" lon="12.333802732056549"><ele>-4.5</ele><time>2026-04-06T15:20:20.001Z</time></trkpt><trkpt lat="44.26035212294628" lon="12.33364850905166"><ele>-5.0</ele><time>2026-04-06T15:20:21.001Z</time></trkpt><trkpt lat="44.26056236730501" lon="12.333498857450667"><ele>-3.5</ele><time>2026-04-06T15:20:22.001Z</time></trkpt><trkpt lat="44.26077121275661" lon="12.333348927345012"><ele>-2.0</ele><time>2026-04-06T15:20:23.001Z</time></trkpt><trkpt lat="44.260971116663015" lon="12.333205308877451"><ele>-2.0</ele><time>2026-04-06T15:20:24.001Z</time></trkpt><trkpt lat="44.261160663029926" lon="12.333069763669286"><ele>-2.0</ele><time>2026-04-06T15:20:25.001Z</time></trkpt><trkpt lat="44.261344769570826" lon="12.332938687114302"><ele>-2.0</ele><time>2026-04-06T15:20:26.001Z</time></trkpt><trkpt lat="44.26152496602386" lon="12.332810184309263"><ele>-2.0</ele><time>2026-04-06T15:20:27.001Z</time></trkpt><trkpt lat="44.261701947103525" lon="12.33268373381865"><ele>-2.0</ele><time>2026-04-06T15:20:28.001Z</time></trkpt><trkpt lat="44.26187744642314" lon="12.332558725955069"><ele>-2.0</ele><time>2026-04-06T15:20:29.001Z</time></trkpt><trkpt lat="44.262050452597485" lon="12.332437808808164"><ele>-2.0</ele><time>2026-04-06T15:20:30.001Z</time></trkpt><trkpt lat="44.262220673441874" lon="12.3323178680353"><ele>-2.0</ele><time>2026-04-06T15:20:31.001Z</time></trkpt><trkpt lat="44.2623909654959" lon="12.33219535834268"><ele>-2.0</ele><time>2026-04-06T15:20:32.001Z</time></trkpt><trkpt lat="44.26255985145874" lon="12.332073498203968"><ele>-2.6666666666666665</ele><time>2026-04-06T15:20:33.001Z</time></trkpt><trkpt lat="44.26272515368874" lon="12.331955053953637"><ele>-3.333333333333333</ele><time>2026-04-06T15:20:34.001Z</time></trkpt><trkpt lat="44.26289310384684" lon="12.331834063265823"><ele>-4.0</ele><time>2026-04-06T15:20:35.001Z</time></trkpt><trkpt lat="44.2630600490634" lon="12.331712905782078"><ele>-4.0</ele><time>2026-04-06T15:20:36.001Z</time></trkpt><trkpt lat="44.263225693471206" lon="12.331593218740466"><ele>-4.0</ele><time>2026-04-06T15:20:37.001Z</time></trkpt><trkpt lat="44.263392894846746" lon="12.331472195076062"><ele>-4.0</ele><time>2026-04-06T15:20:38.001Z</time></trkpt><trkpt lat="44.26356354883642" lon="12.331349822384714"><ele>-4.0</ele><time>2026-04-06T15:20:39.001Z</time></trkpt><trkpt lat="44.26373679337529" lon="12.331226358649364"><ele>-4.0</ele><time>2026-04-06T15:20:40.001Z</time></trkpt><trkpt lat="44.263906323649316" lon="12.3311056799066"><ele>-4.0</ele><time>2026-04-06T15:20:41.001Z</time></trkpt><trkpt lat="44.264075315796845" lon="12.33098525493736"><ele>-3.333333333333333</ele><time>2026-04-06T15:20:42.001Z</time></trkpt><trkpt lat="44.2642379815626" lon="12.330870837228517"><ele>-2.6666666666666665</ele><time>2026-04-06T15:20:43.001Z</time></trkpt><trkpt lat="44.26440004565438" lon="12.330755907053454"><ele>-2.0</ele><time>2026-04-06T15:20:44.001Z</time></trkpt><trkpt lat="44.26456382772618" lon="12.33063444387196"><ele>-2.333333333333333</ele><time>2026-04-06T15:20:45.001Z</time></trkpt><trkpt lat="44.264728112364274" lon="12.330515547316908"><ele>-2.6666666666666665</ele><time>2026-04-06T15:20:46.001Z</time></trkpt><trkpt lat="44.2648873980838" lon="12.330402204743075"><ele>-3.0</ele><time>2026-04-06T15:20:47.001Z</time></trkpt><trkpt lat="44.2650407711326" lon="12.330295278335452"><ele>-3.0</ele><time>2026-04-06T15:20:48.001Z</time></trkpt><trkpt lat="44.26519469490964" lon="12.330185347986616"><ele>-3.0</ele><time>2026-04-06T15:20:49.001Z</time></trkpt><trkpt lat="44.265341778480035" lon="12.330078732535624"><ele>-3.0</ele><time>2026-04-06T15:20:50.001Z</time></trkpt><trkpt lat="44.26549724599086" lon="12.329968535626147"><ele>-3.0</ele><time>2026-04-06T15:20:51Z</time></trkpt><trkpt lat="44.26566073160389" lon="12.329876991274292"><ele>-3.0</ele><time>2026-04-06T15:20:52Z</time></trkpt><trkpt lat="44.26582627086018" lon="12.329759232428074"><ele>-3.0</ele><time>2026-04-06T15:20:53Z</time></trkpt><trkpt lat="44.266001199443195" lon="12.329634799820225"><ele>-3.0</ele><time>2026-04-06T15:20:54Z</time></trkpt><trkpt lat="44.26617654655078" lon="12.329509725775267"><ele>-3.0</ele><time>2026-04-06T15:20:55Z</time></trkpt><trkpt lat="44.266357531054375" lon="12.32937887927897"><ele>-3.0</ele><time>2026-04-06T15:20:56Z</time></trkpt><trkpt lat="44.26652071204877" lon="12.329260555214445"><ele>-2.3333333333333335</ele><time>2026-04-06T15:20:57Z</time></trkpt><trkpt lat="44.26668631695566" lon="12.329138203339006"><ele>-1.6666666666666665</ele><time>2026-04-06T15:20:58Z</time></trkpt><trkpt lat="44.26684552883596" lon="12.329022436678944"><ele>-1.0</ele><time>2026-04-06T15:20:59Z</time></trkpt><trkpt lat="44.266986934111486" lon="12.328920883315714"><ele>-1.0</ele><time>2026-04-06T15:21:00Z</time></trkpt><trkpt lat="44.267131588309645" lon="12.328817210151888"><ele>-1.0</ele><time>2026-04-06T15:21:01Z</time></trkpt><trkpt lat="44.26728327963042" lon="12.328708493653686"><ele>-1.0</ele><time>2026-04-06T15:21:02Z</time></trkpt><trkpt lat="44.26744397432335" lon="12.32859332444869"><ele>-1.0</ele><time>2026-04-06T15:21:03Z</time></trkpt><trkpt lat="44.26759196182818" lon="12.32848726243559"><ele>-1.0</ele><time>2026-04-06T15:21:04Z</time></trkpt><trkpt lat="44.267732740117495" lon="12.328386367242809"><ele>-1.0</ele><time>2026-04-06T15:21:05Z</time></trkpt><trkpt lat="44.2678737410427" lon="12.328285312529639"><ele>-1.0</ele><time>2026-04-06T15:21:06Z</time></trkpt><trkpt lat="44.26802150369248" lon="12.32817941164052"><ele>-1.0</ele><time>2026-04-06T15:21:07Z</time></trkpt><trkpt lat="44.268156378066" lon="12.328082747808963"><ele>-1.0</ele><time>2026-04-06T15:21:08Z</time></trkpt><trkpt lat="44.268272232339534" lon="12.327976018160916"><ele>-1.25</ele><time>2026-04-06T15:21:09Z</time></trkpt><trkpt lat="44.26839652440932" lon="12.327889585825897"><ele>-1.5</ele><time>2026-04-06T15:21:10Z</time></trkpt><trkpt lat="44.26851324260458" lon="12.327807828494036"><ele>-1.75</ele><time>2026-04-06T15:21:11Z</time></trkpt><trkpt lat="44.26862278257031" lon="12.327730271568532"><ele>-2.0</ele><time>2026-04-06T15:21:12Z</time></trkpt><trkpt lat="44.26873483133239" lon="12.32765095416624"><ele>-2.0</ele><time>2026-04-06T15:21:13Z</time></trkpt><trkpt lat="44.26884598960714" lon="12.327570162888073"><ele>-2.0</ele><time>2026-04-06T15:21:14Z</time></trkpt><trkpt lat="44.26896237340887" lon="12.327488424653241"><ele>-2.0</ele><time>2026-04-06T15:21:15Z</time></trkpt><trkpt lat="44.26908277396275" lon="12.327402085445057"><ele>-2.0</ele><time>2026-04-06T15:21:16Z</time></trkpt><trkpt lat="44.26920735016253" lon="12.327315657384512"><ele>-1.75</ele><time>2026-04-06T15:21:17Z</time></trkpt><trkpt lat="44.269330863190085" lon="12.327228821279553"><ele>-1.5</ele><time>2026-04-06T15:21:18Z</time></trkpt><trkpt lat="44.269455433506245" lon="12.32714106171884"><ele>-1.25</ele><time>2026-04-06T15:21:19Z</time></trkpt><trkpt lat="44.269581130362575" lon="12.32705429575876"><ele>-1.0</ele><time>2026-04-06T15:21:20Z</time></trkpt><trkpt lat="44.269708608818206" lon="12.326964424454038"><ele>-1.0</ele><time>2026-04-06T15:21:21Z</time></trkpt><trkpt lat="44.26983111471194" lon="12.326879165468283"><ele>-1.0</ele><time>2026-04-06T15:21:22Z</time></trkpt><trkpt lat="44.26996550516075" lon="12.32678226388213"><ele>-1.0</ele><time>2026-04-06T15:21:23Z</time></trkpt><trkpt lat="44.27010344288254" lon="12.326689396927563"><ele>-1.0</ele><time>2026-04-06T15:21:24Z</time></trkpt><trkpt lat="44.27024482714457" lon="12.326588538780802"><ele>-1.0</ele><time>2026-04-06T15:21:25Z</time></trkpt><trkpt lat="44.270385841325044" lon="12.326488172161078"><ele>-1.0</ele><time>2026-04-06T15:21:26Z</time></trkpt><trkpt lat="44.27052883624068" lon="12.326387092592958"><ele>-1.0</ele><time>2026-04-06T15:21:27Z</time></trkpt><trkpt lat="44.27068308865575" lon="12.326277525540764"><ele>-0.3333333333333333</ele><time>2026-04-06T15:21:28Z</time></trkpt><trkpt lat="44.27084062905259" lon="12.326165750617685"><ele>0.3333333333333333</ele><time>2026-04-06T15:21:29Z</time></trkpt><trkpt lat="44.27100533549889" lon="12.32604872721297"><ele>1.0</ele><time>2026-04-06T15:21:30Z</time></trkpt><trkpt lat="44.271185072325295" lon="12.325922865766188"><ele>1.0</ele><time>2026-04-06T15:21:31Z</time></trkpt><trkpt lat="44.27136879288553" lon="12.32579341710714"><ele>1.0</ele><time>2026-04-06T15:21:32Z</time></trkpt><trkpt lat="44.27154847267324" lon="12.325669230946692"><ele>1.0</ele><time>2026-04-06T15:21:33Z</time></trkpt><trkpt lat="44.27173317386052" lon="12.325538327253769"><ele>1.0</ele><time>2026-04-06T15:21:34Z</time></trkpt><trkpt lat="44.27191797644215" lon="12.325405195382054"><ele>1.0</ele><time>2026-04-06T15:21:35Z</time></trkpt><trkpt lat="44.272097903332345" lon="12.32527203167196"><ele>1.0</ele><time>2026-04-06T15:21:36Z</time></trkpt><trkpt lat="44.272288230358306" lon="12.325132345485915"><ele>0.3333333333333333</ele><time>2026-04-06T15:21:37Z</time></trkpt><trkpt lat="44.27246315782896" lon="12.32500004518542"><ele>-0.3333333333333333</ele><time>2026-04-06T15:21:38Z</time></trkpt><trkpt lat="44.27264064978507" lon="12.324868896819746"><ele>-1.0</ele><time>2026-04-06T15:21:39Z</time></trkpt><trkpt lat="44.27280959114103" lon="12.324738135430316"><ele>-1.0</ele><time>2026-04-06T15:21:40Z</time></trkpt><trkpt lat="44.27297968038309" lon="12.324597470789309"><ele>-1.0</ele><time>2026-04-06T15:21:41Z</time></trkpt><trkpt lat="44.27315517662457" lon="12.324450298519437"><ele>-1.0</ele><time>2026-04-06T15:21:42Z</time></trkpt><trkpt lat="44.27332073680084" lon="12.32431268590908"><ele>-0.3333333333333333</ele><time>2026-04-06T15:21:43Z</time></trkpt><trkpt lat="44.273478757104535" lon="12.324179456308217"><ele>0.3333333333333333</ele><time>2026-04-06T15:21:44Z</time></trkpt><trkpt lat="44.27362796490261" lon="12.324050321006565"><ele>1.0</ele><time>2026-04-06T15:21:45Z</time></trkpt><trkpt lat="44.27377262338835" lon="12.323926995729282"><ele>0.0</ele><time>2026-04-06T15:21:46Z</time></trkpt><trkpt lat="44.273909598825846" lon="12.32380899213239"><ele>-1.0</ele><time>2026-04-06T15:21:47Z</time></trkpt><trkpt lat="44.27404408616192" lon="12.32369442108837"><ele>-2.0</ele><time>2026-04-06T15:21:48Z</time></trkpt><trkpt lat="44.27418119177969" lon="12.323575780828035"><ele>-2.0</ele><time>2026-04-06T15:21:49Z</time></trkpt><trkpt lat="44.27431944787665" lon="12.323457980687147"><ele>-2.0</ele><time>2026-04-06T15:21:50Z</time></trkpt><trkpt lat="44.27445936759532" lon="12.32333798497019"><ele>-2.0</ele><time>2026-04-06T15:21:51Z</time></trkpt><trkpt lat="44.27459984168999" lon="12.32321878928458"><ele>-2.0</ele><time>2026-04-06T15:21:52Z</time></trkpt><trkpt lat="44.27474485590111" lon="12.323094841043167"><ele>-2.0</ele><time>2026-04-06T15:21:53Z</time></trkpt><trkpt lat="44.27488620232612" lon="12.322972858476794"><ele>-2.0</ele><time>2026-04-06T15:21:54Z</time></trkpt><trkpt lat="44.27501933075407" lon="12.32285778541219"><ele>-2.333333333333333</ele><time>2026-04-06T15:21:55Z</time></trkpt><trkpt lat="44.27515789207205" lon="12.322736891067008"><ele>-2.6666666666666665</ele><time>2026-04-06T15:21:56Z</time></trkpt><trkpt lat="44.27529776802509" lon="12.32261530678362"><ele>-3.0</ele><time>2026-04-06T15:21:57Z</time></trkpt><trkpt lat="44.27543534608095" lon="12.322496039809138"><ele>-3.0</ele><time>2026-04-06T15:21:58Z</time></trkpt><trkpt lat="44.27557381120996" lon="12.322378265460676"><ele>-3.0</ele><time>2026-04-06T15:21:59Z</time></trkpt><trkpt lat="44.27571076677705" lon="12.322262744236799"><ele>-3.0</ele><time>2026-04-06T15:22:00Z</time></trkpt><trkpt lat="44.275851204600066" lon="12.32214112904106"><ele>-2.6666666666666665</ele><time>2026-04-06T15:22:01Z</time></trkpt><trkpt lat="44.27599193379765" lon="12.322019999058138"><ele>-2.333333333333333</ele><time>2026-04-06T15:22:02Z</time></trkpt><trkpt lat="44.27613273082531" lon="12.321900325748711"><ele>-2.0</ele><time>2026-04-06T15:22:03Z</time></trkpt><trkpt lat="44.27627889397293" lon="12.321776621964473"><ele>-2.0</ele><time>2026-04-06T15:22:04Z</time></trkpt><trkpt lat="44.276427948164375" lon="12.321651763377744"><ele>-2.0</ele><time>2026-04-06T15:22:05Z</time></trkpt><trkpt lat="44.27657833594608" lon="12.321524099020476"><ele>-2.0</ele><time>2026-04-06T15:22:06Z</time></trkpt><trkpt lat="44.276729237876516" lon="12.321399061911542"><ele>-1.3333333333333333</ele><time>2026-04-06T15:22:07Z</time></trkpt><trkpt lat="44.27688486202562" lon="12.321267911261415"><ele>-0.6666666666666666</ele><time>2026-04-06T15:22:08Z</time></trkpt><trkpt lat="44.27704320306825" lon="12.3211351389099"><ele>0.0</ele><time>2026-04-06T15:22:09Z</time></trkpt><trkpt lat="44.27719989403641" lon="12.321003981746777"><ele>-0.6666666666666666</ele><time>2026-04-06T15:22:10Z</time></trkpt><trkpt lat="44.2773434324405" lon="12.32088028197011"><ele>-1.3333333333333333</ele><time>2026-04-06T15:22:11Z</time></trkpt><trkpt lat="44.27748418276234" lon="12.320757683980574"><ele>-2.0</ele><time>2026-04-06T15:22:12Z</time></trkpt><trkpt lat="44.277629982737565" lon="12.320630374834092"><ele>-2.333333333333333</ele><time>2026-04-06T15:22:13Z</time></trkpt><trkpt lat="44.277779514347344" lon="12.320501955089204"><ele>-2.6666666666666665</ele><time>2026-04-06T15:22:14Z</time></trkpt><trkpt lat="44.27793352740636" lon="12.320370812140084"><ele>-3.0</ele><time>2026-04-06T15:22:15Z</time></trkpt><trkpt lat="44.27809003838327" lon="12.32023680345507"><ele>-2.6666666666666665</ele><time>2026-04-06T15:22:16Z</time></trkpt><trkpt lat="44.27824945154681" lon="12.320101321696729"><ele>-2.333333333333333</ele><time>2026-04-06T15:22:17Z</time></trkpt><trkpt lat="44.278413473587925" lon="12.319960982791716"><ele>-2.0</ele><time>2026-04-06T15:22:18Z</time></trkpt><trkpt lat="44.278569528512236" lon="12.319829550128718"><ele>-2.6666666666666665</ele><time>2026-04-06T15:22:19Z</time></trkpt><trkpt lat="44.27872376021373" lon="12.319696312732816"><ele>-3.333333333333333</ele><time>2026-04-06T15:22:20Z</time></trkpt><trkpt lat="44.278875432437474" lon="12.319566726173926"><ele>-4.0</ele><time>2026-04-06T15:22:21Z</time></trkpt><trkpt lat="44.27902306442453" lon="12.319441512824556"><ele>-2.6666666666666665</ele><time>2026-04-06T15:22:22Z</time></trkpt><trkpt lat="44.2791683718961" lon="12.319318349009679"><ele>-1.3333333333333333</ele><time>2026-04-06T15:22:23Z</time></trkpt><trkpt lat="44.279315225062746" lon="12.319192185486955"><ele>0.0</ele><time>2026-04-06T15:22:24Z</time></trkpt><trkpt lat="44.27945783752806" lon="12.319069958830863"><ele>0.0</ele><time>2026-04-06T15:22:25Z</time></trkpt><trkpt lat="44.27960095625684" lon="12.318946483813825"><ele>0.0</ele><time>2026-04-06T15:22:26Z</time></trkpt><trkpt lat="44.27974412770281" lon="12.318826032259329"><ele>0.0</ele><time>2026-04-06T15:22:27Z</time></trkpt><trkpt lat="44.27988329249529" lon="12.318707540632126"><ele>-0.3333333333333333</ele><time>2026-04-06T15:22:28Z</time></trkpt><trkpt lat="44.28002192650211" lon="12.318588623002038"><ele>-0.6666666666666666</ele><time>2026-04-06T15:22:29Z</time></trkpt><trkpt lat="44.280158877096206" lon="12.318473232739318"><ele>-1.0</ele><time>2026-04-06T15:22:30Z</time></trkpt><trkpt lat="44.28030022660529" lon="12.318354718620096"><ele>-1.0</ele><time>2026-04-06T15:22:31Z</time></trkpt><trkpt lat="44.2804444615692" lon="12.31823299436218"><ele>-1.0</ele><time>2026-04-06T15:22:32Z</time></trkpt><trkpt lat="44.280591357998944" lon="12.318109251430771"><ele>-1.0</ele><time>2026-04-06T15:22:33.001Z</time></trkpt><trkpt lat="44.28073866260543" lon="12.317984239741289"><ele>-1.3333333333333333</ele><time>2026-04-06T15:22:34.001Z</time></trkpt><trkpt lat="44.28087993092688" lon="12.317863132344044"><ele>-1.6666666666666665</ele><time>2026-04-06T15:22:35.001Z</time></trkpt><trkpt lat="44.28101835673462" lon="12.317744602567325"><ele>-2.0</ele><time>2026-04-06T15:22:36.001Z</time></trkpt><trkpt lat="44.28115767019888" lon="12.317626184811651"><ele>-2.0</ele><time>2026-04-06T15:22:37.001Z</time></trkpt><trkpt lat="44.28129771629337" lon="12.317507800938984"><ele>-2.0</ele><time>2026-04-06T15:22:38.001Z</time></trkpt><trkpt lat="44.2814387161353" lon="12.317386316423386"><ele>-2.0</ele><time>2026-04-06T15:22:39.001Z</time></trkpt><trkpt lat="44.28157930022034" lon="12.317263723828457"><ele>-2.0</ele><time>2026-04-06T15:22:40.001Z</time></trkpt><trkpt lat="44.28172283852208" lon="12.317141100265207"><ele>-2.0</ele><time>2026-04-06T15:22:41.001Z</time></trkpt><trkpt lat="44.2818622305138" lon="12.3170206593844"><ele>-2.0</ele><time>2026-04-06T15:22:42.001Z</time></trkpt><trkpt lat="44.28200737050047" lon="12.316891175727907"><ele>-2.0</ele><time>2026-04-06T15:22:43.001Z</time></trkpt><trkpt lat="44.282149656823414" lon="12.316765801365895"><ele>-2.0</ele><time>2026-04-06T15:22:44.001Z</time></trkpt><trkpt lat="44.28229476476275" lon="12.31663223271446"><ele>-2.0</ele><time>2026-04-06T15:22:45.001Z</time></trkpt><trkpt lat="44.28243383235716" lon="12.316504504974697"><ele>-2.6666666666666665</ele><time>2026-04-06T15:22:46.001Z</time></trkpt><trkpt lat="44.282567769664496" lon="12.316382867282991"><ele>-3.333333333333333</ele><time>2026-04-06T15:22:47.001Z</time></trkpt><trkpt lat="44.28270310701174" lon="12.316256024380438"><ele>-4.0</ele><time>2026-04-06T15:22:48.001Z</time></trkpt><trkpt lat="44.2828385079011" lon="12.316135535542037"><ele>-4.0</ele><time>2026-04-06T15:22:49.001Z</time></trkpt><trkpt lat="44.282978987369475" lon="12.31601476350588"><ele>-4.0</ele><time>2026-04-06T15:22:50.001Z</time></trkpt><trkpt lat="44.28312052781554" lon="12.315893864109519"><ele>-4.0</ele><time>2026-04-06T15:22:51.001Z</time></trkpt><trkpt lat="44.28326244004541" lon="12.315772684879867"><ele>-3.333333333333333</ele><time>2026-04-06T15:22:52.001Z</time></trkpt><trkpt lat="44.28340755763962" lon="12.315649746547699"><ele>-2.6666666666666665</ele><time>2026-04-06T15:22:53.001Z</time></trkpt><trkpt lat="44.28355329726354" lon="12.315525666742007"><ele>-2.0</ele><time>2026-04-06T15:22:54.001Z</time></trkpt><trkpt lat="44.28370218790256" lon="12.31539859916578"><ele>-2.0</ele><time>2026-04-06T15:22:55.001Z</time></trkpt><trkpt lat="44.28385233689283" lon="12.315269154864076"><ele>-2.0</ele><time>2026-04-06T15:22:56.001Z</time></trkpt><trkpt lat="44.284003135513125" lon="12.315139058577431"><ele>-2.0</ele><time>2026-04-06T15:22:57Z</time></trkpt><trkpt lat="44.28415540904963" lon="12.31500682990516"><ele>-2.0</ele><time>2026-04-06T15:22:58Z</time></trkpt><trkpt lat="44.28431210910683" lon="12.31487047548356"><ele>-2.0</ele><time>2026-04-06T15:22:59Z</time></trkpt><trkpt lat="44.28447211360141" lon="12.31473212940246"><ele>-2.0</ele><time>2026-04-06T15:23:00Z</time></trkpt><trkpt lat="44.2846334861675" lon="12.314594442895704"><ele>-1.6666666666666665</ele><time>2026-04-06T15:23:01Z</time></trkpt><trkpt lat="44.28478383642783" lon="12.314469814043989"><ele>-1.3333333333333333</ele><time>2026-04-06T15:23:02Z</time></trkpt><trkpt lat="44.28492482953117" lon="12.314350533514126"><ele>-1.0</ele><time>2026-04-06T15:23:03Z</time></trkpt><trkpt lat="44.28506910069247" lon="12.314227708573762"><ele>-1.0</ele><time>2026-04-06T15:23:04Z</time></trkpt><trkpt lat="44.28522187636574" lon="12.31409665609157"><ele>-1.0</ele><time>2026-04-06T15:23:05Z</time></trkpt><trkpt lat="44.28537678420251" lon="12.313963497258873"><ele>-1.0</ele><time>2026-04-06T15:23:06Z</time></trkpt><trkpt lat="44.28553610963388" lon="12.313824584483783"><ele>-1.3333333333333333</ele><time>2026-04-06T15:23:07Z</time></trkpt><trkpt lat="44.28569329206494" lon="12.31369190566954"><ele>-1.6666666666666665</ele><time>2026-04-06T15:23:08Z</time></trkpt><trkpt lat="44.28584857806724" lon="12.313559576235505"><ele>-2.0</ele><time>2026-04-06T15:23:09Z</time></trkpt><trkpt lat="44.28600294364701" lon="12.313426411709857"><ele>-2.0</ele><time>2026-04-06T15:23:10Z</time></trkpt><trkpt lat="44.28616094457768" lon="12.313287834154673"><ele>-2.0</ele><time>2026-04-06T15:23:11Z</time></trkpt><trkpt lat="44.28632371858272" lon="12.313143477663775"><ele>-2.0</ele><time>2026-04-06T15:23:12Z</time></trkpt><trkpt lat="44.28649774937582" lon="12.312991234195826"><ele>-2.333333333333333</ele><time>2026-04-06T15:23:13Z</time></trkpt><trkpt lat="44.28667772923613" lon="12.3128338094872"><ele>-2.6666666666666665</ele><time>2026-04-06T15:23:14Z</time></trkpt><trkpt lat="44.28685642549692" lon="12.312705802289026"><ele>-3.0</ele><time>2026-04-06T15:23:15Z</time></trkpt><trkpt lat="44.287016712683275" lon="12.312570431537832"><ele>-3.0</ele><time>2026-04-06T15:23:16Z</time></trkpt><trkpt lat="44.287165552535065" lon="12.312444728642253"><ele>-3.0</ele><time>2026-04-06T15:23:17Z</time></trkpt><trkpt lat="44.287321023687504" lon="12.312312621869607"><ele>-3.0</ele><time>2026-04-06T15:23:18Z</time></trkpt><trkpt lat="44.287484560351096" lon="12.312171452522783"><ele>-3.333333333333333</ele><time>2026-04-06T15:23:19Z</time></trkpt><trkpt lat="44.28763856754966" lon="12.312009115075215"><ele>-3.6666666666666665</ele><time>2026-04-06T15:23:20Z</time></trkpt><trkpt lat="44.287802470336096" lon="12.31187003161569"><ele>-4.0</ele><time>2026-04-06T15:23:21Z</time></trkpt><trkpt lat="44.287971184535685" lon="12.311731956500997"><ele>-4.0</ele><time>2026-04-06T15:23:22Z</time></trkpt><trkpt lat="44.288145570627286" lon="12.311589984746002"><ele>-4.0</ele><time>2026-04-06T15:23:23Z</time></trkpt><trkpt lat="44.288316330866905" lon="12.311446560622999"><ele>-4.0</ele><time>2026-04-06T15:23:24Z</time></trkpt><trkpt lat="44.28849215349814" lon="12.311295288495936"><ele>-4.0</ele><time>2026-04-06T15:23:25Z</time></trkpt><trkpt lat="44.288656475975706" lon="12.311154126407395"><ele>-4.0</ele><time>2026-04-06T15:23:26Z</time></trkpt><trkpt lat="44.2888205449827" lon="12.311012247044852"><ele>-4.0</ele><time>2026-04-06T15:23:27Z</time></trkpt><trkpt lat="44.28898204972045" lon="12.310874294623181"><ele>-3.6666666666666665</ele><time>2026-04-06T15:23:28Z</time></trkpt><trkpt lat="44.289144915562815" lon="12.310735164685457"><ele>-3.333333333333333</ele><time>2026-04-06T15:23:29Z</time></trkpt><trkpt lat="44.28929509604523" lon="12.31060466990965"><ele>-3.0</ele><time>2026-04-06T15:23:30Z</time></trkpt><trkpt lat="44.28943711251096" lon="12.310481497244739"><ele>-3.0</ele><time>2026-04-06T15:23:31Z</time></trkpt><trkpt lat="44.28957520851654" lon="12.31036186975266"><ele>-3.0</ele><time>2026-04-06T15:23:32Z</time></trkpt><trkpt lat="44.28970993497902" lon="12.310243540788495"><ele>-3.0</ele><time>2026-04-06T15:23:33Z</time></trkpt><trkpt lat="44.28984604120837" lon="12.310126584241074"><ele>-3.0</ele><time>2026-04-06T15:23:34Z</time></trkpt><trkpt lat="44.289986650030635" lon="12.310007421603503"><ele>-3.0</ele><time>2026-04-06T15:23:35Z</time></trkpt><trkpt lat="44.29012117150504" lon="12.309893715785773"><ele>-3.0</ele><time>2026-04-06T15:23:36Z</time></trkpt><trkpt lat="44.29025244820616" lon="12.309780092349678"><ele>-3.0</ele><time>2026-04-06T15:23:37Z</time></trkpt><trkpt lat="44.290372889099" lon="12.309672304677324"><ele>-3.0</ele><time>2026-04-06T15:23:38Z</time></trkpt><trkpt lat="44.29049108132784" lon="12.309569132989036"><ele>-3.0</ele><time>2026-04-06T15:23:39Z</time></trkpt><trkpt lat="44.29060058068234" lon="12.309475441012752"><ele>-3.0</ele><time>2026-04-06T15:23:40Z</time></trkpt><trkpt lat="44.29069780555094" lon="12.30939752740999"><ele>-2.8</ele><time>2026-04-06T15:23:41Z</time></trkpt><trkpt lat="44.290792676508964" lon="12.309326866119953"><ele>-2.5999999999999996</ele><time>2026-04-06T15:23:42Z</time></trkpt><trkpt lat="44.29087627577564" lon="12.309234088051474"><ele>-2.4000000000000004</ele><time>2026-04-06T15:23:43Z</time></trkpt><trkpt lat="44.29095948057632" lon="12.309150612307716"><ele>-2.2</ele><time>2026-04-06T15:23:44Z</time></trkpt><trkpt lat="44.29107949329215" lon="12.30916749504845"><ele>-2.0</ele><time>2026-04-06T15:23:45Z</time></trkpt><trkpt lat="44.29117703762242" lon="12.309142349733559"><ele>-2.0</ele><time>2026-04-06T15:23:46Z</time></trkpt><trkpt lat="44.29127287267553" lon="12.309131837082012"><ele>-2.0</ele><time>2026-04-06T15:23:47Z</time></trkpt><trkpt lat="44.29137019911635" lon="12.309100418966404"><ele>-2.0</ele><time>2026-04-06T15:23:48Z</time></trkpt><trkpt lat="44.29147022948653" lon="12.309103699160246"><ele>-2.0</ele><time>2026-04-06T15:23:49Z</time></trkpt><trkpt lat="44.29156308200834" lon="12.309046151377295"><ele>-2.0</ele><time>2026-04-06T15:23:50Z</time></trkpt><trkpt lat="44.29165492325481" lon="12.308950389691844"><ele>-1.75</ele><time>2026-04-06T15:23:51Z</time></trkpt><trkpt lat="44.29173371478513" lon="12.308827346367007"><ele>-1.5</ele><time>2026-04-06T15:23:52Z</time></trkpt><trkpt lat="44.291805243022075" lon="12.308680218980722"><ele>-1.25</ele><time>2026-04-06T15:23:53Z</time></trkpt><trkpt lat="44.291875111774715" lon="12.308520137353016"><ele>-1.0</ele><time>2026-04-06T15:23:54Z</time></trkpt><trkpt lat="44.29195280284511" lon="12.308390394402247"><ele>-1.0</ele><time>2026-04-06T15:23:55Z</time></trkpt><trkpt lat="44.29205034653546" lon="12.308281483353122"><ele>-1.0</ele><time>2026-04-06T15:23:56Z</time></trkpt><trkpt lat="44.292150099671396" lon="12.308199163767178"><ele>-1.0</ele><time>2026-04-06T15:23:57Z</time></trkpt><trkpt lat="44.292255436699676" lon="12.308113770816153"><ele>-1.0</ele><time>2026-04-06T15:23:58Z</time></trkpt><trkpt lat="44.29236314141374" lon="12.308028552536552"><ele>-1.25</ele><time>2026-04-06T15:23:59Z</time></trkpt><trkpt lat="44.292475205089175" lon="12.307936653929731"><ele>-1.5</ele><time>2026-04-06T15:24:00Z</time></trkpt><trkpt lat="44.29258346166498" lon="12.307845617189136"><ele>-1.75</ele><time>2026-04-06T15:24:01Z</time></trkpt><trkpt lat="44.29268646909879" lon="12.307760524129872"><ele>-2.0</ele><time>2026-04-06T15:24:02Z</time></trkpt><trkpt lat="44.292792253443736" lon="12.30767504436407"><ele>-2.0</ele><time>2026-04-06T15:24:03Z</time></trkpt><trkpt lat="44.292906681970564" lon="12.307584818276299"><ele>-2.0</ele><time>2026-04-06T15:24:04Z</time></trkpt><trkpt lat="44.29302036585007" lon="12.307494846305831"><ele>-2.0</ele><time>2026-04-06T15:24:05Z</time></trkpt><trkpt lat="44.29313262334329" lon="12.307405120363374"><ele>-2.0</ele><time>2026-04-06T15:24:06Z</time></trkpt><trkpt lat="44.29323561378108" lon="12.307324123011346"><ele>-1.8</ele><time>2026-04-06T15:24:07Z</time></trkpt><trkpt lat="44.29332809031925" lon="12.307247060308613"><ele>-1.6</ele><time>2026-04-06T15:24:08Z</time></trkpt><trkpt lat="44.29342058765686" lon="12.30717312725157"><ele>-1.4000000000000001</ele><time>2026-04-06T15:24:09Z</time></trkpt><trkpt lat="44.29350687973257" lon="12.307105227508194"><ele>-1.2000000000000002</ele><time>2026-04-06T15:24:10Z</time></trkpt><trkpt lat="44.29358951289666" lon="12.307037770810188"><ele>-1.0</ele><time>2026-04-06T15:24:11Z</time></trkpt><trkpt lat="44.2936652746568" lon="12.306975430651026"><ele>-0.9999999999999999</ele><time>2026-04-06T15:24:12Z</time></trkpt><trkpt lat="44.293735768723934" lon="12.306921679134529"><ele>-1.0</ele><time>2026-04-06T15:24:13Z</time></trkpt><trkpt lat="44.29381111295927" lon="12.306858823523772"><ele>-1.0</ele><time>2026-04-06T15:24:14Z</time></trkpt><trkpt lat="44.29389391451508" lon="12.306800688942422"><ele>-1.0</ele><time>2026-04-06T15:24:15Z</time></trkpt><trkpt lat="44.29397365342751" lon="12.30673433630291"><ele>-0.9999999999999999</ele><time>2026-04-06T15:24:16Z</time></trkpt><trkpt lat="44.29405358051265" lon="12.30666382400731"><ele>-1.0</ele><time>2026-04-06T15:24:17Z</time></trkpt><trkpt lat="44.29413263145421" lon="12.30659434381286"><ele>-1.0</ele><time>2026-04-06T15:24:18Z</time></trkpt><trkpt lat="44.294215218712544" lon="12.306526806460223"><ele>-1.0</ele><time>2026-04-06T15:24:19Z</time></trkpt><trkpt lat="44.294296980218924" lon="12.306461510824777"><ele>-1.0</ele><time>2026-04-06T15:24:20Z</time></trkpt><trkpt lat="44.29437714743703" lon="12.306392359929525"><ele>-1.0</ele><time>2026-04-06T15:24:21Z</time></trkpt><trkpt lat="44.29445414606205" lon="12.306326375714773"><ele>-1.0</ele><time>2026-04-06T15:24:22Z</time></trkpt><trkpt lat="44.294534985339205" lon="12.306257949906676"><ele>-1.2000000000000002</ele><time>2026-04-06T15:24:23Z</time></trkpt><trkpt lat="44.2946151633893" lon="12.306199266595405"><ele>-1.4000000000000001</ele><time>2026-04-06T15:24:24Z</time></trkpt><trkpt lat="44.294693260999644" lon="12.306139318954518"><ele>-1.6</ele><time>2026-04-06T15:24:25Z</time></trkpt><trkpt lat="44.294771305282204" lon="12.306075315856901"><ele>-1.8</ele><time>2026-04-06T15:24:26Z</time></trkpt><trkpt lat="44.294850717966476" lon="12.30600947232787"><ele>-2.0</ele><time>2026-04-06T15:24:27Z</time></trkpt><trkpt lat="44.29492963391755" lon="12.30594437757796"><ele>-1.6666666666666665</ele><time>2026-04-06T15:24:28Z</time></trkpt><trkpt lat="44.295002749714556" lon="12.305882048716942"><ele>-1.3333333333333333</ele><time>2026-04-06T15:24:29Z</time></trkpt><trkpt lat="44.295071541139265" lon="12.305825422907052"><ele>-1.0</ele><time>2026-04-06T15:24:30Z</time></trkpt><trkpt lat="44.295139546324855" lon="12.30576829411596"><ele>-0.6666666666666666</ele><time>2026-04-06T15:24:31Z</time></trkpt><trkpt lat="44.29521229256671" lon="12.305709409015458"><ele>-0.3333333333333333</ele><time>2026-04-06T15:24:32Z</time></trkpt><trkpt lat="44.29528518369684" lon="12.305656677895675"><ele>0.0</ele><time>2026-04-06T15:24:33Z</time></trkpt><trkpt lat="44.29535857156538" lon="12.305598246234002"><ele>-0.16666666666666666</ele><time>2026-04-06T15:24:34Z</time></trkpt><trkpt lat="44.29543286807135" lon="12.305536917367307"><ele>-0.3333333333333333</ele><time>2026-04-06T15:24:35Z</time></trkpt><trkpt lat="44.29550430045185" lon="12.3054782706049"><ele>-0.5</ele><time>2026-04-06T15:24:36.001Z</time></trkpt><trkpt lat="44.29559175118457" lon="12.305412454426044"><ele>-0.6666666666666666</ele><time>2026-04-06T15:24:38.001Z</time></trkpt><trkpt lat="44.295649431648165" lon="12.305366153297014"><ele>-0.8333333333333333</ele><time>2026-04-06T15:24:40.001Z</time></trkpt><trkpt lat="44.29572505333951" lon="12.305306524086888"><ele>-1.0</ele><time>2026-04-06T15:24:42.001Z</time></trkpt><trkpt lat="44.295834522493294" lon="12.30521096768807"><ele>-1.1428571428571428</ele><time>2026-04-06T15:24:44.001Z</time></trkpt><trkpt lat="44.295890904237986" lon="12.305163789126825"><ele>-1.2857142857142856</ele><time>2026-04-06T15:24:45.001Z</time></trkpt><trkpt lat="44.29595094216181" lon="12.30511509296642"><ele>-1.4285714285714284</ele><time>2026-04-06T15:24:46.001Z</time></trkpt><trkpt lat="44.29601340936373" lon="12.305063896444992"><ele>-1.5714285714285714</ele><time>2026-04-06T15:24:47.001Z</time></trkpt><trkpt lat="44.29607732308706" lon="12.305010212453393"><ele>-1.714285714285714</ele><time>2026-04-06T15:24:48.001Z</time></trkpt><trkpt lat="44.2961441116613" lon="12.304957907703752"><ele>-1.857142857142857</ele><time>2026-04-06T15:24:49.001Z</time></trkpt><trkpt lat="44.296203843525134" lon="12.304907372453693"><ele>-2.0</ele><time>2026-04-06T15:24:50.001Z</time></trkpt><trkpt lat="44.29626790512029" lon="12.304855992403523"><ele>-1.9999999999999998</ele><time>2026-04-06T15:24:51.001Z</time></trkpt><trkpt lat="44.29633056858709" lon="12.304804875472207"><ele>-2.0</ele><time>2026-04-06T15:24:52.001Z</time></trkpt><trkpt lat="44.29639592058596" lon="12.304754277597961"><ele>-2.0</ele><time>2026-04-06T15:24:53.001Z</time></trkpt><trkpt lat="44.296466337471024" lon="12.304708711909303"><ele>-2.0</ele><time>2026-04-06T15:24:54.001Z</time></trkpt><trkpt lat="44.29654063954755" lon="12.304664528875426"><ele>-1.9999999999999998</ele><time>2026-04-06T15:24:55.001Z</time></trkpt><trkpt lat="44.2966181677263" lon="12.304621516749657"><ele>-2.0</ele><time>2026-04-06T15:24:56.001Z</time></trkpt><trkpt lat="44.29669551658557" lon="12.304582089850635"><ele>-1.8</ele><time>2026-04-06T15:24:57.001Z</time></trkpt><trkpt lat="44.29676294163438" lon="12.30455070097771"><ele>-1.6</ele><time>2026-04-06T15:24:58.001Z</time></trkpt><trkpt lat="44.29686905981291" lon="12.304516567473957"><ele>-1.4000000000000001</ele><time>2026-04-06T15:25:00.001Z</time></trkpt><trkpt lat="44.29698400102086" lon="12.304519176556868"><ele>-1.2000000000000002</ele><time>2026-04-06T15:25:02.001Z</time></trkpt><trkpt lat="44.29708633684521" lon="12.304445762508191"><ele>-1.0</ele><time>2026-04-06T15:25:04Z</time></trkpt><trkpt lat="44.29712433152859" lon="12.304277692148405"><ele>-0.9999999999999999</ele><time>2026-04-06T15:25:06Z</time></trkpt><trkpt lat="44.29715806058819" lon="12.30419046864374"><ele>-1.0</ele><time>2026-04-06T15:25:06.999Z</time></trkpt><trkpt lat="44.29721140997836" lon="12.304119567119558"><ele>-1.0</ele><time>2026-04-06T15:25:07.999Z</time></trkpt><trkpt lat="44.29727627285804" lon="12.304053807881267"><ele>-1.0</ele><time>2026-04-06T15:25:08.999Z</time></trkpt><trkpt lat="44.29734175117407" lon="12.304000531513106"><ele>-0.9999999999999999</ele><time>2026-04-06T15:25:09.999Z</time></trkpt><trkpt lat="44.29742515721583" lon="12.303937125374567"><ele>-1.0</ele><time>2026-04-06T15:25:10.999Z</time></trkpt><trkpt lat="44.29750636851383" lon="12.303871694087968"><ele>-0.8</ele><time>2026-04-06T15:25:11.999Z</time></trkpt><trkpt lat="44.297585150161716" lon="12.30380623086317"><ele>-0.6000000000000001</ele><time>2026-04-06T15:25:12.999Z</time></trkpt><trkpt lat="44.29766859779436" lon="12.303738870708772"><ele>-0.4</ele><time>2026-04-06T15:25:13.999Z</time></trkpt><trkpt lat="44.2977581360455" lon="12.30366367961308"><ele>-0.2</ele><time>2026-04-06T15:25:14.999Z</time></trkpt><trkpt lat="44.297853087427114" lon="12.303585115858837"><ele>0.0</ele><time>2026-04-06T15:25:15.999Z</time></trkpt><trkpt lat="44.297953096015526" lon="12.303505341671839"><ele>0.0</ele><time>2026-04-06T15:25:16.999Z</time></trkpt><trkpt lat="44.298056889623645" lon="12.30342538851492"><ele>0.0</ele><time>2026-04-06T15:25:17.999Z</time></trkpt><trkpt lat="44.29816314307908" lon="12.303345489464261"><ele>0.0</ele><time>2026-04-06T15:25:18.999Z</time></trkpt><trkpt lat="44.29826820778677" lon="12.303267852917726"><ele>0.0</ele><time>2026-04-06T15:25:19.999Z</time></trkpt><trkpt lat="44.29837254170064" lon="12.30319170141679"><ele>0.0</ele><time>2026-04-06T15:25:20.999Z</time></trkpt><trkpt lat="44.29847470572234" lon="12.303111781705411"><ele>0.0</ele><time>2026-04-06T15:25:22Z</time></trkpt><trkpt lat="44.29857523003175" lon="12.303029622170442"><ele>0.0</ele><time>2026-04-06T15:25:23Z</time></trkpt><trkpt lat="44.298675589359945" lon="12.302942803829835"><ele>0.0</ele><time>2026-04-06T15:25:24Z</time></trkpt><trkpt lat="44.29877434533207" lon="12.3028554263695"><ele>0.0</ele><time>2026-04-06T15:25:25Z</time></trkpt><trkpt lat="44.298872212099674" lon="12.302771738660072"><ele>0.0</ele><time>2026-04-06T15:25:26Z</time></trkpt><trkpt lat="44.29896856563613" lon="12.302689963607902"><ele>0.0</ele><time>2026-04-06T15:25:27Z</time></trkpt><trkpt lat="44.29906826713764" lon="12.302606599696032"><ele>0.0</ele><time>2026-04-06T15:25:28Z</time></trkpt><trkpt lat="44.299171221535744" lon="12.302521030588204"><ele>0.25</ele><time>2026-04-06T15:25:29Z</time></trkpt><trkpt lat="44.299275750674724" lon="12.30243151307174"><ele>0.5</ele><time>2026-04-06T15:25:30Z</time></trkpt><trkpt lat="44.29938215172848" lon="12.30233873163394"><ele>0.75</ele><time>2026-04-06T15:25:31Z</time></trkpt><trkpt lat="44.2994886189285" lon="12.302241988945832"><ele>1.0</ele><time>2026-04-06T15:25:32Z</time></trkpt><trkpt lat="44.29959475351806" lon="12.302146173374291"><ele>1.0</ele><time>2026-04-06T15:25:33Z</time></trkpt><trkpt lat="44.299703190485026" lon="12.302049613837456"><ele>1.0</ele><time>2026-04-06T15:25:34Z</time></trkpt><trkpt lat="44.299814329183306" lon="12.301955903329336"><ele>1.0</ele><time>2026-04-06T15:25:35Z</time></trkpt><trkpt lat="44.29992703372008" lon="12.301863209714247"><ele>1.0</ele><time>2026-04-06T15:25:36Z</time></trkpt><trkpt lat="44.300042982446556" lon="12.301764979301693"><ele>0.75</ele><time>2026-04-06T15:25:37Z</time></trkpt><trkpt lat="44.30015800248811" lon="12.30166224957864"><ele>0.5</ele><time>2026-04-06T15:25:38Z</time></trkpt><trkpt lat="44.30027522487379" lon="12.301557662751975"><ele>0.25</ele><time>2026-04-06T15:25:39Z</time></trkpt><trkpt lat="44.300393714356396" lon="12.301446177039017"><ele>0.0</ele><time>2026-04-06T15:25:40Z</time></trkpt><trkpt lat="44.300512225619066" lon="12.301327022185603"><ele>-0.25</ele><time>2026-04-06T15:25:41Z</time></trkpt><trkpt lat="44.300631073019225" lon="12.301204756164044"><ele>-0.5</ele><time>2026-04-06T15:25:42Z</time></trkpt><trkpt lat="44.30074509162584" lon="12.301082705513839"><ele>-0.75</ele><time>2026-04-06T15:25:43Z</time></trkpt><trkpt lat="44.30085367153972" lon="12.300960515675179"><ele>-1.0</ele><time>2026-04-06T15:25:44Z</time></trkpt><trkpt lat="44.30095547940636" lon="12.300839162823795"><ele>-1.0</ele><time>2026-04-06T15:25:45Z</time></trkpt><trkpt lat="44.30105960479923" lon="12.300718067545741"><ele>-1.0</ele><time>2026-04-06T15:25:46Z</time></trkpt><trkpt lat="44.3011616030522" lon="12.30059779873356"><ele>-1.0</ele><time>2026-04-06T15:25:47Z</time></trkpt><trkpt lat="44.30126487073585" lon="12.300474553914606"><ele>-1.0</ele><time>2026-04-06T15:25:48Z</time></trkpt><trkpt lat="44.30136605288657" lon="12.300345464098276"><ele>-1.0</ele><time>2026-04-06T15:25:49Z</time></trkpt><trkpt lat="44.30146854298921" lon="12.300211507196185"><ele>-1.0</ele><time>2026-04-06T15:25:50Z</time></trkpt><trkpt lat="44.30157200732612" lon="12.30007661492734"><ele>-1.0</ele><time>2026-04-06T15:25:51Z</time></trkpt><trkpt lat="44.30167656727846" lon="12.299937445965277"><ele>-1.0</ele><time>2026-04-06T15:25:52Z</time></trkpt><trkpt lat="44.301784429194704" lon="12.299794110200688"><ele>-1.3333333333333333</ele><time>2026-04-06T15:25:53Z</time></trkpt><trkpt lat="44.30189554060771" lon="12.299651292669576"><ele>-1.6666666666666665</ele><time>2026-04-06T15:25:54Z</time></trkpt><trkpt lat="44.30201121830791" lon="12.299502267535148"><ele>-2.0</ele><time>2026-04-06T15:25:55Z</time></trkpt><trkpt lat="44.30212704523074" lon="12.299353114116304"><ele>-2.0</ele><time>2026-04-06T15:25:56Z</time></trkpt><trkpt lat="44.30224128100416" lon="12.299203664959633"><ele>-2.0</ele><time>2026-04-06T15:25:57Z</time></trkpt><trkpt lat="44.302356069815765" lon="12.299051095092926"><ele>-2.0</ele><time>2026-04-06T15:25:58Z</time></trkpt><trkpt lat="44.302477921427126" lon="12.298884871039446"><ele>-1.6666666666666665</ele><time>2026-04-06T15:25:59Z</time></trkpt><trkpt lat="44.30261217950126" lon="12.298703461989724"><ele>-1.3333333333333333</ele><time>2026-04-06T15:26:00Z</time></trkpt><trkpt lat="44.30276722050831" lon="12.298525013165403"><ele>-1.0</ele><time>2026-04-06T15:26:01Z</time></trkpt><trkpt lat="44.302910977431644" lon="12.298339577108784"><ele>-1.0</ele><time>2026-04-06T15:26:02Z</time></trkpt><trkpt lat="44.30304465910173" lon="12.298138176176495"><ele>-1.0</ele><time>2026-04-06T15:26:03Z</time></trkpt><trkpt lat="44.30318522867951" lon="12.297969543992801"><ele>-1.0</ele><time>2026-04-06T15:26:04Z</time></trkpt><trkpt lat="44.30331605298872" lon="12.297814290736861"><ele>-1.3333333333333333</ele><time>2026-04-06T15:26:05Z</time></trkpt><trkpt lat="44.303449720215454" lon="12.29765752981526"><ele>-1.6666666666666665</ele><time>2026-04-06T15:26:06Z</time></trkpt><trkpt lat="44.30358114755978" lon="12.297483464495501"><ele>-2.0</ele><time>2026-04-06T15:26:07Z</time></trkpt><trkpt lat="44.30370955756864" lon="12.297320502956227"><ele>-1.6666666666666665</ele><time>2026-04-06T15:26:08Z</time></trkpt><trkpt lat="44.303834933523916" lon="12.297158753729512"><ele>-1.3333333333333333</ele><time>2026-04-06T15:26:09Z</time></trkpt><trkpt lat="44.30395457305247" lon="12.297006218382723"><ele>-1.0</ele><time>2026-04-06T15:26:10Z</time></trkpt><trkpt lat="44.30407892119376" lon="12.296849174338442"><ele>-0.6666666666666666</ele><time>2026-04-06T15:26:11Z</time></trkpt><trkpt lat="44.30420699445771" lon="12.296700585261092"><ele>-0.3333333333333333</ele><time>2026-04-06T15:26:12Z</time></trkpt><trkpt lat="44.304333451918374" lon="12.296564041320341"><ele>0.0</ele><time>2026-04-06T15:26:13Z</time></trkpt><trkpt lat="44.30446227206999" lon="12.296428560884854"><ele>0.25</ele><time>2026-04-06T15:26:14Z</time></trkpt><trkpt lat="44.30458019830743" lon="12.296308725054779"><ele>0.5</ele><time>2026-04-06T15:26:15Z</time></trkpt><trkpt lat="44.3046984532222" lon="12.296198187748809"><ele>0.75</ele><time>2026-04-06T15:26:16Z</time></trkpt><trkpt lat="44.304811366566135" lon="12.296093929821838"><ele>1.0</ele><time>2026-04-06T15:26:17Z</time></trkpt><trkpt lat="44.30491968684987" lon="12.295998980093003"><ele>1.0</ele><time>2026-04-06T15:26:18Z</time></trkpt><trkpt lat="44.305031184156185" lon="12.295907744163372"><ele>1.0</ele><time>2026-04-06T15:26:19Z</time></trkpt><trkpt lat="44.30513823122664" lon="12.295823066722663"><ele>1.0</ele><time>2026-04-06T15:26:20Z</time></trkpt><trkpt lat="44.305240146289854" lon="12.295745172661421"><ele>1.0</ele><time>2026-04-06T15:26:21Z</time></trkpt><trkpt lat="44.30534115217876" lon="12.29566553732039"><ele>1.0</ele><time>2026-04-06T15:26:22Z</time></trkpt><trkpt lat="44.30544002250786" lon="12.295591976469524"><ele>1.0</ele><time>2026-04-06T15:26:23Z</time></trkpt><trkpt lat="44.30552618404114" lon="12.295526185135449"><ele>1.0</ele><time>2026-04-06T15:26:24Z</time></trkpt><trkpt lat="44.305606032865605" lon="12.295464838219466"><ele>1.0</ele><time>2026-04-06T15:26:25Z</time></trkpt><trkpt lat="44.30568688728378" lon="12.295402472383467"><ele>1.0</ele><time>2026-04-06T15:26:26Z</time></trkpt><trkpt lat="44.30575830276443" lon="12.295343751952169"><ele>1.6</ele><time>2026-04-06T15:26:27Z</time></trkpt><trkpt lat="44.305827786060796" lon="12.295275552943446"><ele>2.2</ele><time>2026-04-06T15:26:28Z</time></trkpt><trkpt lat="44.305898242331324" lon="12.295197907096018"><ele>2.8000000000000003</ele><time>2026-04-06T15:26:29Z</time></trkpt><trkpt lat="44.305976221359735" lon="12.29511635297526"><ele>3.4000000000000004</ele><time>2026-04-06T15:26:30Z</time></trkpt><trkpt lat="44.3060747118862" lon="12.295039912156788"><ele>4.0</ele><time>2026-04-06T15:26:31Z</time></trkpt><trkpt lat="44.306179287108534" lon="12.294963409630212"><ele>4.0</ele><time>2026-04-06T15:26:32Z</time></trkpt><trkpt lat="44.306289468376804" lon="12.294883027673377"><ele>4.0</ele><time>2026-04-06T15:26:33Z</time></trkpt><trkpt lat="44.30640911410118" lon="12.294791688551872"><ele>4.0</ele><time>2026-04-06T15:26:34Z</time></trkpt><trkpt lat="44.30653192001075" lon="12.294693507386672"><ele>4.0</ele><time>2026-04-06T15:26:35Z</time></trkpt><trkpt lat="44.30665444789099" lon="12.294592964350011"><ele>3.5</ele><time>2026-04-06T15:26:36Z</time></trkpt><trkpt lat="44.306778835011336" lon="12.294492915605636"><ele>3.0</ele><time>2026-04-06T15:26:37Z</time></trkpt><trkpt lat="44.30689563483431" lon="12.294397492628436"><ele>2.5</ele><time>2026-04-06T15:26:38Z</time></trkpt><trkpt lat="44.30700836318092" lon="12.294305410698286"><ele>2.0</ele><time>2026-04-06T15:26:39Z</time></trkpt><trkpt lat="44.30712542858008" lon="12.294212809197633"><ele>2.0</ele><time>2026-04-06T15:26:40Z</time></trkpt><trkpt lat="44.30724600626916" lon="12.294112122520591"><ele>2.0</ele><time>2026-04-06T15:26:41Z</time></trkpt><trkpt lat="44.30736786547022" lon="12.294012440268137"><ele>2.0</ele><time>2026-04-06T15:26:42Z</time></trkpt><trkpt lat="44.30749214453315" lon="12.293913214326555"><ele>2.0</ele><time>2026-04-06T15:26:43Z</time></trkpt><trkpt lat="44.30761909413167" lon="12.293811225204049"><ele>1.6666666666666665</ele><time>2026-04-06T15:26:44Z</time></trkpt><trkpt lat="44.307750317343505" lon="12.293705305627695"><ele>1.3333333333333333</ele><time>2026-04-06T15:26:45Z</time></trkpt><trkpt lat="44.307880007975186" lon="12.293601271625706"><ele>1.0</ele><time>2026-04-06T15:26:46Z</time></trkpt><trkpt lat="44.30801147927442" lon="12.29349793731839"><ele>1.25</ele><time>2026-04-06T15:26:47Z</time></trkpt><trkpt lat="44.308142257762064" lon="12.293398009473547"><ele>1.5</ele><time>2026-04-06T15:26:48Z</time></trkpt><trkpt lat="44.30827500878776" lon="12.293301316132064"><ele>1.75</ele><time>2026-04-06T15:26:49Z</time></trkpt><trkpt lat="44.3083972476554" lon="12.293216274497532"><ele>2.0</ele><time>2026-04-06T15:26:50.001Z</time></trkpt><trkpt lat="44.30851769472587" lon="12.29314069060567"><ele>1.75</ele><time>2026-04-06T15:26:51.001Z</time></trkpt><trkpt lat="44.30863230018548" lon="12.293068431123908"><ele>1.5</ele><time>2026-04-06T15:26:52.001Z</time></trkpt><trkpt lat="44.308744065661024" lon="12.292998501875868"><ele>1.25</ele><time>2026-04-06T15:26:53.001Z</time></trkpt><trkpt lat="44.308852464654066" lon="12.292931935995538"><ele>1.0</ele><time>2026-04-06T15:26:54.001Z</time></trkpt><trkpt lat="44.30895989437813" lon="12.292866040108779"><ele>0.75</ele><time>2026-04-06T15:26:55.001Z</time></trkpt><trkpt lat="44.30906761827061" lon="12.292800222942907"><ele>0.5</ele><time>2026-04-06T15:26:56.001Z</time></trkpt><trkpt lat="44.30918012150053" lon="12.292731406432331"><ele>0.25</ele><time>2026-04-06T15:26:57.001Z</time></trkpt><trkpt lat="44.30929640744784" lon="12.292661626409284"><ele>0.0</ele><time>2026-04-06T15:26:58.001Z</time></trkpt><trkpt lat="44.30941774882535" lon="12.292589100016524"><ele>0.0</ele><time>2026-04-06T15:26:59.001Z</time></trkpt><trkpt lat="44.309542440715404" lon="12.292512931816315"><ele>0.0</ele><time>2026-04-06T15:27:00.001Z</time></trkpt><trkpt lat="44.3096674365391" lon="12.29243396182732"><ele>0.0</ele><time>2026-04-06T15:27:01.001Z</time></trkpt><trkpt lat="44.30979173525043" lon="12.29234878161437"><ele>0.0</ele><time>2026-04-06T15:27:02.001Z</time></trkpt><trkpt lat="44.309917081215815" lon="12.292259161573744"><ele>0.3333333333333333</ele><time>2026-04-06T15:27:03.001Z</time></trkpt><trkpt lat="44.31004885042306" lon="12.292162005455836"><ele>0.6666666666666666</ele><time>2026-04-06T15:27:04.001Z</time></trkpt><trkpt lat="44.310185321499304" lon="12.2920594580145"><ele>1.0</ele><time>2026-04-06T15:27:05.001Z</time></trkpt><trkpt lat="44.31032264174435" lon="12.291951986568842"><ele>1.0</ele><time>2026-04-06T15:27:06.001Z</time></trkpt><trkpt lat="44.310462797652036" lon="12.291836545725003"><ele>1.0</ele><time>2026-04-06T15:27:07.001Z</time></trkpt><trkpt lat="44.310593232827664" lon="12.291726664187081"><ele>1.0</ele><time>2026-04-06T15:27:08.001Z</time></trkpt><trkpt lat="44.31071877571139" lon="12.291616910666452"><ele>1.0</ele><time>2026-04-06T15:27:09Z</time></trkpt><trkpt lat="44.310841759815226" lon="12.291508083543823"><ele>1.0</ele><time>2026-04-06T15:27:09.999Z</time></trkpt><trkpt lat="44.310961120098824" lon="12.291399339393152"><ele>1.0</ele><time>2026-04-06T15:27:11Z</time></trkpt><trkpt lat="44.31107878038233" lon="12.291294827565599"><ele>1.0</ele><time>2026-04-06T15:27:12Z</time></trkpt><trkpt lat="44.31119260749056" lon="12.291196348625967"><ele>0.75</ele><time>2026-04-06T15:27:12.999Z</time></trkpt><trkpt lat="44.31130542616948" lon="12.291100748248104"><ele>0.5</ele><time>2026-04-06T15:27:14Z</time></trkpt><trkpt lat="44.31140898763862" lon="12.291013040581605"><ele>0.25</ele><time>2026-04-06T15:27:15Z</time></trkpt><trkpt lat="44.31151182221025" lon="12.290924505619202"><ele>0.0</ele><time>2026-04-06T15:27:15.999Z</time></trkpt><trkpt lat="44.31161241159717" lon="12.290835112665297"><ele>0.0</ele><time>2026-04-06T15:27:17Z</time></trkpt><trkpt lat="44.31171245374165" lon="12.290745684138106"><ele>0.0</ele><time>2026-04-06T15:27:18Z</time></trkpt><trkpt lat="44.311805326372365" lon="12.290663138727078"><ele>0.0</ele><time>2026-04-06T15:27:19Z</time></trkpt><trkpt lat="44.31189213984308" lon="12.29058203011301"><ele>0.0</ele><time>2026-04-06T15:27:20Z</time></trkpt><trkpt lat="44.31196802990644" lon="12.29051236429321"><ele>0.0</ele><time>2026-04-06T15:27:21Z</time></trkpt><trkpt lat="44.31203831043307" lon="12.29047200950673"><ele>0.16666666666666666</ele><time>2026-04-06T15:27:22Z</time></trkpt><trkpt lat="44.31210916409083" lon="12.290466572609901"><ele>0.3333333333333333</ele><time>2026-04-06T15:27:23Z</time></trkpt><trkpt lat="44.312172514865416" lon="12.290504186848676"><ele>0.5</ele><time>2026-04-06T15:27:24Z</time></trkpt><trkpt lat="44.31223099744091" lon="12.290581570049577"><ele>0.6666666666666666</ele><time>2026-04-06T15:27:25Z</time></trkpt><trkpt lat="44.312291777010124" lon="12.290688073219954"><ele>0.8333333333333333</ele><time>2026-04-06T15:27:26Z</time></trkpt><trkpt lat="44.31234994156985" lon="12.290804084280316"><ele>1.0</ele><time>2026-04-06T15:27:27Z</time></trkpt><trkpt lat="44.31241091501766" lon="12.290929636721984"><ele>1.0</ele><time>2026-04-06T15:27:28Z</time></trkpt><trkpt lat="44.31247344783314" lon="12.291065465084857"><ele>1.0</ele><time>2026-04-06T15:27:29Z</time></trkpt><trkpt lat="44.31253929630628" lon="12.29121567561016"><ele>1.0</ele><time>2026-04-06T15:27:30Z</time></trkpt><trkpt lat="44.3126131058603" lon="12.291378358413994"><ele>1.0</ele><time>2026-04-06T15:27:31Z</time></trkpt><trkpt lat="44.312689681579194" lon="12.291550582211187"><ele>0.75</ele><time>2026-04-06T15:27:32Z</time></trkpt><trkpt lat="44.31276655505165" lon="12.291721645356468"><ele>0.5</ele><time>2026-04-06T15:27:33Z</time></trkpt><trkpt lat="44.31284210927367" lon="12.291889064743913"><ele>0.25</ele><time>2026-04-06T15:27:34Z</time></trkpt><trkpt lat="44.31291516939425" lon="12.292054548069336"><ele>0.0</ele><time>2026-04-06T15:27:35Z</time></trkpt><trkpt lat="44.312988698357536" lon="12.292218532131535"><ele>-0.2</ele><time>2026-04-06T15:27:36Z</time></trkpt><trkpt lat="44.31305879797476" lon="12.292373291172701"><ele>-0.4</ele><time>2026-04-06T15:27:37Z</time></trkpt><trkpt lat="44.313121862038365" lon="12.292510332224008"><ele>-0.6000000000000001</ele><time>2026-04-06T15:27:38Z</time></trkpt><trkpt lat="44.31317845879166" lon="12.292634930689491"><ele>-0.8</ele><time>2026-04-06T15:27:39Z</time></trkpt><trkpt lat="44.31322873076417" lon="12.292747013171855"><ele>-1.0</ele><time>2026-04-06T15:27:40Z</time></trkpt><trkpt lat="44.31327324793959" lon="12.292846695200366"><ele>-0.8</ele><time>2026-04-06T15:27:41Z</time></trkpt><trkpt lat="44.31331691205505" lon="12.292929760511031"><ele>-0.6000000000000001</ele><time>2026-04-06T15:27:42Z</time></trkpt><trkpt lat="44.313351609335534" lon="12.293008524831938"><ele>-0.4</ele><time>2026-04-06T15:27:43Z</time></trkpt><trkpt lat="44.313389034498805" lon="12.293126637371588"><ele>-0.2</ele><time>2026-04-06T15:27:45Z</time></trkpt><trkpt lat="44.31327596515109" lon="12.293309459523297"><ele>0.0</ele><time>2026-04-06T15:28:00Z</time></trkpt><trkpt lat="44.31333828621628" lon="12.293254661406197"><ele>0.0</ele><time>2026-04-06T15:31:06.002Z</time></trkpt><trkpt lat="44.31339388215402" lon="12.293210231675342"><ele>0.0</ele><time>2026-04-06T15:31:09.002Z</time></trkpt><trkpt lat="44.31345874830907" lon="12.293271292732516"><ele>0.0</ele><time>2026-04-06T15:31:11.002Z</time></trkpt><trkpt lat="44.3134888863688" lon="12.293349311974591"><ele>0.0</ele><time>2026-04-06T15:31:13.002Z</time></trkpt><trkpt lat="44.31353892395166" lon="12.293429293011643"><ele>0.0</ele><time>2026-04-06T15:34:36.001Z</time></trkpt><trkpt lat="44.3136021556351" lon="12.293546415540787"><ele>0.0</ele><time>2026-04-06T15:34:38.001Z</time></trkpt><trkpt lat="44.313645182944086" lon="12.293630762554923"><ele>0.0</ele><time>2026-04-06T15:34:39.001Z</time></trkpt><trkpt lat="44.31368789000074" lon="12.293729724679016"><ele>0.0</ele><time>2026-04-06T15:34:40.001Z</time></trkpt><trkpt lat="44.31373399152908" lon="12.293849573857942"><ele>0.0</ele><time>2026-04-06T15:34:41.001Z</time></trkpt><trkpt lat="44.31378251060708" lon="12.293971563933685"><ele>0.0</ele><time>2026-04-06T15:34:42.001Z</time></trkpt><trkpt lat="44.313839712528676" lon="12.2941071547953"><ele>0.0</ele><time>2026-04-06T15:34:43.001Z</time></trkpt><trkpt lat="44.31390223963039" lon="12.294247206895998"><ele>0.0</ele><time>2026-04-06T15:34:44.001Z</time></trkpt><trkpt lat="44.31396869640176" lon="12.29440084736657"><ele>0.0</ele><time>2026-04-06T15:34:45.001Z</time></trkpt><trkpt lat="44.314049056953905" lon="12.294571118620896"><ele>0.0</ele><time>2026-04-06T15:34:46.001Z</time></trkpt><trkpt lat="44.314143735600254" lon="12.294783140095081"><ele>0.0</ele><time>2026-04-06T15:34:47.001Z</time></trkpt><trkpt lat="44.3142624431006" lon="12.295039919546053"><ele>0.0</ele><time>2026-04-06T15:34:48.001Z</time></trkpt><trkpt lat="44.314376311498485" lon="12.29531000666837"><ele>0.0</ele><time>2026-04-06T15:34:49.001Z</time></trkpt><trkpt lat="44.3144884604641" lon="12.295562260463814"><ele>0.0</ele><time>2026-04-06T15:34:50.001Z</time></trkpt><trkpt lat="44.31460035879501" lon="12.295808929433031"><ele>0.0</ele><time>2026-04-06T15:34:51.001Z</time></trkpt><trkpt lat="44.314715551667476" lon="12.296076407575356"><ele>0.0</ele><time>2026-04-06T15:34:52.001Z</time></trkpt><trkpt lat="44.31482762592018" lon="12.296336808511587"><ele>-0.3333333333333333</ele><time>2026-04-06T15:34:53.001Z</time></trkpt><trkpt lat="44.314939787015696" lon="12.29661734361493"><ele>-0.6666666666666666</ele><time>2026-04-06T15:34:54.001Z</time></trkpt><trkpt lat="44.31505227804899" lon="12.296851102678417"><ele>-1.0</ele><time>2026-04-06T15:34:55.001Z</time></trkpt><trkpt lat="44.31517460330056" lon="12.297123288917183"><ele>-0.6666666666666666</ele><time>2026-04-06T15:34:56.001Z</time></trkpt><trkpt lat="44.31529043609844" lon="12.297387878555174"><ele>-0.3333333333333333</ele><time>2026-04-06T15:34:57.001Z</time></trkpt><trkpt lat="44.3154024876907" lon="12.297639080466935"><ele>0.0</ele><time>2026-04-06T15:34:58.001Z</time></trkpt><trkpt lat="44.31550771964609" lon="12.297869396210183"><ele>0.3333333333333333</ele><time>2026-04-06T15:34:59.001Z</time></trkpt><trkpt lat="44.315611110270595" lon="12.298101739926189"><ele>0.6666666666666666</ele><time>2026-04-06T15:35:00.001Z</time></trkpt><trkpt lat="44.315704591697134" lon="12.298320344998558"><ele>1.0</ele><time>2026-04-06T15:35:01.001Z</time></trkpt><trkpt lat="44.315811016293544" lon="12.298552722208209"><ele>1.0</ele><time>2026-04-06T15:35:02.001Z</time></trkpt><trkpt lat="44.31591237528653" lon="12.298779968560575"><ele>1.0</ele><time>2026-04-06T15:35:03.001Z</time></trkpt><trkpt lat="44.316012632160806" lon="12.299010334434055"><ele>1.0</ele><time>2026-04-06T15:35:04.001Z</time></trkpt><trkpt lat="44.316112763670304" lon="12.299238283120875"><ele>0.6666666666666666</ele><time>2026-04-06T15:35:05.001Z</time></trkpt><trkpt lat="44.316217145834024" lon="12.299475430211094"><ele>0.3333333333333333</ele><time>2026-04-06T15:35:06.001Z</time></trkpt><trkpt lat="44.316320755569734" lon="12.299708211940557"><ele>0.0</ele><time>2026-04-06T15:35:07.001Z</time></trkpt><trkpt lat="44.316416950571025" lon="12.299923207834603"><ele>-0.6666666666666666</ele><time>2026-04-06T15:35:08.001Z</time></trkpt><trkpt lat="44.316517158983366" lon="12.300144566474087"><ele>-1.3333333333333333</ele><time>2026-04-06T15:35:09.001Z</time></trkpt><trkpt lat="44.31661584605709" lon="12.300373153184584"><ele>-2.0</ele><time>2026-04-06T15:35:10.001Z</time></trkpt><trkpt lat="44.31671592805783" lon="12.300605270851268"><ele>-2.0</ele><time>2026-04-06T15:35:11.001Z</time></trkpt><trkpt lat="44.316816944827735" lon="12.300837487625742"><ele>-2.0</ele><time>2026-04-06T15:35:12.001Z</time></trkpt><trkpt lat="44.316917997229226" lon="12.301064348138908"><ele>-2.0</ele><time>2026-04-06T15:35:13.001Z</time></trkpt><trkpt lat="44.317017577548775" lon="12.301291094827347"><ele>-2.0</ele><time>2026-04-06T15:35:14.001Z</time></trkpt><trkpt lat="44.31711794517379" lon="12.301519543697857"><ele>-2.0</ele><time>2026-04-06T15:35:15.001Z</time></trkpt><trkpt lat="44.31722387129864" lon="12.301757135369416"><ele>-2.0</ele><time>2026-04-06T15:35:16.001Z</time></trkpt><trkpt lat="44.317328739814926" lon="12.301989931763497"><ele>-2.0</ele><time>2026-04-06T15:35:17.001Z</time></trkpt><trkpt lat="44.31743006550432" lon="12.302215747357021"><ele>-2.0</ele><time>2026-04-06T15:35:18.002Z</time></trkpt><trkpt lat="44.3175328823193" lon="12.302451160661917"><ele>-2.0</ele><time>2026-04-06T15:35:19.002Z</time></trkpt><trkpt lat="44.31763233772668" lon="12.302678148167887"><ele>-2.0</ele><time>2026-04-06T15:35:20.002Z</time></trkpt><trkpt lat="44.31773639964674" lon="12.302914627264782"><ele>-2.0</ele><time>2026-04-06T15:35:21.002Z</time></trkpt><trkpt lat="44.31783639475163" lon="12.303145120241485"><ele>-2.0</ele><time>2026-04-06T15:35:22.002Z</time></trkpt><trkpt lat="44.317947252470724" lon="12.303391247206903"><ele>-2.333333333333333</ele><time>2026-04-06T15:35:23.002Z</time></trkpt><trkpt lat="44.31805708264385" lon="12.303638080562353"><ele>-2.6666666666666665</ele><time>2026-04-06T15:35:24.002Z</time></trkpt><trkpt lat="44.31817268382363" lon="12.303899299235761"><ele>-3.0</ele><time>2026-04-06T15:35:25.002Z</time></trkpt><trkpt lat="44.31828405412413" lon="12.3041466124467"><ele>-3.0</ele><time>2026-04-06T15:35:26.002Z</time></trkpt><trkpt lat="44.31839581018264" lon="12.304399046125987"><ele>-3.0</ele><time>2026-04-06T15:35:27.002Z</time></trkpt><trkpt lat="44.31850828550624" lon="12.30465874608081"><ele>-3.0</ele><time>2026-04-06T15:35:28.002Z</time></trkpt><trkpt lat="44.3186175436849" lon="12.30490687269138"><ele>-3.0</ele><time>2026-04-06T15:35:29.002Z</time></trkpt><trkpt lat="44.3187283294425" lon="12.305162663374912"><ele>-3.0</ele><time>2026-04-06T15:35:30.002Z</time></trkpt><trkpt lat="44.3188262494732" lon="12.305416994393573"><ele>-3.0</ele><time>2026-04-06T15:35:31.002Z</time></trkpt><trkpt lat="44.31895257847171" lon="12.305659348603118"><ele>-2.6666666666666665</ele><time>2026-04-06T15:35:32.002Z</time></trkpt><trkpt lat="44.31906337281009" lon="12.305915830692703"><ele>-2.333333333333333</ele><time>2026-04-06T15:35:33.001Z</time></trkpt><trkpt lat="44.319173680178515" lon="12.306162723320606"><ele>-2.0</ele><time>2026-04-06T15:35:34.001Z</time></trkpt><trkpt lat="44.31928612551357" lon="12.306425070167403"><ele>-2.0</ele><time>2026-04-06T15:35:35.001Z</time></trkpt><trkpt lat="44.319399610654884" lon="12.306675888915942"><ele>-2.0</ele><time>2026-04-06T15:35:36.001Z</time></trkpt><trkpt lat="44.319514302334504" lon="12.306944164967534"><ele>-2.0</ele><time>2026-04-06T15:35:37.001Z</time></trkpt><trkpt lat="44.319631346187464" lon="12.307207260557952"><ele>-0.5</ele><time>2026-04-06T15:35:38.001Z</time></trkpt><trkpt lat="44.3197489620384" lon="12.307471015508401"><ele>1.0</ele><time>2026-04-06T15:35:39.001Z</time></trkpt><trkpt lat="44.31986568316493" lon="12.30774389440278"><ele>1.0</ele><time>2026-04-06T15:35:40.001Z</time></trkpt><trkpt lat="44.31998272995583" lon="12.308003288014607"><ele>1.0</ele><time>2026-04-06T15:35:41.001Z</time></trkpt><trkpt lat="44.320098688688574" lon="12.308275583676554"><ele>1.0</ele><time>2026-04-06T15:35:42.001Z</time></trkpt><trkpt lat="44.3202209447311" lon="12.308541022442803"><ele>0.3333333333333333</ele><time>2026-04-06T15:35:43.001Z</time></trkpt><trkpt lat="44.320339403574685" lon="12.308814705868214"><ele>-0.3333333333333333</ele><time>2026-04-06T15:35:44.001Z</time></trkpt><trkpt lat="44.32044999008288" lon="12.309068385229068"><ele>-1.0</ele><time>2026-04-06T15:35:45.001Z</time></trkpt><trkpt lat="44.32055951957832" lon="12.30932249085671"><ele>-1.3333333333333333</ele><time>2026-04-06T15:35:46.001Z</time></trkpt><trkpt lat="44.32067371019833" lon="12.309574885615227"><ele>-1.6666666666666665</ele><time>2026-04-06T15:35:47.001Z</time></trkpt><trkpt lat="44.32078440733559" lon="12.309826084624394"><ele>-2.0</ele><time>2026-04-06T15:35:48.001Z</time></trkpt><trkpt lat="44.320896933489195" lon="12.310087184327017"><ele>-2.0</ele><time>2026-04-06T15:35:49.001Z</time></trkpt><trkpt lat="44.321007315759765" lon="12.310337214254218"><ele>-2.0</ele><time>2026-04-06T15:35:50.001Z</time></trkpt><trkpt lat="44.32111996955858" lon="12.310588939834515"><ele>-2.0</ele><time>2026-04-06T15:35:51.001Z</time></trkpt><trkpt lat="44.321235724935" lon="12.310852256650058"><ele>-2.0</ele><time>2026-04-06T15:35:52.001Z</time></trkpt><trkpt lat="44.32135890611992" lon="12.31113132665373"><ele>-2.0</ele><time>2026-04-06T15:35:53.001Z</time></trkpt><trkpt lat="44.32148737862173" lon="12.311431659939164"><ele>-2.5</ele><time>2026-04-06T15:35:54.001Z</time></trkpt><trkpt lat="44.32159258659526" lon="12.31168359217349"><ele>-3.0</ele><time>2026-04-06T15:35:55.001Z</time></trkpt><trkpt lat="44.32172008869572" lon="12.311969686395114"><ele>-2.0</ele><time>2026-04-06T15:35:56.001Z</time></trkpt><trkpt lat="44.32185451843076" lon="12.312250858292497"><ele>-1.0</ele><time>2026-04-06T15:35:57.001Z</time></trkpt><trkpt lat="44.321987131045425" lon="12.312531139317755"><ele>-1.0</ele><time>2026-04-06T15:35:58.001Z</time></trkpt><trkpt lat="44.32210510123389" lon="12.312835303501728"><ele>-1.0</ele><time>2026-04-06T15:35:59.001Z</time></trkpt><trkpt lat="44.32222762555024" lon="12.313105908956366"><ele>-2.0</ele><time>2026-04-06T15:36:00.001Z</time></trkpt><trkpt lat="44.322347525842694" lon="12.313387816459167"><ele>-3.0</ele><time>2026-04-06T15:36:01.001Z</time></trkpt><trkpt lat="44.32247386125867" lon="12.313657328774344"><ele>-3.0</ele><time>2026-04-06T15:36:02.001Z</time></trkpt><trkpt lat="44.32259606892126" lon="12.31393874423405"><ele>-3.0</ele><time>2026-04-06T15:36:03.001Z</time></trkpt><trkpt lat="44.32271477987879" lon="12.314208143071331"><ele>-3.0</ele><time>2026-04-06T15:36:04.001Z</time></trkpt><trkpt lat="44.32283651330539" lon="12.314489400760026"><ele>-3.0</ele><time>2026-04-06T15:36:05.001Z</time></trkpt><trkpt lat="44.322957307815315" lon="12.314764727065977"><ele>-2.6666666666666665</ele><time>2026-04-06T15:36:06.001Z</time></trkpt><trkpt lat="44.32306716978977" lon="12.315009628003155"><ele>-2.333333333333333</ele><time>2026-04-06T15:36:07.001Z</time></trkpt><trkpt lat="44.32316538647146" lon="12.31523461907723"><ele>-2.0</ele><time>2026-04-06T15:36:08.001Z</time></trkpt><trkpt lat="44.32326659910767" lon="12.315463703761774"><ele>-2.0</ele><time>2026-04-06T15:36:09.001Z</time></trkpt><trkpt lat="44.32338534133514" lon="12.315728262060537"><ele>-2.0</ele><time>2026-04-06T15:36:10.001Z</time></trkpt><trkpt lat="44.32351047448863" lon="12.316000832059158"><ele>-2.0</ele><time>2026-04-06T15:36:11.001Z</time></trkpt><trkpt lat="44.32363418926693" lon="12.316291307207939"><ele>-2.0</ele><time>2026-04-06T15:36:12.001Z</time></trkpt><trkpt lat="44.32376301174672" lon="12.316579735323995"><ele>-2.0</ele><time>2026-04-06T15:36:13.001Z</time></trkpt><trkpt lat="44.32388661060182" lon="12.316861236221444"><ele>-2.0</ele><time>2026-04-06T15:36:14.001Z</time></trkpt><trkpt lat="44.32400955885005" lon="12.317147055452676"><ele>-2.0</ele><time>2026-04-06T15:36:15.001Z</time></trkpt><trkpt lat="44.32413291611006" lon="12.317428330352879"><ele>-2.0</ele><time>2026-04-06T15:36:16.001Z</time></trkpt><trkpt lat="44.32425464739995" lon="12.31771012994167"><ele>-2.0</ele><time>2026-04-06T15:36:17.001Z</time></trkpt><trkpt lat="44.32437848138883" lon="12.317986979594961"><ele>-2.0</ele><time>2026-04-06T15:36:18.001Z</time></trkpt><trkpt lat="44.3244996076865" lon="12.318265720876457"><ele>-2.0</ele><time>2026-04-06T15:36:19.001Z</time></trkpt><trkpt lat="44.32462614392106" lon="12.318544821110462"><ele>-2.0</ele><time>2026-04-06T15:36:20.001Z</time></trkpt><trkpt lat="44.324743130241465" lon="12.318817052963162"><ele>-3.0</ele><time>2026-04-06T15:36:21.001Z</time></trkpt><trkpt lat="44.32486561978051" lon="12.319088942355057"><ele>-4.0</ele><time>2026-04-06T15:36:22.001Z</time></trkpt><trkpt lat="44.32498600183554" lon="12.319360558378664"><ele>-4.0</ele><time>2026-04-06T15:36:23.001Z</time></trkpt><trkpt lat="44.32510391542948" lon="12.319631540838586"><ele>-4.0</ele><time>2026-04-06T15:36:24.001Z</time></trkpt><trkpt lat="44.32522768553094" lon="12.319906553720454"><ele>-3.5</ele><time>2026-04-06T15:36:25.001Z</time></trkpt><trkpt lat="44.325348468341005" lon="12.320182872624608"><ele>-3.0</ele><time>2026-04-06T15:36:26.001Z</time></trkpt><trkpt lat="44.325477205469724" lon="12.320468968379702"><ele>-3.0</ele><time>2026-04-06T15:36:27.001Z</time></trkpt><trkpt lat="44.32559529108607" lon="12.320741000913117"><ele>-3.0</ele><time>2026-04-06T15:36:28.001Z</time></trkpt><trkpt lat="44.32572008633578" lon="12.321026477153753"><ele>-3.0</ele><time>2026-04-06T15:36:29.001Z</time></trkpt><trkpt lat="44.32584768079476" lon="12.321319790776823"><ele>-3.0</ele><time>2026-04-06T15:36:30.001Z</time></trkpt><trkpt lat="44.32597057872778" lon="12.321597157495464"><ele>-3.0</ele><time>2026-04-06T15:36:31.001Z</time></trkpt><trkpt lat="44.326093403231404" lon="12.32187548718823"><ele>-3.0</ele><time>2026-04-06T15:36:32.001Z</time></trkpt><trkpt lat="44.32621515489957" lon="12.322158831143344"><ele>-3.0</ele><time>2026-04-06T15:36:33.001Z</time></trkpt><trkpt lat="44.32633556607207" lon="12.32243283743493"><ele>-3.0</ele><time>2026-04-06T15:36:34.001Z</time></trkpt><trkpt lat="44.326454033852336" lon="12.322695158182732"><ele>-3.0</ele><time>2026-04-06T15:36:35.001Z</time></trkpt><trkpt lat="44.32657215170645" lon="12.322964714679204"><ele>-3.0</ele><time>2026-04-06T15:36:36.001Z</time></trkpt><trkpt lat="44.326676379415076" lon="12.323200615804296"><ele>-3.0</ele><time>2026-04-06T15:36:37.001Z</time></trkpt><trkpt lat="44.32675536338001" lon="12.323398952370221"><ele>-2.6666666666666665</ele><time>2026-04-06T15:36:38.001Z</time></trkpt><trkpt lat="44.32683545418729" lon="12.323592503865566"><ele>-2.333333333333333</ele><time>2026-04-06T15:36:39.001Z</time></trkpt><trkpt lat="44.32690433313819" lon="12.323767399112166"><ele>-2.0</ele><time>2026-04-06T15:36:40.001Z</time></trkpt><trkpt lat="44.32697736575921" lon="12.323954539091599"><ele>-2.0</ele><time>2026-04-06T15:36:41.001Z</time></trkpt><trkpt lat="44.32705253662447" lon="12.32414985024509"><ele>-2.0</ele><time>2026-04-06T15:36:42.001Z</time></trkpt><trkpt lat="44.327130111383084" lon="12.324355924654364"><ele>-2.0</ele><time>2026-04-06T15:36:43.001Z</time></trkpt><trkpt lat="44.32721306270856" lon="12.32457958934051"><ele>-1.6666666666666665</ele><time>2026-04-06T15:36:44.001Z</time></trkpt><trkpt lat="44.32729183760161" lon="12.32479551137046"><ele>-1.3333333333333333</ele><time>2026-04-06T15:36:45.001Z</time></trkpt><trkpt lat="44.32736911552288" lon="12.32500800348046"><ele>-1.0</ele><time>2026-04-06T15:36:46.001Z</time></trkpt><trkpt lat="44.32745396428369" lon="12.325239616347732"><ele>-1.0</ele><time>2026-04-06T15:36:47.001Z</time></trkpt><trkpt lat="44.327531541346936" lon="12.32546324716691"><ele>-1.0</ele><time>2026-04-06T15:36:48.001Z</time></trkpt><trkpt lat="44.327610388919744" lon="12.325704519919558"><ele>-1.0</ele><time>2026-04-06T15:36:49.001Z</time></trkpt><trkpt lat="44.32769089864" lon="12.325943507429029"><ele>-1.0</ele><time>2026-04-06T15:36:50.001Z</time></trkpt><trkpt lat="44.32777061356828" lon="12.326183473791582"><ele>-1.0</ele><time>2026-04-06T15:36:51.001Z</time></trkpt><trkpt lat="44.32785553427831" lon="12.326437991933377"><ele>-1.0</ele><time>2026-04-06T15:36:52.001Z</time></trkpt><trkpt lat="44.327939220134915" lon="12.326696390299606"><ele>-1.0</ele><time>2026-04-06T15:36:53.001Z</time></trkpt><trkpt lat="44.328020111283216" lon="12.326960833953008"><ele>-1.0</ele><time>2026-04-06T15:36:54.001Z</time></trkpt><trkpt lat="44.328103529420545" lon="12.327230733231717"><ele>-1.0</ele><time>2026-04-06T15:36:55.001Z</time></trkpt><trkpt lat="44.32817891065985" lon="12.327478929158525"><ele>-1.0</ele><time>2026-04-06T15:36:56.001Z</time></trkpt><trkpt lat="44.32824355150396" lon="12.327701848006445"><ele>-1.0</ele><time>2026-04-06T15:36:57.001Z</time></trkpt><trkpt lat="44.32830644444175" lon="12.327904401666514"><ele>-1.0</ele><time>2026-04-06T15:36:58.001Z</time></trkpt><trkpt lat="44.32836343728174" lon="12.328097923847563"><ele>-1.25</ele><time>2026-04-06T15:36:59.001Z</time></trkpt><trkpt lat="44.32842217250583" lon="12.328292475625126"><ele>-1.5</ele><time>2026-04-06T15:37:00.001Z</time></trkpt><trkpt lat="44.328479303040815" lon="12.328485906082674"><ele>-1.75</ele><time>2026-04-06T15:37:01.001Z</time></trkpt><trkpt lat="44.32853467939138" lon="12.328672177021723"><ele>-2.0</ele><time>2026-04-06T15:37:02.001Z</time></trkpt><trkpt lat="44.32858839991879" lon="12.328864999864413"><ele>-1.75</ele><time>2026-04-06T15:37:03.001Z</time></trkpt><trkpt lat="44.32863387879745" lon="12.329035327248718"><ele>-1.5</ele><time>2026-04-06T15:37:04.001Z</time></trkpt><trkpt lat="44.328679698393124" lon="12.329194821826503"><ele>-1.25</ele><time>2026-04-06T15:37:05.001Z</time></trkpt><trkpt lat="44.32872319999452" lon="12.329338219296792"><ele>-1.0</ele><time>2026-04-06T15:37:06.001Z</time></trkpt><trkpt lat="44.32876252075088" lon="12.329471494930846"><ele>-1.0</ele><time>2026-04-06T15:37:07.001Z</time></trkpt><trkpt lat="44.328798823076085" lon="12.329599867848042"><ele>-1.0</ele><time>2026-04-06T15:37:08.001Z</time></trkpt><trkpt lat="44.32882600895523" lon="12.329727987533449"><ele>-1.0</ele><time>2026-04-06T15:37:09.001Z</time></trkpt><trkpt lat="44.328830104704544" lon="12.329860350456832"><ele>-1.0</ele><time>2026-04-06T15:37:10.001Z</time></trkpt><trkpt lat="44.328788928225975" lon="12.330025779136923"><ele>-1.0</ele><time>2026-04-06T15:37:11.001Z</time></trkpt><trkpt lat="44.32874143947809" lon="12.330196857955881"><ele>-1.25</ele><time>2026-04-06T15:37:12.001Z</time></trkpt><trkpt lat="44.32867638140683" lon="12.330368643511513"><ele>-1.5</ele><time>2026-04-06T15:37:13.001Z</time></trkpt><trkpt lat="44.32866634915112" lon="12.330579052009753"><ele>-1.75</ele><time>2026-04-06T15:37:14.001Z</time></trkpt><trkpt lat="44.32863523526575" lon="12.330752430189948"><ele>-2.0</ele><time>2026-04-06T15:37:15.001Z</time></trkpt><trkpt lat="44.328567536307105" lon="12.330891855140141"><ele>-2.0</ele><time>2026-04-06T15:37:16.001Z</time></trkpt><trkpt lat="44.328477481742006" lon="12.330999210569251"><ele>-2.0</ele><time>2026-04-06T15:37:17.001Z</time></trkpt><trkpt lat="44.32833785443584" lon="12.331091625195356"><ele>-2.0</ele><time>2026-04-06T15:37:18.001Z</time></trkpt><trkpt lat="44.3281683630689" lon="12.331186984754936"><ele>-2.0</ele><time>2026-04-06T15:37:19.001Z</time></trkpt><trkpt lat="44.327968483689745" lon="12.331306997439093"><ele>-2.0</ele><time>2026-04-06T15:37:20.001Z</time></trkpt><trkpt lat="44.32778295591915" lon="12.331416060726431"><ele>-2.0</ele><time>2026-04-06T15:37:21.001Z</time></trkpt><trkpt lat="44.32761350261911" lon="12.33152187426014"><ele>-2.333333333333333</ele><time>2026-04-06T15:37:22.001Z</time></trkpt><trkpt lat="44.327446122506835" lon="12.331639244666187"><ele>-2.6666666666666665</ele><time>2026-04-06T15:37:23.001Z</time></trkpt><trkpt lat="44.327293250181135" lon="12.331734501643721"><ele>-3.0</ele><time>2026-04-06T15:37:24.001Z</time></trkpt><trkpt lat="44.32714027464776" lon="12.331830915926755"><ele>-3.25</ele><time>2026-04-06T15:37:25.001Z</time></trkpt><trkpt lat="44.326998895608114" lon="12.331916933067033"><ele>-3.5</ele><time>2026-04-06T15:37:26.001Z</time></trkpt><trkpt lat="44.32688303761663" lon="12.3319938190553"><ele>-3.75</ele><time>2026-04-06T15:37:27.001Z</time></trkpt><trkpt lat="44.326768529648426" lon="12.332067606557898"><ele>-4.0</ele><time>2026-04-06T15:37:28.001Z</time></trkpt><trkpt lat="44.32665525294755" lon="12.332139343085547"><ele>-4.0</ele><time>2026-04-06T15:37:29.001Z</time></trkpt><trkpt lat="44.32654192744768" lon="12.33221797603631"><ele>-4.0</ele><time>2026-04-06T15:37:30.001Z</time></trkpt><trkpt lat="44.326441869921" lon="12.332277727299099"><ele>-4.0</ele><time>2026-04-06T15:37:31.001Z</time></trkpt><trkpt lat="44.32634840898412" lon="12.332335417719875"><ele>-4.0</ele><time>2026-04-06T15:37:32.001Z</time></trkpt><trkpt lat="44.32625921298974" lon="12.332377347857177"><ele>-4.0</ele><time>2026-04-06T15:37:33.001Z</time></trkpt><trkpt lat="44.32616721892419" lon="12.332391173623751"><ele>-3.6</ele><time>2026-04-06T15:37:34.001Z</time></trkpt><trkpt lat="44.32607712314976" lon="12.33241826044566"><ele>-3.2</ele><time>2026-04-06T15:37:35.001Z</time></trkpt><trkpt lat="44.32599952555009" lon="12.332487855989967"><ele>-2.8000000000000003</ele><time>2026-04-06T15:37:36.001Z</time></trkpt><trkpt lat="44.32590942324723" lon="12.332593502077222"><ele>-2.4000000000000004</ele><time>2026-04-06T15:37:37.001Z</time></trkpt><trkpt lat="44.325791940622224" lon="12.332704197856792"><ele>-2.0</ele><time>2026-04-06T15:37:38.001Z</time></trkpt><trkpt lat="44.32563562880407" lon="12.33281293560353"><ele>-2.333333333333333</ele><time>2026-04-06T15:37:39.001Z</time></trkpt><trkpt lat="44.32546898113964" lon="12.33292051621851"><ele>-2.6666666666666665</ele><time>2026-04-06T15:37:40.001Z</time></trkpt><trkpt lat="44.325298696415494" lon="12.333033772087735"><ele>-3.0</ele><time>2026-04-06T15:37:41.001Z</time></trkpt><trkpt lat="44.325151373689685" lon="12.333136652730243"><ele>-2.6666666666666665</ele><time>2026-04-06T15:37:42.001Z</time></trkpt><trkpt lat="44.325004234399174" lon="12.33323952048781"><ele>-2.333333333333333</ele><time>2026-04-06T15:37:43.001Z</time></trkpt><trkpt lat="44.3248555698268" lon="12.333335095283108"><ele>-2.0</ele><time>2026-04-06T15:37:44.001Z</time></trkpt><trkpt lat="44.3247142032277" lon="12.333429986647866"><ele>-2.0</ele><time>2026-04-06T15:37:45.001Z</time></trkpt><trkpt lat="44.324579456908005" lon="12.33352223184577"><ele>-2.0</ele><time>2026-04-06T15:37:46.001Z</time></trkpt><trkpt lat="44.3244567848939" lon="12.333596843967214"><ele>-2.0</ele><time>2026-04-06T15:37:47.001Z</time></trkpt><trkpt lat="44.3243406856175" lon="12.333673511083177"><ele>-2.0</ele><time>2026-04-06T15:37:48.001Z</time></trkpt><trkpt lat="44.324231964739695" lon="12.333734422306181"><ele>-2.0</ele><time>2026-04-06T15:37:49.001Z</time></trkpt><trkpt lat="44.324117518750825" lon="12.33378112173207"><ele>-2.0</ele><time>2026-04-06T15:37:50.001Z</time></trkpt><trkpt lat="44.32399118019466" lon="12.333852936096607"><ele>-2.0</ele><time>2026-04-06T15:37:51.001Z</time></trkpt><trkpt lat="44.323857338295895" lon="12.3339521401848"><ele>-2.0</ele><time>2026-04-06T15:37:52.001Z</time></trkpt><trkpt lat="44.32370768255461" lon="12.334075406784075"><ele>-1.6666666666666665</ele><time>2026-04-06T15:37:53.001Z</time></trkpt><trkpt lat="44.3235410428499" lon="12.33419321068249"><ele>-1.3333333333333333</ele><time>2026-04-06T15:37:54.001Z</time></trkpt><trkpt lat="44.323387470659206" lon="12.334279107168378"><ele>-1.0</ele><time>2026-04-06T15:37:55.001Z</time></trkpt><trkpt lat="44.323234215959985" lon="12.33438106495692"><ele>-1.0</ele><time>2026-04-06T15:37:56.001Z</time></trkpt><trkpt lat="44.32307854305475" lon="12.33448220003331"><ele>-1.0</ele><time>2026-04-06T15:37:57.001Z</time></trkpt><trkpt lat="44.322917245225675" lon="12.334587350212255"><ele>-1.0</ele><time>2026-04-06T15:37:58.001Z</time></trkpt><trkpt lat="44.32276622531394" lon="12.33468552309375"><ele>-0.75</ele><time>2026-04-06T15:37:59.001Z</time></trkpt><trkpt lat="44.322634026793864" lon="12.334768366477746"><ele>-0.5</ele><time>2026-04-06T15:38:00.001Z</time></trkpt><trkpt lat="44.32250695278793" lon="12.33484631402013"><ele>-0.25</ele><time>2026-04-06T15:38:01.001Z</time></trkpt><trkpt lat="44.322393717461196" lon="12.334907480644189"><ele>0.0</ele><time>2026-04-06T15:38:02.001Z</time></trkpt><trkpt lat="44.322294633765324" lon="12.334969292333815"><ele>-0.6</ele><time>2026-04-06T15:38:03.001Z</time></trkpt><trkpt lat="44.32220569519198" lon="12.335018256446762"><ele>-1.2</ele><time>2026-04-06T15:38:04.001Z</time></trkpt><trkpt lat="44.322117126677554" lon="12.335063885312312"><ele>-1.7999999999999998</ele><time>2026-04-06T15:38:05.001Z</time></trkpt><trkpt lat="44.322021836917" lon="12.335080057544136"><ele>-2.4</ele><time>2026-04-06T15:38:06.001Z</time></trkpt><trkpt lat="44.321926903396026" lon="12.335115733054028"><ele>-3.0</ele><time>2026-04-06T15:38:07.001Z</time></trkpt><trkpt lat="44.32183388056733" lon="12.335201315608574"><ele>-3.0</ele><time>2026-04-06T15:38:08.001Z</time></trkpt><trkpt lat="44.32172749983564" lon="12.335319882660588"><ele>-3.0</ele><time>2026-04-06T15:38:09.001Z</time></trkpt><trkpt lat="44.32159130380717" lon="12.33543285361226"><ele>-3.0</ele><time>2026-04-06T15:38:10.001Z</time></trkpt><trkpt lat="44.32142457168823" lon="12.335540117378493"><ele>-2.3333333333333335</ele><time>2026-04-06T15:38:11.001Z</time></trkpt><trkpt lat="44.321253989654195" lon="12.335641503138287"><ele>-1.6666666666666665</ele><time>2026-04-06T15:38:12.001Z</time></trkpt><trkpt lat="44.321094159064884" lon="12.335745156342231"><ele>-1.0</ele><time>2026-04-06T15:38:13.001Z</time></trkpt><trkpt lat="44.3209318016301" lon="12.33584878914454"><ele>-1.0</ele><time>2026-04-06T15:38:14.001Z</time></trkpt><trkpt lat="44.32076105653056" lon="12.335960218934805"><ele>-1.0</ele><time>2026-04-06T15:38:15.001Z</time></trkpt><trkpt lat="44.320585855205934" lon="12.336072667000904"><ele>-1.0</ele><time>2026-04-06T15:38:16.001Z</time></trkpt><trkpt lat="44.32040779279318" lon="12.336187673162469"><ele>-0.6666666666666666</ele><time>2026-04-06T15:38:17.001Z</time></trkpt><trkpt lat="44.320232393279774" lon="12.336310026925998"><ele>-0.3333333333333333</ele><time>2026-04-06T15:38:18.001Z</time></trkpt><trkpt lat="44.32007289580158" lon="12.336420754009175"><ele>0.0</ele><time>2026-04-06T15:38:19.001Z</time></trkpt><trkpt lat="44.31992761677795" lon="12.336519067039998"><ele>0.0</ele><time>2026-04-06T15:38:20.001Z</time></trkpt><trkpt lat="44.31978148316002" lon="12.336625144890801"><ele>0.0</ele><time>2026-04-06T15:38:21.001Z</time></trkpt><trkpt lat="44.319631354035" lon="12.33673554404344"><ele>0.0</ele><time>2026-04-06T15:38:22.001Z</time></trkpt><trkpt lat="44.31948032763944" lon="12.336849366003737"><ele>-0.3333333333333333</ele><time>2026-04-06T15:38:23.001Z</time></trkpt><trkpt lat="44.319323754788286" lon="12.336959054234683"><ele>-0.6666666666666666</ele><time>2026-04-06T15:38:24.001Z</time></trkpt><trkpt lat="44.319168908107514" lon="12.337067022955544"><ele>-1.0</ele><time>2026-04-06T15:38:25.001Z</time></trkpt><trkpt lat="44.319030035261925" lon="12.337163195806676"><ele>-1.5</ele><time>2026-04-06T15:38:26.001Z</time></trkpt><trkpt lat="44.31889092909542" lon="12.337256177975092"><ele>-2.0</ele><time>2026-04-06T15:38:27.001Z</time></trkpt><trkpt lat="44.31876831491935" lon="12.33733670660344"><ele>-2.5</ele><time>2026-04-06T15:38:28.001Z</time></trkpt><trkpt lat="44.318647982680666" lon="12.337411579641474"><ele>-3.0</ele><time>2026-04-06T15:38:29.001Z</time></trkpt><trkpt lat="44.31853209452842" lon="12.337491258619227"><ele>-3.0</ele><time>2026-04-06T15:38:30.001Z</time></trkpt><trkpt lat="44.31841666060453" lon="12.337565320213775"><ele>-3.0</ele><time>2026-04-06T15:38:31.001Z</time></trkpt><trkpt lat="44.31829757613608" lon="12.337643063174271"><ele>-3.0</ele><time>2026-04-06T15:38:32.001Z</time></trkpt><trkpt lat="44.31817115422919" lon="12.337720596942088"><ele>-3.0</ele><time>2026-04-06T15:38:33.001Z</time></trkpt><trkpt lat="44.3180447189636" lon="12.33780230947768"><ele>-3.0</ele><time>2026-04-06T15:38:34.001Z</time></trkpt><trkpt lat="44.317913492197725" lon="12.337887420294331"><ele>-3.0</ele><time>2026-04-06T15:38:35.001Z</time></trkpt><trkpt lat="44.31779264529557" lon="12.337961453830964"><ele>-3.0</ele><time>2026-04-06T15:38:36.001Z</time></trkpt><trkpt lat="44.31767385773473" lon="12.338043883962877"><ele>-3.0</ele><time>2026-04-06T15:38:37.001Z</time></trkpt><trkpt lat="44.31755895761971" lon="12.338120852538552"><ele>-2.8</ele><time>2026-04-06T15:38:38.001Z</time></trkpt><trkpt lat="44.317451810139" lon="12.33819138178769"><ele>-2.5999999999999996</ele><time>2026-04-06T15:38:39.001Z</time></trkpt><trkpt lat="44.317347177150225" lon="12.338259941478306"><ele>-2.4000000000000004</ele><time>2026-04-06T15:38:40.001Z</time></trkpt><trkpt lat="44.317248746568254" lon="12.338321966782193"><ele>-2.2</ele><time>2026-04-06T15:38:41.001Z</time></trkpt><trkpt lat="44.31715341765223" lon="12.338384208966632"><ele>-2.0</ele><time>2026-04-06T15:38:42.001Z</time></trkpt><trkpt lat="44.31705881524344" lon="12.338444398095389"><ele>-1.9999999999999998</ele><time>2026-04-06T15:38:43.001Z</time></trkpt><trkpt lat="44.31697199737319" lon="12.338498325523588"><ele>-2.0</ele><time>2026-04-06T15:38:44.001Z</time></trkpt><trkpt lat="44.31689247352713" lon="12.338545133550973"><ele>-2.0</ele><time>2026-04-06T15:38:45.001Z</time></trkpt><trkpt lat="44.31680817561916" lon="12.338581593715922"><ele>-2.0</ele><time>2026-04-06T15:38:46.001Z</time></trkpt><trkpt lat="44.316725956318294" lon="12.3385870815381"><ele>-1.9999999999999998</ele><time>2026-04-06T15:38:47.001Z</time></trkpt><trkpt lat="44.31663475030925" lon="12.338568382792149"><ele>-2.0</ele><time>2026-04-06T15:38:48.001Z</time></trkpt><trkpt lat="44.316547494966514" lon="12.338553255652682"><ele>-2.0</ele><time>2026-04-06T15:38:49.001Z</time></trkpt><trkpt lat="44.316448561821495" lon="12.338546135984"><ele>-2.0</ele><time>2026-04-06T15:38:50.001Z</time></trkpt><trkpt lat="44.316337273698046" lon="12.338529049699304"><ele>-2.0</ele><time>2026-04-06T15:38:51.001Z</time></trkpt><trkpt lat="44.316221411312185" lon="12.338498704333862"><ele>-2.0</ele><time>2026-04-06T15:38:52.001Z</time></trkpt><trkpt lat="44.31609864050139" lon="12.338454740040289"><ele>-2.25</ele><time>2026-04-06T15:38:53.001Z</time></trkpt><trkpt lat="44.3159768400015" lon="12.338405314322392"><ele>-2.5</ele><time>2026-04-06T15:38:54.001Z</time></trkpt><trkpt lat="44.31585526561903" lon="12.338351763017696"><ele>-2.75</ele><time>2026-04-06T15:38:55.001Z</time></trkpt><trkpt lat="44.31573671133021" lon="12.338297339941256"><ele>-3.0</ele><time>2026-04-06T15:38:56.001Z</time></trkpt><trkpt lat="44.31561567451841" lon="12.338241985952015"><ele>-3.25</ele><time>2026-04-06T15:38:57.001Z</time></trkpt><trkpt lat="44.315487155962" lon="12.33818420577718"><ele>-3.5</ele><time>2026-04-06T15:38:58.001Z</time></trkpt><trkpt lat="44.315355974127" lon="12.33812269668912"><ele>-3.75</ele><time>2026-04-06T15:38:59.001Z</time></trkpt><trkpt lat="44.31521846271852" lon="12.338060160675791"><ele>-4.0</ele><time>2026-04-06T15:39:00.001Z</time></trkpt><trkpt lat="44.31507771156857" lon="12.337998823196802"><ele>-4.0</ele><time>2026-04-06T15:39:01.001Z</time></trkpt><trkpt lat="44.3149362945998" lon="12.337939784006403"><ele>-4.0</ele><time>2026-04-06T15:39:02.001Z</time></trkpt><trkpt lat="44.314794478331486" lon="12.33788363969367"><ele>-4.0</ele><time>2026-04-06T15:39:03.001Z</time></trkpt><trkpt lat="44.31464308427999" lon="12.337831273557756"><ele>-3.6666666666666665</ele><time>2026-04-06T15:39:04.001Z</time></trkpt><trkpt lat="44.314485982188806" lon="12.33779024019879"><ele>-3.333333333333333</ele><time>2026-04-06T15:39:05.001Z</time></trkpt><trkpt lat="44.3143247620274" lon="12.337767049692449"><ele>-3.0</ele><time>2026-04-06T15:39:06.001Z</time></trkpt><trkpt lat="44.314161141812654" lon="12.337767477344352"><ele>-3.0</ele><time>2026-04-06T15:39:07.001Z</time></trkpt><trkpt lat="44.31399221651826" lon="12.337789894778748"><ele>-3.0</ele><time>2026-04-06T15:39:08.001Z</time></trkpt><trkpt lat="44.31382583337189" lon="12.33785441809579"><ele>-3.0</ele><time>2026-04-06T15:39:09.001Z</time></trkpt><trkpt lat="44.31369410167829" lon="12.337933021249192"><ele>-3.0</ele><time>2026-04-06T15:39:10.001Z</time></trkpt><trkpt lat="44.31358068271307" lon="12.338018357646348"><ele>-3.0</ele><time>2026-04-06T15:39:11.001Z</time></trkpt><trkpt lat="44.31348430260502" lon="12.338104909069955"><ele>-3.0</ele><time>2026-04-06T15:39:12.001Z</time></trkpt><trkpt lat="44.3133958544811" lon="12.338186548963968"><ele>-3.0</ele><time>2026-04-06T15:39:13.001Z</time></trkpt><trkpt lat="44.31330026359075" lon="12.338264769346594"><ele>-3.0</ele><time>2026-04-06T15:39:14.001Z</time></trkpt><trkpt lat="44.31320033163921" lon="12.33833082096621"><ele>-3.0</ele><time>2026-04-06T15:39:15.001Z</time></trkpt><trkpt lat="44.31310953438671" lon="12.338407654750483"><ele>-3.0</ele><time>2026-04-06T15:39:16.001Z</time></trkpt><trkpt lat="44.313047971696086" lon="12.338534275735382"><ele>-3.0</ele><time>2026-04-06T15:39:17.001Z</time></trkpt><trkpt lat="44.3129943492972" lon="12.338706452632058"><ele>-3.25</ele><time>2026-04-06T15:39:18.001Z</time></trkpt><trkpt lat="44.31292465622199" lon="12.338858794998965"><ele>-3.5</ele><time>2026-04-06T15:39:19.001Z</time></trkpt><trkpt lat="44.312841356387345" lon="12.33900090230715"><ele>-3.75</ele><time>2026-04-06T15:39:20.001Z</time></trkpt><trkpt lat="44.312749585633455" lon="12.339157825401601"><ele>-4.0</ele><time>2026-04-06T15:39:21.001Z</time></trkpt><trkpt lat="44.312655589761754" lon="12.33932794114804"><ele>-3.333333333333333</ele><time>2026-04-06T15:39:22.001Z</time></trkpt><trkpt lat="44.31255562818229" lon="12.339504998992652"><ele>-2.6666666666666665</ele><time>2026-04-06T15:39:23.001Z</time></trkpt><trkpt lat="44.31245051588668" lon="12.339694315689307"><ele>-2.0</ele><time>2026-04-06T15:39:24.001Z</time></trkpt><trkpt lat="44.312344416846926" lon="12.339885477593658"><ele>-1.3333333333333333</ele><time>2026-04-06T15:39:25.001Z</time></trkpt><trkpt lat="44.31223757313134" lon="12.340082117217397"><ele>-0.6666666666666666</ele><time>2026-04-06T15:39:26.001Z</time></trkpt><trkpt lat="44.31212908247588" lon="12.340272315439435"><ele>0.0</ele><time>2026-04-06T15:39:27.001Z</time></trkpt><trkpt lat="44.312015835755695" lon="12.340470813819124"><ele>-0.3333333333333333</ele><time>2026-04-06T15:39:28.001Z</time></trkpt><trkpt lat="44.31190498044129" lon="12.340669856259789"><ele>-0.6666666666666666</ele><time>2026-04-06T15:39:29.001Z</time></trkpt><trkpt lat="44.31179658176174" lon="12.340863876809456"><ele>-1.0</ele><time>2026-04-06T15:39:30.001Z</time></trkpt><trkpt lat="44.3116886132761" lon="12.341062573654538"><ele>-1.0</ele><time>2026-04-06T15:39:31.001Z</time></trkpt><trkpt lat="44.31157929710603" lon="12.341258171898906"><ele>-1.0</ele><time>2026-04-06T15:39:32.001Z</time></trkpt><trkpt lat="44.31147382500522" lon="12.341446338388808"><ele>-1.0</ele><time>2026-04-06T15:39:33.001Z</time></trkpt><trkpt lat="44.3113730246585" lon="12.341634075645208"><ele>-1.0</ele><time>2026-04-06T15:39:34.001Z</time></trkpt><trkpt lat="44.31127328543098" lon="12.341814829577165"><ele>-1.0</ele><time>2026-04-06T15:39:35.001Z</time></trkpt><trkpt lat="44.31117269955142" lon="12.341995837763646"><ele>-1.0</ele><time>2026-04-06T15:39:36.001Z</time></trkpt><trkpt lat="44.31108343153041" lon="12.342159455437658"><ele>-1.0</ele><time>2026-04-06T15:39:37.001Z</time></trkpt><trkpt lat="44.31100319130256" lon="12.342297172612392"><ele>-1.0</ele><time>2026-04-06T15:39:38.001Z</time></trkpt><trkpt lat="44.31093041001778" lon="12.342425694238363"><ele>-1.0</ele><time>2026-04-06T15:39:39.001Z</time></trkpt><trkpt lat="44.31085672543891" lon="12.34253976437047"><ele>-1.0</ele><time>2026-04-06T15:39:40.001Z</time></trkpt><trkpt lat="44.31078709189719" lon="12.342623267323425"><ele>-1.0</ele><time>2026-04-06T15:39:41.001Z</time></trkpt><trkpt lat="44.3107152330901" lon="12.342676322227804"><ele>-1.0</ele><time>2026-04-06T15:39:42.001Z</time></trkpt><trkpt lat="44.31063351888446" lon="12.342719539764229"><ele>-1.0</ele><time>2026-04-06T15:39:43.001Z</time></trkpt><trkpt lat="44.31057042680011" lon="12.342771450294052"><ele>-1.0</ele><time>2026-04-06T15:39:44.001Z</time></trkpt><trkpt lat="44.3105217760957" lon="12.342880552378917"><ele>-1.0</ele><time>2026-04-06T15:39:45.001Z</time></trkpt><trkpt lat="44.310471644003385" lon="12.343022760898544"><ele>-1.0</ele><time>2026-04-06T15:39:46.001Z</time></trkpt><trkpt lat="44.3103801527956" lon="12.343147993686134"><ele>-1.0</ele><time>2026-04-06T15:39:47.001Z</time></trkpt><trkpt lat="44.310250199505646" lon="12.343256049068906"><ele>-1.0</ele><time>2026-04-06T15:39:48.001Z</time></trkpt><trkpt lat="44.310127645788924" lon="12.343323428257053"><ele>-1.0</ele><time>2026-04-06T15:39:49.001Z</time></trkpt><trkpt lat="44.310014784743444" lon="12.34338022084161"><ele>-1.0</ele><time>2026-04-06T15:39:50.001Z</time></trkpt><trkpt lat="44.30988872391858" lon="12.343415943099712"><ele>-1.0</ele><time>2026-04-06T15:39:51.001Z</time></trkpt><trkpt lat="44.309759052206815" lon="12.343439731536746"><ele>-1.0</ele><time>2026-04-06T15:39:52.001Z</time></trkpt><trkpt lat="44.30963934717813" lon="12.343456836896117"><ele>-1.0</ele><time>2026-04-06T15:39:53.001Z</time></trkpt><trkpt lat="44.309510845799856" lon="12.343463740427467"><ele>-1.0</ele><time>2026-04-06T15:39:54.001Z</time></trkpt><trkpt lat="44.30937495301959" lon="12.343458738577844"><ele>-1.0</ele><time>2026-04-06T15:39:55.001Z</time></trkpt><trkpt lat="44.30924479569605" lon="12.343449718453297"><ele>-1.0</ele><time>2026-04-06T15:39:56.001Z</time></trkpt><trkpt lat="44.30912073269987" lon="12.343450531629118"><ele>-1.0</ele><time>2026-04-06T15:39:57.001Z</time></trkpt><trkpt lat="44.30899998909259" lon="12.343451060731542"><ele>-1.0</ele><time>2026-04-06T15:39:58.001Z</time></trkpt><trkpt lat="44.30887638409511" lon="12.343457881801092"><ele>-1.25</ele><time>2026-04-06T15:39:59.001Z</time></trkpt><trkpt lat="44.30874995413029" lon="12.343457394643213"><ele>-1.5</ele><time>2026-04-06T15:40:00.001Z</time></trkpt><trkpt lat="44.308629902505885" lon="12.343457534650375"><ele>-1.75</ele><time>2026-04-06T15:40:01.001Z</time></trkpt><trkpt lat="44.30852267424902" lon="12.343463243844052"><ele>-2.0</ele><time>2026-04-06T15:40:02.001Z</time></trkpt><trkpt lat="44.30842065093669" lon="12.343460338412813"><ele>-2.0</ele><time>2026-04-06T15:40:03.001Z</time></trkpt><trkpt lat="44.30832069743512" lon="12.343465310333112"><ele>-2.0</ele><time>2026-04-06T15:40:04.001Z</time></trkpt><trkpt lat="44.30821266482134" lon="12.343466349143773"><ele>-2.0</ele><time>2026-04-06T15:40:05.001Z</time></trkpt><trkpt lat="44.30810994899" lon="12.343462924956725"><ele>-2.0</ele><time>2026-04-06T15:40:06.001Z</time></trkpt><trkpt lat="44.30800005268016" lon="12.343463684939081"><ele>-2.0</ele><time>2026-04-06T15:40:07.001Z</time></trkpt><trkpt lat="44.307891748085126" lon="12.343463939587828"><ele>-1.5</ele><time>2026-04-06T15:40:08.001Z</time></trkpt><trkpt lat="44.30778019263292" lon="12.343462987976308"><ele>-1.0</ele><time>2026-04-06T15:40:09.001Z</time></trkpt><trkpt lat="44.30766516700285" lon="12.343460973083108"><ele>-0.5</ele><time>2026-04-06T15:40:10.001Z</time></trkpt><trkpt lat="44.30754528689152" lon="12.343458762184445"><ele>0.0</ele><time>2026-04-06T15:40:11.001Z</time></trkpt><trkpt lat="44.307427779611075" lon="12.343461110982604"><ele>0.0</ele><time>2026-04-06T15:40:12.001Z</time></trkpt><trkpt lat="44.30731709932666" lon="12.343464562521822"><ele>0.0</ele><time>2026-04-06T15:40:13.001Z</time></trkpt><trkpt lat="44.30720068204455" lon="12.343469665399082"><ele>0.0</ele><time>2026-04-06T15:40:14.001Z</time></trkpt><trkpt lat="44.30708587126792" lon="12.343468298463875"><ele>0.0</ele><time>2026-04-06T15:40:15.001Z</time></trkpt><trkpt lat="44.30697087689224" lon="12.343468840100261"><ele>-0.25</ele><time>2026-04-06T15:40:16.001Z</time></trkpt><trkpt lat="44.30685162794968" lon="12.343474178486838"><ele>-0.5</ele><time>2026-04-06T15:40:17.001Z</time></trkpt><trkpt lat="44.306732726577934" lon="12.343473113062226"><ele>-0.75</ele><time>2026-04-06T15:40:18.001Z</time></trkpt><trkpt lat="44.3066154928172" lon="12.343473977036972"><ele>-1.0</ele><time>2026-04-06T15:40:19.001Z</time></trkpt><trkpt lat="44.30651911617313" lon="12.343478305650402"><ele>-1.0</ele><time>2026-04-06T15:40:20.001Z</time></trkpt><trkpt lat="44.306424262476035" lon="12.343476474865673"><ele>-1.0</ele><time>2026-04-06T15:40:21.001Z</time></trkpt><trkpt lat="44.30632349357259" lon="12.343474388194627"><ele>-1.0</ele><time>2026-04-06T15:40:22.001Z</time></trkpt><trkpt lat="44.30621860025842" lon="12.343470620061973"><ele>-1.0</ele><time>2026-04-06T15:40:23.001Z</time></trkpt><trkpt lat="44.30611262350257" lon="12.343474799652016"><ele>-1.0</ele><time>2026-04-06T15:40:24.001Z</time></trkpt><trkpt lat="44.3060045278585" lon="12.343476564381508"><ele>-0.8</ele><time>2026-04-06T15:40:25.001Z</time></trkpt><trkpt lat="44.30590206681722" lon="12.343478345214672"><ele>-0.6000000000000001</ele><time>2026-04-06T15:40:26.001Z</time></trkpt><trkpt lat="44.305814607050074" lon="12.343482430048223"><ele>-0.4</ele><time>2026-04-06T15:40:27.001Z</time></trkpt><trkpt lat="44.30572534087125" lon="12.343485257969983"><ele>-0.2</ele><time>2026-04-06T15:40:28.001Z</time></trkpt><trkpt lat="44.30563417890441" lon="12.343485876418827"><ele>0.0</ele><time>2026-04-06T15:40:29.001Z</time></trkpt><trkpt lat="44.30553789911678" lon="12.343485986688892"><ele>0.2</ele><time>2026-04-06T15:40:30.001Z</time></trkpt><trkpt lat="44.305453678667796" lon="12.343485852908653"><ele>0.4</ele><time>2026-04-06T15:40:31.001Z</time></trkpt><trkpt lat="44.30535725233718" lon="12.34348151973827"><ele>0.6000000000000001</ele><time>2026-04-06T15:40:32.001Z</time></trkpt><trkpt lat="44.30526080810432" lon="12.343484326971883"><ele>0.8</ele><time>2026-04-06T15:40:33.001Z</time></trkpt><trkpt lat="44.30516305244192" lon="12.343486356235767"><ele>1.0</ele><time>2026-04-06T15:40:34.001Z</time></trkpt><trkpt lat="44.3050622765488" lon="12.343487517950052"><ele>1.0</ele><time>2026-04-06T15:40:35.001Z</time></trkpt><trkpt lat="44.30495418163953" lon="12.343484573035058"><ele>1.0</ele><time>2026-04-06T15:40:36.001Z</time></trkpt><trkpt lat="44.30484552661396" lon="12.343484396212213"><ele>1.0</ele><time>2026-04-06T15:40:37.001Z</time></trkpt><trkpt lat="44.30472539208973" lon="12.343484988236964"><ele>1.0</ele><time>2026-04-06T15:40:38.001Z</time></trkpt><trkpt lat="44.30460873365343" lon="12.343483600444575"><ele>0.75</ele><time>2026-04-06T15:40:39.001Z</time></trkpt><trkpt lat="44.30449031632839" lon="12.343485863950688"><ele>0.5</ele><time>2026-04-06T15:40:40.001Z</time></trkpt><trkpt lat="44.30436769326582" lon="12.343487451720177"><ele>0.25</ele><time>2026-04-06T15:40:41.001Z</time></trkpt><trkpt lat="44.30424786467664" lon="12.343483010077842"><ele>0.0</ele><time>2026-04-06T15:40:42.001Z</time></trkpt><trkpt lat="44.304126650350966" lon="12.34348080924516"><ele>0.0</ele><time>2026-04-06T15:40:43.001Z</time></trkpt><trkpt lat="44.30400280837026" lon="12.34347768083926"><ele>0.0</ele><time>2026-04-06T15:40:44.001Z</time></trkpt><trkpt lat="44.303891362763835" lon="12.343478274881193"><ele>0.0</ele><time>2026-04-06T15:40:45.001Z</time></trkpt><trkpt lat="44.30376887762145" lon="12.343476917788339"><ele>0.0</ele><time>2026-04-06T15:40:46.001Z</time></trkpt><trkpt lat="44.30365051746086" lon="12.343476371058978"><ele>-0.25</ele><time>2026-04-06T15:40:47.001Z</time></trkpt><trkpt lat="44.303522622316954" lon="12.343481162362476"><ele>-0.5</ele><time>2026-04-06T15:40:48.001Z</time></trkpt><trkpt lat="44.30339596136956" lon="12.343475663994042"><ele>-0.75</ele><time>2026-04-06T15:40:49.001Z</time></trkpt><trkpt lat="44.303270240635555" lon="12.343473307730084"><ele>-1.0</ele><time>2026-04-06T15:40:50.001Z</time></trkpt><trkpt lat="44.30313525188315" lon="12.343477151431477"><ele>-1.0</ele><time>2026-04-06T15:40:51.001Z</time></trkpt><trkpt lat="44.303006083416044" lon="12.343479183714033"><ele>-1.0</ele><time>2026-04-06T15:40:52.001Z</time></trkpt><trkpt lat="44.30286927543988" lon="12.343478679893659"><ele>-1.0</ele><time>2026-04-06T15:40:53.001Z</time></trkpt><trkpt lat="44.30273285236303" lon="12.343481575266235"><ele>-1.0</ele><time>2026-04-06T15:40:54.001Z</time></trkpt><trkpt lat="44.30262528093306" lon="12.343482078373613"><ele>-1.0</ele><time>2026-04-06T15:40:55.001Z</time></trkpt><trkpt lat="44.30252979616837" lon="12.343491988804676"><ele>-1.0</ele><time>2026-04-06T15:40:56.001Z</time></trkpt><trkpt lat="44.30242405859668" lon="12.343492462274074"><ele>-1.0</ele><time>2026-04-06T15:40:57.001Z</time></trkpt><trkpt lat="44.30229592828465" lon="12.343474876109394"><ele>-1.0</ele><time>2026-04-06T15:40:58.001Z</time></trkpt><trkpt lat="44.30221170964484" lon="12.343491956737523"><ele>-1.0</ele><time>2026-04-06T15:40:59.001Z</time></trkpt><trkpt lat="44.30210397586227" lon="12.343466478303819"><ele>-1.0</ele><time>2026-04-06T15:41:00.001Z</time></trkpt><trkpt lat="44.30202088336752" lon="12.343412754020619"><ele>-1.0</ele><time>2026-04-06T15:41:01.001Z</time></trkpt><trkpt lat="44.301939158978186" lon="12.343365954218234"><ele>-1.0</ele><time>2026-04-06T15:41:02.001Z</time></trkpt><trkpt lat="44.30185423211322" lon="12.343298298197572"><ele>-1.0</ele><time>2026-04-06T15:41:03.001Z</time></trkpt><trkpt lat="44.30177188637953" lon="12.343154421676513"><ele>-1.0</ele><time>2026-04-06T15:41:04.001Z</time></trkpt><trkpt lat="44.301677669531834" lon="12.343016569529539"><ele>-1.0</ele><time>2026-04-06T15:41:05.001Z</time></trkpt><trkpt lat="44.301575509920426" lon="12.342871010918973"><ele>-1.0</ele><time>2026-04-06T15:41:06.001Z</time></trkpt><trkpt lat="44.30146217077789" lon="12.342719170253238"><ele>-1.0</ele><time>2026-04-06T15:41:07.001Z</time></trkpt><trkpt lat="44.30134400315801" lon="12.342565579357206"><ele>-0.6666666666666666</ele><time>2026-04-06T15:41:08.001Z</time></trkpt><trkpt lat="44.30122136602995" lon="12.342397566510044"><ele>-0.3333333333333333</ele><time>2026-04-06T15:41:09.001Z</time></trkpt><trkpt lat="44.30108877405658" lon="12.342210775146285"><ele>0.0</ele><time>2026-04-06T15:41:10.001Z</time></trkpt><trkpt lat="44.30094844289244" lon="12.34201740863584"><ele>0.0</ele><time>2026-04-06T15:41:11.001Z</time></trkpt><trkpt lat="44.30081484931709" lon="12.341820125815463"><ele>0.0</ele><time>2026-04-06T15:41:12.001Z</time></trkpt><trkpt lat="44.30068823545424" lon="12.341638033011138"><ele>0.0</ele><time>2026-04-06T15:41:13.001Z</time></trkpt><trkpt lat="44.300570154262815" lon="12.341474710069843"><ele>0.0</ele><time>2026-04-06T15:41:14.001Z</time></trkpt><trkpt lat="44.30045586203233" lon="12.341311103274737"><ele>0.0</ele><time>2026-04-06T15:41:15.001Z</time></trkpt><trkpt lat="44.30034038720131" lon="12.341163192358861"><ele>0.0</ele><time>2026-04-06T15:41:16.001Z</time></trkpt><trkpt lat="44.30023313218342" lon="12.34103712295971"><ele>0.0</ele><time>2026-04-06T15:41:17.001Z</time></trkpt><trkpt lat="44.300132182061255" lon="12.3409302480533"><ele>0.0</ele><time>2026-04-06T15:41:18.001Z</time></trkpt><trkpt lat="44.30004316784499" lon="12.340844795963722"><ele>0.0</ele><time>2026-04-06T15:41:19.001Z</time></trkpt><trkpt lat="44.29998349860539" lon="12.340775729501349"><ele>0.0</ele><time>2026-04-06T15:41:20.001Z</time></trkpt><trkpt lat="44.299922376168276" lon="12.340698247162562"><ele>0.0</ele><time>2026-04-06T15:41:21.001Z</time></trkpt><trkpt lat="44.299873456690115" lon="12.340597066484456"><ele>0.0</ele><time>2026-04-06T15:41:22.001Z</time></trkpt><trkpt lat="44.29982550016087" lon="12.340469243432462"><ele>0.0</ele><time>2026-04-06T15:41:23.001Z</time></trkpt><trkpt lat="44.29977582340877" lon="12.340298885354246"><ele>0.0</ele><time>2026-04-06T15:41:24.001Z</time></trkpt><trkpt lat="44.29973828027075" lon="12.340145868798942"><ele>0.0</ele><time>2026-04-06T15:41:25.001Z</time></trkpt><trkpt lat="44.29969357679814" lon="12.340018712502054"><ele>0.16666666666666666</ele><time>2026-04-06T15:41:26.001Z</time></trkpt><trkpt lat="44.299646789189865" lon="12.339915381237974"><ele>0.3333333333333333</ele><time>2026-04-06T15:41:27.001Z</time></trkpt><trkpt lat="44.29958422061" lon="12.339862977589867"><ele>0.5</ele><time>2026-04-06T15:41:28.001Z</time></trkpt><trkpt lat="44.29951423046888" lon="12.339862591948167"><ele>0.6666666666666666</ele><time>2026-04-06T15:41:29.001Z</time></trkpt><trkpt lat="44.299444799432806" lon="12.339908853097134"><ele>0.8333333333333333</ele><time>2026-04-06T15:41:30.001Z</time></trkpt><trkpt lat="44.29939564859847" lon="12.339997121261279"><ele>1.0</ele><time>2026-04-06T15:41:31.001Z</time></trkpt><trkpt lat="44.299376834389115" lon="12.340117150775127"><ele>1.0</ele><time>2026-04-06T15:41:32.001Z</time></trkpt><trkpt lat="44.299383857218594" lon="12.34027193274104"><ele>1.0</ele><time>2026-04-06T15:41:33.001Z</time></trkpt><trkpt lat="44.299436001080075" lon="12.340456088981629"><ele>1.0</ele><time>2026-04-06T15:41:34.001Z</time></trkpt><trkpt lat="44.299448481852785" lon="12.340680118009285"><ele>1.0</ele><time>2026-04-06T15:41:35.001Z</time></trkpt><trkpt lat="44.29949562742326" lon="12.34089791156179"><ele>1.25</ele><time>2026-04-06T15:41:36.001Z</time></trkpt><trkpt lat="44.29953940838887" lon="12.341091397875275"><ele>1.5</ele><time>2026-04-06T15:41:37.001Z</time></trkpt><trkpt lat="44.299578066383944" lon="12.341277551058575"><ele>1.75</ele><time>2026-04-06T15:41:38.001Z</time></trkpt><trkpt lat="44.29961468954833" lon="12.341457243350607"><ele>2.0</ele><time>2026-04-06T15:41:39.001Z</time></trkpt><trkpt lat="44.29965353982253" lon="12.34163651869748"><ele>1.75</ele><time>2026-04-06T15:41:40.001Z</time></trkpt><trkpt lat="44.299692335266066" lon="12.34182025615462"><ele>1.5</ele><time>2026-04-06T15:41:41.001Z</time></trkpt><trkpt lat="44.29972406798069" lon="12.34199691270174"><ele>1.25</ele><time>2026-04-06T15:41:42.001Z</time></trkpt><trkpt lat="44.29975155599524" lon="12.342160718661479"><ele>1.0</ele><time>2026-04-06T15:41:43.001Z</time></trkpt><trkpt lat="44.299777751989616" lon="12.342308254126415"><ele>0.9999999999999999</ele><time>2026-04-06T15:41:44.001Z</time></trkpt><trkpt lat="44.29979374366506" lon="12.342437245334787"><ele>1.0</ele><time>2026-04-06T15:41:45.001Z</time></trkpt><trkpt lat="44.29980436574904" lon="12.342559252045625"><ele>1.0</ele><time>2026-04-06T15:41:46.001Z</time></trkpt><trkpt lat="44.29980205894357" lon="12.342657631009773"><ele>1.0</ele><time>2026-04-06T15:41:47.001Z</time></trkpt><trkpt lat="44.29978580181239" lon="12.342758583980146"><ele>0.9999999999999999</ele><time>2026-04-06T15:41:48.001Z</time></trkpt><trkpt lat="44.29975384094364" lon="12.342854669587096"><ele>1.0</ele><time>2026-04-06T15:41:49.001Z</time></trkpt><trkpt lat="44.29970950009222" lon="12.342945995998921"><ele>0.8</ele><time>2026-04-06T15:41:50.001Z</time></trkpt><trkpt lat="44.299648764511346" lon="12.342998322064908"><ele>0.6000000000000001</ele><time>2026-04-06T15:41:51.001Z</time></trkpt><trkpt lat="44.29957364248772" lon="12.343064037268093"><ele>0.4</ele><time>2026-04-06T15:41:52.001Z</time></trkpt><trkpt lat="44.29946348568965" lon="12.343068817436434"><ele>0.2</ele><time>2026-04-06T15:41:53.001Z</time></trkpt><trkpt lat="44.29937591230723" lon="12.343089072308832"><ele>0.0</ele><time>2026-04-06T15:41:54.001Z</time></trkpt><trkpt lat="44.29928410782196" lon="12.343113414294033"><ele>0.0</ele><time>2026-04-06T15:41:55.001Z</time></trkpt><trkpt lat="44.29918940285316" lon="12.343141438223816"><ele>0.0</ele><time>2026-04-06T15:41:56.001Z</time></trkpt><trkpt lat="44.299085376094546" lon="12.343159947031307"><ele>0.0</ele><time>2026-04-06T15:41:57.001Z</time></trkpt><trkpt lat="44.298978710954415" lon="12.343183951876346"><ele>0.0</ele><time>2026-04-06T15:41:58.001Z</time></trkpt><trkpt lat="44.29887545487083" lon="12.343208683517961"><ele>0.0</ele><time>2026-04-06T15:41:59.001Z</time></trkpt><trkpt lat="44.29878048105153" lon="12.343229035441503"><ele>0.2</ele><time>2026-04-06T15:42:00.001Z</time></trkpt><trkpt lat="44.298684979119614" lon="12.343251236462494"><ele>0.4</ele><time>2026-04-06T15:42:01.001Z</time></trkpt><trkpt lat="44.29858759764162" lon="12.343275182373057"><ele>0.6000000000000001</ele><time>2026-04-06T15:42:02.001Z</time></trkpt><trkpt lat="44.29849029036078" lon="12.343294267887632"><ele>0.8</ele><time>2026-04-06T15:42:03.001Z</time></trkpt><trkpt lat="44.298397934770506" lon="12.343312784436973"><ele>1.0</ele><time>2026-04-06T15:42:04.001Z</time></trkpt><trkpt lat="44.298311300546786" lon="12.34333418153589"><ele>1.0</ele><time>2026-04-06T15:42:05.001Z</time></trkpt><trkpt lat="44.298215318300834" lon="12.343361918379129"><ele>1.0</ele><time>2026-04-06T15:42:06.001Z</time></trkpt><trkpt lat="44.29812363808682" lon="12.343387213858442"><ele>1.0</ele><time>2026-04-06T15:42:07.001Z</time></trkpt><trkpt lat="44.29802550822643" lon="12.343408919717142"><ele>1.0</ele><time>2026-04-06T15:42:08.001Z</time></trkpt><trkpt lat="44.29792730200102" lon="12.343430819584524"><ele>1.0</ele><time>2026-04-06T15:42:09.001Z</time></trkpt><trkpt lat="44.29783638349704" lon="12.343449819017712"><ele>1.2000000000000002</ele><time>2026-04-06T15:42:10.001Z</time></trkpt><trkpt lat="44.297737764842275" lon="12.343471499791148"><ele>1.4000000000000001</ele><time>2026-04-06T15:42:11.001Z</time></trkpt><trkpt lat="44.29764730194796" lon="12.343493539511131"><ele>1.6</ele><time>2026-04-06T15:42:12.001Z</time></trkpt><trkpt lat="44.2975508384959" lon="12.34351726913078"><ele>1.8</ele><time>2026-04-06T15:42:13.001Z</time></trkpt><trkpt lat="44.297456774346884" lon="12.343537410201405"><ele>2.0</ele><time>2026-04-06T15:42:14.001Z</time></trkpt><trkpt lat="44.29736931568919" lon="12.343562012787993"><ele>2.0</ele><time>2026-04-06T15:42:15.001Z</time></trkpt><trkpt lat="44.29728057638328" lon="12.34358986697435"><ele>2.0</ele><time>2026-04-06T15:42:16.001Z</time></trkpt><trkpt lat="44.29720206262392" lon="12.343603571562717"><ele>2.0</ele><time>2026-04-06T15:42:17.001Z</time></trkpt><trkpt lat="44.297106472539" lon="12.343626270952466"><ele>2.0</ele><time>2026-04-06T15:42:18.001Z</time></trkpt><trkpt lat="44.29701329765586" lon="12.343649700819887"><ele>2.0</ele><time>2026-04-06T15:42:19.001Z</time></trkpt><trkpt lat="44.29691553577525" lon="12.34367432950199"><ele>2.2</ele><time>2026-04-06T15:42:20.001Z</time></trkpt><trkpt lat="44.29681386444377" lon="12.343696609743834"><ele>2.4000000000000004</ele><time>2026-04-06T15:42:21.001Z</time></trkpt><trkpt lat="44.29671101103181" lon="12.343720184754675"><ele>2.5999999999999996</ele><time>2026-04-06T15:42:22.001Z</time></trkpt><trkpt lat="44.296607431372394" lon="12.343741590677931"><ele>2.8</ele><time>2026-04-06T15:42:23.001Z</time></trkpt><trkpt lat="44.296511090663145" lon="12.343767844124274"><ele>3.0</ele><time>2026-04-06T15:42:24.001Z</time></trkpt><trkpt lat="44.296416011740845" lon="12.343795965959371"><ele>3.2</ele><time>2026-04-06T15:42:25.001Z</time></trkpt><trkpt lat="44.29631820472393" lon="12.343821376050027"><ele>3.4</ele><time>2026-04-06T15:42:26.001Z</time></trkpt><trkpt lat="44.296211225449056" lon="12.34384391660565"><ele>3.6000000000000005</ele><time>2026-04-06T15:42:27.001Z</time></trkpt><trkpt lat="44.296097830933086" lon="12.343864138019963"><ele>3.8000000000000003</ele><time>2026-04-06T15:42:28.001Z</time></trkpt><trkpt lat="44.29598519797493" lon="12.34388754598095"><ele>4.0</ele><time>2026-04-06T15:42:29.001Z</time></trkpt><trkpt lat="44.29587047094857" lon="12.343913574961086"><ele>4.0</ele><time>2026-04-06T15:42:30.001Z</time></trkpt><trkpt lat="44.29575384199063" lon="12.343942136954233"><ele>4.0</ele><time>2026-04-06T15:42:31.001Z</time></trkpt><trkpt lat="44.295640322681436" lon="12.343967609465441"><ele>4.0</ele><time>2026-04-06T15:42:32.001Z</time></trkpt><trkpt lat="44.295528708606454" lon="12.343985993297665"><ele>4.0</ele><time>2026-04-06T15:42:33.001Z</time></trkpt><trkpt lat="44.29542430882061" lon="12.344018572380863"><ele>4.0</ele><time>2026-04-06T15:42:34.001Z</time></trkpt><trkpt lat="44.2953199868285" lon="12.344051174047404"><ele>4.0</ele><time>2026-04-06T15:42:35.001Z</time></trkpt><trkpt lat="44.295207293400296" lon="12.344073645203897"><ele>4.0</ele><time>2026-04-06T15:42:36.001Z</time></trkpt><trkpt lat="44.29510247351029" lon="12.344096630277145"><ele>4.0</ele><time>2026-04-06T15:42:37.001Z</time></trkpt><trkpt lat="44.29498555964152" lon="12.344125651516672"><ele>4.0</ele><time>2026-04-06T15:42:38.001Z</time></trkpt><trkpt lat="44.294872002246024" lon="12.344157721012223"><ele>4.0</ele><time>2026-04-06T15:42:39.001Z</time></trkpt><trkpt lat="44.29474948477922" lon="12.34418429917866"><ele>4.0</ele><time>2026-04-06T15:42:40.001Z</time></trkpt><trkpt lat="44.29463202494679" lon="12.344216130380094"><ele>4.0</ele><time>2026-04-06T15:42:41.001Z</time></trkpt><trkpt lat="44.29452196837802" lon="12.344239821925308"><ele>4.0</ele><time>2026-04-06T15:42:42.001Z</time></trkpt><trkpt lat="44.29440759855589" lon="12.344265482224712"><ele>4.0</ele><time>2026-04-06T15:42:43.001Z</time></trkpt><trkpt lat="44.294295268568085" lon="12.344291778188202"><ele>4.0</ele><time>2026-04-06T15:42:44.001Z</time></trkpt><trkpt lat="44.29418592962407" lon="12.344314629296106"><ele>4.0</ele><time>2026-04-06T15:42:45.001Z</time></trkpt><trkpt lat="44.29408202097363" lon="12.344341433552012"><ele>4.0</ele><time>2026-04-06T15:42:46.001Z</time></trkpt><trkpt lat="44.2939837365921" lon="12.344369323635906"><ele>4.0</ele><time>2026-04-06T15:42:47.001Z</time></trkpt><trkpt lat="44.29388254713357" lon="12.344384630688996"><ele>4.0</ele><time>2026-04-06T15:42:48.001Z</time></trkpt><trkpt lat="44.293789320056064" lon="12.34440744150439"><ele>4.0</ele><time>2026-04-06T15:42:49.001Z</time></trkpt><trkpt lat="44.29369917619111" lon="12.344427050147795"><ele>4.0</ele><time>2026-04-06T15:42:50.001Z</time></trkpt><trkpt lat="44.29359849437141" lon="12.344447319953979"><ele>4.0</ele><time>2026-04-06T15:42:51.001Z</time></trkpt><trkpt lat="44.29349935858843" lon="12.344467409374275"><ele>4.0</ele><time>2026-04-06T15:42:52.001Z</time></trkpt><trkpt lat="44.293419357617495" lon="12.344499327506929"><ele>3.9999999999999996</ele><time>2026-04-06T15:42:53.001Z</time></trkpt><trkpt lat="44.293357195844216" lon="12.34451382521951"><ele>4.0</ele><time>2026-04-06T15:42:54.001Z</time></trkpt><trkpt lat="44.29328435829577" lon="12.344532163003274"><ele>4.0</ele><time>2026-04-06T15:42:56.001Z</time></trkpt><trkpt lat="44.293209155599655" lon="12.344553759495994"><ele>4.0</ele><time>2026-04-06T15:42:59.001Z</time></trkpt><trkpt lat="44.293127333195265" lon="12.344567144827872"><ele>3.9999999999999996</ele><time>2026-04-06T15:43:03.001Z</time></trkpt><trkpt lat="44.29303322584178" lon="12.344588026774336"><ele>4.0</ele><time>2026-04-06T15:43:05.001Z</time></trkpt><trkpt lat="44.2929063711109" lon="12.344600707347992"><ele>3.833333333333333</ele><time>2026-04-06T15:43:07.001Z</time></trkpt><trkpt lat="44.29283905422516" lon="12.34465058556232"><ele>3.6666666666666665</ele><time>2026-04-06T15:43:08.001Z</time></trkpt><trkpt lat="44.29276407268212" lon="12.344670531072051"><ele>3.5</ele><time>2026-04-06T15:43:09.001Z</time></trkpt><trkpt lat="44.292681877244995" lon="12.344692914781293"><ele>3.333333333333333</ele><time>2026-04-06T15:43:10.001Z</time></trkpt><trkpt lat="44.29259892294361" lon="12.344709591011972"><ele>3.1666666666666665</ele><time>2026-04-06T15:43:11.001Z</time></trkpt><trkpt lat="44.29251542850008" lon="12.344727941422109"><ele>3.0</ele><time>2026-04-06T15:43:12.001Z</time></trkpt><trkpt lat="44.292432342136536" lon="12.344754324849777"><ele>3.0</ele><time>2026-04-06T15:43:13.001Z</time></trkpt><trkpt lat="44.29235123856066" lon="12.344772087878546"><ele>3.0</ele><time>2026-04-06T15:43:14.001Z</time></trkpt><trkpt lat="44.29226878810963" lon="12.344788567768926"><ele>3.0</ele><time>2026-04-06T15:43:15.001Z</time></trkpt><trkpt lat="44.29218382743744" lon="12.344802268746989"><ele>3.0</ele><time>2026-04-06T15:43:16.001Z</time></trkpt><trkpt lat="44.29208555694886" lon="12.34483097000172"><ele>3.0</ele><time>2026-04-06T15:43:17.001Z</time></trkpt><trkpt lat="44.291993045831184" lon="12.344848995935878"><ele>3.0</ele><time>2026-04-06T15:43:18.001Z</time></trkpt><trkpt lat="44.29189695270635" lon="12.344866765813181"><ele>3.0</ele><time>2026-04-06T15:43:19.001Z</time></trkpt><trkpt lat="44.29180889997506" lon="12.344887159843502"><ele>3.0</ele><time>2026-04-06T15:43:20.001Z</time></trkpt><trkpt lat="44.29172775003583" lon="12.344905406346294"><ele>3.0</ele><time>2026-04-06T15:43:21.001Z</time></trkpt><trkpt lat="44.291637524060484" lon="12.344928591957917"><ele>3.0</ele><time>2026-04-06T15:43:22.001Z</time></trkpt><trkpt lat="44.29154072535938" lon="12.344946902974826"><ele>3.0</ele><time>2026-04-06T15:43:23.001Z</time></trkpt><trkpt lat="44.291453866012134" lon="12.344965046741791"><ele>3.0</ele><time>2026-04-06T15:43:24.001Z</time></trkpt><trkpt lat="44.291366440756825" lon="12.344986579732677"><ele>3.1666666666666665</ele><time>2026-04-06T15:43:25.001Z</time></trkpt><trkpt lat="44.2912877484153" lon="12.345003308708616"><ele>3.333333333333333</ele><time>2026-04-06T15:43:26.001Z</time></trkpt><trkpt lat="44.291213782758646" lon="12.34502432780787"><ele>3.5</ele><time>2026-04-06T15:43:27.001Z</time></trkpt><trkpt lat="44.291137808021915" lon="12.34504456209268"><ele>3.6666666666666665</ele><time>2026-04-06T15:43:28.001Z</time></trkpt><trkpt lat="44.29106250412113" lon="12.345072997148673"><ele>3.833333333333333</ele><time>2026-04-06T15:43:29.001Z</time></trkpt><trkpt lat="44.29098942164842" lon="12.3450803258087"><ele>4.0</ele><time>2026-04-06T15:43:30.001Z</time></trkpt><trkpt lat="44.29091845117802" lon="12.345098512510095"><ele>3.9999999999999996</ele><time>2026-04-06T15:43:31.001Z</time></trkpt><trkpt lat="44.290847983814785" lon="12.345118570560663"><ele>4.0</ele><time>2026-04-06T15:43:32.001Z</time></trkpt><trkpt lat="44.2907778208599" lon="12.345133708899716"><ele>4.0</ele><time>2026-04-06T15:43:33.001Z</time></trkpt><trkpt lat="44.29064617617475" lon="12.345159777485948"><ele>4.0</ele><time>2026-04-06T15:43:35.001Z</time></trkpt><trkpt lat="44.29057563474127" lon="12.345173365890812"><ele>3.9999999999999996</ele><time>2026-04-06T15:43:36.001Z</time></trkpt><trkpt lat="44.29050509254234" lon="12.3451959019931"><ele>4.0</ele><time>2026-04-06T15:43:37.001Z</time></trkpt><trkpt lat="44.29042629224886" lon="12.345214060978652"><ele>4.2</ele><time>2026-04-06T15:43:38.001Z</time></trkpt><trkpt lat="44.290345116328815" lon="12.345233953612187"><ele>4.4</ele><time>2026-04-06T15:43:39.001Z</time></trkpt><trkpt lat="44.290261506232824" lon="12.34525054662007"><ele>4.6</ele><time>2026-04-06T15:43:40.001Z</time></trkpt><trkpt lat="44.29017898037051" lon="12.345262946440062"><ele>4.8</ele><time>2026-04-06T15:43:41.001Z</time></trkpt><trkpt lat="44.290085586847376" lon="12.345290807586228"><ele>5.0</ele><time>2026-04-06T15:43:42.001Z</time></trkpt><trkpt lat="44.289983092502126" lon="12.345326551146051"><ele>5.0</ele><time>2026-04-06T15:43:43.001Z</time></trkpt><trkpt lat="44.28988873727406" lon="12.345351966636045"><ele>5.0</ele><time>2026-04-06T15:43:44.001Z</time></trkpt><trkpt lat="44.28980304013894" lon="12.345366415575077"><ele>5.0</ele><time>2026-04-06T15:43:45.001Z</time></trkpt><trkpt lat="44.289718291305796" lon="12.345380773346433"><ele>5.0</ele><time>2026-04-06T15:43:46.001Z</time></trkpt><trkpt lat="44.28964030638524" lon="12.34540200249006"><ele>5.0</ele><time>2026-04-06T15:43:47.001Z</time></trkpt><trkpt lat="44.289563549895284" lon="12.345423881900347"><ele>5.0</ele><time>2026-04-06T15:43:48.001Z</time></trkpt><trkpt lat="44.28948633319878" lon="12.345442982256449"><ele>4.833333333333334</ele><time>2026-04-06T15:43:49.001Z</time></trkpt><trkpt lat="44.289409921878885" lon="12.345460799050713"><ele>4.666666666666667</ele><time>2026-04-06T15:43:50.001Z</time></trkpt><trkpt lat="44.28933014031883" lon="12.345478082403387"><ele>4.5</ele><time>2026-04-06T15:43:51.001Z</time></trkpt><trkpt lat="44.28925172819156" lon="12.345498088488402"><ele>4.333333333333333</ele><time>2026-04-06T15:43:52.001Z</time></trkpt><trkpt lat="44.28917812085537" lon="12.34551681215096"><ele>4.166666666666666</ele><time>2026-04-06T15:43:53.001Z</time></trkpt><trkpt lat="44.2891144975033" lon="12.345530533146412"><ele>4.0</ele><time>2026-04-06T15:43:54.001Z</time></trkpt><trkpt lat="44.28900818210819" lon="12.345552845290342"><ele>4.0</ele><time>2026-04-06T15:43:56.001Z</time></trkpt><trkpt lat="44.28894388286505" lon="12.345561949535234"><ele>4.0</ele><time>2026-04-06T15:43:57.001Z</time></trkpt><trkpt lat="44.288864681992436" lon="12.345586058585537"><ele>4.0</ele><time>2026-04-06T15:43:58.001Z</time></trkpt><trkpt lat="44.28876350595925" lon="12.345605079880864"><ele>4.0</ele><time>2026-04-06T15:43:59.001Z</time></trkpt><trkpt lat="44.28865387780534" lon="12.345624840186977"><ele>4.0</ele><time>2026-04-06T15:44:00.001Z</time></trkpt><trkpt lat="44.28854699386231" lon="12.345646076012786"><ele>4.0</ele><time>2026-04-06T15:44:01.001Z</time></trkpt><trkpt lat="44.288435577101204" lon="12.34567219027142"><ele>4.0</ele><time>2026-04-06T15:44:02.001Z</time></trkpt><trkpt lat="44.28832909110976" lon="12.345697807004372"><ele>4.0</ele><time>2026-04-06T15:44:03.001Z</time></trkpt><trkpt lat="44.28823481147348" lon="12.34572343570931"><ele>4.0</ele><time>2026-04-06T15:44:04.001Z</time></trkpt><trkpt lat="44.28814266404527" lon="12.345747942916114"><ele>4.0</ele><time>2026-04-06T15:44:05.001Z</time></trkpt><trkpt lat="44.288061646612014" lon="12.34576532329573"><ele>3.9999999999999996</ele><time>2026-04-06T15:44:06.001Z</time></trkpt><trkpt lat="44.28799116415981" lon="12.34578486500944"><ele>4.0</ele><time>2026-04-06T15:44:07.001Z</time></trkpt><trkpt lat="44.287929675073066" lon="12.345804315939377"><ele>4.0</ele><time>2026-04-06T15:44:08.001Z</time></trkpt><trkpt lat="44.2878654005082" lon="12.345816978704056"><ele>4.0</ele><time>2026-04-06T15:44:09.001Z</time></trkpt><trkpt lat="44.28775177086431" lon="12.345844610456545"><ele>3.9999999999999996</ele><time>2026-04-06T15:44:11.001Z</time></trkpt><trkpt lat="44.287642699843175" lon="12.345869773605102"><ele>4.0</ele><time>2026-04-06T15:44:13.001Z</time></trkpt><trkpt lat="44.28754160616422" lon="12.345894649501412"><ele>4.0</ele><time>2026-04-06T15:44:15.001Z</time></trkpt><trkpt lat="44.2874369271645" lon="12.345920471865822"><ele>4.0</ele><time>2026-04-06T15:44:17.001Z</time></trkpt><trkpt lat="44.28731827272973" lon="12.345947134511265"><ele>4.0</ele><time>2026-04-06T15:44:19.001Z</time></trkpt><trkpt lat="44.28720523424229" lon="12.345966375445087"><ele>4.0</ele><time>2026-04-06T15:44:21.001Z</time></trkpt><trkpt lat="44.28710063448633" lon="12.345991369458343"><ele>4.0</ele><time>2026-04-06T15:44:23.001Z</time></trkpt><trkpt lat="44.28698539825717" lon="12.346017069037055"><ele>3.9999999999999996</ele><time>2026-04-06T15:44:25.001Z</time></trkpt><trkpt lat="44.28692215454783" lon="12.346032498246617"><ele>4.0</ele><time>2026-04-06T15:44:26.001Z</time></trkpt><trkpt lat="44.28685874305317" lon="12.34604891623612"><ele>4.0</ele><time>2026-04-06T15:44:27.001Z</time></trkpt><trkpt lat="44.28679169003819" lon="12.346062360967343"><ele>4.0</ele><time>2026-04-06T15:44:28.001Z</time></trkpt><trkpt lat="44.28672841804388" lon="12.34607432444435"><ele>3.9999999999999996</ele><time>2026-04-06T15:44:29.001Z</time></trkpt><trkpt lat="44.28661245987714" lon="12.346103730137065"><ele>4.0</ele><time>2026-04-06T15:44:31.001Z</time></trkpt><trkpt lat="44.28651456953017" lon="12.346129900383096"><ele>4.0</ele><time>2026-04-06T15:44:33.001Z</time></trkpt><trkpt lat="44.286444738333714" lon="12.3461487891754"><ele>3.9999999999999996</ele><time>2026-04-06T15:44:35.001Z</time></trkpt><trkpt lat="44.28637453537049" lon="12.346165808397913"><ele>4.0</ele><time>2026-04-06T15:44:37.001Z</time></trkpt><trkpt lat="44.28631031679315" lon="12.346178890435484"><ele>4.0</ele><time>2026-04-06T15:44:39.001Z</time></trkpt><trkpt lat="44.28622002201563" lon="12.346198375718782"><ele>3.9999999999999996</ele><time>2026-04-06T15:44:42.001Z</time></trkpt><trkpt lat="44.286158415473906" lon="12.346216509919374"><ele>4.0</ele><time>2026-04-06T15:44:47.001Z</time></trkpt><trkpt lat="44.28607742687116" lon="12.34623648445412"><ele>4.0</ele><time>2026-04-06T15:44:50.001Z</time></trkpt><trkpt lat="44.28599243787569" lon="12.346253820461174"><ele>3.9999999999999996</ele><time>2026-04-06T15:44:53.001Z</time></trkpt><trkpt lat="44.28591261462666" lon="12.346271537824117"><ele>4.0</ele><time>2026-04-06T15:44:55.001Z</time></trkpt><trkpt lat="44.28582719099563" lon="12.346292335476106"><ele>4.0</ele><time>2026-04-06T15:44:57.001Z</time></trkpt><trkpt lat="44.28575771596224" lon="12.346313167641355"><ele>4.0</ele><time>2026-04-06T15:44:59.001Z</time></trkpt><trkpt lat="44.285685637914355" lon="12.346339342853607"><ele>3.9999999999999996</ele><time>2026-04-06T15:45:03.001Z</time></trkpt><trkpt lat="44.28561139656326" lon="12.346350141651406"><ele>4.0</ele><time>2026-04-06T15:45:07.001Z</time></trkpt><trkpt lat="44.28552721667684" lon="12.346370058306144"><ele>3.833333333333333</ele><time>2026-04-06T15:45:11.001Z</time></trkpt><trkpt lat="44.28545799072106" lon="12.34638917365233"><ele>3.6666666666666665</ele><time>2026-04-06T15:45:15.001Z</time></trkpt><trkpt lat="44.28537848666071" lon="12.346410940500068"><ele>3.5</ele><time>2026-04-06T15:45:36.001Z</time></trkpt><trkpt lat="44.28530869900053" lon="12.346428313949486"><ele>3.333333333333333</ele><time>2026-04-06T15:45:39.001Z</time></trkpt><trkpt lat="44.28524468574791" lon="12.346442020057374"><ele>3.1666666666666665</ele><time>2026-04-06T15:45:42.001Z</time></trkpt><trkpt lat="44.2851654314908" lon="12.34646453979446"><ele>3.0</ele><time>2026-04-06T15:45:45.001Z</time></trkpt><trkpt lat="44.28508416360818" lon="12.346494364742728"><ele>3.0</ele><time>2026-04-06T15:45:47.001Z</time></trkpt><trkpt lat="44.284969981142396" lon="12.34649885513865"><ele>3.0</ele><time>2026-04-06T15:45:49.001Z</time></trkpt><trkpt lat="44.2848752407103" lon="12.346540853250392"><ele>3.0</ele><time>2026-04-06T15:45:51.001Z</time></trkpt><trkpt lat="44.28479526283991" lon="12.346547841102879"><ele>3.0</ele><time>2026-04-06T15:45:54.001Z</time></trkpt><trkpt lat="44.28472861335439" lon="12.346566850840816"><ele>3.0</ele><time>2026-04-06T15:45:57.001Z</time></trkpt><trkpt lat="44.28466377319982" lon="12.346584217570607"><ele>3.0</ele><time>2026-04-06T15:46:01.001Z</time></trkpt><trkpt lat="44.28459830005552" lon="12.346597114690965"><ele>3.1428571428571423</ele><time>2026-04-06T15:46:04.001Z</time></trkpt><trkpt lat="44.28453478816097" lon="12.34660755917451"><ele>3.2857142857142856</ele><time>2026-04-06T15:46:07.001Z</time></trkpt><trkpt lat="44.28446908973171" lon="12.346619009670645"><ele>3.4285714285714284</ele><time>2026-04-06T15:46:09.001Z</time></trkpt><trkpt lat="44.28438385983786" lon="12.34664318923723"><ele>3.571428571428571</ele><time>2026-04-06T15:46:12.001Z</time></trkpt><trkpt lat="44.28431785662862" lon="12.34665612082203"><ele>3.714285714285714</ele><time>2026-04-06T15:46:15.001Z</time></trkpt><trkpt lat="44.28424058735069" lon="12.346669449885384"><ele>3.8571428571428568</ele><time>2026-04-06T15:46:19.001Z</time></trkpt><trkpt lat="44.28417438478965" lon="12.34668000553095"><ele>4.0</ele><time>2026-04-06T15:46:22.001Z</time></trkpt><trkpt lat="44.284102778584995" lon="12.34670349035311"><ele>3.9999999999999996</ele><time>2026-04-06T15:46:26.001Z</time></trkpt><trkpt lat="44.28402747676235" lon="12.34673429282465"><ele>4.0</ele><time>2026-04-06T15:46:28.001Z</time></trkpt><trkpt lat="44.283944000000396" lon="12.346751498130763"><ele>4.0</ele><time>2026-04-06T15:46:30.001Z</time></trkpt><trkpt lat="44.28386825513399" lon="12.346767320476049"><ele>4.0</ele><time>2026-04-06T15:46:32.001Z</time></trkpt><trkpt lat="44.2837876930033" lon="12.346788574724018"><ele>3.9999999999999996</ele><time>2026-04-06T15:46:35.001Z</time></trkpt><trkpt lat="44.28372486883225" lon="12.346799503494369"><ele>4.0</ele><time>2026-04-06T15:46:38.001Z</time></trkpt><trkpt lat="44.283643028561215" lon="12.346799021563145"><ele>3.9999999999999996</ele><time>2026-04-06T15:46:43.001Z</time></trkpt><trkpt lat="44.28357115575803" lon="12.346815706723687"><ele>4.0</ele><time>2026-04-06T15:46:45.001Z</time></trkpt><trkpt lat="44.28349217703403" lon="12.34683404177968"><ele>4.0</ele><time>2026-04-06T15:46:48.001Z</time></trkpt><trkpt lat="44.283427306602" lon="12.346848909619755"><ele>4.0</ele><time>2026-04-06T15:46:56.001Z</time></trkpt><trkpt lat="44.28335429596766" lon="12.346865735403512"><ele>3.9999999999999996</ele><time>2026-04-06T15:47:01.001Z</time></trkpt><trkpt lat="44.28328997801966" lon="12.346880557897666"><ele>4.0</ele><time>2026-04-06T15:47:04.001Z</time></trkpt><trkpt lat="44.28319954580533" lon="12.346901685917512"><ele>3.9999999999999996</ele><time>2026-04-06T15:47:15.001Z</time></trkpt><trkpt lat="44.28310991095603" lon="12.346923560427559"><ele>4.0</ele><time>2026-04-06T15:47:17.001Z</time></trkpt><trkpt lat="44.28302797248168" lon="12.346943556698259"><ele>4.0</ele><time>2026-04-06T15:47:19.001Z</time></trkpt><trkpt lat="44.2829586020289" lon="12.346980791606844"><ele>4.0</ele><time>2026-04-06T15:47:22.001Z</time></trkpt><trkpt lat="44.282881166229146" lon="12.346979378035895"><ele>3.9999999999999996</ele><time>2026-04-06T15:47:39.001Z</time></trkpt><trkpt lat="44.28281382841823" lon="12.34701768243971"><ele>4.0</ele><time>2026-04-06T15:47:41.001Z</time></trkpt><trkpt lat="44.282748945132376" lon="12.347033133023668"><ele>3.6666666666666665</ele><time>2026-04-06T15:47:44.001Z</time></trkpt><trkpt lat="44.28268080932088" lon="12.347040164265696"><ele>3.333333333333333</ele><time>2026-04-06T15:47:48.001Z</time></trkpt><trkpt lat="44.28260655740718" lon="12.347057174178032"><ele>3.0</ele><time>2026-04-06T15:47:52.001Z</time></trkpt><trkpt lat="44.28252028527986" lon="12.34708507653832"><ele>2.6666666666666665</ele><time>2026-04-06T15:48:06.001Z</time></trkpt><trkpt lat="44.28244856269323" lon="12.34709731306616"><ele>2.333333333333333</ele><time>2026-04-06T15:48:09.001Z</time></trkpt><trkpt lat="44.28236985896209" lon="12.347118045141617"><ele>2.0</ele><time>2026-04-06T15:48:17.001Z</time></trkpt><trkpt lat="44.28229557167232" lon="12.347129021924703"><ele>1.9999999999999998</ele><time>2026-04-06T15:48:21.001Z</time></trkpt><trkpt lat="44.28222354850758" lon="12.347145718726546"><ele>2.0</ele><time>2026-04-06T15:48:25.001Z</time></trkpt><trkpt lat="44.282154666531575" lon="12.347164071365299"><ele>2.0</ele><time>2026-04-06T15:48:40.001Z</time></trkpt><trkpt lat="44.28207673260636" lon="12.347183235418463"><ele>2.0</ele><time>2026-04-06T15:48:44.001Z</time></trkpt><trkpt lat="44.2820049040549" lon="12.347183457985436"><ele>1.9999999999999998</ele><time>2026-04-06T15:48:50.001Z</time></trkpt><trkpt lat="44.2819793252911" lon="12.347346033045685"><ele>2.0</ele><time>2026-04-06T15:48:54.001Z</time></trkpt><trkpt lat="44.281977497978026" lon="12.347437180093463"><ele>2.2</ele><time>2026-04-06T15:48:56.001Z</time></trkpt><trkpt lat="44.28202737571633" lon="12.347538643668951"><ele>2.4000000000000004</ele><time>2026-04-06T15:49:58.001Z</time></trkpt><trkpt lat="44.28203743204597" lon="12.347693789221251"><ele>2.5999999999999996</ele><time>2026-04-06T15:50:01.001Z</time></trkpt><trkpt lat="44.28205988559631" lon="12.347883162949179"><ele>2.8</ele><time>2026-04-06T15:50:03.001Z</time></trkpt><trkpt lat="44.28208549871955" lon="12.347998611003927"><ele>3.0</ele><time>2026-04-06T15:50:04.001Z</time></trkpt><trkpt lat="44.2820977267964" lon="12.348112658324485"><ele>2.9999999999999996</ele><time>2026-04-06T15:50:05.001Z</time></trkpt><trkpt lat="44.28211034972842" lon="12.34821408236479"><ele>3.0</ele><time>2026-04-06T15:50:06Z</time></trkpt><trkpt lat="44.282124406235724" lon="12.348318927538674"><ele>3.0</ele><time>2026-04-06T15:50:07Z</time></trkpt><trkpt lat="44.28213730063432" lon="12.348422244351267"><ele>3.0</ele><time>2026-04-06T15:50:08Z</time></trkpt><trkpt lat="44.282149102851214" lon="12.34852236738688"><ele>3.0</ele><time>2026-04-06T15:50:09Z</time></trkpt><trkpt lat="44.28215861560789" lon="12.348618887129126"><ele>2.9999999999999996</ele><time>2026-04-06T15:50:10Z</time></trkpt><trkpt lat="44.282172231910785" lon="12.348712684241884"><ele>3.0</ele><time>2026-04-06T15:50:11Z</time></trkpt><trkpt lat="44.2821833692061" lon="12.34881272349596"><ele>3.0</ele><time>2026-04-06T15:50:12Z</time></trkpt><trkpt lat="44.28219708757366" lon="12.348925431995148"><ele>3.0</ele><time>2026-04-06T15:50:13Z</time></trkpt><trkpt lat="44.282206821664374" lon="12.349022205515674"><ele>3.0</ele><time>2026-04-06T15:50:14Z</time></trkpt><trkpt lat="44.2822272385381" lon="12.349178505287165"><ele>3.0</ele><time>2026-04-06T15:50:16.001Z</time></trkpt><trkpt lat="44.282231960908206" lon="12.349266710626193"><ele>3.0</ele><time>2026-04-06T15:50:18.001Z</time></trkpt><trkpt lat="44.282239613631205" lon="12.349355454140637"><ele>3.0</ele><time>2026-04-06T15:50:26.001Z</time></trkpt><trkpt lat="44.282370846177876" lon="12.349314557703561"><ele>3.0</ele><time>2026-04-06T15:50:27.001Z</time></trkpt><trkpt lat="44.282449598514575" lon="12.349266397209131"><ele>3.0</ele><time>2026-04-06T15:50:28.001Z</time></trkpt><trkpt lat="44.28253171457176" lon="12.349239083615906"><ele>3.0</ele><time>2026-04-06T15:50:29.001Z</time></trkpt><trkpt lat="44.28260285909655" lon="12.349212332414027"><ele>3.0</ele><time>2026-04-06T15:50:30.001Z</time></trkpt><trkpt lat="44.282702898893426" lon="12.349164283323917"><ele>3.0</ele><time>2026-04-06T15:50:32.001Z</time></trkpt><trkpt lat="44.28278981384678" lon="12.349133828851286"><ele>3.0</ele><time>2026-04-06T15:50:34.001Z</time></trkpt><trkpt lat="44.28287822379392" lon="12.349155249317883"><ele>3.0</ele><time>2026-04-06T15:50:36.001Z</time></trkpt><trkpt lat="44.282940848116155" lon="12.349192539620493"><ele>3.0</ele><time>2026-04-06T15:50:37.001Z</time></trkpt><trkpt lat="44.28307143478648" lon="12.349268249383451"><ele>3.0</ele><time>2026-04-06T15:50:39.001Z</time></trkpt><trkpt lat="44.28314183673919" lon="12.34923129181597"><ele>3.0</ele><time>2026-04-06T15:50:40.001Z</time></trkpt><trkpt lat="44.28318060409512" lon="12.349144180012662"><ele>3.0</ele><time>2026-04-06T15:50:41.001Z</time></trkpt><trkpt lat="44.28320947220141" lon="12.348988413212375"><ele>3.5999999999999996</ele><time>2026-04-06T15:50:43.001Z</time></trkpt><trkpt lat="44.28320600392167" lon="12.348850969115894"><ele>4.199999999999999</ele><time>2026-04-06T15:50:45.001Z</time></trkpt><trkpt lat="44.28311792152086" lon="12.34879890388502"><ele>4.8</ele><time>2026-04-06T15:50:46.001Z</time></trkpt><trkpt lat="44.283027778423566" lon="12.34868419806165"><ele>5.3999999999999995</ele><time>2026-04-06T15:50:48.001Z</time></trkpt><trkpt lat="44.283000598457264" lon="12.348600763919917"><ele>6.0</ele><time>2026-04-06T15:50:49.001Z</time></trkpt><trkpt lat="44.28299056853989" lon="12.348499482801234"><ele>6.0</ele><time>2026-04-06T15:50:50.001Z</time></trkpt><trkpt lat="44.28298140039819" lon="12.348376416471051"><ele>6.0</ele><time>2026-04-06T15:50:51.001Z</time></trkpt><trkpt lat="44.282965611810006" lon="12.348245609582118"><ele>6.0</ele><time>2026-04-06T15:50:52.001Z</time></trkpt><trkpt lat="44.282947754847314" lon="12.348115244172819"><ele>6.0</ele><time>2026-04-06T15:50:53.001Z</time></trkpt><trkpt lat="44.28293316520314" lon="12.348003051824607"><ele>6.0</ele><time>2026-04-06T15:50:54.001Z</time></trkpt><trkpt lat="44.282919193126304" lon="12.347903021941633"><ele>6.0</ele><time>2026-04-06T15:50:55.001Z</time></trkpt><trkpt lat="44.28290715871034" lon="12.347808640119503"><ele>5.666666666666667</ele><time>2026-04-06T15:50:56.001Z</time></trkpt><trkpt lat="44.28288639038703" lon="12.347656608509396"><ele>5.333333333333333</ele><time>2026-04-06T15:50:58.001Z</time></trkpt><trkpt lat="44.28287478862405" lon="12.34755766153111"><ele>5.0</ele><time>2026-04-06T15:51:00.001Z</time></trkpt><trkpt lat="44.28285174581599" lon="12.34743905520859"><ele>4.666666666666666</ele><time>2026-04-06T15:51:03Z</time></trkpt><trkpt lat="44.282837769984255" lon="12.347331835134467"><ele>4.333333333333333</ele><time>2026-04-06T15:51:08Z</time></trkpt><trkpt lat="44.282830168034025" lon="12.347235323584224"><ele>4.0</ele><time>2026-04-06T15:51:11Z</time></trkpt><trkpt lat="44.28281391191015" lon="12.347150095468697"><ele>3.6</ele><time>2026-04-06T15:51:19Z</time></trkpt><trkpt lat="44.282785267841" lon="12.347050821076492"><ele>3.2</ele><time>2026-04-06T15:51:31Z</time></trkpt><trkpt lat="44.28260471473338" lon="12.347054657970034"><ele>2.8000000000000003</ele><time>2026-04-06T15:51:43Z</time></trkpt><trkpt lat="44.2825430990985" lon="12.347078552410663"><ele>2.4000000000000004</ele><time>2026-04-06T15:51:52Z</time></trkpt><trkpt lat="44.28248006761022" lon="12.347073457126776"><ele>2.0</ele><time>2026-04-06T15:52:01Z</time></trkpt><trkpt lat="44.28241090738367" lon="12.347105763213486"><ele>2.0</ele><time>2026-04-06T15:52:07Z</time></trkpt></trkseg></trk></gpx>